<?xml version="1.0" encoding="UTF-8" standalone="no" ?>
<gpx xmlns="http://www.topografix.com/GPX/1/1" xmlns:xsi="http://www.w3.org/2001/XMLSchema-instance" xsi:schemaLocation="http://www.topografix.com/GPX/1/1 http://www.topografix.com/GPX/1/1/gpx.xsd" version="1.1" creator="VisuGPX - https://www.visugpx.com">
  <metadata>
    <name>Lamalou</name>
    <desc><![CDATA[Petit boucle exigeante au dessus de Lamalou.]]></desc>
  </metadata>
  <trk>
    <name><![CDATA[Lamalou]]></name>
    <trkseg>
      <trkpt lat="43.59384" lon="3.08363">
        <ele>183.8000031</ele>
        <time>2013-08-10T06:07:44Z</time>
      </trkpt>
      <trkpt lat="43.59384" lon="3.08361">
        <ele>183.8000031</ele>
        <time>2013-08-10T06:07:45Z</time>
      </trkpt>
      <trkpt lat="43.59385" lon="3.08356">
        <ele>183.8000031</ele>
        <time>2013-08-10T06:07:47Z</time>
      </trkpt>
      <trkpt lat="43.59386" lon="3.08354">
        <ele>182.3999939</ele>
        <time>2013-08-10T06:07:48Z</time>
      </trkpt>
      <trkpt lat="43.59387" lon="3.08351">
        <ele>183</ele>
        <time>2013-08-10T06:07:49Z</time>
      </trkpt>
      <trkpt lat="43.59388" lon="3.08348">
        <ele>183.3999939</ele>
        <time>2013-08-10T06:07:50Z</time>
      </trkpt>
      <trkpt lat="43.59388" lon="3.08345">
        <ele>183.8000031</ele>
        <time>2013-08-10T06:07:51Z</time>
      </trkpt>
      <trkpt lat="43.59389" lon="3.08342">
        <ele>184.1999969</ele>
        <time>2013-08-10T06:07:52Z</time>
      </trkpt>
      <trkpt lat="43.59389" lon="3.08339">
        <ele>184.6000061</ele>
        <time>2013-08-10T06:07:53Z</time>
      </trkpt>
      <trkpt lat="43.59392" lon="3.08325">
        <ele>184.6000061</ele>
        <time>2013-08-10T06:07:59Z</time>
      </trkpt>
      <trkpt lat="43.5938" lon="3.08319">
        <ele>184.6000061</ele>
        <time>2013-08-10T06:08:03Z</time>
      </trkpt>
      <trkpt lat="43.59375" lon="3.08313">
        <ele>184.6000061</ele>
        <time>2013-08-10T06:08:05Z</time>
      </trkpt>
      <trkpt lat="43.59375" lon="3.08308">
        <ele>184.6000061</ele>
        <time>2013-08-10T06:08:06Z</time>
      </trkpt>
      <trkpt lat="43.59374" lon="3.08296">
        <ele>184.6000061</ele>
        <time>2013-08-10T06:08:09Z</time>
      </trkpt>
      <trkpt lat="43.59374" lon="3.08289">
        <ele>184.6000061</ele>
        <time>2013-08-10T06:08:11Z</time>
      </trkpt>
      <trkpt lat="43.59375" lon="3.08276">
        <ele>184.6000061</ele>
        <time>2013-08-10T06:08:14Z</time>
      </trkpt>
      <trkpt lat="43.59375" lon="3.08269">
        <ele>184.6000061</ele>
        <time>2013-08-10T06:08:16Z</time>
      </trkpt>
      <trkpt lat="43.59375" lon="3.08266">
        <ele>184.6000061</ele>
        <time>2013-08-10T06:08:17Z</time>
      </trkpt>
      <trkpt lat="43.59375" lon="3.08263">
        <ele>185</ele>
        <time>2013-08-10T06:08:18Z</time>
      </trkpt>
      <trkpt lat="43.59376" lon="3.08261">
        <ele>185.3999939</ele>
        <time>2013-08-10T06:08:19Z</time>
      </trkpt>
      <trkpt lat="43.59377" lon="3.08259">
        <ele>185.8000031</ele>
        <time>2013-08-10T06:08:20Z</time>
      </trkpt>
      <trkpt lat="43.59378" lon="3.08256">
        <ele>186.1999969</ele>
        <time>2013-08-10T06:08:21Z</time>
      </trkpt>
      <trkpt lat="43.59378" lon="3.08253">
        <ele>186.6000061</ele>
        <time>2013-08-10T06:08:22Z</time>
      </trkpt>
      <trkpt lat="43.59379" lon="3.0825">
        <ele>186.6000061</ele>
        <time>2013-08-10T06:08:23Z</time>
      </trkpt>
      <trkpt lat="43.5938" lon="3.08245">
        <ele>186.6000061</ele>
        <time>2013-08-10T06:08:25Z</time>
      </trkpt>
      <trkpt lat="43.59383" lon="3.08236">
        <ele>186.6000061</ele>
        <time>2013-08-10T06:08:28Z</time>
      </trkpt>
      <trkpt lat="43.59385" lon="3.08234">
        <ele>186.6000061</ele>
        <time>2013-08-10T06:08:29Z</time>
      </trkpt>
      <trkpt lat="43.59398" lon="3.08232">
        <ele>186.6000061</ele>
        <time>2013-08-10T06:08:34Z</time>
      </trkpt>
      <trkpt lat="43.59401" lon="3.08231">
        <ele>187</ele>
        <time>2013-08-10T06:08:35Z</time>
      </trkpt>
      <trkpt lat="43.59404" lon="3.08231">
        <ele>187.3999939</ele>
        <time>2013-08-10T06:08:36Z</time>
      </trkpt>
      <trkpt lat="43.59408" lon="3.0823">
        <ele>187.8000031</ele>
        <time>2013-08-10T06:08:37Z</time>
      </trkpt>
      <trkpt lat="43.59411" lon="3.0823">
        <ele>188.1999969</ele>
        <time>2013-08-10T06:08:38Z</time>
      </trkpt>
      <trkpt lat="43.59414" lon="3.0823">
        <ele>188.6000061</ele>
        <time>2013-08-10T06:08:39Z</time>
      </trkpt>
      <trkpt lat="43.5942" lon="3.08229">
        <ele>188.6000061</ele>
        <time>2013-08-10T06:08:41Z</time>
      </trkpt>
      <trkpt lat="43.59443" lon="3.08222">
        <ele>188.6000061</ele>
        <time>2013-08-10T06:08:49Z</time>
      </trkpt>
      <trkpt lat="43.59466" lon="3.08221">
        <ele>188.6000061</ele>
        <time>2013-08-10T06:08:56Z</time>
      </trkpt>
      <trkpt lat="43.59482" lon="3.08218">
        <ele>188.6000061</ele>
        <time>2013-08-10T06:09:01Z</time>
      </trkpt>
      <trkpt lat="43.59497" lon="3.08221">
        <ele>188.6000061</ele>
        <time>2013-08-10T06:09:07Z</time>
      </trkpt>
      <trkpt lat="43.5952" lon="3.08217">
        <ele>188.6000061</ele>
        <time>2013-08-10T06:09:12Z</time>
      </trkpt>
      <trkpt lat="43.59534" lon="3.08215">
        <ele>188.6000061</ele>
        <time>2013-08-10T06:09:15Z</time>
      </trkpt>
      <trkpt lat="43.59542" lon="3.08211">
        <ele>188.6000061</ele>
        <time>2013-08-10T06:09:17Z</time>
      </trkpt>
      <trkpt lat="43.5956" lon="3.08196">
        <ele>189.1999969</ele>
        <time>2013-08-10T06:09:23Z</time>
      </trkpt>
      <trkpt lat="43.59563" lon="3.08193">
        <ele>189.6000061</ele>
        <time>2013-08-10T06:09:24Z</time>
      </trkpt>
      <trkpt lat="43.59565" lon="3.08191">
        <ele>190</ele>
        <time>2013-08-10T06:09:25Z</time>
      </trkpt>
      <trkpt lat="43.59568" lon="3.08189">
        <ele>190.3999939</ele>
        <time>2013-08-10T06:09:26Z</time>
      </trkpt>
      <trkpt lat="43.5957" lon="3.08187">
        <ele>190.8000031</ele>
        <time>2013-08-10T06:09:27Z</time>
      </trkpt>
      <trkpt lat="43.59576" lon="3.08179">
        <ele>190.8000031</ele>
        <time>2013-08-10T06:09:30Z</time>
      </trkpt>
      <trkpt lat="43.59589" lon="3.08159">
        <ele>190.8000031</ele>
        <time>2013-08-10T06:09:36Z</time>
      </trkpt>
      <trkpt lat="43.59591" lon="3.08156">
        <ele>190.8000031</ele>
        <time>2013-08-10T06:09:37Z</time>
      </trkpt>
      <trkpt lat="43.59595" lon="3.0815">
        <ele>191.1999969</ele>
        <time>2013-08-10T06:09:39Z</time>
      </trkpt>
      <trkpt lat="43.59597" lon="3.08147">
        <ele>191.6000061</ele>
        <time>2013-08-10T06:09:40Z</time>
      </trkpt>
      <trkpt lat="43.59598" lon="3.08144">
        <ele>192</ele>
        <time>2013-08-10T06:09:41Z</time>
      </trkpt>
      <trkpt lat="43.596" lon="3.08141">
        <ele>192.3999939</ele>
        <time>2013-08-10T06:09:42Z</time>
      </trkpt>
      <trkpt lat="43.59602" lon="3.08138">
        <ele>192.8000031</ele>
        <time>2013-08-10T06:09:43Z</time>
      </trkpt>
      <trkpt lat="43.59604" lon="3.08135">
        <ele>192.8000031</ele>
        <time>2013-08-10T06:09:44Z</time>
      </trkpt>
      <trkpt lat="43.59622" lon="3.08105">
        <ele>193.1999969</ele>
        <time>2013-08-10T06:09:53Z</time>
      </trkpt>
      <trkpt lat="43.59625" lon="3.08102">
        <ele>193.6000061</ele>
        <time>2013-08-10T06:09:54Z</time>
      </trkpt>
      <trkpt lat="43.59627" lon="3.08099">
        <ele>194</ele>
        <time>2013-08-10T06:09:55Z</time>
      </trkpt>
      <trkpt lat="43.59629" lon="3.08095">
        <ele>194.3999939</ele>
        <time>2013-08-10T06:09:56Z</time>
      </trkpt>
      <trkpt lat="43.59631" lon="3.08092">
        <ele>194.8000031</ele>
        <time>2013-08-10T06:09:57Z</time>
      </trkpt>
      <trkpt lat="43.59641" lon="3.08074">
        <ele>194.8000031</ele>
        <time>2013-08-10T06:10:02Z</time>
      </trkpt>
      <trkpt lat="43.59653" lon="3.08055">
        <ele>195.1999969</ele>
        <time>2013-08-10T06:10:08Z</time>
      </trkpt>
      <trkpt lat="43.59655" lon="3.08052">
        <ele>195.6000061</ele>
        <time>2013-08-10T06:10:09Z</time>
      </trkpt>
      <trkpt lat="43.59657" lon="3.08049">
        <ele>196</ele>
        <time>2013-08-10T06:10:10Z</time>
      </trkpt>
      <trkpt lat="43.59659" lon="3.08046">
        <ele>196.3999939</ele>
        <time>2013-08-10T06:10:11Z</time>
      </trkpt>
      <trkpt lat="43.59661" lon="3.08043">
        <ele>196.8000031</ele>
        <time>2013-08-10T06:10:12Z</time>
      </trkpt>
      <trkpt lat="43.59669" lon="3.0803">
        <ele>196.8000031</ele>
        <time>2013-08-10T06:10:16Z</time>
      </trkpt>
      <trkpt lat="43.59688" lon="3.08001">
        <ele>196.8000031</ele>
        <time>2013-08-10T06:10:25Z</time>
      </trkpt>
      <trkpt lat="43.59699" lon="3.07987">
        <ele>196.8000031</ele>
        <time>2013-08-10T06:10:30Z</time>
      </trkpt>
      <trkpt lat="43.59719" lon="3.07985">
        <ele>196.8000031</ele>
        <time>2013-08-10T06:10:35Z</time>
      </trkpt>
      <trkpt lat="43.59727" lon="3.07985">
        <ele>197.1999969</ele>
        <time>2013-08-10T06:10:37Z</time>
      </trkpt>
      <trkpt lat="43.5973" lon="3.07985">
        <ele>197.6000061</ele>
        <time>2013-08-10T06:10:38Z</time>
      </trkpt>
      <trkpt lat="43.59734" lon="3.07985">
        <ele>198</ele>
        <time>2013-08-10T06:10:39Z</time>
      </trkpt>
      <trkpt lat="43.59738" lon="3.07985">
        <ele>198.3999939</ele>
        <time>2013-08-10T06:10:40Z</time>
      </trkpt>
      <trkpt lat="43.59741" lon="3.07985">
        <ele>198.8000031</ele>
        <time>2013-08-10T06:10:41Z</time>
      </trkpt>
      <trkpt lat="43.59768" lon="3.07986">
        <ele>198.8000031</ele>
        <time>2013-08-10T06:10:49Z</time>
      </trkpt>
      <trkpt lat="43.59774" lon="3.07983">
        <ele>198.8000031</ele>
        <time>2013-08-10T06:10:51Z</time>
      </trkpt>
      <trkpt lat="43.59777" lon="3.07974">
        <ele>198.8000031</ele>
        <time>2013-08-10T06:10:53Z</time>
      </trkpt>
      <trkpt lat="43.59778" lon="3.0797">
        <ele>199.1999969</ele>
        <time>2013-08-10T06:10:54Z</time>
      </trkpt>
      <trkpt lat="43.59779" lon="3.07966">
        <ele>199.6000061</ele>
        <time>2013-08-10T06:10:55Z</time>
      </trkpt>
      <trkpt lat="43.59779" lon="3.07962">
        <ele>200</ele>
        <time>2013-08-10T06:10:56Z</time>
      </trkpt>
      <trkpt lat="43.59779" lon="3.07959">
        <ele>200.6000061</ele>
        <time>2013-08-10T06:10:57Z</time>
      </trkpt>
      <trkpt lat="43.59779" lon="3.07956">
        <ele>201</ele>
        <time>2013-08-10T06:10:58Z</time>
      </trkpt>
      <trkpt lat="43.59777" lon="3.07929">
        <ele>201.3999939</ele>
        <time>2013-08-10T06:11:04Z</time>
      </trkpt>
      <trkpt lat="43.59777" lon="3.07924">
        <ele>201.8000031</ele>
        <time>2013-08-10T06:11:05Z</time>
      </trkpt>
      <trkpt lat="43.59778" lon="3.0792">
        <ele>202.1999969</ele>
        <time>2013-08-10T06:11:06Z</time>
      </trkpt>
      <trkpt lat="43.59779" lon="3.07917">
        <ele>202.6000061</ele>
        <time>2013-08-10T06:11:07Z</time>
      </trkpt>
      <trkpt lat="43.5978" lon="3.07913">
        <ele>203</ele>
        <time>2013-08-10T06:11:08Z</time>
      </trkpt>
      <trkpt lat="43.59782" lon="3.07907">
        <ele>203</ele>
        <time>2013-08-10T06:11:10Z</time>
      </trkpt>
      <trkpt lat="43.59784" lon="3.07905">
        <ele>203</ele>
        <time>2013-08-10T06:11:11Z</time>
      </trkpt>
      <trkpt lat="43.59787" lon="3.07899">
        <ele>203.3999939</ele>
        <time>2013-08-10T06:11:13Z</time>
      </trkpt>
      <trkpt lat="43.59787" lon="3.07896">
        <ele>203.8000031</ele>
        <time>2013-08-10T06:11:14Z</time>
      </trkpt>
      <trkpt lat="43.59788" lon="3.07892">
        <ele>204.1999969</ele>
        <time>2013-08-10T06:11:15Z</time>
      </trkpt>
      <trkpt lat="43.59789" lon="3.07889">
        <ele>204.6000061</ele>
        <time>2013-08-10T06:11:16Z</time>
      </trkpt>
      <trkpt lat="43.59789" lon="3.07887">
        <ele>205</ele>
        <time>2013-08-10T06:11:17Z</time>
      </trkpt>
      <trkpt lat="43.59792" lon="3.07879">
        <ele>205</ele>
        <time>2013-08-10T06:11:20Z</time>
      </trkpt>
      <trkpt lat="43.59795" lon="3.07874">
        <ele>205.3999939</ele>
        <time>2013-08-10T06:11:22Z</time>
      </trkpt>
      <trkpt lat="43.59796" lon="3.07872">
        <ele>205.8000031</ele>
        <time>2013-08-10T06:11:23Z</time>
      </trkpt>
      <trkpt lat="43.59797" lon="3.07869">
        <ele>206.1999969</ele>
        <time>2013-08-10T06:11:24Z</time>
      </trkpt>
      <trkpt lat="43.59798" lon="3.07866">
        <ele>206.8000031</ele>
        <time>2013-08-10T06:11:25Z</time>
      </trkpt>
      <trkpt lat="43.59799" lon="3.07864">
        <ele>207.1999969</ele>
        <time>2013-08-10T06:11:26Z</time>
      </trkpt>
      <trkpt lat="43.59804" lon="3.07853">
        <ele>207.6000061</ele>
        <time>2013-08-10T06:11:30Z</time>
      </trkpt>
      <trkpt lat="43.59806" lon="3.07851">
        <ele>208</ele>
        <time>2013-08-10T06:11:31Z</time>
      </trkpt>
      <trkpt lat="43.59807" lon="3.07849">
        <ele>208.3999939</ele>
        <time>2013-08-10T06:11:32Z</time>
      </trkpt>
      <trkpt lat="43.59809" lon="3.07846">
        <ele>208.8000031</ele>
        <time>2013-08-10T06:11:33Z</time>
      </trkpt>
      <trkpt lat="43.59811" lon="3.07844">
        <ele>209.1999969</ele>
        <time>2013-08-10T06:11:34Z</time>
      </trkpt>
      <trkpt lat="43.5982" lon="3.07831">
        <ele>209.1999969</ele>
        <time>2013-08-10T06:11:40Z</time>
      </trkpt>
      <trkpt lat="43.59822" lon="3.07829">
        <ele>209.6000061</ele>
        <time>2013-08-10T06:11:41Z</time>
      </trkpt>
      <trkpt lat="43.59823" lon="3.07827">
        <ele>210</ele>
        <time>2013-08-10T06:11:42Z</time>
      </trkpt>
      <trkpt lat="43.59825" lon="3.07825">
        <ele>210.6000061</ele>
        <time>2013-08-10T06:11:43Z</time>
      </trkpt>
      <trkpt lat="43.59827" lon="3.07823">
        <ele>211</ele>
        <time>2013-08-10T06:11:44Z</time>
      </trkpt>
      <trkpt lat="43.59829" lon="3.07821">
        <ele>211.3999939</ele>
        <time>2013-08-10T06:11:45Z</time>
      </trkpt>
      <trkpt lat="43.59831" lon="3.07819">
        <ele>211.3999939</ele>
        <time>2013-08-10T06:11:46Z</time>
      </trkpt>
      <trkpt lat="43.59841" lon="3.07811">
        <ele>211.8000031</ele>
        <time>2013-08-10T06:11:51Z</time>
      </trkpt>
      <trkpt lat="43.59843" lon="3.0781">
        <ele>212.1999969</ele>
        <time>2013-08-10T06:11:52Z</time>
      </trkpt>
      <trkpt lat="43.59845" lon="3.07808">
        <ele>212.6000061</ele>
        <time>2013-08-10T06:11:53Z</time>
      </trkpt>
      <trkpt lat="43.59848" lon="3.07807">
        <ele>213</ele>
        <time>2013-08-10T06:11:54Z</time>
      </trkpt>
      <trkpt lat="43.59851" lon="3.07806">
        <ele>213.3999939</ele>
        <time>2013-08-10T06:11:55Z</time>
      </trkpt>
      <trkpt lat="43.59865" lon="3.07801">
        <ele>213.3999939</ele>
        <time>2013-08-10T06:12:00Z</time>
      </trkpt>
      <trkpt lat="43.59878" lon="3.07796">
        <ele>214</ele>
        <time>2013-08-10T06:12:05Z</time>
      </trkpt>
      <trkpt lat="43.5988" lon="3.07796">
        <ele>214.3999939</ele>
        <time>2013-08-10T06:12:06Z</time>
      </trkpt>
      <trkpt lat="43.59883" lon="3.07795">
        <ele>214.8000031</ele>
        <time>2013-08-10T06:12:07Z</time>
      </trkpt>
      <trkpt lat="43.59885" lon="3.07794">
        <ele>215.1999969</ele>
        <time>2013-08-10T06:12:08Z</time>
      </trkpt>
      <trkpt lat="43.59888" lon="3.07794">
        <ele>215.8000031</ele>
        <time>2013-08-10T06:12:09Z</time>
      </trkpt>
      <trkpt lat="43.599" lon="3.07791">
        <ele>215.8000031</ele>
        <time>2013-08-10T06:12:14Z</time>
      </trkpt>
      <trkpt lat="43.59907" lon="3.07788">
        <ele>216.1999969</ele>
        <time>2013-08-10T06:12:17Z</time>
      </trkpt>
      <trkpt lat="43.5991" lon="3.07788">
        <ele>216.6000061</ele>
        <time>2013-08-10T06:12:18Z</time>
      </trkpt>
      <trkpt lat="43.59913" lon="3.07787">
        <ele>217</ele>
        <time>2013-08-10T06:12:19Z</time>
      </trkpt>
      <trkpt lat="43.59915" lon="3.07786">
        <ele>217.3999939</ele>
        <time>2013-08-10T06:12:20Z</time>
      </trkpt>
      <trkpt lat="43.59917" lon="3.07785">
        <ele>217.8000031</ele>
        <time>2013-08-10T06:12:21Z</time>
      </trkpt>
      <trkpt lat="43.59933" lon="3.0778">
        <ele>217.8000031</ele>
        <time>2013-08-10T06:12:27Z</time>
      </trkpt>
      <trkpt lat="43.5994" lon="3.07777">
        <ele>218.1999969</ele>
        <time>2013-08-10T06:12:30Z</time>
      </trkpt>
      <trkpt lat="43.59943" lon="3.07776">
        <ele>218.6000061</ele>
        <time>2013-08-10T06:12:31Z</time>
      </trkpt>
      <trkpt lat="43.59945" lon="3.07775">
        <ele>219</ele>
        <time>2013-08-10T06:12:32Z</time>
      </trkpt>
      <trkpt lat="43.59947" lon="3.07775">
        <ele>219.3999939</ele>
        <time>2013-08-10T06:12:33Z</time>
      </trkpt>
      <trkpt lat="43.5995" lon="3.07774">
        <ele>219.8000031</ele>
        <time>2013-08-10T06:12:34Z</time>
      </trkpt>
      <trkpt lat="43.59952" lon="3.07773">
        <ele>219.8000031</ele>
        <time>2013-08-10T06:12:35Z</time>
      </trkpt>
      <trkpt lat="43.59963" lon="3.07768">
        <ele>220.1999969</ele>
        <time>2013-08-10T06:12:40Z</time>
      </trkpt>
      <trkpt lat="43.59965" lon="3.07767">
        <ele>220.6000061</ele>
        <time>2013-08-10T06:12:41Z</time>
      </trkpt>
      <trkpt lat="43.59968" lon="3.07766">
        <ele>221</ele>
        <time>2013-08-10T06:12:42Z</time>
      </trkpt>
      <trkpt lat="43.59971" lon="3.07765">
        <ele>221.3999939</ele>
        <time>2013-08-10T06:12:43Z</time>
      </trkpt>
      <trkpt lat="43.59974" lon="3.07765">
        <ele>221.8000031</ele>
        <time>2013-08-10T06:12:44Z</time>
      </trkpt>
      <trkpt lat="43.5999" lon="3.0776">
        <ele>221.8000031</ele>
        <time>2013-08-10T06:12:50Z</time>
      </trkpt>
      <trkpt lat="43.59996" lon="3.07759">
        <ele>222.1999969</ele>
        <time>2013-08-10T06:12:52Z</time>
      </trkpt>
      <trkpt lat="43.59998" lon="3.07758">
        <ele>222.6000061</ele>
        <time>2013-08-10T06:12:53Z</time>
      </trkpt>
      <trkpt lat="43.6" lon="3.07758">
        <ele>223.1999969</ele>
        <time>2013-08-10T06:12:54Z</time>
      </trkpt>
      <trkpt lat="43.60003" lon="3.07757">
        <ele>223.6000061</ele>
        <time>2013-08-10T06:12:55Z</time>
      </trkpt>
      <trkpt lat="43.60005" lon="3.07757">
        <ele>224</ele>
        <time>2013-08-10T06:12:56Z</time>
      </trkpt>
      <trkpt lat="43.60012" lon="3.07754">
        <ele>224</ele>
        <time>2013-08-10T06:12:59Z</time>
      </trkpt>
      <trkpt lat="43.60027" lon="3.07748">
        <ele>224.8000031</ele>
        <time>2013-08-10T06:13:05Z</time>
      </trkpt>
      <trkpt lat="43.60029" lon="3.07747">
        <ele>225.1999969</ele>
        <time>2013-08-10T06:13:06Z</time>
      </trkpt>
      <trkpt lat="43.60031" lon="3.07747">
        <ele>225.6000061</ele>
        <time>2013-08-10T06:13:07Z</time>
      </trkpt>
      <trkpt lat="43.60034" lon="3.07746">
        <ele>226</ele>
        <time>2013-08-10T06:13:08Z</time>
      </trkpt>
      <trkpt lat="43.6005" lon="3.07738">
        <ele>226.3999939</ele>
        <time>2013-08-10T06:13:15Z</time>
      </trkpt>
      <trkpt lat="43.60052" lon="3.07737">
        <ele>226.8000031</ele>
        <time>2013-08-10T06:13:16Z</time>
      </trkpt>
      <trkpt lat="43.60054" lon="3.07736">
        <ele>227.1999969</ele>
        <time>2013-08-10T06:13:17Z</time>
      </trkpt>
      <trkpt lat="43.60056" lon="3.07734">
        <ele>227.8000031</ele>
        <time>2013-08-10T06:13:18Z</time>
      </trkpt>
      <trkpt lat="43.60058" lon="3.07733">
        <ele>228.1999969</ele>
        <time>2013-08-10T06:13:19Z</time>
      </trkpt>
      <trkpt lat="43.60066" lon="3.07727">
        <ele>228.1999969</ele>
        <time>2013-08-10T06:13:23Z</time>
      </trkpt>
      <trkpt lat="43.60072" lon="3.07721">
        <ele>228.6000061</ele>
        <time>2013-08-10T06:13:26Z</time>
      </trkpt>
      <trkpt lat="43.60075" lon="3.07719">
        <ele>229</ele>
        <time>2013-08-10T06:13:27Z</time>
      </trkpt>
      <trkpt lat="43.60077" lon="3.07717">
        <ele>229.3999939</ele>
        <time>2013-08-10T06:13:28Z</time>
      </trkpt>
      <trkpt lat="43.60079" lon="3.07715">
        <ele>229.8000031</ele>
        <time>2013-08-10T06:13:29Z</time>
      </trkpt>
      <trkpt lat="43.60082" lon="3.07713">
        <ele>230.1999969</ele>
        <time>2013-08-10T06:13:30Z</time>
      </trkpt>
      <trkpt lat="43.60099" lon="3.0771">
        <ele>230.1999969</ele>
        <time>2013-08-10T06:13:36Z</time>
      </trkpt>
      <trkpt lat="43.60104" lon="3.07712">
        <ele>230.6000061</ele>
        <time>2013-08-10T06:13:38Z</time>
      </trkpt>
      <trkpt lat="43.60106" lon="3.07712">
        <ele>231</ele>
        <time>2013-08-10T06:13:39Z</time>
      </trkpt>
      <trkpt lat="43.60108" lon="3.07713">
        <ele>231.3999939</ele>
        <time>2013-08-10T06:13:40Z</time>
      </trkpt>
      <trkpt lat="43.6011" lon="3.07714">
        <ele>232</ele>
        <time>2013-08-10T06:13:41Z</time>
      </trkpt>
      <trkpt lat="43.60113" lon="3.07716">
        <ele>232.3999939</ele>
        <time>2013-08-10T06:13:42Z</time>
      </trkpt>
      <trkpt lat="43.60117" lon="3.07718">
        <ele>232.3999939</ele>
        <time>2013-08-10T06:13:44Z</time>
      </trkpt>
      <trkpt lat="43.60121" lon="3.07719">
        <ele>232.8000031</ele>
        <time>2013-08-10T06:13:46Z</time>
      </trkpt>
      <trkpt lat="43.60124" lon="3.07719">
        <ele>233.1999969</ele>
        <time>2013-08-10T06:13:47Z</time>
      </trkpt>
      <trkpt lat="43.60126" lon="3.0772">
        <ele>233.6000061</ele>
        <time>2013-08-10T06:13:48Z</time>
      </trkpt>
      <trkpt lat="43.60128" lon="3.07721">
        <ele>234</ele>
        <time>2013-08-10T06:13:49Z</time>
      </trkpt>
      <trkpt lat="43.60131" lon="3.07721">
        <ele>234.3999939</ele>
        <time>2013-08-10T06:13:50Z</time>
      </trkpt>
      <trkpt lat="43.60135" lon="3.07721">
        <ele>234.3999939</ele>
        <time>2013-08-10T06:13:52Z</time>
      </trkpt>
      <trkpt lat="43.6014" lon="3.07719">
        <ele>234.8000031</ele>
        <time>2013-08-10T06:13:54Z</time>
      </trkpt>
      <trkpt lat="43.60143" lon="3.07717">
        <ele>235.1999969</ele>
        <time>2013-08-10T06:13:55Z</time>
      </trkpt>
      <trkpt lat="43.60145" lon="3.07716">
        <ele>235.8000031</ele>
        <time>2013-08-10T06:13:56Z</time>
      </trkpt>
      <trkpt lat="43.60147" lon="3.07715">
        <ele>236.1999969</ele>
        <time>2013-08-10T06:13:57Z</time>
      </trkpt>
      <trkpt lat="43.6015" lon="3.07713">
        <ele>236.6000061</ele>
        <time>2013-08-10T06:13:58Z</time>
      </trkpt>
      <trkpt lat="43.60152" lon="3.07711">
        <ele>236.6000061</ele>
        <time>2013-08-10T06:13:59Z</time>
      </trkpt>
      <trkpt lat="43.60169" lon="3.07693">
        <ele>237</ele>
        <time>2013-08-10T06:14:08Z</time>
      </trkpt>
      <trkpt lat="43.6017" lon="3.0769">
        <ele>237.3999939</ele>
        <time>2013-08-10T06:14:09Z</time>
      </trkpt>
      <trkpt lat="43.60172" lon="3.07688">
        <ele>237.8000031</ele>
        <time>2013-08-10T06:14:10Z</time>
      </trkpt>
      <trkpt lat="43.60174" lon="3.07685">
        <ele>238.1999969</ele>
        <time>2013-08-10T06:14:11Z</time>
      </trkpt>
      <trkpt lat="43.60175" lon="3.07682">
        <ele>238.8000031</ele>
        <time>2013-08-10T06:14:12Z</time>
      </trkpt>
      <trkpt lat="43.60181" lon="3.07668">
        <ele>238.8000031</ele>
        <time>2013-08-10T06:14:17Z</time>
      </trkpt>
      <trkpt lat="43.60186" lon="3.07657">
        <ele>239.1999969</ele>
        <time>2013-08-10T06:14:21Z</time>
      </trkpt>
      <trkpt lat="43.60187" lon="3.07655">
        <ele>239.6000061</ele>
        <time>2013-08-10T06:14:22Z</time>
      </trkpt>
      <trkpt lat="43.60189" lon="3.07652">
        <ele>240</ele>
        <time>2013-08-10T06:14:23Z</time>
      </trkpt>
      <trkpt lat="43.6019" lon="3.07649">
        <ele>240.3999939</ele>
        <time>2013-08-10T06:14:24Z</time>
      </trkpt>
      <trkpt lat="43.60191" lon="3.07646">
        <ele>241</ele>
        <time>2013-08-10T06:14:25Z</time>
      </trkpt>
      <trkpt lat="43.60192" lon="3.07643">
        <ele>241</ele>
        <time>2013-08-10T06:14:26Z</time>
      </trkpt>
      <trkpt lat="43.60199" lon="3.07625">
        <ele>241</ele>
        <time>2013-08-10T06:14:33Z</time>
      </trkpt>
      <trkpt lat="43.60203" lon="3.07614">
        <ele>241.3999939</ele>
        <time>2013-08-10T06:14:37Z</time>
      </trkpt>
      <trkpt lat="43.60204" lon="3.07611">
        <ele>241.8000031</ele>
        <time>2013-08-10T06:14:38Z</time>
      </trkpt>
      <trkpt lat="43.60205" lon="3.07608">
        <ele>242.1999969</ele>
        <time>2013-08-10T06:14:39Z</time>
      </trkpt>
      <trkpt lat="43.60206" lon="3.07605">
        <ele>242.6000061</ele>
        <time>2013-08-10T06:14:40Z</time>
      </trkpt>
      <trkpt lat="43.60209" lon="3.07602">
        <ele>243</ele>
        <time>2013-08-10T06:14:41Z</time>
      </trkpt>
      <trkpt lat="43.60214" lon="3.0759">
        <ele>243.3999939</ele>
        <time>2013-08-10T06:14:45Z</time>
      </trkpt>
      <trkpt lat="43.60215" lon="3.07587">
        <ele>243.8000031</ele>
        <time>2013-08-10T06:14:46Z</time>
      </trkpt>
      <trkpt lat="43.60217" lon="3.07585">
        <ele>244.1999969</ele>
        <time>2013-08-10T06:14:47Z</time>
      </trkpt>
      <trkpt lat="43.60219" lon="3.07582">
        <ele>244.6000061</ele>
        <time>2013-08-10T06:14:48Z</time>
      </trkpt>
      <trkpt lat="43.6022" lon="3.07579">
        <ele>245</ele>
        <time>2013-08-10T06:14:49Z</time>
      </trkpt>
      <trkpt lat="43.60226" lon="3.07572">
        <ele>245</ele>
        <time>2013-08-10T06:14:52Z</time>
      </trkpt>
      <trkpt lat="43.60232" lon="3.07562">
        <ele>245.3999939</ele>
        <time>2013-08-10T06:14:56Z</time>
      </trkpt>
      <trkpt lat="43.60234" lon="3.0756">
        <ele>246</ele>
        <time>2013-08-10T06:14:57Z</time>
      </trkpt>
      <trkpt lat="43.60236" lon="3.07557">
        <ele>246.3999939</ele>
        <time>2013-08-10T06:14:58Z</time>
      </trkpt>
      <trkpt lat="43.60238" lon="3.07554">
        <ele>246.8000031</ele>
        <time>2013-08-10T06:14:59Z</time>
      </trkpt>
      <trkpt lat="43.6024" lon="3.07552">
        <ele>247.1999969</ele>
        <time>2013-08-10T06:15:00Z</time>
      </trkpt>
      <trkpt lat="43.60252" lon="3.07535">
        <ele>247.1999969</ele>
        <time>2013-08-10T06:15:07Z</time>
      </trkpt>
      <trkpt lat="43.60256" lon="3.0753">
        <ele>248</ele>
        <time>2013-08-10T06:15:09Z</time>
      </trkpt>
      <trkpt lat="43.60258" lon="3.07528">
        <ele>248.6000061</ele>
        <time>2013-08-10T06:15:10Z</time>
      </trkpt>
      <trkpt lat="43.6026" lon="3.07526">
        <ele>249</ele>
        <time>2013-08-10T06:15:11Z</time>
      </trkpt>
      <trkpt lat="43.60261" lon="3.07523">
        <ele>249.3999939</ele>
        <time>2013-08-10T06:15:12Z</time>
      </trkpt>
      <trkpt lat="43.60264" lon="3.07518">
        <ele>249.3999939</ele>
        <time>2013-08-10T06:15:14Z</time>
      </trkpt>
      <trkpt lat="43.60264" lon="3.07505">
        <ele>249.3999939</ele>
        <time>2013-08-10T06:15:18Z</time>
      </trkpt>
      <trkpt lat="43.60262" lon="3.07503">
        <ele>249.8000031</ele>
        <time>2013-08-10T06:15:19Z</time>
      </trkpt>
      <trkpt lat="43.60259" lon="3.07503">
        <ele>250.1999969</ele>
        <time>2013-08-10T06:15:20Z</time>
      </trkpt>
      <trkpt lat="43.60257" lon="3.07503">
        <ele>250.6000061</ele>
        <time>2013-08-10T06:15:21Z</time>
      </trkpt>
      <trkpt lat="43.60254" lon="3.07504">
        <ele>251.1999969</ele>
        <time>2013-08-10T06:15:22Z</time>
      </trkpt>
      <trkpt lat="43.60252" lon="3.07505">
        <ele>251.6000061</ele>
        <time>2013-08-10T06:15:23Z</time>
      </trkpt>
      <trkpt lat="43.60249" lon="3.07506">
        <ele>251.6000061</ele>
        <time>2013-08-10T06:15:24Z</time>
      </trkpt>
      <trkpt lat="43.6024" lon="3.07512">
        <ele>252</ele>
        <time>2013-08-10T06:15:28Z</time>
      </trkpt>
      <trkpt lat="43.60238" lon="3.07514">
        <ele>252.3999939</ele>
        <time>2013-08-10T06:15:29Z</time>
      </trkpt>
      <trkpt lat="43.60235" lon="3.07515">
        <ele>252.8000031</ele>
        <time>2013-08-10T06:15:30Z</time>
      </trkpt>
      <trkpt lat="43.60233" lon="3.07517">
        <ele>253.1999969</ele>
        <time>2013-08-10T06:15:31Z</time>
      </trkpt>
      <trkpt lat="43.6023" lon="3.07517">
        <ele>253.6000061</ele>
        <time>2013-08-10T06:15:32Z</time>
      </trkpt>
      <trkpt lat="43.60218" lon="3.07522">
        <ele>253.6000061</ele>
        <time>2013-08-10T06:15:37Z</time>
      </trkpt>
      <trkpt lat="43.60212" lon="3.07524">
        <ele>254</ele>
        <time>2013-08-10T06:15:39Z</time>
      </trkpt>
      <trkpt lat="43.6021" lon="3.07524">
        <ele>254.3999939</ele>
        <time>2013-08-10T06:15:40Z</time>
      </trkpt>
      <trkpt lat="43.60207" lon="3.07525">
        <ele>254.8000031</ele>
        <time>2013-08-10T06:15:41Z</time>
      </trkpt>
      <trkpt lat="43.60205" lon="3.07526">
        <ele>255.1999969</ele>
        <time>2013-08-10T06:15:42Z</time>
      </trkpt>
      <trkpt lat="43.60203" lon="3.07527">
        <ele>255.6000061</ele>
        <time>2013-08-10T06:15:43Z</time>
      </trkpt>
      <trkpt lat="43.602" lon="3.07527">
        <ele>255.6000061</ele>
        <time>2013-08-10T06:15:44Z</time>
      </trkpt>
      <trkpt lat="43.60183" lon="3.07532">
        <ele>256</ele>
        <time>2013-08-10T06:15:51Z</time>
      </trkpt>
      <trkpt lat="43.60181" lon="3.07532">
        <ele>256.6000061</ele>
        <time>2013-08-10T06:15:52Z</time>
      </trkpt>
      <trkpt lat="43.60178" lon="3.07533">
        <ele>257</ele>
        <time>2013-08-10T06:15:53Z</time>
      </trkpt>
      <trkpt lat="43.60176" lon="3.07534">
        <ele>257.3999939</ele>
        <time>2013-08-10T06:15:54Z</time>
      </trkpt>
      <trkpt lat="43.60174" lon="3.07534">
        <ele>257.7999878</ele>
        <time>2013-08-10T06:15:55Z</time>
      </trkpt>
      <trkpt lat="43.60168" lon="3.07534">
        <ele>257.7999878</ele>
        <time>2013-08-10T06:15:57Z</time>
      </trkpt>
      <trkpt lat="43.6016" lon="3.07534">
        <ele>258.2000122</ele>
        <time>2013-08-10T06:16:00Z</time>
      </trkpt>
      <trkpt lat="43.60157" lon="3.07534">
        <ele>258.6000061</ele>
        <time>2013-08-10T06:16:01Z</time>
      </trkpt>
      <trkpt lat="43.60155" lon="3.07534">
        <ele>259</ele>
        <time>2013-08-10T06:16:02Z</time>
      </trkpt>
      <trkpt lat="43.60152" lon="3.07534">
        <ele>259.3999939</ele>
        <time>2013-08-10T06:16:03Z</time>
      </trkpt>
      <trkpt lat="43.60149" lon="3.07533">
        <ele>259.7999878</ele>
        <time>2013-08-10T06:16:04Z</time>
      </trkpt>
      <trkpt lat="43.60146" lon="3.07532">
        <ele>259.7999878</ele>
        <time>2013-08-10T06:16:05Z</time>
      </trkpt>
      <trkpt lat="43.60128" lon="3.07529">
        <ele>260.2000122</ele>
        <time>2013-08-10T06:16:12Z</time>
      </trkpt>
      <trkpt lat="43.60126" lon="3.07529">
        <ele>260.6000061</ele>
        <time>2013-08-10T06:16:13Z</time>
      </trkpt>
      <trkpt lat="43.60123" lon="3.07529">
        <ele>261</ele>
        <time>2013-08-10T06:16:14Z</time>
      </trkpt>
      <trkpt lat="43.60121" lon="3.07528">
        <ele>261.6000061</ele>
        <time>2013-08-10T06:16:15Z</time>
      </trkpt>
      <trkpt lat="43.60118" lon="3.07528">
        <ele>262</ele>
        <time>2013-08-10T06:16:16Z</time>
      </trkpt>
      <trkpt lat="43.60111" lon="3.07527">
        <ele>262</ele>
        <time>2013-08-10T06:16:19Z</time>
      </trkpt>
      <trkpt lat="43.601" lon="3.07523">
        <ele>262.7999878</ele>
        <time>2013-08-10T06:16:23Z</time>
      </trkpt>
      <trkpt lat="43.60097" lon="3.07522">
        <ele>263.2000122</ele>
        <time>2013-08-10T06:16:24Z</time>
      </trkpt>
      <trkpt lat="43.60094" lon="3.07521">
        <ele>263.7999878</ele>
        <time>2013-08-10T06:16:25Z</time>
      </trkpt>
      <trkpt lat="43.60091" lon="3.07521">
        <ele>264.2000122</ele>
        <time>2013-08-10T06:16:26Z</time>
      </trkpt>
      <trkpt lat="43.60088" lon="3.07521">
        <ele>264.2000122</ele>
        <time>2013-08-10T06:16:27Z</time>
      </trkpt>
      <trkpt lat="43.60071" lon="3.07514">
        <ele>264.6000061</ele>
        <time>2013-08-10T06:16:34Z</time>
      </trkpt>
      <trkpt lat="43.60069" lon="3.07513">
        <ele>265</ele>
        <time>2013-08-10T06:16:35Z</time>
      </trkpt>
      <trkpt lat="43.60067" lon="3.07513">
        <ele>265.3999939</ele>
        <time>2013-08-10T06:16:36Z</time>
      </trkpt>
      <trkpt lat="43.60065" lon="3.07512">
        <ele>265.7999878</ele>
        <time>2013-08-10T06:16:37Z</time>
      </trkpt>
      <trkpt lat="43.60062" lon="3.07512">
        <ele>266.2000122</ele>
        <time>2013-08-10T06:16:38Z</time>
      </trkpt>
      <trkpt lat="43.60057" lon="3.0751">
        <ele>266.2000122</ele>
        <time>2013-08-10T06:16:40Z</time>
      </trkpt>
      <trkpt lat="43.60038" lon="3.07503">
        <ele>266.7999878</ele>
        <time>2013-08-10T06:16:47Z</time>
      </trkpt>
      <trkpt lat="43.60036" lon="3.07502">
        <ele>267.2000122</ele>
        <time>2013-08-10T06:16:48Z</time>
      </trkpt>
      <trkpt lat="43.60033" lon="3.07501">
        <ele>267.6000061</ele>
        <time>2013-08-10T06:16:49Z</time>
      </trkpt>
      <trkpt lat="43.6003" lon="3.075">
        <ele>268</ele>
        <time>2013-08-10T06:16:50Z</time>
      </trkpt>
      <trkpt lat="43.60028" lon="3.07499">
        <ele>268.3999939</ele>
        <time>2013-08-10T06:16:51Z</time>
      </trkpt>
      <trkpt lat="43.60012" lon="3.07494">
        <ele>268.3999939</ele>
        <time>2013-08-10T06:16:57Z</time>
      </trkpt>
      <trkpt lat="43.60007" lon="3.07493">
        <ele>268.7999878</ele>
        <time>2013-08-10T06:16:59Z</time>
      </trkpt>
      <trkpt lat="43.60004" lon="3.07492">
        <ele>269.2000122</ele>
        <time>2013-08-10T06:17:00Z</time>
      </trkpt>
      <trkpt lat="43.60002" lon="3.07491">
        <ele>269.6000061</ele>
        <time>2013-08-10T06:17:01Z</time>
      </trkpt>
      <trkpt lat="43.59999" lon="3.07491">
        <ele>270</ele>
        <time>2013-08-10T06:17:02Z</time>
      </trkpt>
      <trkpt lat="43.59996" lon="3.0749">
        <ele>270.3999939</ele>
        <time>2013-08-10T06:17:03Z</time>
      </trkpt>
      <trkpt lat="43.59991" lon="3.07487">
        <ele>270.3999939</ele>
        <time>2013-08-10T06:17:05Z</time>
      </trkpt>
      <trkpt lat="43.59978" lon="3.07481">
        <ele>270.7999878</ele>
        <time>2013-08-10T06:17:10Z</time>
      </trkpt>
      <trkpt lat="43.59976" lon="3.07479">
        <ele>271.2000122</ele>
        <time>2013-08-10T06:17:11Z</time>
      </trkpt>
      <trkpt lat="43.59973" lon="3.07478">
        <ele>272.2000122</ele>
        <time>2013-08-10T06:17:12Z</time>
      </trkpt>
      <trkpt lat="43.5997" lon="3.07477">
        <ele>272.6000061</ele>
        <time>2013-08-10T06:17:13Z</time>
      </trkpt>
      <trkpt lat="43.59955" lon="3.0746">
        <ele>273</ele>
        <time>2013-08-10T06:17:20Z</time>
      </trkpt>
      <trkpt lat="43.59953" lon="3.07458">
        <ele>273.3999939</ele>
        <time>2013-08-10T06:17:21Z</time>
      </trkpt>
      <trkpt lat="43.5995" lon="3.07456">
        <ele>273.7999878</ele>
        <time>2013-08-10T06:17:22Z</time>
      </trkpt>
      <trkpt lat="43.59948" lon="3.07453">
        <ele>274.2000122</ele>
        <time>2013-08-10T06:17:23Z</time>
      </trkpt>
      <trkpt lat="43.59946" lon="3.07451">
        <ele>274.6000061</ele>
        <time>2013-08-10T06:17:24Z</time>
      </trkpt>
      <trkpt lat="43.59943" lon="3.07445">
        <ele>274.6000061</ele>
        <time>2013-08-10T06:17:26Z</time>
      </trkpt>
      <trkpt lat="43.59942" lon="3.07432">
        <ele>274.6000061</ele>
        <time>2013-08-10T06:17:30Z</time>
      </trkpt>
      <trkpt lat="43.59945" lon="3.07432">
        <ele>274.6000061</ele>
        <time>2013-08-10T06:17:31Z</time>
      </trkpt>
      <trkpt lat="43.5995" lon="3.07435">
        <ele>275</ele>
        <time>2013-08-10T06:17:33Z</time>
      </trkpt>
      <trkpt lat="43.59952" lon="3.07437">
        <ele>275.6000061</ele>
        <time>2013-08-10T06:17:34Z</time>
      </trkpt>
      <trkpt lat="43.59955" lon="3.07439">
        <ele>276</ele>
        <time>2013-08-10T06:17:35Z</time>
      </trkpt>
      <trkpt lat="43.59958" lon="3.0744">
        <ele>276.3999939</ele>
        <time>2013-08-10T06:17:36Z</time>
      </trkpt>
      <trkpt lat="43.5996" lon="3.07441">
        <ele>276.7999878</ele>
        <time>2013-08-10T06:17:37Z</time>
      </trkpt>
      <trkpt lat="43.59971" lon="3.07446">
        <ele>277.2000122</ele>
        <time>2013-08-10T06:17:41Z</time>
      </trkpt>
      <trkpt lat="43.59974" lon="3.07446">
        <ele>277.6000061</ele>
        <time>2013-08-10T06:17:42Z</time>
      </trkpt>
      <trkpt lat="43.59977" lon="3.07447">
        <ele>278</ele>
        <time>2013-08-10T06:17:43Z</time>
      </trkpt>
      <trkpt lat="43.59979" lon="3.07448">
        <ele>278.3999939</ele>
        <time>2013-08-10T06:17:44Z</time>
      </trkpt>
      <trkpt lat="43.59982" lon="3.07448">
        <ele>278.7999878</ele>
        <time>2013-08-10T06:17:45Z</time>
      </trkpt>
      <trkpt lat="43.59994" lon="3.0745">
        <ele>278.7999878</ele>
        <time>2013-08-10T06:17:50Z</time>
      </trkpt>
      <trkpt lat="43.60001" lon="3.07448">
        <ele>279.2000122</ele>
        <time>2013-08-10T06:17:53Z</time>
      </trkpt>
      <trkpt lat="43.60004" lon="3.07448">
        <ele>279.6000061</ele>
        <time>2013-08-10T06:17:54Z</time>
      </trkpt>
      <trkpt lat="43.60006" lon="3.07448">
        <ele>280</ele>
        <time>2013-08-10T06:17:55Z</time>
      </trkpt>
      <trkpt lat="43.60008" lon="3.07447">
        <ele>280.3999939</ele>
        <time>2013-08-10T06:17:56Z</time>
      </trkpt>
      <trkpt lat="43.60011" lon="3.07447">
        <ele>280.7999878</ele>
        <time>2013-08-10T06:17:57Z</time>
      </trkpt>
      <trkpt lat="43.60024" lon="3.07444">
        <ele>281.2000122</ele>
        <time>2013-08-10T06:18:03Z</time>
      </trkpt>
      <trkpt lat="43.60026" lon="3.07444">
        <ele>281.7999878</ele>
        <time>2013-08-10T06:18:04Z</time>
      </trkpt>
      <trkpt lat="43.60028" lon="3.07443">
        <ele>282.2000122</ele>
        <time>2013-08-10T06:18:05Z</time>
      </trkpt>
      <trkpt lat="43.60031" lon="3.07442">
        <ele>282.6000061</ele>
        <time>2013-08-10T06:18:06Z</time>
      </trkpt>
      <trkpt lat="43.60033" lon="3.07442">
        <ele>283</ele>
        <time>2013-08-10T06:18:07Z</time>
      </trkpt>
      <trkpt lat="43.60045" lon="3.0744">
        <ele>283</ele>
        <time>2013-08-10T06:18:12Z</time>
      </trkpt>
      <trkpt lat="43.60058" lon="3.07437">
        <ele>283.3999939</ele>
        <time>2013-08-10T06:18:17Z</time>
      </trkpt>
      <trkpt lat="43.6006" lon="3.07436">
        <ele>283.7999878</ele>
        <time>2013-08-10T06:18:18Z</time>
      </trkpt>
      <trkpt lat="43.60063" lon="3.07435">
        <ele>284.2000122</ele>
        <time>2013-08-10T06:18:19Z</time>
      </trkpt>
      <trkpt lat="43.60065" lon="3.07435">
        <ele>284.6000061</ele>
        <time>2013-08-10T06:18:20Z</time>
      </trkpt>
      <trkpt lat="43.60067" lon="3.07434">
        <ele>285</ele>
        <time>2013-08-10T06:18:21Z</time>
      </trkpt>
      <trkpt lat="43.60078" lon="3.0743">
        <ele>285</ele>
        <time>2013-08-10T06:18:25Z</time>
      </trkpt>
      <trkpt lat="43.60084" lon="3.07429">
        <ele>285.3999939</ele>
        <time>2013-08-10T06:18:27Z</time>
      </trkpt>
      <trkpt lat="43.60087" lon="3.07428">
        <ele>285.7999878</ele>
        <time>2013-08-10T06:18:28Z</time>
      </trkpt>
      <trkpt lat="43.6009" lon="3.07428">
        <ele>286.2000122</ele>
        <time>2013-08-10T06:18:29Z</time>
      </trkpt>
      <trkpt lat="43.60093" lon="3.07428">
        <ele>286.6000061</ele>
        <time>2013-08-10T06:18:30Z</time>
      </trkpt>
      <trkpt lat="43.60096" lon="3.07427">
        <ele>287</ele>
        <time>2013-08-10T06:18:31Z</time>
      </trkpt>
      <trkpt lat="43.60101" lon="3.07425">
        <ele>287</ele>
        <time>2013-08-10T06:18:33Z</time>
      </trkpt>
      <trkpt lat="43.60109" lon="3.07422">
        <ele>287.3999939</ele>
        <time>2013-08-10T06:18:37Z</time>
      </trkpt>
      <trkpt lat="43.60111" lon="3.07421">
        <ele>287.7999878</ele>
        <time>2013-08-10T06:18:38Z</time>
      </trkpt>
      <trkpt lat="43.60114" lon="3.07419">
        <ele>288.2000122</ele>
        <time>2013-08-10T06:18:39Z</time>
      </trkpt>
      <trkpt lat="43.60118" lon="3.07416">
        <ele>288.6000061</ele>
        <time>2013-08-10T06:18:40Z</time>
      </trkpt>
      <trkpt lat="43.60121" lon="3.07414">
        <ele>289</ele>
        <time>2013-08-10T06:18:41Z</time>
      </trkpt>
      <trkpt lat="43.60131" lon="3.07405">
        <ele>289</ele>
        <time>2013-08-10T06:18:45Z</time>
      </trkpt>
      <trkpt lat="43.60137" lon="3.07396">
        <ele>289.3999939</ele>
        <time>2013-08-10T06:18:48Z</time>
      </trkpt>
      <trkpt lat="43.60139" lon="3.07393">
        <ele>289.7999878</ele>
        <time>2013-08-10T06:18:49Z</time>
      </trkpt>
      <trkpt lat="43.6014" lon="3.07389">
        <ele>290.2000122</ele>
        <time>2013-08-10T06:18:50Z</time>
      </trkpt>
      <trkpt lat="43.60142" lon="3.07386">
        <ele>291</ele>
        <time>2013-08-10T06:18:51Z</time>
      </trkpt>
      <trkpt lat="43.60145" lon="3.07379">
        <ele>291</ele>
        <time>2013-08-10T06:18:53Z</time>
      </trkpt>
      <trkpt lat="43.60156" lon="3.07352">
        <ele>291.3999939</ele>
        <time>2013-08-10T06:19:01Z</time>
      </trkpt>
      <trkpt lat="43.60156" lon="3.07348">
        <ele>291.7999878</ele>
        <time>2013-08-10T06:19:02Z</time>
      </trkpt>
      <trkpt lat="43.60156" lon="3.07345">
        <ele>292.2000122</ele>
        <time>2013-08-10T06:19:03Z</time>
      </trkpt>
      <trkpt lat="43.60157" lon="3.07341">
        <ele>292.7999878</ele>
        <time>2013-08-10T06:19:04Z</time>
      </trkpt>
      <trkpt lat="43.60157" lon="3.07338">
        <ele>293.2000122</ele>
        <time>2013-08-10T06:19:05Z</time>
      </trkpt>
      <trkpt lat="43.60158" lon="3.07327">
        <ele>293.2000122</ele>
        <time>2013-08-10T06:19:08Z</time>
      </trkpt>
      <trkpt lat="43.60158" lon="3.07309">
        <ele>293.6000061</ele>
        <time>2013-08-10T06:19:13Z</time>
      </trkpt>
      <trkpt lat="43.60158" lon="3.07305">
        <ele>294</ele>
        <time>2013-08-10T06:19:14Z</time>
      </trkpt>
      <trkpt lat="43.60158" lon="3.07301">
        <ele>294.3999939</ele>
        <time>2013-08-10T06:19:15Z</time>
      </trkpt>
      <trkpt lat="43.60157" lon="3.07298">
        <ele>295.2000122</ele>
        <time>2013-08-10T06:19:16Z</time>
      </trkpt>
      <trkpt lat="43.60157" lon="3.07294">
        <ele>295.2000122</ele>
        <time>2013-08-10T06:19:17Z</time>
      </trkpt>
      <trkpt lat="43.60151" lon="3.07271">
        <ele>295.6000061</ele>
        <time>2013-08-10T06:19:24Z</time>
      </trkpt>
      <trkpt lat="43.6015" lon="3.07268">
        <ele>296</ele>
        <time>2013-08-10T06:19:25Z</time>
      </trkpt>
      <trkpt lat="43.60148" lon="3.07265">
        <ele>296.3999939</ele>
        <time>2013-08-10T06:19:26Z</time>
      </trkpt>
      <trkpt lat="43.60147" lon="3.07262">
        <ele>296.7999878</ele>
        <time>2013-08-10T06:19:27Z</time>
      </trkpt>
      <trkpt lat="43.60146" lon="3.07258">
        <ele>297.2000122</ele>
        <time>2013-08-10T06:19:28Z</time>
      </trkpt>
      <trkpt lat="43.60142" lon="3.07249">
        <ele>297.2000122</ele>
        <time>2013-08-10T06:19:31Z</time>
      </trkpt>
      <trkpt lat="43.60139" lon="3.07239">
        <ele>297.6000061</ele>
        <time>2013-08-10T06:19:34Z</time>
      </trkpt>
      <trkpt lat="43.60138" lon="3.07236">
        <ele>298</ele>
        <time>2013-08-10T06:19:35Z</time>
      </trkpt>
      <trkpt lat="43.60137" lon="3.07232">
        <ele>298.6000061</ele>
        <time>2013-08-10T06:19:36Z</time>
      </trkpt>
      <trkpt lat="43.60136" lon="3.0723">
        <ele>299</ele>
        <time>2013-08-10T06:19:37Z</time>
      </trkpt>
      <trkpt lat="43.60135" lon="3.07226">
        <ele>299.3999939</ele>
        <time>2013-08-10T06:19:38Z</time>
      </trkpt>
      <trkpt lat="43.6013" lon="3.07196">
        <ele>299.3999939</ele>
        <time>2013-08-10T06:19:46Z</time>
      </trkpt>
      <trkpt lat="43.60131" lon="3.07192">
        <ele>299.7999878</ele>
        <time>2013-08-10T06:19:47Z</time>
      </trkpt>
      <trkpt lat="43.60132" lon="3.07189">
        <ele>300.2000122</ele>
        <time>2013-08-10T06:19:48Z</time>
      </trkpt>
      <trkpt lat="43.60133" lon="3.07185">
        <ele>300.6000061</ele>
        <time>2013-08-10T06:19:49Z</time>
      </trkpt>
      <trkpt lat="43.60135" lon="3.07182">
        <ele>301.2000122</ele>
        <time>2013-08-10T06:19:50Z</time>
      </trkpt>
      <trkpt lat="43.60136" lon="3.0718">
        <ele>301.6000061</ele>
        <time>2013-08-10T06:19:51Z</time>
      </trkpt>
      <trkpt lat="43.60138" lon="3.07177">
        <ele>301.6000061</ele>
        <time>2013-08-10T06:19:52Z</time>
      </trkpt>
      <trkpt lat="43.60151" lon="3.07169">
        <ele>302</ele>
        <time>2013-08-10T06:19:58Z</time>
      </trkpt>
      <trkpt lat="43.60153" lon="3.07168">
        <ele>302.3999939</ele>
        <time>2013-08-10T06:19:59Z</time>
      </trkpt>
      <trkpt lat="43.60155" lon="3.07167">
        <ele>302.7999878</ele>
        <time>2013-08-10T06:20:00Z</time>
      </trkpt>
      <trkpt lat="43.60157" lon="3.07167">
        <ele>303.2000122</ele>
        <time>2013-08-10T06:20:01Z</time>
      </trkpt>
      <trkpt lat="43.60159" lon="3.07166">
        <ele>303.7999878</ele>
        <time>2013-08-10T06:20:02Z</time>
      </trkpt>
      <trkpt lat="43.60165" lon="3.07163">
        <ele>303.7999878</ele>
        <time>2013-08-10T06:20:05Z</time>
      </trkpt>
      <trkpt lat="43.60173" lon="3.07159">
        <ele>304.2000122</ele>
        <time>2013-08-10T06:20:09Z</time>
      </trkpt>
      <trkpt lat="43.60174" lon="3.07158">
        <ele>304.6000061</ele>
        <time>2013-08-10T06:20:10Z</time>
      </trkpt>
      <trkpt lat="43.60176" lon="3.07157">
        <ele>305</ele>
        <time>2013-08-10T06:20:11Z</time>
      </trkpt>
      <trkpt lat="43.60178" lon="3.07155">
        <ele>305.3999939</ele>
        <time>2013-08-10T06:20:12Z</time>
      </trkpt>
      <trkpt lat="43.60181" lon="3.07154">
        <ele>305.7999878</ele>
        <time>2013-08-10T06:20:13Z</time>
      </trkpt>
      <trkpt lat="43.60196" lon="3.07139">
        <ele>305.7999878</ele>
        <time>2013-08-10T06:20:19Z</time>
      </trkpt>
      <trkpt lat="43.602" lon="3.07131">
        <ele>306.2000122</ele>
        <time>2013-08-10T06:20:22Z</time>
      </trkpt>
      <trkpt lat="43.60202" lon="3.07127">
        <ele>306.6000061</ele>
        <time>2013-08-10T06:20:23Z</time>
      </trkpt>
      <trkpt lat="43.60204" lon="3.07124">
        <ele>307</ele>
        <time>2013-08-10T06:20:24Z</time>
      </trkpt>
      <trkpt lat="43.60205" lon="3.07121">
        <ele>307.3999939</ele>
        <time>2013-08-10T06:20:25Z</time>
      </trkpt>
      <trkpt lat="43.60207" lon="3.07118">
        <ele>307.7999878</ele>
        <time>2013-08-10T06:20:26Z</time>
      </trkpt>
      <trkpt lat="43.60212" lon="3.07104">
        <ele>307.7999878</ele>
        <time>2013-08-10T06:20:31Z</time>
      </trkpt>
      <trkpt lat="43.60213" lon="3.07102">
        <ele>308.2000122</ele>
        <time>2013-08-10T06:20:32Z</time>
      </trkpt>
      <trkpt lat="43.60214" lon="3.07099">
        <ele>308.6000061</ele>
        <time>2013-08-10T06:20:33Z</time>
      </trkpt>
      <trkpt lat="43.60215" lon="3.07096">
        <ele>309</ele>
        <time>2013-08-10T06:20:34Z</time>
      </trkpt>
      <trkpt lat="43.60216" lon="3.07093">
        <ele>309.3999939</ele>
        <time>2013-08-10T06:20:35Z</time>
      </trkpt>
      <trkpt lat="43.60216" lon="3.0709">
        <ele>309.7999878</ele>
        <time>2013-08-10T06:20:36Z</time>
      </trkpt>
      <trkpt lat="43.60217" lon="3.07087">
        <ele>309.7999878</ele>
        <time>2013-08-10T06:20:37Z</time>
      </trkpt>
      <trkpt lat="43.60217" lon="3.07068">
        <ele>310.2000122</ele>
        <time>2013-08-10T06:20:43Z</time>
      </trkpt>
      <trkpt lat="43.60217" lon="3.07064">
        <ele>310.6000061</ele>
        <time>2013-08-10T06:20:44Z</time>
      </trkpt>
      <trkpt lat="43.60217" lon="3.0706">
        <ele>311</ele>
        <time>2013-08-10T06:20:45Z</time>
      </trkpt>
      <trkpt lat="43.60216" lon="3.07057">
        <ele>311.3999939</ele>
        <time>2013-08-10T06:20:46Z</time>
      </trkpt>
      <trkpt lat="43.60216" lon="3.07053">
        <ele>311.7999878</ele>
        <time>2013-08-10T06:20:47Z</time>
      </trkpt>
      <trkpt lat="43.60213" lon="3.07035">
        <ele>311.7999878</ele>
        <time>2013-08-10T06:20:52Z</time>
      </trkpt>
      <trkpt lat="43.60211" lon="3.07025">
        <ele>312.6000061</ele>
        <time>2013-08-10T06:20:55Z</time>
      </trkpt>
      <trkpt lat="43.6021" lon="3.07022">
        <ele>313</ele>
        <time>2013-08-10T06:20:56Z</time>
      </trkpt>
      <trkpt lat="43.60209" lon="3.07018">
        <ele>313.3999939</ele>
        <time>2013-08-10T06:20:57Z</time>
      </trkpt>
      <trkpt lat="43.60209" lon="3.07015">
        <ele>313.7999878</ele>
        <time>2013-08-10T06:20:58Z</time>
      </trkpt>
      <trkpt lat="43.60208" lon="3.07009">
        <ele>313.7999878</ele>
        <time>2013-08-10T06:21:00Z</time>
      </trkpt>
      <trkpt lat="43.60202" lon="3.06988">
        <ele>314.2000122</ele>
        <time>2013-08-10T06:21:07Z</time>
      </trkpt>
      <trkpt lat="43.60201" lon="3.06984">
        <ele>314.6000061</ele>
        <time>2013-08-10T06:21:08Z</time>
      </trkpt>
      <trkpt lat="43.602" lon="3.06981">
        <ele>315</ele>
        <time>2013-08-10T06:21:09Z</time>
      </trkpt>
      <trkpt lat="43.60199" lon="3.06979">
        <ele>315.3999939</ele>
        <time>2013-08-10T06:21:10Z</time>
      </trkpt>
      <trkpt lat="43.60198" lon="3.06976">
        <ele>315.7999878</ele>
        <time>2013-08-10T06:21:11Z</time>
      </trkpt>
      <trkpt lat="43.60192" lon="3.0696">
        <ele>315.7999878</ele>
        <time>2013-08-10T06:21:18Z</time>
      </trkpt>
      <trkpt lat="43.6019" lon="3.06957">
        <ele>316.7999878</ele>
        <time>2013-08-10T06:21:20Z</time>
      </trkpt>
      <trkpt lat="43.60189" lon="3.06955">
        <ele>317.2000122</ele>
        <time>2013-08-10T06:21:21Z</time>
      </trkpt>
      <trkpt lat="43.60188" lon="3.06953">
        <ele>317.6000061</ele>
        <time>2013-08-10T06:21:22Z</time>
      </trkpt>
      <trkpt lat="43.60187" lon="3.06951">
        <ele>318</ele>
        <time>2013-08-10T06:21:23Z</time>
      </trkpt>
      <trkpt lat="43.60185" lon="3.06946">
        <ele>318</ele>
        <time>2013-08-10T06:21:26Z</time>
      </trkpt>
      <trkpt lat="43.60179" lon="3.06938">
        <ele>318</ele>
        <time>2013-08-10T06:21:31Z</time>
      </trkpt>
      <trkpt lat="43.60178" lon="3.06936">
        <ele>318</ele>
        <time>2013-08-10T06:21:32Z</time>
      </trkpt>
      <trkpt lat="43.60173" lon="3.06928">
        <ele>318.3999939</ele>
        <time>2013-08-10T06:21:36Z</time>
      </trkpt>
      <trkpt lat="43.60172" lon="3.06926">
        <ele>318.7999878</ele>
        <time>2013-08-10T06:21:37Z</time>
      </trkpt>
      <trkpt lat="43.60171" lon="3.06923">
        <ele>319.2000122</ele>
        <time>2013-08-10T06:21:38Z</time>
      </trkpt>
      <trkpt lat="43.6017" lon="3.06921">
        <ele>319.6000061</ele>
        <time>2013-08-10T06:21:39Z</time>
      </trkpt>
      <trkpt lat="43.60169" lon="3.06919">
        <ele>320</ele>
        <time>2013-08-10T06:21:40Z</time>
      </trkpt>
      <trkpt lat="43.60161" lon="3.06902">
        <ele>320</ele>
        <time>2013-08-10T06:21:46Z</time>
      </trkpt>
      <trkpt lat="43.60159" lon="3.06896">
        <ele>320.3999939</ele>
        <time>2013-08-10T06:21:48Z</time>
      </trkpt>
      <trkpt lat="43.60157" lon="3.06893">
        <ele>320.7999878</ele>
        <time>2013-08-10T06:21:49Z</time>
      </trkpt>
      <trkpt lat="43.60156" lon="3.0689">
        <ele>321.3999939</ele>
        <time>2013-08-10T06:21:50Z</time>
      </trkpt>
      <trkpt lat="43.60155" lon="3.06886">
        <ele>321.7999878</ele>
        <time>2013-08-10T06:21:51Z</time>
      </trkpt>
      <trkpt lat="43.60154" lon="3.06883">
        <ele>322.2000122</ele>
        <time>2013-08-10T06:21:52Z</time>
      </trkpt>
      <trkpt lat="43.60153" lon="3.0688">
        <ele>322.2000122</ele>
        <time>2013-08-10T06:21:53Z</time>
      </trkpt>
      <trkpt lat="43.60145" lon="3.06855">
        <ele>322.2000122</ele>
        <time>2013-08-10T06:22:00Z</time>
      </trkpt>
      <trkpt lat="43.60143" lon="3.06849">
        <ele>322.6000061</ele>
        <time>2013-08-10T06:22:02Z</time>
      </trkpt>
      <trkpt lat="43.60142" lon="3.06846">
        <ele>323</ele>
        <time>2013-08-10T06:22:03Z</time>
      </trkpt>
      <trkpt lat="43.6014" lon="3.06843">
        <ele>323.3999939</ele>
        <time>2013-08-10T06:22:04Z</time>
      </trkpt>
      <trkpt lat="43.60139" lon="3.06841">
        <ele>323.7999878</ele>
        <time>2013-08-10T06:22:05Z</time>
      </trkpt>
      <trkpt lat="43.60137" lon="3.06838">
        <ele>324.2000122</ele>
        <time>2013-08-10T06:22:06Z</time>
      </trkpt>
      <trkpt lat="43.60128" lon="3.06825">
        <ele>324.6000061</ele>
        <time>2013-08-10T06:22:12Z</time>
      </trkpt>
      <trkpt lat="43.60127" lon="3.06823">
        <ele>325</ele>
        <time>2013-08-10T06:22:13Z</time>
      </trkpt>
      <trkpt lat="43.60126" lon="3.06821">
        <ele>325.3999939</ele>
        <time>2013-08-10T06:22:14Z</time>
      </trkpt>
      <trkpt lat="43.60124" lon="3.06819">
        <ele>325.7999878</ele>
        <time>2013-08-10T06:22:15Z</time>
      </trkpt>
      <trkpt lat="43.60122" lon="3.06817">
        <ele>326.2000122</ele>
        <time>2013-08-10T06:22:16Z</time>
      </trkpt>
      <trkpt lat="43.60116" lon="3.06808">
        <ele>326.2000122</ele>
        <time>2013-08-10T06:22:20Z</time>
      </trkpt>
      <trkpt lat="43.60112" lon="3.06801">
        <ele>326.6000061</ele>
        <time>2013-08-10T06:22:23Z</time>
      </trkpt>
      <trkpt lat="43.60111" lon="3.06798">
        <ele>327</ele>
        <time>2013-08-10T06:22:24Z</time>
      </trkpt>
      <trkpt lat="43.60111" lon="3.06795">
        <ele>327.6000061</ele>
        <time>2013-08-10T06:22:25Z</time>
      </trkpt>
      <trkpt lat="43.60111" lon="3.06791">
        <ele>328</ele>
        <time>2013-08-10T06:22:26Z</time>
      </trkpt>
      <trkpt lat="43.60112" lon="3.06789">
        <ele>328.3999939</ele>
        <time>2013-08-10T06:22:27Z</time>
      </trkpt>
      <trkpt lat="43.60118" lon="3.06789">
        <ele>328.3999939</ele>
        <time>2013-08-10T06:22:30Z</time>
      </trkpt>
      <trkpt lat="43.60121" lon="3.06794">
        <ele>328.7999878</ele>
        <time>2013-08-10T06:22:32Z</time>
      </trkpt>
      <trkpt lat="43.60123" lon="3.06796">
        <ele>329.2000122</ele>
        <time>2013-08-10T06:22:33Z</time>
      </trkpt>
      <trkpt lat="43.60125" lon="3.06799">
        <ele>330.2000122</ele>
        <time>2013-08-10T06:22:34Z</time>
      </trkpt>
      <trkpt lat="43.60127" lon="3.06802">
        <ele>330.6000061</ele>
        <time>2013-08-10T06:22:35Z</time>
      </trkpt>
      <trkpt lat="43.60142" lon="3.06815">
        <ele>330.6000061</ele>
        <time>2013-08-10T06:22:41Z</time>
      </trkpt>
      <trkpt lat="43.6016" lon="3.06819">
        <ele>330.6000061</ele>
        <time>2013-08-10T06:22:47Z</time>
      </trkpt>
      <trkpt lat="43.60163" lon="3.06818">
        <ele>331</ele>
        <time>2013-08-10T06:22:48Z</time>
      </trkpt>
      <trkpt lat="43.60166" lon="3.06817">
        <ele>331.3999939</ele>
        <time>2013-08-10T06:22:49Z</time>
      </trkpt>
      <trkpt lat="43.60168" lon="3.06816">
        <ele>331.7999878</ele>
        <time>2013-08-10T06:22:50Z</time>
      </trkpt>
      <trkpt lat="43.6017" lon="3.06814">
        <ele>332.2000122</ele>
        <time>2013-08-10T06:22:51Z</time>
      </trkpt>
      <trkpt lat="43.60172" lon="3.06812">
        <ele>332.6000061</ele>
        <time>2013-08-10T06:22:52Z</time>
      </trkpt>
      <trkpt lat="43.60175" lon="3.0681">
        <ele>332.6000061</ele>
        <time>2013-08-10T06:22:53Z</time>
      </trkpt>
      <trkpt lat="43.60185" lon="3.06799">
        <ele>332.6000061</ele>
        <time>2013-08-10T06:22:58Z</time>
      </trkpt>
      <trkpt lat="43.60187" lon="3.06797">
        <ele>333.6000061</ele>
        <time>2013-08-10T06:22:59Z</time>
      </trkpt>
      <trkpt lat="43.60189" lon="3.06795">
        <ele>334</ele>
        <time>2013-08-10T06:23:00Z</time>
      </trkpt>
      <trkpt lat="43.60191" lon="3.06793">
        <ele>334.3999939</ele>
        <time>2013-08-10T06:23:01Z</time>
      </trkpt>
      <trkpt lat="43.60193" lon="3.06791">
        <ele>334.7999878</ele>
        <time>2013-08-10T06:23:02Z</time>
      </trkpt>
      <trkpt lat="43.60203" lon="3.06781">
        <ele>334.7999878</ele>
        <time>2013-08-10T06:23:06Z</time>
      </trkpt>
      <trkpt lat="43.60212" lon="3.06773">
        <ele>335.2000122</ele>
        <time>2013-08-10T06:23:10Z</time>
      </trkpt>
      <trkpt lat="43.60214" lon="3.0677">
        <ele>335.6000061</ele>
        <time>2013-08-10T06:23:11Z</time>
      </trkpt>
      <trkpt lat="43.60217" lon="3.06768">
        <ele>336.2000122</ele>
        <time>2013-08-10T06:23:12Z</time>
      </trkpt>
      <trkpt lat="43.6022" lon="3.06765">
        <ele>336.6000061</ele>
        <time>2013-08-10T06:23:13Z</time>
      </trkpt>
      <trkpt lat="43.60222" lon="3.06763">
        <ele>337</ele>
        <time>2013-08-10T06:23:14Z</time>
      </trkpt>
      <trkpt lat="43.60233" lon="3.0675">
        <ele>337</ele>
        <time>2013-08-10T06:23:19Z</time>
      </trkpt>
      <trkpt lat="43.60241" lon="3.06742">
        <ele>337.7999878</ele>
        <time>2013-08-10T06:23:23Z</time>
      </trkpt>
      <trkpt lat="43.60244" lon="3.0674">
        <ele>338.2000122</ele>
        <time>2013-08-10T06:23:24Z</time>
      </trkpt>
      <trkpt lat="43.60247" lon="3.06738">
        <ele>338.6000061</ele>
        <time>2013-08-10T06:23:25Z</time>
      </trkpt>
      <trkpt lat="43.6025" lon="3.06737">
        <ele>339</ele>
        <time>2013-08-10T06:23:27Z</time>
      </trkpt>
      <trkpt lat="43.60267" lon="3.06732">
        <ele>339</ele>
        <time>2013-08-10T06:23:33Z</time>
      </trkpt>
      <trkpt lat="43.60271" lon="3.06731">
        <ele>339.3999939</ele>
        <time>2013-08-10T06:23:35Z</time>
      </trkpt>
      <trkpt lat="43.60274" lon="3.06731">
        <ele>339.7999878</ele>
        <time>2013-08-10T06:23:36Z</time>
      </trkpt>
      <trkpt lat="43.60276" lon="3.06731">
        <ele>340.2000122</ele>
        <time>2013-08-10T06:23:37Z</time>
      </trkpt>
      <trkpt lat="43.60279" lon="3.06731">
        <ele>340.6000061</ele>
        <time>2013-08-10T06:23:38Z</time>
      </trkpt>
      <trkpt lat="43.60281" lon="3.06731">
        <ele>341</ele>
        <time>2013-08-10T06:23:39Z</time>
      </trkpt>
      <trkpt lat="43.60283" lon="3.06731">
        <ele>341</ele>
        <time>2013-08-10T06:23:40Z</time>
      </trkpt>
      <trkpt lat="43.603" lon="3.06723">
        <ele>341</ele>
        <time>2013-08-10T06:23:47Z</time>
      </trkpt>
      <trkpt lat="43.60306" lon="3.0672">
        <ele>342</ele>
        <time>2013-08-10T06:23:49Z</time>
      </trkpt>
      <trkpt lat="43.60309" lon="3.06718">
        <ele>342.3999939</ele>
        <time>2013-08-10T06:23:50Z</time>
      </trkpt>
      <trkpt lat="43.60311" lon="3.06716">
        <ele>343</ele>
        <time>2013-08-10T06:23:51Z</time>
      </trkpt>
      <trkpt lat="43.60313" lon="3.06713">
        <ele>343.3999939</ele>
        <time>2013-08-10T06:23:52Z</time>
      </trkpt>
      <trkpt lat="43.60315" lon="3.06711">
        <ele>343.3999939</ele>
        <time>2013-08-10T06:23:53Z</time>
      </trkpt>
      <trkpt lat="43.60324" lon="3.06705">
        <ele>343.7999878</ele>
        <time>2013-08-10T06:23:57Z</time>
      </trkpt>
      <trkpt lat="43.60326" lon="3.06703">
        <ele>344.2000122</ele>
        <time>2013-08-10T06:23:58Z</time>
      </trkpt>
      <trkpt lat="43.60329" lon="3.06701">
        <ele>344.6000061</ele>
        <time>2013-08-10T06:23:59Z</time>
      </trkpt>
      <trkpt lat="43.60331" lon="3.067">
        <ele>345</ele>
        <time>2013-08-10T06:24:00Z</time>
      </trkpt>
      <trkpt lat="43.60333" lon="3.06698">
        <ele>345.3999939</ele>
        <time>2013-08-10T06:24:01Z</time>
      </trkpt>
      <trkpt lat="43.60344" lon="3.0669">
        <ele>345.3999939</ele>
        <time>2013-08-10T06:24:06Z</time>
      </trkpt>
      <trkpt lat="43.60352" lon="3.06684">
        <ele>345.7999878</ele>
        <time>2013-08-10T06:24:10Z</time>
      </trkpt>
      <trkpt lat="43.60354" lon="3.06682">
        <ele>346.2000122</ele>
        <time>2013-08-10T06:24:11Z</time>
      </trkpt>
      <trkpt lat="43.60357" lon="3.0668">
        <ele>346.6000061</ele>
        <time>2013-08-10T06:24:12Z</time>
      </trkpt>
      <trkpt lat="43.60359" lon="3.06678">
        <ele>347</ele>
        <time>2013-08-10T06:24:13Z</time>
      </trkpt>
      <trkpt lat="43.60361" lon="3.06675">
        <ele>347.6000061</ele>
        <time>2013-08-10T06:24:14Z</time>
      </trkpt>
      <trkpt lat="43.6037" lon="3.06667">
        <ele>347.6000061</ele>
        <time>2013-08-10T06:24:19Z</time>
      </trkpt>
      <trkpt lat="43.60372" lon="3.06668">
        <ele>347.6000061</ele>
        <time>2013-08-10T06:24:20Z</time>
      </trkpt>
      <trkpt lat="43.60377" lon="3.06673">
        <ele>347.6000061</ele>
        <time>2013-08-10T06:24:23Z</time>
      </trkpt>
      <trkpt lat="43.60379" lon="3.06675">
        <ele>348</ele>
        <time>2013-08-10T06:24:24Z</time>
      </trkpt>
      <trkpt lat="43.60379" lon="3.06677">
        <ele>348.3999939</ele>
        <time>2013-08-10T06:24:25Z</time>
      </trkpt>
      <trkpt lat="43.60381" lon="3.0668">
        <ele>348.7999878</ele>
        <time>2013-08-10T06:24:26Z</time>
      </trkpt>
      <trkpt lat="43.60382" lon="3.06683">
        <ele>349.2000122</ele>
        <time>2013-08-10T06:24:27Z</time>
      </trkpt>
      <trkpt lat="43.60384" lon="3.06686">
        <ele>349.6000061</ele>
        <time>2013-08-10T06:24:28Z</time>
      </trkpt>
      <trkpt lat="43.60385" lon="3.06688">
        <ele>349.6000061</ele>
        <time>2013-08-10T06:24:29Z</time>
      </trkpt>
      <trkpt lat="43.6039" lon="3.06697">
        <ele>349.6000061</ele>
        <time>2013-08-10T06:24:35Z</time>
      </trkpt>
      <trkpt lat="43.60392" lon="3.06701">
        <ele>350</ele>
        <time>2013-08-10T06:24:37Z</time>
      </trkpt>
      <trkpt lat="43.60393" lon="3.06703">
        <ele>350.7999878</ele>
        <time>2013-08-10T06:24:38Z</time>
      </trkpt>
      <trkpt lat="43.60394" lon="3.06705">
        <ele>351.2000122</ele>
        <time>2013-08-10T06:24:39Z</time>
      </trkpt>
      <trkpt lat="43.60396" lon="3.06707">
        <ele>351.6000061</ele>
        <time>2013-08-10T06:24:40Z</time>
      </trkpt>
      <trkpt lat="43.60405" lon="3.06716">
        <ele>351.6000061</ele>
        <time>2013-08-10T06:24:45Z</time>
      </trkpt>
      <trkpt lat="43.60412" lon="3.06719">
        <ele>352</ele>
        <time>2013-08-10T06:24:48Z</time>
      </trkpt>
      <trkpt lat="43.60415" lon="3.0672">
        <ele>352.3999939</ele>
        <time>2013-08-10T06:24:49Z</time>
      </trkpt>
      <trkpt lat="43.60418" lon="3.0672">
        <ele>353</ele>
        <time>2013-08-10T06:24:50Z</time>
      </trkpt>
      <trkpt lat="43.60421" lon="3.06721">
        <ele>353.3999939</ele>
        <time>2013-08-10T06:24:51Z</time>
      </trkpt>
      <trkpt lat="43.60423" lon="3.06722">
        <ele>353.7999878</ele>
        <time>2013-08-10T06:24:52Z</time>
      </trkpt>
      <trkpt lat="43.60435" lon="3.06724">
        <ele>353.7999878</ele>
        <time>2013-08-10T06:24:56Z</time>
      </trkpt>
      <trkpt lat="43.60452" lon="3.06718">
        <ele>353.7999878</ele>
        <time>2013-08-10T06:25:01Z</time>
      </trkpt>
      <trkpt lat="43.60464" lon="3.06697">
        <ele>353.7999878</ele>
        <time>2013-08-10T06:25:06Z</time>
      </trkpt>
      <trkpt lat="43.60468" lon="3.06684">
        <ele>353.7999878</ele>
        <time>2013-08-10T06:25:11Z</time>
      </trkpt>
      <trkpt lat="43.60467" lon="3.06687">
        <ele>353.7999878</ele>
        <time>2013-08-10T06:25:14Z</time>
      </trkpt>
      <trkpt lat="43.6047" lon="3.06695">
        <ele>353.7999878</ele>
        <time>2013-08-10T06:25:18Z</time>
      </trkpt>
      <trkpt lat="43.60478" lon="3.06686">
        <ele>353.7999878</ele>
        <time>2013-08-10T06:25:21Z</time>
      </trkpt>
      <trkpt lat="43.60481" lon="3.06681">
        <ele>353.7999878</ele>
        <time>2013-08-10T06:25:22Z</time>
      </trkpt>
      <trkpt lat="43.60485" lon="3.06677">
        <ele>353.7999878</ele>
        <time>2013-08-10T06:25:23Z</time>
      </trkpt>
      <trkpt lat="43.60492" lon="3.06672">
        <ele>353.3999939</ele>
        <time>2013-08-10T06:25:25Z</time>
      </trkpt>
      <trkpt lat="43.60495" lon="3.06671">
        <ele>353</ele>
        <time>2013-08-10T06:25:26Z</time>
      </trkpt>
      <trkpt lat="43.60498" lon="3.0667">
        <ele>352.3999939</ele>
        <time>2013-08-10T06:25:27Z</time>
      </trkpt>
      <trkpt lat="43.60501" lon="3.0667">
        <ele>351.6000061</ele>
        <time>2013-08-10T06:25:28Z</time>
      </trkpt>
      <trkpt lat="43.60505" lon="3.0667">
        <ele>351.6000061</ele>
        <time>2013-08-10T06:25:29Z</time>
      </trkpt>
      <trkpt lat="43.60508" lon="3.0667">
        <ele>351.6000061</ele>
        <time>2013-08-10T06:25:30Z</time>
      </trkpt>
      <trkpt lat="43.60519" lon="3.06669">
        <ele>351.2000122</ele>
        <time>2013-08-10T06:25:33Z</time>
      </trkpt>
      <trkpt lat="43.60522" lon="3.06668">
        <ele>350.7999878</ele>
        <time>2013-08-10T06:25:34Z</time>
      </trkpt>
      <trkpt lat="43.60526" lon="3.06665">
        <ele>350.3999939</ele>
        <time>2013-08-10T06:25:35Z</time>
      </trkpt>
      <trkpt lat="43.60529" lon="3.06661">
        <ele>350</ele>
        <time>2013-08-10T06:25:36Z</time>
      </trkpt>
      <trkpt lat="43.60532" lon="3.06656">
        <ele>349.6000061</ele>
        <time>2013-08-10T06:25:37Z</time>
      </trkpt>
      <trkpt lat="43.60541" lon="3.06642">
        <ele>349.6000061</ele>
        <time>2013-08-10T06:25:40Z</time>
      </trkpt>
      <trkpt lat="43.60543" lon="3.06638">
        <ele>349.6000061</ele>
        <time>2013-08-10T06:25:41Z</time>
      </trkpt>
      <trkpt lat="43.60555" lon="3.06626">
        <ele>349.6000061</ele>
        <time>2013-08-10T06:25:45Z</time>
      </trkpt>
      <trkpt lat="43.60567" lon="3.06608">
        <ele>349.6000061</ele>
        <time>2013-08-10T06:25:51Z</time>
      </trkpt>
      <trkpt lat="43.6057" lon="3.06597">
        <ele>349.6000061</ele>
        <time>2013-08-10T06:25:55Z</time>
      </trkpt>
      <trkpt lat="43.6057" lon="3.06596">
        <ele>349.6000061</ele>
        <time>2013-08-10T06:25:56Z</time>
      </trkpt>
      <trkpt lat="43.6057" lon="3.06595">
        <ele>349.6000061</ele>
        <time>2013-08-10T06:25:57Z</time>
      </trkpt>
      <trkpt lat="43.60572" lon="3.066">
        <ele>349.6000061</ele>
        <time>2013-08-10T06:26:01Z</time>
      </trkpt>
      <trkpt lat="43.60573" lon="3.06604">
        <ele>349.6000061</ele>
        <time>2013-08-10T06:26:03Z</time>
      </trkpt>
      <trkpt lat="43.60573" lon="3.0661">
        <ele>349.2000122</ele>
        <time>2013-08-10T06:26:05Z</time>
      </trkpt>
      <trkpt lat="43.60575" lon="3.06613">
        <ele>348.6000061</ele>
        <time>2013-08-10T06:26:06Z</time>
      </trkpt>
      <trkpt lat="43.60578" lon="3.06617">
        <ele>348.2000122</ele>
        <time>2013-08-10T06:26:07Z</time>
      </trkpt>
      <trkpt lat="43.60581" lon="3.06621">
        <ele>347.7999878</ele>
        <time>2013-08-10T06:26:08Z</time>
      </trkpt>
      <trkpt lat="43.60583" lon="3.06624">
        <ele>347.3999939</ele>
        <time>2013-08-10T06:26:09Z</time>
      </trkpt>
      <trkpt lat="43.60586" lon="3.06628">
        <ele>347.3999939</ele>
        <time>2013-08-10T06:26:10Z</time>
      </trkpt>
      <trkpt lat="43.60588" lon="3.06632">
        <ele>347.3999939</ele>
        <time>2013-08-10T06:26:11Z</time>
      </trkpt>
      <trkpt lat="43.60589" lon="3.06635">
        <ele>347.3999939</ele>
        <time>2013-08-10T06:26:12Z</time>
      </trkpt>
      <trkpt lat="43.60598" lon="3.0665">
        <ele>347.3999939</ele>
        <time>2013-08-10T06:26:18Z</time>
      </trkpt>
      <trkpt lat="43.60608" lon="3.06665">
        <ele>347.3999939</ele>
        <time>2013-08-10T06:26:24Z</time>
      </trkpt>
      <trkpt lat="43.60618" lon="3.06682">
        <ele>347.3999939</ele>
        <time>2013-08-10T06:26:30Z</time>
      </trkpt>
      <trkpt lat="43.60624" lon="3.06692">
        <ele>347.7999878</ele>
        <time>2013-08-10T06:26:33Z</time>
      </trkpt>
      <trkpt lat="43.60626" lon="3.06695">
        <ele>348.2000122</ele>
        <time>2013-08-10T06:26:34Z</time>
      </trkpt>
      <trkpt lat="43.60628" lon="3.06697">
        <ele>348.6000061</ele>
        <time>2013-08-10T06:26:35Z</time>
      </trkpt>
      <trkpt lat="43.6063" lon="3.06699">
        <ele>349</ele>
        <time>2013-08-10T06:26:36Z</time>
      </trkpt>
      <trkpt lat="43.60632" lon="3.067">
        <ele>349.3999939</ele>
        <time>2013-08-10T06:26:37Z</time>
      </trkpt>
      <trkpt lat="43.60633" lon="3.06703">
        <ele>349.7999878</ele>
        <time>2013-08-10T06:26:38Z</time>
      </trkpt>
      <trkpt lat="43.60634" lon="3.06705">
        <ele>350.3999939</ele>
        <time>2013-08-10T06:26:39Z</time>
      </trkpt>
      <trkpt lat="43.60635" lon="3.06707">
        <ele>350.7999878</ele>
        <time>2013-08-10T06:26:40Z</time>
      </trkpt>
      <trkpt lat="43.60636" lon="3.06709">
        <ele>351.2000122</ele>
        <time>2013-08-10T06:26:41Z</time>
      </trkpt>
      <trkpt lat="43.60638" lon="3.06711">
        <ele>351.6000061</ele>
        <time>2013-08-10T06:26:42Z</time>
      </trkpt>
      <trkpt lat="43.60639" lon="3.06712">
        <ele>352</ele>
        <time>2013-08-10T06:26:43Z</time>
      </trkpt>
      <trkpt lat="43.6064" lon="3.06714">
        <ele>352.6000061</ele>
        <time>2013-08-10T06:26:44Z</time>
      </trkpt>
      <trkpt lat="43.60642" lon="3.06716">
        <ele>353</ele>
        <time>2013-08-10T06:26:45Z</time>
      </trkpt>
      <trkpt lat="43.60643" lon="3.06719">
        <ele>353.6000061</ele>
        <time>2013-08-10T06:26:46Z</time>
      </trkpt>
      <trkpt lat="43.60646" lon="3.06721">
        <ele>354</ele>
        <time>2013-08-10T06:26:47Z</time>
      </trkpt>
      <trkpt lat="43.60649" lon="3.06723">
        <ele>354.3999939</ele>
        <time>2013-08-10T06:26:49Z</time>
      </trkpt>
      <trkpt lat="43.6065" lon="3.06724">
        <ele>354.7999878</ele>
        <time>2013-08-10T06:26:50Z</time>
      </trkpt>
      <trkpt lat="43.60652" lon="3.06725">
        <ele>355.2000122</ele>
        <time>2013-08-10T06:26:51Z</time>
      </trkpt>
      <trkpt lat="43.60654" lon="3.06725">
        <ele>355.6000061</ele>
        <time>2013-08-10T06:26:52Z</time>
      </trkpt>
      <trkpt lat="43.60655" lon="3.06726">
        <ele>356</ele>
        <time>2013-08-10T06:26:53Z</time>
      </trkpt>
      <trkpt lat="43.60657" lon="3.06727">
        <ele>356.3999939</ele>
        <time>2013-08-10T06:26:55Z</time>
      </trkpt>
      <trkpt lat="43.60658" lon="3.06727">
        <ele>357</ele>
        <time>2013-08-10T06:26:56Z</time>
      </trkpt>
      <trkpt lat="43.60659" lon="3.06727">
        <ele>357.3999939</ele>
        <time>2013-08-10T06:26:57Z</time>
      </trkpt>
      <trkpt lat="43.60659" lon="3.06727">
        <ele>357.7999878</ele>
        <time>2013-08-10T06:26:58Z</time>
      </trkpt>
      <trkpt lat="43.60659" lon="3.06727">
        <ele>358.2000122</ele>
        <time>2013-08-10T06:26:59Z</time>
      </trkpt>
      <trkpt lat="43.60664" lon="3.06727">
        <ele>358.2000122</ele>
        <time>2013-08-10T06:27:29Z</time>
      </trkpt>
      <trkpt lat="43.60665" lon="3.06727">
        <ele>358.2000122</ele>
        <time>2013-08-10T06:27:30Z</time>
      </trkpt>
      <trkpt lat="43.60667" lon="3.06727">
        <ele>358.2000122</ele>
        <time>2013-08-10T06:27:32Z</time>
      </trkpt>
      <trkpt lat="43.60668" lon="3.06727">
        <ele>358.2000122</ele>
        <time>2013-08-10T06:27:34Z</time>
      </trkpt>
      <trkpt lat="43.6067" lon="3.06727">
        <ele>358.2000122</ele>
        <time>2013-08-10T06:27:38Z</time>
      </trkpt>
      <trkpt lat="43.6067" lon="3.06725">
        <ele>360.2000122</ele>
        <time>2013-08-10T06:27:57Z</time>
      </trkpt>
      <trkpt lat="43.6067" lon="3.06724">
        <ele>360.2000122</ele>
        <time>2013-08-10T06:27:58Z</time>
      </trkpt>
      <trkpt lat="43.60671" lon="3.06724">
        <ele>360.2000122</ele>
        <time>2013-08-10T06:28:00Z</time>
      </trkpt>
      <trkpt lat="43.60672" lon="3.0672">
        <ele>360.2000122</ele>
        <time>2013-08-10T06:28:04Z</time>
      </trkpt>
      <trkpt lat="43.60673" lon="3.06718">
        <ele>360.2000122</ele>
        <time>2013-08-10T06:28:07Z</time>
      </trkpt>
      <trkpt lat="43.60675" lon="3.06716">
        <ele>361</ele>
        <time>2013-08-10T06:28:10Z</time>
      </trkpt>
      <trkpt lat="43.60676" lon="3.06715">
        <ele>361.3999939</ele>
        <time>2013-08-10T06:28:11Z</time>
      </trkpt>
      <trkpt lat="43.60676" lon="3.06715">
        <ele>362</ele>
        <time>2013-08-10T06:28:12Z</time>
      </trkpt>
      <trkpt lat="43.60677" lon="3.06714">
        <ele>362.3999939</ele>
        <time>2013-08-10T06:28:13Z</time>
      </trkpt>
      <trkpt lat="43.60678" lon="3.06712">
        <ele>362.3999939</ele>
        <time>2013-08-10T06:28:19Z</time>
      </trkpt>
      <trkpt lat="43.60683" lon="3.06711">
        <ele>364.6000061</ele>
        <time>2013-08-10T06:28:29Z</time>
      </trkpt>
      <trkpt lat="43.60683" lon="3.06711">
        <ele>364.6000061</ele>
        <time>2013-08-10T06:28:30Z</time>
      </trkpt>
      <trkpt lat="43.60683" lon="3.06711">
        <ele>364.6000061</ele>
        <time>2013-08-10T06:28:32Z</time>
      </trkpt>
      <trkpt lat="43.60685" lon="3.0671">
        <ele>366.6000061</ele>
        <time>2013-08-10T06:28:40Z</time>
      </trkpt>
      <trkpt lat="43.60685" lon="3.0671">
        <ele>366.6000061</ele>
        <time>2013-08-10T06:28:43Z</time>
      </trkpt>
      <trkpt lat="43.60691" lon="3.06706">
        <ele>368.6000061</ele>
        <time>2013-08-10T06:28:54Z</time>
      </trkpt>
      <trkpt lat="43.60694" lon="3.06705">
        <ele>369</ele>
        <time>2013-08-10T06:28:59Z</time>
      </trkpt>
      <trkpt lat="43.60694" lon="3.06705">
        <ele>369.3999939</ele>
        <time>2013-08-10T06:29:00Z</time>
      </trkpt>
      <trkpt lat="43.60694" lon="3.06706">
        <ele>369.7999878</ele>
        <time>2013-08-10T06:29:01Z</time>
      </trkpt>
      <trkpt lat="43.60695" lon="3.06707">
        <ele>370.2000122</ele>
        <time>2013-08-10T06:29:02Z</time>
      </trkpt>
      <trkpt lat="43.60696" lon="3.06707">
        <ele>370.6000061</ele>
        <time>2013-08-10T06:29:03Z</time>
      </trkpt>
      <trkpt lat="43.60697" lon="3.0671">
        <ele>370.6000061</ele>
        <time>2013-08-10T06:29:07Z</time>
      </trkpt>
      <trkpt lat="43.607" lon="3.06716">
        <ele>370.6000061</ele>
        <time>2013-08-10T06:29:14Z</time>
      </trkpt>
      <trkpt lat="43.60699" lon="3.06718">
        <ele>370.6000061</ele>
        <time>2013-08-10T06:29:19Z</time>
      </trkpt>
      <trkpt lat="43.60699" lon="3.06725">
        <ele>370.6000061</ele>
        <time>2013-08-10T06:29:25Z</time>
      </trkpt>
      <trkpt lat="43.60699" lon="3.06727">
        <ele>371</ele>
        <time>2013-08-10T06:29:26Z</time>
      </trkpt>
      <trkpt lat="43.60699" lon="3.06728">
        <ele>371.3999939</ele>
        <time>2013-08-10T06:29:27Z</time>
      </trkpt>
      <trkpt lat="43.60699" lon="3.06729">
        <ele>371.7999878</ele>
        <time>2013-08-10T06:29:28Z</time>
      </trkpt>
      <trkpt lat="43.607" lon="3.06731">
        <ele>372.2000122</ele>
        <time>2013-08-10T06:29:29Z</time>
      </trkpt>
      <trkpt lat="43.607" lon="3.06731">
        <ele>372.6000061</ele>
        <time>2013-08-10T06:29:30Z</time>
      </trkpt>
      <trkpt lat="43.607" lon="3.06735">
        <ele>372.6000061</ele>
        <time>2013-08-10T06:29:33Z</time>
      </trkpt>
      <trkpt lat="43.60705" lon="3.06743">
        <ele>373.2000122</ele>
        <time>2013-08-10T06:29:39Z</time>
      </trkpt>
      <trkpt lat="43.60706" lon="3.06744">
        <ele>373.6000061</ele>
        <time>2013-08-10T06:29:40Z</time>
      </trkpt>
      <trkpt lat="43.60706" lon="3.06746">
        <ele>374</ele>
        <time>2013-08-10T06:29:41Z</time>
      </trkpt>
      <trkpt lat="43.60707" lon="3.06748">
        <ele>374.3999939</ele>
        <time>2013-08-10T06:29:42Z</time>
      </trkpt>
      <trkpt lat="43.60707" lon="3.06749">
        <ele>374.7999878</ele>
        <time>2013-08-10T06:29:43Z</time>
      </trkpt>
      <trkpt lat="43.60708" lon="3.06754">
        <ele>374.7999878</ele>
        <time>2013-08-10T06:29:49Z</time>
      </trkpt>
      <trkpt lat="43.60709" lon="3.06755">
        <ele>375.2000122</ele>
        <time>2013-08-10T06:29:51Z</time>
      </trkpt>
      <trkpt lat="43.60709" lon="3.06755">
        <ele>375.6000061</ele>
        <time>2013-08-10T06:29:52Z</time>
      </trkpt>
      <trkpt lat="43.60709" lon="3.06755">
        <ele>376</ele>
        <time>2013-08-10T06:29:53Z</time>
      </trkpt>
      <trkpt lat="43.60709" lon="3.06755">
        <ele>376.3999939</ele>
        <time>2013-08-10T06:29:54Z</time>
      </trkpt>
      <trkpt lat="43.60709" lon="3.06755">
        <ele>376.7999878</ele>
        <time>2013-08-10T06:29:55Z</time>
      </trkpt>
      <trkpt lat="43.60709" lon="3.06755">
        <ele>376.7999878</ele>
        <time>2013-08-10T06:29:57Z</time>
      </trkpt>
      <trkpt lat="43.60711" lon="3.06759">
        <ele>376.7999878</ele>
        <time>2013-08-10T06:31:01Z</time>
      </trkpt>
      <trkpt lat="43.60711" lon="3.06759">
        <ele>376.7999878</ele>
        <time>2013-08-10T06:31:02Z</time>
      </trkpt>
      <trkpt lat="43.60711" lon="3.06758">
        <ele>376.7999878</ele>
        <time>2013-08-10T06:31:03Z</time>
      </trkpt>
      <trkpt lat="43.60712" lon="3.06757">
        <ele>377.2000122</ele>
        <time>2013-08-10T06:31:06Z</time>
      </trkpt>
      <trkpt lat="43.60712" lon="3.06757">
        <ele>377.6000061</ele>
        <time>2013-08-10T06:31:07Z</time>
      </trkpt>
      <trkpt lat="43.60712" lon="3.06757">
        <ele>378</ele>
        <time>2013-08-10T06:31:08Z</time>
      </trkpt>
      <trkpt lat="43.60714" lon="3.06757">
        <ele>378.6000061</ele>
        <time>2013-08-10T06:31:09Z</time>
      </trkpt>
      <trkpt lat="43.60715" lon="3.06757">
        <ele>379</ele>
        <time>2013-08-10T06:31:10Z</time>
      </trkpt>
      <trkpt lat="43.60717" lon="3.06758">
        <ele>379</ele>
        <time>2013-08-10T06:31:14Z</time>
      </trkpt>
      <trkpt lat="43.60718" lon="3.06759">
        <ele>379.3999939</ele>
        <time>2013-08-10T06:31:16Z</time>
      </trkpt>
      <trkpt lat="43.60719" lon="3.06759">
        <ele>379.7999878</ele>
        <time>2013-08-10T06:31:17Z</time>
      </trkpt>
      <trkpt lat="43.6072" lon="3.06759">
        <ele>380.2000122</ele>
        <time>2013-08-10T06:31:18Z</time>
      </trkpt>
      <trkpt lat="43.60721" lon="3.06759">
        <ele>380.6000061</ele>
        <time>2013-08-10T06:31:19Z</time>
      </trkpt>
      <trkpt lat="43.60722" lon="3.06759">
        <ele>381</ele>
        <time>2013-08-10T06:31:20Z</time>
      </trkpt>
      <trkpt lat="43.60729" lon="3.06761">
        <ele>381.3999939</ele>
        <time>2013-08-10T06:31:27Z</time>
      </trkpt>
      <trkpt lat="43.60729" lon="3.06761">
        <ele>381.7999878</ele>
        <time>2013-08-10T06:31:28Z</time>
      </trkpt>
      <trkpt lat="43.60729" lon="3.06761">
        <ele>382.2000122</ele>
        <time>2013-08-10T06:31:29Z</time>
      </trkpt>
      <trkpt lat="43.6073" lon="3.06761">
        <ele>382.6000061</ele>
        <time>2013-08-10T06:31:30Z</time>
      </trkpt>
      <trkpt lat="43.6073" lon="3.06761">
        <ele>383</ele>
        <time>2013-08-10T06:31:31Z</time>
      </trkpt>
      <trkpt lat="43.60731" lon="3.06761">
        <ele>383</ele>
        <time>2013-08-10T06:31:32Z</time>
      </trkpt>
      <trkpt lat="43.60734" lon="3.06761">
        <ele>383.3999939</ele>
        <time>2013-08-10T06:31:36Z</time>
      </trkpt>
      <trkpt lat="43.60735" lon="3.06762">
        <ele>383.7999878</ele>
        <time>2013-08-10T06:31:37Z</time>
      </trkpt>
      <trkpt lat="43.60735" lon="3.06762">
        <ele>384.6000061</ele>
        <time>2013-08-10T06:31:38Z</time>
      </trkpt>
      <trkpt lat="43.60736" lon="3.06763">
        <ele>385</ele>
        <time>2013-08-10T06:31:39Z</time>
      </trkpt>
      <trkpt lat="43.60741" lon="3.06763">
        <ele>385</ele>
        <time>2013-08-10T06:31:44Z</time>
      </trkpt>
      <trkpt lat="43.60741" lon="3.06763">
        <ele>385</ele>
        <time>2013-08-10T06:31:47Z</time>
      </trkpt>
      <trkpt lat="43.60743" lon="3.06763">
        <ele>385.3999939</ele>
        <time>2013-08-10T06:31:49Z</time>
      </trkpt>
      <trkpt lat="43.60743" lon="3.06763">
        <ele>385.7999878</ele>
        <time>2013-08-10T06:31:50Z</time>
      </trkpt>
      <trkpt lat="43.60743" lon="3.06763">
        <ele>386.2000122</ele>
        <time>2013-08-10T06:31:51Z</time>
      </trkpt>
      <trkpt lat="43.60752" lon="3.06763">
        <ele>387.3999939</ele>
        <time>2013-08-10T06:32:06Z</time>
      </trkpt>
      <trkpt lat="43.60753" lon="3.06763">
        <ele>388</ele>
        <time>2013-08-10T06:32:07Z</time>
      </trkpt>
      <trkpt lat="43.60754" lon="3.06764">
        <ele>388.3999939</ele>
        <time>2013-08-10T06:32:08Z</time>
      </trkpt>
      <trkpt lat="43.60755" lon="3.06764">
        <ele>388.7999878</ele>
        <time>2013-08-10T06:32:09Z</time>
      </trkpt>
      <trkpt lat="43.60756" lon="3.06763">
        <ele>389.2000122</ele>
        <time>2013-08-10T06:32:10Z</time>
      </trkpt>
      <trkpt lat="43.6076" lon="3.06763">
        <ele>389.2000122</ele>
        <time>2013-08-10T06:32:14Z</time>
      </trkpt>
      <trkpt lat="43.60763" lon="3.06761">
        <ele>389.2000122</ele>
        <time>2013-08-10T06:32:19Z</time>
      </trkpt>
      <trkpt lat="43.60763" lon="3.06761">
        <ele>389.6000061</ele>
        <time>2013-08-10T06:32:20Z</time>
      </trkpt>
      <trkpt lat="43.60763" lon="3.06761">
        <ele>390</ele>
        <time>2013-08-10T06:32:21Z</time>
      </trkpt>
      <trkpt lat="43.60763" lon="3.06761">
        <ele>390.6000061</ele>
        <time>2013-08-10T06:32:22Z</time>
      </trkpt>
      <trkpt lat="43.60766" lon="3.06758">
        <ele>391.3999939</ele>
        <time>2013-08-10T06:32:53Z</time>
      </trkpt>
      <trkpt lat="43.60769" lon="3.06756">
        <ele>391.3999939</ele>
        <time>2013-08-10T06:32:55Z</time>
      </trkpt>
      <trkpt lat="43.6077" lon="3.06756">
        <ele>391.3999939</ele>
        <time>2013-08-10T06:32:56Z</time>
      </trkpt>
      <trkpt lat="43.60775" lon="3.06755">
        <ele>391.3999939</ele>
        <time>2013-08-10T06:32:59Z</time>
      </trkpt>
      <trkpt lat="43.60775" lon="3.06756">
        <ele>391.3999939</ele>
        <time>2013-08-10T06:33:00Z</time>
      </trkpt>
      <trkpt lat="43.60779" lon="3.06757">
        <ele>391.3999939</ele>
        <time>2013-08-10T06:33:02Z</time>
      </trkpt>
      <trkpt lat="43.60794" lon="3.06754">
        <ele>391.3999939</ele>
        <time>2013-08-10T06:33:06Z</time>
      </trkpt>
      <trkpt lat="43.60797" lon="3.06752">
        <ele>391.3999939</ele>
        <time>2013-08-10T06:33:07Z</time>
      </trkpt>
      <trkpt lat="43.608" lon="3.06747">
        <ele>391.3999939</ele>
        <time>2013-08-10T06:33:08Z</time>
      </trkpt>
      <trkpt lat="43.60801" lon="3.06739">
        <ele>391.3999939</ele>
        <time>2013-08-10T06:33:10Z</time>
      </trkpt>
      <trkpt lat="43.60802" lon="3.06729">
        <ele>391.3999939</ele>
        <time>2013-08-10T06:33:14Z</time>
      </trkpt>
      <trkpt lat="43.60803" lon="3.06727">
        <ele>391.3999939</ele>
        <time>2013-08-10T06:33:15Z</time>
      </trkpt>
      <trkpt lat="43.60805" lon="3.06726">
        <ele>391.3999939</ele>
        <time>2013-08-10T06:33:17Z</time>
      </trkpt>
      <trkpt lat="43.60807" lon="3.06726">
        <ele>391.3999939</ele>
        <time>2013-08-10T06:33:18Z</time>
      </trkpt>
      <trkpt lat="43.60808" lon="3.06726">
        <ele>391.7999878</ele>
        <time>2013-08-10T06:33:19Z</time>
      </trkpt>
      <trkpt lat="43.60809" lon="3.06727">
        <ele>392.2000122</ele>
        <time>2013-08-10T06:33:20Z</time>
      </trkpt>
      <trkpt lat="43.60811" lon="3.06727">
        <ele>392.6000061</ele>
        <time>2013-08-10T06:33:21Z</time>
      </trkpt>
      <trkpt lat="43.60812" lon="3.06726">
        <ele>393</ele>
        <time>2013-08-10T06:33:22Z</time>
      </trkpt>
      <trkpt lat="43.60814" lon="3.06726">
        <ele>393.3999939</ele>
        <time>2013-08-10T06:33:23Z</time>
      </trkpt>
      <trkpt lat="43.60814" lon="3.06726">
        <ele>393.3999939</ele>
        <time>2013-08-10T06:33:25Z</time>
      </trkpt>
      <trkpt lat="43.60814" lon="3.06726">
        <ele>393.3999939</ele>
        <time>2013-08-10T06:33:27Z</time>
      </trkpt>
      <trkpt lat="43.6082" lon="3.06724">
        <ele>393.3999939</ele>
        <time>2013-08-10T06:33:38Z</time>
      </trkpt>
      <trkpt lat="43.60826" lon="3.06723">
        <ele>393.3999939</ele>
        <time>2013-08-10T06:33:40Z</time>
      </trkpt>
      <trkpt lat="43.60835" lon="3.06721">
        <ele>393.3999939</ele>
        <time>2013-08-10T06:33:42Z</time>
      </trkpt>
      <trkpt lat="43.60838" lon="3.0672">
        <ele>393</ele>
        <time>2013-08-10T06:33:43Z</time>
      </trkpt>
      <trkpt lat="43.60842" lon="3.06719">
        <ele>392.6000061</ele>
        <time>2013-08-10T06:33:44Z</time>
      </trkpt>
      <trkpt lat="43.60844" lon="3.06718">
        <ele>392</ele>
        <time>2013-08-10T06:33:45Z</time>
      </trkpt>
      <trkpt lat="43.60847" lon="3.06717">
        <ele>391.6000061</ele>
        <time>2013-08-10T06:33:46Z</time>
      </trkpt>
      <trkpt lat="43.60849" lon="3.06717">
        <ele>391</ele>
        <time>2013-08-10T06:33:47Z</time>
      </trkpt>
      <trkpt lat="43.60851" lon="3.06717">
        <ele>390.6000061</ele>
        <time>2013-08-10T06:33:48Z</time>
      </trkpt>
      <trkpt lat="43.60853" lon="3.06717">
        <ele>390</ele>
        <time>2013-08-10T06:33:49Z</time>
      </trkpt>
      <trkpt lat="43.60856" lon="3.06718">
        <ele>389.6000061</ele>
        <time>2013-08-10T06:33:50Z</time>
      </trkpt>
      <trkpt lat="43.60858" lon="3.06718">
        <ele>389</ele>
        <time>2013-08-10T06:33:51Z</time>
      </trkpt>
      <trkpt lat="43.60862" lon="3.0672">
        <ele>388.6000061</ele>
        <time>2013-08-10T06:33:53Z</time>
      </trkpt>
      <trkpt lat="43.60864" lon="3.06722">
        <ele>388.2000122</ele>
        <time>2013-08-10T06:33:54Z</time>
      </trkpt>
      <trkpt lat="43.60866" lon="3.06723">
        <ele>387.6000061</ele>
        <time>2013-08-10T06:33:55Z</time>
      </trkpt>
      <trkpt lat="43.60868" lon="3.06724">
        <ele>387.2000122</ele>
        <time>2013-08-10T06:33:56Z</time>
      </trkpt>
      <trkpt lat="43.60869" lon="3.06724">
        <ele>386.7999878</ele>
        <time>2013-08-10T06:33:57Z</time>
      </trkpt>
      <trkpt lat="43.60871" lon="3.06726">
        <ele>386.2000122</ele>
        <time>2013-08-10T06:33:58Z</time>
      </trkpt>
      <trkpt lat="43.60872" lon="3.06728">
        <ele>385.6000061</ele>
        <time>2013-08-10T06:33:59Z</time>
      </trkpt>
      <trkpt lat="43.60873" lon="3.0673">
        <ele>385.2000122</ele>
        <time>2013-08-10T06:34:00Z</time>
      </trkpt>
      <trkpt lat="43.60874" lon="3.06732">
        <ele>384.6000061</ele>
        <time>2013-08-10T06:34:01Z</time>
      </trkpt>
      <trkpt lat="43.6088" lon="3.06738">
        <ele>384.2000122</ele>
        <time>2013-08-10T06:34:04Z</time>
      </trkpt>
      <trkpt lat="43.60883" lon="3.0674">
        <ele>383.6000061</ele>
        <time>2013-08-10T06:34:05Z</time>
      </trkpt>
      <trkpt lat="43.60886" lon="3.06742">
        <ele>382.6000061</ele>
        <time>2013-08-10T06:34:06Z</time>
      </trkpt>
      <trkpt lat="43.60888" lon="3.06746">
        <ele>382.2000122</ele>
        <time>2013-08-10T06:34:07Z</time>
      </trkpt>
      <trkpt lat="43.60895" lon="3.06752">
        <ele>381.7999878</ele>
        <time>2013-08-10T06:34:09Z</time>
      </trkpt>
      <trkpt lat="43.60898" lon="3.06755">
        <ele>381.3999939</ele>
        <time>2013-08-10T06:34:10Z</time>
      </trkpt>
      <trkpt lat="43.609" lon="3.06759">
        <ele>381</ele>
        <time>2013-08-10T06:34:11Z</time>
      </trkpt>
      <trkpt lat="43.60903" lon="3.06764">
        <ele>380.3999939</ele>
        <time>2013-08-10T06:34:12Z</time>
      </trkpt>
      <trkpt lat="43.60905" lon="3.06769">
        <ele>379.6000061</ele>
        <time>2013-08-10T06:34:13Z</time>
      </trkpt>
      <trkpt lat="43.60908" lon="3.06773">
        <ele>379</ele>
        <time>2013-08-10T06:34:14Z</time>
      </trkpt>
      <trkpt lat="43.60912" lon="3.06776">
        <ele>378.3999939</ele>
        <time>2013-08-10T06:34:15Z</time>
      </trkpt>
      <trkpt lat="43.60917" lon="3.0678">
        <ele>377.6000061</ele>
        <time>2013-08-10T06:34:16Z</time>
      </trkpt>
      <trkpt lat="43.60924" lon="3.06784">
        <ele>377.6000061</ele>
        <time>2013-08-10T06:34:18Z</time>
      </trkpt>
      <trkpt lat="43.60929" lon="3.06785">
        <ele>377.6000061</ele>
        <time>2013-08-10T06:34:20Z</time>
      </trkpt>
      <trkpt lat="43.6094" lon="3.06773">
        <ele>377.6000061</ele>
        <time>2013-08-10T06:34:23Z</time>
      </trkpt>
      <trkpt lat="43.60942" lon="3.06769">
        <ele>377.6000061</ele>
        <time>2013-08-10T06:34:24Z</time>
      </trkpt>
      <trkpt lat="43.60949" lon="3.06764">
        <ele>377.6000061</ele>
        <time>2013-08-10T06:34:27Z</time>
      </trkpt>
      <trkpt lat="43.60952" lon="3.06761">
        <ele>377.6000061</ele>
        <time>2013-08-10T06:34:28Z</time>
      </trkpt>
      <trkpt lat="43.60967" lon="3.06754">
        <ele>377.6000061</ele>
        <time>2013-08-10T06:34:34Z</time>
      </trkpt>
      <trkpt lat="43.60972" lon="3.06754">
        <ele>377.6000061</ele>
        <time>2013-08-10T06:34:37Z</time>
      </trkpt>
      <trkpt lat="43.60974" lon="3.06756">
        <ele>377.6000061</ele>
        <time>2013-08-10T06:34:39Z</time>
      </trkpt>
      <trkpt lat="43.60974" lon="3.06757">
        <ele>377.6000061</ele>
        <time>2013-08-10T06:34:40Z</time>
      </trkpt>
      <trkpt lat="43.60973" lon="3.06763">
        <ele>377.6000061</ele>
        <time>2013-08-10T06:34:43Z</time>
      </trkpt>
      <trkpt lat="43.60972" lon="3.0677">
        <ele>377.6000061</ele>
        <time>2013-08-10T06:34:45Z</time>
      </trkpt>
      <trkpt lat="43.60973" lon="3.06777">
        <ele>377.2000122</ele>
        <time>2013-08-10T06:34:47Z</time>
      </trkpt>
      <trkpt lat="43.60975" lon="3.06781">
        <ele>376.7999878</ele>
        <time>2013-08-10T06:34:48Z</time>
      </trkpt>
      <trkpt lat="43.60977" lon="3.06784">
        <ele>376.3999939</ele>
        <time>2013-08-10T06:34:49Z</time>
      </trkpt>
      <trkpt lat="43.60979" lon="3.06788">
        <ele>376</ele>
        <time>2013-08-10T06:34:50Z</time>
      </trkpt>
      <trkpt lat="43.60983" lon="3.06791">
        <ele>375.6000061</ele>
        <time>2013-08-10T06:34:51Z</time>
      </trkpt>
      <trkpt lat="43.6099" lon="3.06796">
        <ele>375.6000061</ele>
        <time>2013-08-10T06:34:55Z</time>
      </trkpt>
      <trkpt lat="43.60991" lon="3.06797">
        <ele>375.6000061</ele>
        <time>2013-08-10T06:34:56Z</time>
      </trkpt>
      <trkpt lat="43.60992" lon="3.06797">
        <ele>375.6000061</ele>
        <time>2013-08-10T06:34:57Z</time>
      </trkpt>
      <trkpt lat="43.60998" lon="3.06801">
        <ele>375.6000061</ele>
        <time>2013-08-10T06:35:34Z</time>
      </trkpt>
      <trkpt lat="43.61" lon="3.06801">
        <ele>375.6000061</ele>
        <time>2013-08-10T06:35:35Z</time>
      </trkpt>
      <trkpt lat="43.61001" lon="3.06802">
        <ele>375.6000061</ele>
        <time>2013-08-10T06:35:36Z</time>
      </trkpt>
      <trkpt lat="43.61001" lon="3.06802">
        <ele>375.6000061</ele>
        <time>2013-08-10T06:35:38Z</time>
      </trkpt>
      <trkpt lat="43.61004" lon="3.06804">
        <ele>375.6000061</ele>
        <time>2013-08-10T06:35:52Z</time>
      </trkpt>
      <trkpt lat="43.61007" lon="3.06805">
        <ele>375.6000061</ele>
        <time>2013-08-10T06:35:54Z</time>
      </trkpt>
      <trkpt lat="43.61008" lon="3.06806">
        <ele>375.2000122</ele>
        <time>2013-08-10T06:35:56Z</time>
      </trkpt>
      <trkpt lat="43.61008" lon="3.06806">
        <ele>374.7999878</ele>
        <time>2013-08-10T06:35:57Z</time>
      </trkpt>
      <trkpt lat="43.61008" lon="3.06806">
        <ele>374.3999939</ele>
        <time>2013-08-10T06:35:58Z</time>
      </trkpt>
      <trkpt lat="43.61009" lon="3.06807">
        <ele>373.3999939</ele>
        <time>2013-08-10T06:36:00Z</time>
      </trkpt>
      <trkpt lat="43.61011" lon="3.06808">
        <ele>373.3999939</ele>
        <time>2013-08-10T06:36:02Z</time>
      </trkpt>
      <trkpt lat="43.61015" lon="3.06819">
        <ele>369</ele>
        <time>2013-08-10T06:36:25Z</time>
      </trkpt>
      <trkpt lat="43.61015" lon="3.0682">
        <ele>369</ele>
        <time>2013-08-10T06:36:26Z</time>
      </trkpt>
      <trkpt lat="43.61013" lon="3.06821">
        <ele>368.6000061</ele>
        <time>2013-08-10T06:36:28Z</time>
      </trkpt>
      <trkpt lat="43.61012" lon="3.06821">
        <ele>368</ele>
        <time>2013-08-10T06:36:29Z</time>
      </trkpt>
      <trkpt lat="43.61011" lon="3.06822">
        <ele>367.6000061</ele>
        <time>2013-08-10T06:36:30Z</time>
      </trkpt>
      <trkpt lat="43.61011" lon="3.06823">
        <ele>367.2000122</ele>
        <time>2013-08-10T06:36:31Z</time>
      </trkpt>
      <trkpt lat="43.61016" lon="3.06829">
        <ele>364.7999878</ele>
        <time>2013-08-10T06:36:40Z</time>
      </trkpt>
      <trkpt lat="43.61022" lon="3.06835">
        <ele>364.2000122</ele>
        <time>2013-08-10T06:36:42Z</time>
      </trkpt>
      <trkpt lat="43.61025" lon="3.06837">
        <ele>363.7999878</ele>
        <time>2013-08-10T06:36:43Z</time>
      </trkpt>
      <trkpt lat="43.61028" lon="3.0684">
        <ele>363.2000122</ele>
        <time>2013-08-10T06:36:44Z</time>
      </trkpt>
      <trkpt lat="43.6103" lon="3.06843">
        <ele>362.7999878</ele>
        <time>2013-08-10T06:36:45Z</time>
      </trkpt>
      <trkpt lat="43.61033" lon="3.06844">
        <ele>362.2000122</ele>
        <time>2013-08-10T06:36:46Z</time>
      </trkpt>
      <trkpt lat="43.61035" lon="3.06847">
        <ele>361.6000061</ele>
        <time>2013-08-10T06:36:47Z</time>
      </trkpt>
      <trkpt lat="43.61038" lon="3.06849">
        <ele>361</ele>
        <time>2013-08-10T06:36:48Z</time>
      </trkpt>
      <trkpt lat="43.6104" lon="3.06851">
        <ele>360.6000061</ele>
        <time>2013-08-10T06:36:49Z</time>
      </trkpt>
      <trkpt lat="43.61043" lon="3.06852">
        <ele>360</ele>
        <time>2013-08-10T06:36:50Z</time>
      </trkpt>
      <trkpt lat="43.61046" lon="3.06855">
        <ele>359.3999939</ele>
        <time>2013-08-10T06:36:51Z</time>
      </trkpt>
      <trkpt lat="43.61049" lon="3.06858">
        <ele>358.6000061</ele>
        <time>2013-08-10T06:36:52Z</time>
      </trkpt>
      <trkpt lat="43.61052" lon="3.06859">
        <ele>358</ele>
        <time>2013-08-10T06:36:53Z</time>
      </trkpt>
      <trkpt lat="43.61056" lon="3.06861">
        <ele>357.2000122</ele>
        <time>2013-08-10T06:36:54Z</time>
      </trkpt>
      <trkpt lat="43.61059" lon="3.06863">
        <ele>356.3999939</ele>
        <time>2013-08-10T06:36:55Z</time>
      </trkpt>
      <trkpt lat="43.61062" lon="3.06866">
        <ele>355.7999878</ele>
        <time>2013-08-10T06:36:56Z</time>
      </trkpt>
      <trkpt lat="43.61066" lon="3.06868">
        <ele>355.2000122</ele>
        <time>2013-08-10T06:36:57Z</time>
      </trkpt>
      <trkpt lat="43.61068" lon="3.0687">
        <ele>354</ele>
        <time>2013-08-10T06:36:58Z</time>
      </trkpt>
      <trkpt lat="43.6107" lon="3.06873">
        <ele>353.3999939</ele>
        <time>2013-08-10T06:36:59Z</time>
      </trkpt>
      <trkpt lat="43.61073" lon="3.06876">
        <ele>352.6000061</ele>
        <time>2013-08-10T06:37:00Z</time>
      </trkpt>
      <trkpt lat="43.61076" lon="3.0688">
        <ele>352</ele>
        <time>2013-08-10T06:37:01Z</time>
      </trkpt>
      <trkpt lat="43.61081" lon="3.06883">
        <ele>351.3999939</ele>
        <time>2013-08-10T06:37:02Z</time>
      </trkpt>
      <trkpt lat="43.61085" lon="3.06886">
        <ele>350.7999878</ele>
        <time>2013-08-10T06:37:03Z</time>
      </trkpt>
      <trkpt lat="43.61088" lon="3.06887">
        <ele>350.2000122</ele>
        <time>2013-08-10T06:37:04Z</time>
      </trkpt>
      <trkpt lat="43.61091" lon="3.06888">
        <ele>349.7999878</ele>
        <time>2013-08-10T06:37:05Z</time>
      </trkpt>
      <trkpt lat="43.61094" lon="3.06888">
        <ele>349.3999939</ele>
        <time>2013-08-10T06:37:06Z</time>
      </trkpt>
      <trkpt lat="43.61094" lon="3.06887">
        <ele>349</ele>
        <time>2013-08-10T06:37:07Z</time>
      </trkpt>
      <trkpt lat="43.61098" lon="3.06887">
        <ele>348.3999939</ele>
        <time>2013-08-10T06:37:08Z</time>
      </trkpt>
      <trkpt lat="43.61104" lon="3.06883">
        <ele>348.3999939</ele>
        <time>2013-08-10T06:37:12Z</time>
      </trkpt>
      <trkpt lat="43.61105" lon="3.06883">
        <ele>348.3999939</ele>
        <time>2013-08-10T06:37:14Z</time>
      </trkpt>
      <trkpt lat="43.61108" lon="3.06885">
        <ele>348.3999939</ele>
        <time>2013-08-10T06:37:52Z</time>
      </trkpt>
      <trkpt lat="43.61108" lon="3.06888">
        <ele>348.3999939</ele>
        <time>2013-08-10T06:37:53Z</time>
      </trkpt>
      <trkpt lat="43.61103" lon="3.06901">
        <ele>348.3999939</ele>
        <time>2013-08-10T06:37:57Z</time>
      </trkpt>
      <trkpt lat="43.61101" lon="3.06916">
        <ele>348.3999939</ele>
        <time>2013-08-10T06:38:01Z</time>
      </trkpt>
      <trkpt lat="43.61102" lon="3.06927">
        <ele>348.3999939</ele>
        <time>2013-08-10T06:38:05Z</time>
      </trkpt>
      <trkpt lat="43.61115" lon="3.06938">
        <ele>348.3999939</ele>
        <time>2013-08-10T06:38:09Z</time>
      </trkpt>
      <trkpt lat="43.61121" lon="3.06944">
        <ele>348.3999939</ele>
        <time>2013-08-10T06:38:11Z</time>
      </trkpt>
      <trkpt lat="43.61124" lon="3.06948">
        <ele>347.6000061</ele>
        <time>2013-08-10T06:38:12Z</time>
      </trkpt>
      <trkpt lat="43.61126" lon="3.06951">
        <ele>347</ele>
        <time>2013-08-10T06:38:13Z</time>
      </trkpt>
      <trkpt lat="43.61129" lon="3.06955">
        <ele>346.6000061</ele>
        <time>2013-08-10T06:38:14Z</time>
      </trkpt>
      <trkpt lat="43.61132" lon="3.06958">
        <ele>346</ele>
        <time>2013-08-10T06:38:15Z</time>
      </trkpt>
      <trkpt lat="43.61135" lon="3.06959">
        <ele>345.6000061</ele>
        <time>2013-08-10T06:38:16Z</time>
      </trkpt>
      <trkpt lat="43.61138" lon="3.06961">
        <ele>345</ele>
        <time>2013-08-10T06:38:17Z</time>
      </trkpt>
      <trkpt lat="43.61141" lon="3.06963">
        <ele>344.6000061</ele>
        <time>2013-08-10T06:38:18Z</time>
      </trkpt>
      <trkpt lat="43.61145" lon="3.06964">
        <ele>344</ele>
        <time>2013-08-10T06:38:19Z</time>
      </trkpt>
      <trkpt lat="43.6115" lon="3.06965">
        <ele>343.6000061</ele>
        <time>2013-08-10T06:38:20Z</time>
      </trkpt>
      <trkpt lat="43.61154" lon="3.06966">
        <ele>343</ele>
        <time>2013-08-10T06:38:21Z</time>
      </trkpt>
      <trkpt lat="43.61159" lon="3.06966">
        <ele>342.3999939</ele>
        <time>2013-08-10T06:38:22Z</time>
      </trkpt>
      <trkpt lat="43.61165" lon="3.06967">
        <ele>341.7999878</ele>
        <time>2013-08-10T06:38:23Z</time>
      </trkpt>
      <trkpt lat="43.61169" lon="3.06967">
        <ele>341.2000122</ele>
        <time>2013-08-10T06:38:24Z</time>
      </trkpt>
      <trkpt lat="43.61174" lon="3.06968">
        <ele>340.7999878</ele>
        <time>2013-08-10T06:38:25Z</time>
      </trkpt>
      <trkpt lat="43.61178" lon="3.06969">
        <ele>340.2000122</ele>
        <time>2013-08-10T06:38:26Z</time>
      </trkpt>
      <trkpt lat="43.61182" lon="3.0697">
        <ele>339.6000061</ele>
        <time>2013-08-10T06:38:27Z</time>
      </trkpt>
      <trkpt lat="43.61186" lon="3.06969">
        <ele>339</ele>
        <time>2013-08-10T06:38:28Z</time>
      </trkpt>
      <trkpt lat="43.61188" lon="3.0697">
        <ele>338.3999939</ele>
        <time>2013-08-10T06:38:29Z</time>
      </trkpt>
      <trkpt lat="43.61191" lon="3.0697">
        <ele>338</ele>
        <time>2013-08-10T06:38:30Z</time>
      </trkpt>
      <trkpt lat="43.61195" lon="3.06969">
        <ele>337.3999939</ele>
        <time>2013-08-10T06:38:31Z</time>
      </trkpt>
      <trkpt lat="43.61198" lon="3.06969">
        <ele>336.7999878</ele>
        <time>2013-08-10T06:38:32Z</time>
      </trkpt>
      <trkpt lat="43.612" lon="3.06968">
        <ele>336.2000122</ele>
        <time>2013-08-10T06:38:33Z</time>
      </trkpt>
      <trkpt lat="43.61202" lon="3.06968">
        <ele>335.6000061</ele>
        <time>2013-08-10T06:38:34Z</time>
      </trkpt>
      <trkpt lat="43.61202" lon="3.06968">
        <ele>335</ele>
        <time>2013-08-10T06:38:35Z</time>
      </trkpt>
      <trkpt lat="43.6121" lon="3.06967">
        <ele>333</ele>
        <time>2013-08-10T06:38:44Z</time>
      </trkpt>
      <trkpt lat="43.61219" lon="3.06967">
        <ele>332.3999939</ele>
        <time>2013-08-10T06:38:46Z</time>
      </trkpt>
      <trkpt lat="43.61223" lon="3.06967">
        <ele>332</ele>
        <time>2013-08-10T06:38:47Z</time>
      </trkpt>
      <trkpt lat="43.61228" lon="3.06967">
        <ele>331.3999939</ele>
        <time>2013-08-10T06:38:48Z</time>
      </trkpt>
      <trkpt lat="43.61231" lon="3.06967">
        <ele>330.7999878</ele>
        <time>2013-08-10T06:38:49Z</time>
      </trkpt>
      <trkpt lat="43.61234" lon="3.06967">
        <ele>330.2000122</ele>
        <time>2013-08-10T06:38:50Z</time>
      </trkpt>
      <trkpt lat="43.61237" lon="3.06967">
        <ele>329.6000061</ele>
        <time>2013-08-10T06:38:51Z</time>
      </trkpt>
      <trkpt lat="43.61239" lon="3.06966">
        <ele>328.7999878</ele>
        <time>2013-08-10T06:38:52Z</time>
      </trkpt>
      <trkpt lat="43.61241" lon="3.06966">
        <ele>328.2000122</ele>
        <time>2013-08-10T06:38:53Z</time>
      </trkpt>
      <trkpt lat="43.61243" lon="3.06966">
        <ele>327.7999878</ele>
        <time>2013-08-10T06:38:54Z</time>
      </trkpt>
      <trkpt lat="43.61245" lon="3.06966">
        <ele>327.3999939</ele>
        <time>2013-08-10T06:38:55Z</time>
      </trkpt>
      <trkpt lat="43.61247" lon="3.06966">
        <ele>326.7999878</ele>
        <time>2013-08-10T06:38:56Z</time>
      </trkpt>
      <trkpt lat="43.61249" lon="3.06966">
        <ele>326.3999939</ele>
        <time>2013-08-10T06:38:57Z</time>
      </trkpt>
      <trkpt lat="43.61251" lon="3.06967">
        <ele>325.7999878</ele>
        <time>2013-08-10T06:38:58Z</time>
      </trkpt>
      <trkpt lat="43.61253" lon="3.06967">
        <ele>325.3999939</ele>
        <time>2013-08-10T06:38:59Z</time>
      </trkpt>
      <trkpt lat="43.61255" lon="3.06967">
        <ele>325</ele>
        <time>2013-08-10T06:39:00Z</time>
      </trkpt>
      <trkpt lat="43.61257" lon="3.06967">
        <ele>324.6000061</ele>
        <time>2013-08-10T06:39:01Z</time>
      </trkpt>
      <trkpt lat="43.61259" lon="3.06966">
        <ele>323.7999878</ele>
        <time>2013-08-10T06:39:02Z</time>
      </trkpt>
      <trkpt lat="43.6126" lon="3.06966">
        <ele>323.3999939</ele>
        <time>2013-08-10T06:39:03Z</time>
      </trkpt>
      <trkpt lat="43.61261" lon="3.06966">
        <ele>323</ele>
        <time>2013-08-10T06:39:04Z</time>
      </trkpt>
      <trkpt lat="43.61261" lon="3.06965">
        <ele>322.6000061</ele>
        <time>2013-08-10T06:39:05Z</time>
      </trkpt>
      <trkpt lat="43.61268" lon="3.06965">
        <ele>321.7999878</ele>
        <time>2013-08-10T06:39:27Z</time>
      </trkpt>
      <trkpt lat="43.61269" lon="3.06967">
        <ele>321.7999878</ele>
        <time>2013-08-10T06:39:30Z</time>
      </trkpt>
      <trkpt lat="43.61271" lon="3.06967">
        <ele>319.6000061</ele>
        <time>2013-08-10T06:42:19Z</time>
      </trkpt>
      <trkpt lat="43.61272" lon="3.06967">
        <ele>319.6000061</ele>
        <time>2013-08-10T06:42:20Z</time>
      </trkpt>
      <trkpt lat="43.61273" lon="3.06968">
        <ele>319.6000061</ele>
        <time>2013-08-10T06:42:23Z</time>
      </trkpt>
      <trkpt lat="43.61273" lon="3.06969">
        <ele>319.6000061</ele>
        <time>2013-08-10T06:42:24Z</time>
      </trkpt>
      <trkpt lat="43.61276" lon="3.06975">
        <ele>319.6000061</ele>
        <time>2013-08-10T06:42:35Z</time>
      </trkpt>
      <trkpt lat="43.61278" lon="3.0698">
        <ele>319.2000122</ele>
        <time>2013-08-10T06:42:37Z</time>
      </trkpt>
      <trkpt lat="43.61279" lon="3.06984">
        <ele>318.7999878</ele>
        <time>2013-08-10T06:42:38Z</time>
      </trkpt>
      <trkpt lat="43.61281" lon="3.06987">
        <ele>318.3999939</ele>
        <time>2013-08-10T06:42:39Z</time>
      </trkpt>
      <trkpt lat="43.61282" lon="3.06989">
        <ele>318</ele>
        <time>2013-08-10T06:42:40Z</time>
      </trkpt>
      <trkpt lat="43.61284" lon="3.06991">
        <ele>317.3999939</ele>
        <time>2013-08-10T06:42:41Z</time>
      </trkpt>
      <trkpt lat="43.61286" lon="3.06994">
        <ele>316.7999878</ele>
        <time>2013-08-10T06:42:42Z</time>
      </trkpt>
      <trkpt lat="43.61289" lon="3.06997">
        <ele>316.3999939</ele>
        <time>2013-08-10T06:42:43Z</time>
      </trkpt>
      <trkpt lat="43.61292" lon="3.07001">
        <ele>315</ele>
        <time>2013-08-10T06:42:44Z</time>
      </trkpt>
      <trkpt lat="43.61295" lon="3.07004">
        <ele>314.3999939</ele>
        <time>2013-08-10T06:42:45Z</time>
      </trkpt>
      <trkpt lat="43.61297" lon="3.07005">
        <ele>313.6000061</ele>
        <time>2013-08-10T06:42:46Z</time>
      </trkpt>
      <trkpt lat="43.61301" lon="3.07009">
        <ele>313</ele>
        <time>2013-08-10T06:42:47Z</time>
      </trkpt>
      <trkpt lat="43.61303" lon="3.07011">
        <ele>312.3999939</ele>
        <time>2013-08-10T06:42:48Z</time>
      </trkpt>
      <trkpt lat="43.61305" lon="3.07015">
        <ele>311.6000061</ele>
        <time>2013-08-10T06:42:49Z</time>
      </trkpt>
      <trkpt lat="43.61308" lon="3.07018">
        <ele>311</ele>
        <time>2013-08-10T06:42:50Z</time>
      </trkpt>
      <trkpt lat="43.61309" lon="3.07021">
        <ele>310.2000122</ele>
        <time>2013-08-10T06:42:51Z</time>
      </trkpt>
      <trkpt lat="43.6131" lon="3.07023">
        <ele>309.6000061</ele>
        <time>2013-08-10T06:42:52Z</time>
      </trkpt>
      <trkpt lat="43.61312" lon="3.07024">
        <ele>309</ele>
        <time>2013-08-10T06:42:53Z</time>
      </trkpt>
      <trkpt lat="43.61314" lon="3.07026">
        <ele>308.2000122</ele>
        <time>2013-08-10T06:42:54Z</time>
      </trkpt>
      <trkpt lat="43.61316" lon="3.07027">
        <ele>307.6000061</ele>
        <time>2013-08-10T06:42:55Z</time>
      </trkpt>
      <trkpt lat="43.6132" lon="3.0703">
        <ele>306.7999878</ele>
        <time>2013-08-10T06:42:56Z</time>
      </trkpt>
      <trkpt lat="43.61323" lon="3.07032">
        <ele>306.2000122</ele>
        <time>2013-08-10T06:42:57Z</time>
      </trkpt>
      <trkpt lat="43.61324" lon="3.07033">
        <ele>305.3999939</ele>
        <time>2013-08-10T06:42:58Z</time>
      </trkpt>
      <trkpt lat="43.61327" lon="3.07035">
        <ele>304.6000061</ele>
        <time>2013-08-10T06:42:59Z</time>
      </trkpt>
      <trkpt lat="43.61329" lon="3.07036">
        <ele>303.6000061</ele>
        <time>2013-08-10T06:43:00Z</time>
      </trkpt>
      <trkpt lat="43.61333" lon="3.07038">
        <ele>302.7999878</ele>
        <time>2013-08-10T06:43:01Z</time>
      </trkpt>
      <trkpt lat="43.61336" lon="3.07039">
        <ele>301.7999878</ele>
        <time>2013-08-10T06:43:02Z</time>
      </trkpt>
      <trkpt lat="43.6134" lon="3.07039">
        <ele>301</ele>
        <time>2013-08-10T06:43:03Z</time>
      </trkpt>
      <trkpt lat="43.61342" lon="3.07039">
        <ele>300</ele>
        <time>2013-08-10T06:43:04Z</time>
      </trkpt>
      <trkpt lat="43.61344" lon="3.07039">
        <ele>299.2000122</ele>
        <time>2013-08-10T06:43:05Z</time>
      </trkpt>
      <trkpt lat="43.61348" lon="3.07036">
        <ele>298.2000122</ele>
        <time>2013-08-10T06:43:06Z</time>
      </trkpt>
      <trkpt lat="43.61352" lon="3.07035">
        <ele>297.3999939</ele>
        <time>2013-08-10T06:43:07Z</time>
      </trkpt>
      <trkpt lat="43.61356" lon="3.07035">
        <ele>296.6000061</ele>
        <time>2013-08-10T06:43:08Z</time>
      </trkpt>
      <trkpt lat="43.6136" lon="3.07034">
        <ele>295</ele>
        <time>2013-08-10T06:43:09Z</time>
      </trkpt>
      <trkpt lat="43.61364" lon="3.07034">
        <ele>294.2000122</ele>
        <time>2013-08-10T06:43:10Z</time>
      </trkpt>
      <trkpt lat="43.61368" lon="3.07033">
        <ele>293.3999939</ele>
        <time>2013-08-10T06:43:11Z</time>
      </trkpt>
      <trkpt lat="43.61371" lon="3.07032">
        <ele>292.6000061</ele>
        <time>2013-08-10T06:43:12Z</time>
      </trkpt>
      <trkpt lat="43.61376" lon="3.07031">
        <ele>291.7999878</ele>
        <time>2013-08-10T06:43:13Z</time>
      </trkpt>
      <trkpt lat="43.61378" lon="3.07031">
        <ele>291</ele>
        <time>2013-08-10T06:43:14Z</time>
      </trkpt>
      <trkpt lat="43.61381" lon="3.07031">
        <ele>290.6000061</ele>
        <time>2013-08-10T06:43:15Z</time>
      </trkpt>
      <trkpt lat="43.61384" lon="3.0703">
        <ele>290.2000122</ele>
        <time>2013-08-10T06:43:16Z</time>
      </trkpt>
      <trkpt lat="43.61387" lon="3.0703">
        <ele>289.7999878</ele>
        <time>2013-08-10T06:43:17Z</time>
      </trkpt>
      <trkpt lat="43.6139" lon="3.07028">
        <ele>289.2000122</ele>
        <time>2013-08-10T06:43:18Z</time>
      </trkpt>
      <trkpt lat="43.61396" lon="3.07027">
        <ele>288.7999878</ele>
        <time>2013-08-10T06:43:19Z</time>
      </trkpt>
      <trkpt lat="43.61399" lon="3.07026">
        <ele>288.3999939</ele>
        <time>2013-08-10T06:43:20Z</time>
      </trkpt>
      <trkpt lat="43.61402" lon="3.07025">
        <ele>287.7999878</ele>
        <time>2013-08-10T06:43:21Z</time>
      </trkpt>
      <trkpt lat="43.61407" lon="3.07024">
        <ele>286.7999878</ele>
        <time>2013-08-10T06:43:23Z</time>
      </trkpt>
      <trkpt lat="43.61411" lon="3.07022">
        <ele>286.3999939</ele>
        <time>2013-08-10T06:43:24Z</time>
      </trkpt>
      <trkpt lat="43.61414" lon="3.07021">
        <ele>286</ele>
        <time>2013-08-10T06:43:25Z</time>
      </trkpt>
      <trkpt lat="43.61417" lon="3.07021">
        <ele>285.6000061</ele>
        <time>2013-08-10T06:43:26Z</time>
      </trkpt>
      <trkpt lat="43.61423" lon="3.07022">
        <ele>285</ele>
        <time>2013-08-10T06:43:27Z</time>
      </trkpt>
      <trkpt lat="43.61424" lon="3.07024">
        <ele>284.6000061</ele>
        <time>2013-08-10T06:43:28Z</time>
      </trkpt>
      <trkpt lat="43.61428" lon="3.07027">
        <ele>284.6000061</ele>
        <time>2013-08-10T06:43:31Z</time>
      </trkpt>
      <trkpt lat="43.61432" lon="3.07026">
        <ele>284.6000061</ele>
        <time>2013-08-10T06:43:33Z</time>
      </trkpt>
      <trkpt lat="43.61446" lon="3.0703">
        <ele>284.6000061</ele>
        <time>2013-08-10T06:43:36Z</time>
      </trkpt>
      <trkpt lat="43.6145" lon="3.07031">
        <ele>284.6000061</ele>
        <time>2013-08-10T06:43:37Z</time>
      </trkpt>
      <trkpt lat="43.61457" lon="3.07035">
        <ele>284.2000122</ele>
        <time>2013-08-10T06:43:39Z</time>
      </trkpt>
      <trkpt lat="43.61462" lon="3.07039">
        <ele>283.6000061</ele>
        <time>2013-08-10T06:43:40Z</time>
      </trkpt>
      <trkpt lat="43.61466" lon="3.07042">
        <ele>283.2000122</ele>
        <time>2013-08-10T06:43:41Z</time>
      </trkpt>
      <trkpt lat="43.61469" lon="3.07045">
        <ele>282.7999878</ele>
        <time>2013-08-10T06:43:42Z</time>
      </trkpt>
      <trkpt lat="43.61471" lon="3.07046">
        <ele>282.2000122</ele>
        <time>2013-08-10T06:43:43Z</time>
      </trkpt>
      <trkpt lat="43.61473" lon="3.07047">
        <ele>281.6000061</ele>
        <time>2013-08-10T06:43:44Z</time>
      </trkpt>
      <trkpt lat="43.61474" lon="3.07048">
        <ele>281</ele>
        <time>2013-08-10T06:43:45Z</time>
      </trkpt>
      <trkpt lat="43.61476" lon="3.07049">
        <ele>280.3999939</ele>
        <time>2013-08-10T06:43:46Z</time>
      </trkpt>
      <trkpt lat="43.61479" lon="3.07053">
        <ele>279.7999878</ele>
        <time>2013-08-10T06:43:47Z</time>
      </trkpt>
      <trkpt lat="43.61482" lon="3.07056">
        <ele>279.2000122</ele>
        <time>2013-08-10T06:43:48Z</time>
      </trkpt>
      <trkpt lat="43.61485" lon="3.07059">
        <ele>278.6000061</ele>
        <time>2013-08-10T06:43:49Z</time>
      </trkpt>
      <trkpt lat="43.61487" lon="3.07062">
        <ele>278.2000122</ele>
        <time>2013-08-10T06:43:50Z</time>
      </trkpt>
      <trkpt lat="43.61489" lon="3.07064">
        <ele>277.6000061</ele>
        <time>2013-08-10T06:43:51Z</time>
      </trkpt>
      <trkpt lat="43.6149" lon="3.07066">
        <ele>277</ele>
        <time>2013-08-10T06:43:52Z</time>
      </trkpt>
      <trkpt lat="43.61492" lon="3.07067">
        <ele>276.3999939</ele>
        <time>2013-08-10T06:43:53Z</time>
      </trkpt>
      <trkpt lat="43.61494" lon="3.07068">
        <ele>275.7999878</ele>
        <time>2013-08-10T06:43:54Z</time>
      </trkpt>
      <trkpt lat="43.61496" lon="3.07068">
        <ele>275.3999939</ele>
        <time>2013-08-10T06:43:55Z</time>
      </trkpt>
      <trkpt lat="43.61498" lon="3.0707">
        <ele>274.7999878</ele>
        <time>2013-08-10T06:43:56Z</time>
      </trkpt>
      <trkpt lat="43.61501" lon="3.07072">
        <ele>274.2000122</ele>
        <time>2013-08-10T06:43:57Z</time>
      </trkpt>
      <trkpt lat="43.61503" lon="3.07075">
        <ele>273.7999878</ele>
        <time>2013-08-10T06:43:58Z</time>
      </trkpt>
      <trkpt lat="43.61504" lon="3.07077">
        <ele>272.7999878</ele>
        <time>2013-08-10T06:43:59Z</time>
      </trkpt>
      <trkpt lat="43.61505" lon="3.07078">
        <ele>272.3999939</ele>
        <time>2013-08-10T06:44:00Z</time>
      </trkpt>
      <trkpt lat="43.61506" lon="3.07079">
        <ele>272</ele>
        <time>2013-08-10T06:44:01Z</time>
      </trkpt>
      <trkpt lat="43.61506" lon="3.07079">
        <ele>271.3999939</ele>
        <time>2013-08-10T06:44:02Z</time>
      </trkpt>
      <trkpt lat="43.61506" lon="3.07079">
        <ele>271</ele>
        <time>2013-08-10T06:44:03Z</time>
      </trkpt>
      <trkpt lat="43.61506" lon="3.07079">
        <ele>271</ele>
        <time>2013-08-10T06:44:04Z</time>
      </trkpt>
      <trkpt lat="43.61506" lon="3.07079">
        <ele>271</ele>
        <time>2013-08-10T06:44:06Z</time>
      </trkpt>
      <trkpt lat="43.61511" lon="3.07083">
        <ele>271</ele>
        <time>2013-08-10T06:44:15Z</time>
      </trkpt>
      <trkpt lat="43.61514" lon="3.07085">
        <ele>271</ele>
        <time>2013-08-10T06:44:16Z</time>
      </trkpt>
      <trkpt lat="43.6152" lon="3.0709">
        <ele>271</ele>
        <time>2013-08-10T06:44:20Z</time>
      </trkpt>
      <trkpt lat="43.61521" lon="3.07091">
        <ele>271</ele>
        <time>2013-08-10T06:44:21Z</time>
      </trkpt>
      <trkpt lat="43.61525" lon="3.07093">
        <ele>270.2000122</ele>
        <time>2013-08-10T06:44:23Z</time>
      </trkpt>
      <trkpt lat="43.61527" lon="3.07094">
        <ele>269.7999878</ele>
        <time>2013-08-10T06:44:24Z</time>
      </trkpt>
      <trkpt lat="43.61529" lon="3.07097">
        <ele>269.3999939</ele>
        <time>2013-08-10T06:44:25Z</time>
      </trkpt>
      <trkpt lat="43.6153" lon="3.07099">
        <ele>268.7999878</ele>
        <time>2013-08-10T06:44:26Z</time>
      </trkpt>
      <trkpt lat="43.61534" lon="3.07109">
        <ele>268.7999878</ele>
        <time>2013-08-10T06:44:29Z</time>
      </trkpt>
      <trkpt lat="43.61536" lon="3.07111">
        <ele>268.3999939</ele>
        <time>2013-08-10T06:44:30Z</time>
      </trkpt>
      <trkpt lat="43.61538" lon="3.07111">
        <ele>268</ele>
        <time>2013-08-10T06:44:31Z</time>
      </trkpt>
      <trkpt lat="43.6154" lon="3.0711">
        <ele>267.6000061</ele>
        <time>2013-08-10T06:44:32Z</time>
      </trkpt>
      <trkpt lat="43.61541" lon="3.0711">
        <ele>267</ele>
        <time>2013-08-10T06:44:33Z</time>
      </trkpt>
      <trkpt lat="43.61542" lon="3.0711">
        <ele>266.6000061</ele>
        <time>2013-08-10T06:44:34Z</time>
      </trkpt>
      <trkpt lat="43.61543" lon="3.0711">
        <ele>266.6000061</ele>
        <time>2013-08-10T06:44:37Z</time>
      </trkpt>
      <trkpt lat="43.61546" lon="3.07108">
        <ele>266.6000061</ele>
        <time>2013-08-10T06:44:56Z</time>
      </trkpt>
      <trkpt lat="43.61548" lon="3.07107">
        <ele>266.6000061</ele>
        <time>2013-08-10T06:44:57Z</time>
      </trkpt>
      <trkpt lat="43.61558" lon="3.07102">
        <ele>266.6000061</ele>
        <time>2013-08-10T06:45:02Z</time>
      </trkpt>
      <trkpt lat="43.6156" lon="3.07101">
        <ele>266.6000061</ele>
        <time>2013-08-10T06:45:03Z</time>
      </trkpt>
      <trkpt lat="43.61573" lon="3.071">
        <ele>266.6000061</ele>
        <time>2013-08-10T06:45:10Z</time>
      </trkpt>
      <trkpt lat="43.61587" lon="3.07102">
        <ele>266.6000061</ele>
        <time>2013-08-10T06:45:16Z</time>
      </trkpt>
      <trkpt lat="43.61606" lon="3.07102">
        <ele>266.6000061</ele>
        <time>2013-08-10T06:45:21Z</time>
      </trkpt>
      <trkpt lat="43.6163" lon="3.07099">
        <ele>266.6000061</ele>
        <time>2013-08-10T06:45:26Z</time>
      </trkpt>
      <trkpt lat="43.61655" lon="3.07092">
        <ele>266.6000061</ele>
        <time>2013-08-10T06:45:33Z</time>
      </trkpt>
      <trkpt lat="43.61674" lon="3.07082">
        <ele>266.6000061</ele>
        <time>2013-08-10T06:45:40Z</time>
      </trkpt>
      <trkpt lat="43.61685" lon="3.07074">
        <ele>267</ele>
        <time>2013-08-10T06:45:45Z</time>
      </trkpt>
      <trkpt lat="43.61686" lon="3.07072">
        <ele>267.3999939</ele>
        <time>2013-08-10T06:45:46Z</time>
      </trkpt>
      <trkpt lat="43.61688" lon="3.0707">
        <ele>268</ele>
        <time>2013-08-10T06:45:47Z</time>
      </trkpt>
      <trkpt lat="43.61689" lon="3.07069">
        <ele>268.3999939</ele>
        <time>2013-08-10T06:45:48Z</time>
      </trkpt>
      <trkpt lat="43.61691" lon="3.07067">
        <ele>268.7999878</ele>
        <time>2013-08-10T06:45:49Z</time>
      </trkpt>
      <trkpt lat="43.61695" lon="3.07062">
        <ele>268.7999878</ele>
        <time>2013-08-10T06:45:52Z</time>
      </trkpt>
      <trkpt lat="43.61697" lon="3.0706">
        <ele>269.2000122</ele>
        <time>2013-08-10T06:45:53Z</time>
      </trkpt>
      <trkpt lat="43.61698" lon="3.07058">
        <ele>269.6000061</ele>
        <time>2013-08-10T06:45:54Z</time>
      </trkpt>
      <trkpt lat="43.617" lon="3.07056">
        <ele>270</ele>
        <time>2013-08-10T06:45:55Z</time>
      </trkpt>
      <trkpt lat="43.61702" lon="3.07054">
        <ele>270.3999939</ele>
        <time>2013-08-10T06:45:56Z</time>
      </trkpt>
      <trkpt lat="43.61703" lon="3.07052">
        <ele>270.7999878</ele>
        <time>2013-08-10T06:45:57Z</time>
      </trkpt>
      <trkpt lat="43.61711" lon="3.07042">
        <ele>270.7999878</ele>
        <time>2013-08-10T06:46:01Z</time>
      </trkpt>
      <trkpt lat="43.61723" lon="3.07037">
        <ele>270.7999878</ele>
        <time>2013-08-10T06:46:06Z</time>
      </trkpt>
      <trkpt lat="43.61733" lon="3.07033">
        <ele>271.2000122</ele>
        <time>2013-08-10T06:46:11Z</time>
      </trkpt>
      <trkpt lat="43.61735" lon="3.07032">
        <ele>271.6000061</ele>
        <time>2013-08-10T06:46:12Z</time>
      </trkpt>
      <trkpt lat="43.61737" lon="3.07031">
        <ele>272</ele>
        <time>2013-08-10T06:46:13Z</time>
      </trkpt>
      <trkpt lat="43.61739" lon="3.0703">
        <ele>272.6000061</ele>
        <time>2013-08-10T06:46:14Z</time>
      </trkpt>
      <trkpt lat="43.61741" lon="3.07028">
        <ele>273</ele>
        <time>2013-08-10T06:46:15Z</time>
      </trkpt>
      <trkpt lat="43.6175" lon="3.07022">
        <ele>273</ele>
        <time>2013-08-10T06:46:19Z</time>
      </trkpt>
      <trkpt lat="43.61759" lon="3.07014">
        <ele>273.3999939</ele>
        <time>2013-08-10T06:46:24Z</time>
      </trkpt>
      <trkpt lat="43.6176" lon="3.07013">
        <ele>273.7999878</ele>
        <time>2013-08-10T06:46:25Z</time>
      </trkpt>
      <trkpt lat="43.61762" lon="3.07011">
        <ele>274.2000122</ele>
        <time>2013-08-10T06:46:26Z</time>
      </trkpt>
      <trkpt lat="43.61764" lon="3.0701">
        <ele>274.6000061</ele>
        <time>2013-08-10T06:46:27Z</time>
      </trkpt>
      <trkpt lat="43.61765" lon="3.07008">
        <ele>275</ele>
        <time>2013-08-10T06:46:28Z</time>
      </trkpt>
      <trkpt lat="43.61774" lon="3.06996">
        <ele>275</ele>
        <time>2013-08-10T06:46:33Z</time>
      </trkpt>
      <trkpt lat="43.61781" lon="3.06981">
        <ele>275</ele>
        <time>2013-08-10T06:46:39Z</time>
      </trkpt>
      <trkpt lat="43.61788" lon="3.06963">
        <ele>275</ele>
        <time>2013-08-10T06:46:45Z</time>
      </trkpt>
      <trkpt lat="43.61789" lon="3.06961">
        <ele>275.3999939</ele>
        <time>2013-08-10T06:46:46Z</time>
      </trkpt>
      <trkpt lat="43.61791" lon="3.06959">
        <ele>275.7999878</ele>
        <time>2013-08-10T06:46:47Z</time>
      </trkpt>
      <trkpt lat="43.61792" lon="3.06957">
        <ele>276.2000122</ele>
        <time>2013-08-10T06:46:48Z</time>
      </trkpt>
      <trkpt lat="43.61794" lon="3.06955">
        <ele>276.6000061</ele>
        <time>2013-08-10T06:46:49Z</time>
      </trkpt>
      <trkpt lat="43.61795" lon="3.06953">
        <ele>277</ele>
        <time>2013-08-10T06:46:50Z</time>
      </trkpt>
      <trkpt lat="43.61798" lon="3.06949">
        <ele>277</ele>
        <time>2013-08-10T06:46:52Z</time>
      </trkpt>
      <trkpt lat="43.61804" lon="3.06941">
        <ele>277.3999939</ele>
        <time>2013-08-10T06:46:56Z</time>
      </trkpt>
      <trkpt lat="43.61805" lon="3.06939">
        <ele>277.7999878</ele>
        <time>2013-08-10T06:46:57Z</time>
      </trkpt>
      <trkpt lat="43.61807" lon="3.06936">
        <ele>278.2000122</ele>
        <time>2013-08-10T06:46:58Z</time>
      </trkpt>
      <trkpt lat="43.61808" lon="3.06933">
        <ele>278.6000061</ele>
        <time>2013-08-10T06:46:59Z</time>
      </trkpt>
      <trkpt lat="43.61809" lon="3.06931">
        <ele>279.2000122</ele>
        <time>2013-08-10T06:47:00Z</time>
      </trkpt>
      <trkpt lat="43.61815" lon="3.06912">
        <ele>279.2000122</ele>
        <time>2013-08-10T06:47:07Z</time>
      </trkpt>
      <trkpt lat="43.6182" lon="3.06896">
        <ele>279.6000061</ele>
        <time>2013-08-10T06:47:13Z</time>
      </trkpt>
      <trkpt lat="43.6182" lon="3.06893">
        <ele>280</ele>
        <time>2013-08-10T06:47:14Z</time>
      </trkpt>
      <trkpt lat="43.6182" lon="3.0689">
        <ele>280.3999939</ele>
        <time>2013-08-10T06:47:15Z</time>
      </trkpt>
      <trkpt lat="43.61821" lon="3.06887">
        <ele>280.7999878</ele>
        <time>2013-08-10T06:47:16Z</time>
      </trkpt>
      <trkpt lat="43.61821" lon="3.06884">
        <ele>281.2000122</ele>
        <time>2013-08-10T06:47:17Z</time>
      </trkpt>
      <trkpt lat="43.6182" lon="3.06869">
        <ele>281.2000122</ele>
        <time>2013-08-10T06:47:22Z</time>
      </trkpt>
      <trkpt lat="43.61818" lon="3.06853">
        <ele>281.2000122</ele>
        <time>2013-08-10T06:47:27Z</time>
      </trkpt>
      <trkpt lat="43.61818" lon="3.06846">
        <ele>281.6000061</ele>
        <time>2013-08-10T06:47:29Z</time>
      </trkpt>
      <trkpt lat="43.61818" lon="3.06843">
        <ele>282</ele>
        <time>2013-08-10T06:47:30Z</time>
      </trkpt>
      <trkpt lat="43.61817" lon="3.0684">
        <ele>282.3999939</ele>
        <time>2013-08-10T06:47:31Z</time>
      </trkpt>
      <trkpt lat="43.61816" lon="3.06836">
        <ele>282.7999878</ele>
        <time>2013-08-10T06:47:32Z</time>
      </trkpt>
      <trkpt lat="43.61816" lon="3.06833">
        <ele>283.2000122</ele>
        <time>2013-08-10T06:47:33Z</time>
      </trkpt>
      <trkpt lat="43.61816" lon="3.06809">
        <ele>283.2000122</ele>
        <time>2013-08-10T06:47:41Z</time>
      </trkpt>
      <trkpt lat="43.61817" lon="3.06804">
        <ele>283.6000061</ele>
        <time>2013-08-10T06:47:43Z</time>
      </trkpt>
      <trkpt lat="43.61818" lon="3.06801">
        <ele>284</ele>
        <time>2013-08-10T06:47:44Z</time>
      </trkpt>
      <trkpt lat="43.61819" lon="3.06799">
        <ele>284.6000061</ele>
        <time>2013-08-10T06:47:45Z</time>
      </trkpt>
      <trkpt lat="43.6182" lon="3.06796">
        <ele>285</ele>
        <time>2013-08-10T06:47:46Z</time>
      </trkpt>
      <trkpt lat="43.61821" lon="3.06794">
        <ele>285.3999939</ele>
        <time>2013-08-10T06:47:47Z</time>
      </trkpt>
      <trkpt lat="43.6183" lon="3.0679">
        <ele>285.3999939</ele>
        <time>2013-08-10T06:47:52Z</time>
      </trkpt>
      <trkpt lat="43.61843" lon="3.06791">
        <ele>285.3999939</ele>
        <time>2013-08-10T06:47:56Z</time>
      </trkpt>
      <trkpt lat="43.61865" lon="3.0678">
        <ele>285.3999939</ele>
        <time>2013-08-10T06:48:02Z</time>
      </trkpt>
      <trkpt lat="43.61876" lon="3.06766">
        <ele>285.3999939</ele>
        <time>2013-08-10T06:48:06Z</time>
      </trkpt>
      <trkpt lat="43.61879" lon="3.06762">
        <ele>285.3999939</ele>
        <time>2013-08-10T06:48:07Z</time>
      </trkpt>
      <trkpt lat="43.6189" lon="3.06744">
        <ele>285.3999939</ele>
        <time>2013-08-10T06:48:11Z</time>
      </trkpt>
      <trkpt lat="43.61895" lon="3.06736">
        <ele>285.3999939</ele>
        <time>2013-08-10T06:48:13Z</time>
      </trkpt>
      <trkpt lat="43.61907" lon="3.06718">
        <ele>285.3999939</ele>
        <time>2013-08-10T06:48:19Z</time>
      </trkpt>
      <trkpt lat="43.61915" lon="3.06702">
        <ele>285.3999939</ele>
        <time>2013-08-10T06:48:24Z</time>
      </trkpt>
      <trkpt lat="43.6192" lon="3.06697">
        <ele>285.7999878</ele>
        <time>2013-08-10T06:48:27Z</time>
      </trkpt>
      <trkpt lat="43.61922" lon="3.06695">
        <ele>286.2000122</ele>
        <time>2013-08-10T06:48:28Z</time>
      </trkpt>
      <trkpt lat="43.61924" lon="3.06694">
        <ele>286.7999878</ele>
        <time>2013-08-10T06:48:29Z</time>
      </trkpt>
      <trkpt lat="43.61926" lon="3.06693">
        <ele>287.2000122</ele>
        <time>2013-08-10T06:48:30Z</time>
      </trkpt>
      <trkpt lat="43.61927" lon="3.06691">
        <ele>287.6000061</ele>
        <time>2013-08-10T06:48:31Z</time>
      </trkpt>
      <trkpt lat="43.61932" lon="3.06686">
        <ele>288</ele>
        <time>2013-08-10T06:48:34Z</time>
      </trkpt>
      <trkpt lat="43.61933" lon="3.06684">
        <ele>288.6000061</ele>
        <time>2013-08-10T06:48:35Z</time>
      </trkpt>
      <trkpt lat="43.61935" lon="3.06681">
        <ele>289</ele>
        <time>2013-08-10T06:48:36Z</time>
      </trkpt>
      <trkpt lat="43.61937" lon="3.06679">
        <ele>289.3999939</ele>
        <time>2013-08-10T06:48:37Z</time>
      </trkpt>
      <trkpt lat="43.61938" lon="3.06676">
        <ele>289.7999878</ele>
        <time>2013-08-10T06:48:38Z</time>
      </trkpt>
      <trkpt lat="43.61942" lon="3.06667">
        <ele>289.7999878</ele>
        <time>2013-08-10T06:48:42Z</time>
      </trkpt>
      <trkpt lat="43.61944" lon="3.06653">
        <ele>290.3999939</ele>
        <time>2013-08-10T06:48:47Z</time>
      </trkpt>
      <trkpt lat="43.61944" lon="3.0665">
        <ele>290.7999878</ele>
        <time>2013-08-10T06:48:48Z</time>
      </trkpt>
      <trkpt lat="43.61945" lon="3.06648">
        <ele>291.3999939</ele>
        <time>2013-08-10T06:48:49Z</time>
      </trkpt>
      <trkpt lat="43.61945" lon="3.06645">
        <ele>291.7999878</ele>
        <time>2013-08-10T06:48:50Z</time>
      </trkpt>
      <trkpt lat="43.61945" lon="3.06642">
        <ele>292.3999939</ele>
        <time>2013-08-10T06:48:51Z</time>
      </trkpt>
      <trkpt lat="43.61947" lon="3.06633">
        <ele>292.3999939</ele>
        <time>2013-08-10T06:48:54Z</time>
      </trkpt>
      <trkpt lat="43.61946" lon="3.06623">
        <ele>292.3999939</ele>
        <time>2013-08-10T06:48:58Z</time>
      </trkpt>
      <trkpt lat="43.61947" lon="3.06621">
        <ele>292.3999939</ele>
        <time>2013-08-10T06:48:59Z</time>
      </trkpt>
      <trkpt lat="43.61948" lon="3.06613">
        <ele>292.7999878</ele>
        <time>2013-08-10T06:49:02Z</time>
      </trkpt>
      <trkpt lat="43.61949" lon="3.0661">
        <ele>293.2000122</ele>
        <time>2013-08-10T06:49:03Z</time>
      </trkpt>
      <trkpt lat="43.61949" lon="3.06607">
        <ele>293.6000061</ele>
        <time>2013-08-10T06:49:04Z</time>
      </trkpt>
      <trkpt lat="43.61949" lon="3.06605">
        <ele>294</ele>
        <time>2013-08-10T06:49:05Z</time>
      </trkpt>
      <trkpt lat="43.61949" lon="3.06603">
        <ele>294.3999939</ele>
        <time>2013-08-10T06:49:06Z</time>
      </trkpt>
      <trkpt lat="43.61951" lon="3.06587">
        <ele>294.3999939</ele>
        <time>2013-08-10T06:49:12Z</time>
      </trkpt>
      <trkpt lat="43.61952" lon="3.06581">
        <ele>294.7999878</ele>
        <time>2013-08-10T06:49:14Z</time>
      </trkpt>
      <trkpt lat="43.61952" lon="3.06578">
        <ele>295.2000122</ele>
        <time>2013-08-10T06:49:15Z</time>
      </trkpt>
      <trkpt lat="43.61952" lon="3.06576">
        <ele>295.6000061</ele>
        <time>2013-08-10T06:49:16Z</time>
      </trkpt>
      <trkpt lat="43.61952" lon="3.06573">
        <ele>296</ele>
        <time>2013-08-10T06:49:17Z</time>
      </trkpt>
      <trkpt lat="43.61952" lon="3.06571">
        <ele>296.3999939</ele>
        <time>2013-08-10T06:49:18Z</time>
      </trkpt>
      <trkpt lat="43.61952" lon="3.06568">
        <ele>296.3999939</ele>
        <time>2013-08-10T06:49:19Z</time>
      </trkpt>
      <trkpt lat="43.61952" lon="3.06561">
        <ele>296.7999878</ele>
        <time>2013-08-10T06:49:22Z</time>
      </trkpt>
      <trkpt lat="43.61952" lon="3.06558">
        <ele>297.2000122</ele>
        <time>2013-08-10T06:49:23Z</time>
      </trkpt>
      <trkpt lat="43.61952" lon="3.06555">
        <ele>297.6000061</ele>
        <time>2013-08-10T06:49:24Z</time>
      </trkpt>
      <trkpt lat="43.61953" lon="3.06552">
        <ele>298</ele>
        <time>2013-08-10T06:49:25Z</time>
      </trkpt>
      <trkpt lat="43.61953" lon="3.06549">
        <ele>298.3999939</ele>
        <time>2013-08-10T06:49:26Z</time>
      </trkpt>
      <trkpt lat="43.61953" lon="3.06547">
        <ele>298.3999939</ele>
        <time>2013-08-10T06:49:27Z</time>
      </trkpt>
      <trkpt lat="43.61955" lon="3.06535">
        <ele>298.7999878</ele>
        <time>2013-08-10T06:49:32Z</time>
      </trkpt>
      <trkpt lat="43.61955" lon="3.06532">
        <ele>299.3999939</ele>
        <time>2013-08-10T06:49:33Z</time>
      </trkpt>
      <trkpt lat="43.61954" lon="3.0653">
        <ele>299.7999878</ele>
        <time>2013-08-10T06:49:34Z</time>
      </trkpt>
      <trkpt lat="43.61953" lon="3.06526">
        <ele>300.2000122</ele>
        <time>2013-08-10T06:49:35Z</time>
      </trkpt>
      <trkpt lat="43.61953" lon="3.06523">
        <ele>300.6000061</ele>
        <time>2013-08-10T06:49:36Z</time>
      </trkpt>
      <trkpt lat="43.61953" lon="3.0652">
        <ele>300.6000061</ele>
        <time>2013-08-10T06:49:37Z</time>
      </trkpt>
      <trkpt lat="43.61953" lon="3.06517">
        <ele>300.6000061</ele>
        <time>2013-08-10T06:49:39Z</time>
      </trkpt>
      <trkpt lat="43.61953" lon="3.06504">
        <ele>300.6000061</ele>
        <time>2013-08-10T06:49:44Z</time>
      </trkpt>
      <trkpt lat="43.61952" lon="3.06493">
        <ele>301</ele>
        <time>2013-08-10T06:49:49Z</time>
      </trkpt>
      <trkpt lat="43.61952" lon="3.06491">
        <ele>301.3999939</ele>
        <time>2013-08-10T06:49:50Z</time>
      </trkpt>
      <trkpt lat="43.61951" lon="3.06489">
        <ele>301.7999878</ele>
        <time>2013-08-10T06:49:51Z</time>
      </trkpt>
      <trkpt lat="43.6195" lon="3.06487">
        <ele>302.2000122</ele>
        <time>2013-08-10T06:49:52Z</time>
      </trkpt>
      <trkpt lat="43.6195" lon="3.06485">
        <ele>302.6000061</ele>
        <time>2013-08-10T06:49:53Z</time>
      </trkpt>
      <trkpt lat="43.61949" lon="3.06479">
        <ele>302.6000061</ele>
        <time>2013-08-10T06:49:55Z</time>
      </trkpt>
      <trkpt lat="43.61945" lon="3.06462">
        <ele>302.6000061</ele>
        <time>2013-08-10T06:50:02Z</time>
      </trkpt>
      <trkpt lat="43.61945" lon="3.06458">
        <ele>303</ele>
        <time>2013-08-10T06:50:04Z</time>
      </trkpt>
      <trkpt lat="43.61944" lon="3.06456">
        <ele>303.6000061</ele>
        <time>2013-08-10T06:50:05Z</time>
      </trkpt>
      <trkpt lat="43.61944" lon="3.06453">
        <ele>304</ele>
        <time>2013-08-10T06:50:06Z</time>
      </trkpt>
      <trkpt lat="43.61944" lon="3.06451">
        <ele>304.3999939</ele>
        <time>2013-08-10T06:50:07Z</time>
      </trkpt>
      <trkpt lat="43.61943" lon="3.06449">
        <ele>304.7999878</ele>
        <time>2013-08-10T06:50:08Z</time>
      </trkpt>
      <trkpt lat="43.61943" lon="3.06447">
        <ele>304.7999878</ele>
        <time>2013-08-10T06:50:09Z</time>
      </trkpt>
      <trkpt lat="43.61942" lon="3.06434">
        <ele>305.3999939</ele>
        <time>2013-08-10T06:50:16Z</time>
      </trkpt>
      <trkpt lat="43.61942" lon="3.06432">
        <ele>305.7999878</ele>
        <time>2013-08-10T06:50:17Z</time>
      </trkpt>
      <trkpt lat="43.61942" lon="3.0643">
        <ele>306.2000122</ele>
        <time>2013-08-10T06:50:18Z</time>
      </trkpt>
      <trkpt lat="43.61942" lon="3.06428">
        <ele>306.6000061</ele>
        <time>2013-08-10T06:50:19Z</time>
      </trkpt>
      <trkpt lat="43.61941" lon="3.06426">
        <ele>307</ele>
        <time>2013-08-10T06:50:20Z</time>
      </trkpt>
      <trkpt lat="43.61939" lon="3.06419">
        <ele>307</ele>
        <time>2013-08-10T06:50:24Z</time>
      </trkpt>
      <trkpt lat="43.61938" lon="3.06414">
        <ele>307</ele>
        <time>2013-08-10T06:50:27Z</time>
      </trkpt>
      <trkpt lat="43.61937" lon="3.0641">
        <ele>307.3999939</ele>
        <time>2013-08-10T06:50:29Z</time>
      </trkpt>
      <trkpt lat="43.61937" lon="3.06408">
        <ele>308</ele>
        <time>2013-08-10T06:50:30Z</time>
      </trkpt>
      <trkpt lat="43.61937" lon="3.06406">
        <ele>308.3999939</ele>
        <time>2013-08-10T06:50:31Z</time>
      </trkpt>
      <trkpt lat="43.61937" lon="3.06404">
        <ele>308.7999878</ele>
        <time>2013-08-10T06:50:32Z</time>
      </trkpt>
      <trkpt lat="43.61937" lon="3.06402">
        <ele>309.2000122</ele>
        <time>2013-08-10T06:50:33Z</time>
      </trkpt>
      <trkpt lat="43.61937" lon="3.064">
        <ele>309.2000122</ele>
        <time>2013-08-10T06:50:34Z</time>
      </trkpt>
      <trkpt lat="43.61937" lon="3.06393">
        <ele>309.6000061</ele>
        <time>2013-08-10T06:50:38Z</time>
      </trkpt>
      <trkpt lat="43.61937" lon="3.06391">
        <ele>310</ele>
        <time>2013-08-10T06:50:39Z</time>
      </trkpt>
      <trkpt lat="43.61936" lon="3.0639">
        <ele>310.3999939</ele>
        <time>2013-08-10T06:50:40Z</time>
      </trkpt>
      <trkpt lat="43.61936" lon="3.06388">
        <ele>311</ele>
        <time>2013-08-10T06:50:41Z</time>
      </trkpt>
      <trkpt lat="43.61936" lon="3.06387">
        <ele>311.3999939</ele>
        <time>2013-08-10T06:50:42Z</time>
      </trkpt>
      <trkpt lat="43.61934" lon="3.06377">
        <ele>311.7999878</ele>
        <time>2013-08-10T06:50:47Z</time>
      </trkpt>
      <trkpt lat="43.61934" lon="3.06375">
        <ele>312.2000122</ele>
        <time>2013-08-10T06:50:48Z</time>
      </trkpt>
      <trkpt lat="43.61934" lon="3.06373">
        <ele>312.6000061</ele>
        <time>2013-08-10T06:50:49Z</time>
      </trkpt>
      <trkpt lat="43.61933" lon="3.06371">
        <ele>313</ele>
        <time>2013-08-10T06:50:50Z</time>
      </trkpt>
      <trkpt lat="43.61934" lon="3.06369">
        <ele>313.3999939</ele>
        <time>2013-08-10T06:50:51Z</time>
      </trkpt>
      <trkpt lat="43.61933" lon="3.06367">
        <ele>313.3999939</ele>
        <time>2013-08-10T06:50:53Z</time>
      </trkpt>
      <trkpt lat="43.61933" lon="3.06365">
        <ele>313.3999939</ele>
        <time>2013-08-10T06:50:54Z</time>
      </trkpt>
      <trkpt lat="43.61932" lon="3.06361">
        <ele>313.3999939</ele>
        <time>2013-08-10T06:50:57Z</time>
      </trkpt>
      <trkpt lat="43.61931" lon="3.06359">
        <ele>313.7999878</ele>
        <time>2013-08-10T06:50:58Z</time>
      </trkpt>
      <trkpt lat="43.61931" lon="3.06358">
        <ele>314.2000122</ele>
        <time>2013-08-10T06:50:59Z</time>
      </trkpt>
      <trkpt lat="43.6193" lon="3.06356">
        <ele>314.6000061</ele>
        <time>2013-08-10T06:51:00Z</time>
      </trkpt>
      <trkpt lat="43.6193" lon="3.06353">
        <ele>315.3999939</ele>
        <time>2013-08-10T06:51:01Z</time>
      </trkpt>
      <trkpt lat="43.61928" lon="3.06343">
        <ele>315.3999939</ele>
        <time>2013-08-10T06:51:06Z</time>
      </trkpt>
      <trkpt lat="43.61926" lon="3.06337">
        <ele>315.3999939</ele>
        <time>2013-08-10T06:51:09Z</time>
      </trkpt>
      <trkpt lat="43.61925" lon="3.06335">
        <ele>316</ele>
        <time>2013-08-10T06:51:10Z</time>
      </trkpt>
      <trkpt lat="43.61925" lon="3.06333">
        <ele>316.3999939</ele>
        <time>2013-08-10T06:51:11Z</time>
      </trkpt>
      <trkpt lat="43.61925" lon="3.06331">
        <ele>316.7999878</ele>
        <time>2013-08-10T06:51:12Z</time>
      </trkpt>
      <trkpt lat="43.61924" lon="3.0633">
        <ele>317.2000122</ele>
        <time>2013-08-10T06:51:13Z</time>
      </trkpt>
      <trkpt lat="43.61923" lon="3.06328">
        <ele>317.7999878</ele>
        <time>2013-08-10T06:51:14Z</time>
      </trkpt>
      <trkpt lat="43.61923" lon="3.06326">
        <ele>317.7999878</ele>
        <time>2013-08-10T06:51:15Z</time>
      </trkpt>
      <trkpt lat="43.61921" lon="3.0632">
        <ele>317.7999878</ele>
        <time>2013-08-10T06:51:18Z</time>
      </trkpt>
      <trkpt lat="43.61921" lon="3.06318">
        <ele>317.7999878</ele>
        <time>2013-08-10T06:51:19Z</time>
      </trkpt>
      <trkpt lat="43.61921" lon="3.06316">
        <ele>318.2000122</ele>
        <time>2013-08-10T06:51:20Z</time>
      </trkpt>
      <trkpt lat="43.6192" lon="3.06314">
        <ele>318.6000061</ele>
        <time>2013-08-10T06:51:21Z</time>
      </trkpt>
      <trkpt lat="43.6192" lon="3.06312">
        <ele>319.2000122</ele>
        <time>2013-08-10T06:51:22Z</time>
      </trkpt>
      <trkpt lat="43.6192" lon="3.06311">
        <ele>319.6000061</ele>
        <time>2013-08-10T06:51:23Z</time>
      </trkpt>
      <trkpt lat="43.6192" lon="3.06309">
        <ele>320.2000122</ele>
        <time>2013-08-10T06:51:24Z</time>
      </trkpt>
      <trkpt lat="43.61919" lon="3.06307">
        <ele>320.2000122</ele>
        <time>2013-08-10T06:51:26Z</time>
      </trkpt>
      <trkpt lat="43.61918" lon="3.06299">
        <ele>320.6000061</ele>
        <time>2013-08-10T06:51:30Z</time>
      </trkpt>
      <trkpt lat="43.61918" lon="3.06298">
        <ele>321</ele>
        <time>2013-08-10T06:51:31Z</time>
      </trkpt>
      <trkpt lat="43.61917" lon="3.06296">
        <ele>321.3999939</ele>
        <time>2013-08-10T06:51:32Z</time>
      </trkpt>
      <trkpt lat="43.61916" lon="3.06293">
        <ele>321.7999878</ele>
        <time>2013-08-10T06:51:33Z</time>
      </trkpt>
      <trkpt lat="43.61916" lon="3.06291">
        <ele>322.2000122</ele>
        <time>2013-08-10T06:51:34Z</time>
      </trkpt>
      <trkpt lat="43.61914" lon="3.0628">
        <ele>322.2000122</ele>
        <time>2013-08-10T06:51:40Z</time>
      </trkpt>
      <trkpt lat="43.61914" lon="3.06274">
        <ele>322.6000061</ele>
        <time>2013-08-10T06:51:43Z</time>
      </trkpt>
      <trkpt lat="43.61913" lon="3.06271">
        <ele>323</ele>
        <time>2013-08-10T06:51:44Z</time>
      </trkpt>
      <trkpt lat="43.61913" lon="3.06269">
        <ele>323.3999939</ele>
        <time>2013-08-10T06:51:45Z</time>
      </trkpt>
      <trkpt lat="43.61912" lon="3.06266">
        <ele>323.7999878</ele>
        <time>2013-08-10T06:51:46Z</time>
      </trkpt>
      <trkpt lat="43.61911" lon="3.06264">
        <ele>324.2000122</ele>
        <time>2013-08-10T06:51:47Z</time>
      </trkpt>
      <trkpt lat="43.61909" lon="3.06258">
        <ele>324.2000122</ele>
        <time>2013-08-10T06:51:50Z</time>
      </trkpt>
      <trkpt lat="43.61907" lon="3.06254">
        <ele>324.2000122</ele>
        <time>2013-08-10T06:51:52Z</time>
      </trkpt>
      <trkpt lat="43.61906" lon="3.06251">
        <ele>324.2000122</ele>
        <time>2013-08-10T06:51:54Z</time>
      </trkpt>
      <trkpt lat="43.61902" lon="3.06244">
        <ele>324.2000122</ele>
        <time>2013-08-10T06:51:58Z</time>
      </trkpt>
      <trkpt lat="43.61902" lon="3.06242">
        <ele>324.2000122</ele>
        <time>2013-08-10T06:51:59Z</time>
      </trkpt>
      <trkpt lat="43.619" lon="3.06239">
        <ele>324.2000122</ele>
        <time>2013-08-10T06:52:01Z</time>
      </trkpt>
      <trkpt lat="43.61897" lon="3.06235">
        <ele>324.2000122</ele>
        <time>2013-08-10T06:52:05Z</time>
      </trkpt>
      <trkpt lat="43.61894" lon="3.06229">
        <ele>324.6000061</ele>
        <time>2013-08-10T06:52:09Z</time>
      </trkpt>
      <trkpt lat="43.61893" lon="3.06228">
        <ele>325.2000122</ele>
        <time>2013-08-10T06:52:10Z</time>
      </trkpt>
      <trkpt lat="43.61892" lon="3.06226">
        <ele>325.6000061</ele>
        <time>2013-08-10T06:52:11Z</time>
      </trkpt>
      <trkpt lat="43.61891" lon="3.06225">
        <ele>326</ele>
        <time>2013-08-10T06:52:12Z</time>
      </trkpt>
      <trkpt lat="43.6189" lon="3.06224">
        <ele>326.3999939</ele>
        <time>2013-08-10T06:52:13Z</time>
      </trkpt>
      <trkpt lat="43.61887" lon="3.0622">
        <ele>326.7999878</ele>
        <time>2013-08-10T06:52:16Z</time>
      </trkpt>
      <trkpt lat="43.61886" lon="3.06218">
        <ele>327.2000122</ele>
        <time>2013-08-10T06:52:17Z</time>
      </trkpt>
      <trkpt lat="43.61885" lon="3.06217">
        <ele>327.6000061</ele>
        <time>2013-08-10T06:52:18Z</time>
      </trkpt>
      <trkpt lat="43.61884" lon="3.06216">
        <ele>328</ele>
        <time>2013-08-10T06:52:19Z</time>
      </trkpt>
      <trkpt lat="43.61883" lon="3.06214">
        <ele>328.3999939</ele>
        <time>2013-08-10T06:52:20Z</time>
      </trkpt>
      <trkpt lat="43.61882" lon="3.06212">
        <ele>328.3999939</ele>
        <time>2013-08-10T06:52:21Z</time>
      </trkpt>
      <trkpt lat="43.61881" lon="3.06209">
        <ele>328.3999939</ele>
        <time>2013-08-10T06:52:23Z</time>
      </trkpt>
      <trkpt lat="43.61879" lon="3.06206">
        <ele>328.7999878</ele>
        <time>2013-08-10T06:52:26Z</time>
      </trkpt>
      <trkpt lat="43.61878" lon="3.06204">
        <ele>329.2000122</ele>
        <time>2013-08-10T06:52:27Z</time>
      </trkpt>
      <trkpt lat="43.61877" lon="3.06203">
        <ele>329.6000061</ele>
        <time>2013-08-10T06:52:28Z</time>
      </trkpt>
      <trkpt lat="43.61877" lon="3.06201">
        <ele>330</ele>
        <time>2013-08-10T06:52:29Z</time>
      </trkpt>
      <trkpt lat="43.61875" lon="3.06199">
        <ele>330.3999939</ele>
        <time>2013-08-10T06:52:30Z</time>
      </trkpt>
      <trkpt lat="43.61872" lon="3.06193">
        <ele>330.7999878</ele>
        <time>2013-08-10T06:52:34Z</time>
      </trkpt>
      <trkpt lat="43.61871" lon="3.06192">
        <ele>331.3999939</ele>
        <time>2013-08-10T06:52:35Z</time>
      </trkpt>
      <trkpt lat="43.6187" lon="3.06191">
        <ele>331.7999878</ele>
        <time>2013-08-10T06:52:36Z</time>
      </trkpt>
      <trkpt lat="43.61869" lon="3.0619">
        <ele>332.2000122</ele>
        <time>2013-08-10T06:52:37Z</time>
      </trkpt>
      <trkpt lat="43.61869" lon="3.06189">
        <ele>332.6000061</ele>
        <time>2013-08-10T06:52:38Z</time>
      </trkpt>
      <trkpt lat="43.61868" lon="3.06186">
        <ele>332.6000061</ele>
        <time>2013-08-10T06:52:40Z</time>
      </trkpt>
      <trkpt lat="43.61866" lon="3.06184">
        <ele>333</ele>
        <time>2013-08-10T06:52:42Z</time>
      </trkpt>
      <trkpt lat="43.61866" lon="3.06183">
        <ele>333.3999939</ele>
        <time>2013-08-10T06:52:43Z</time>
      </trkpt>
      <trkpt lat="43.61865" lon="3.06182">
        <ele>333.7999878</ele>
        <time>2013-08-10T06:52:44Z</time>
      </trkpt>
      <trkpt lat="43.61865" lon="3.06181">
        <ele>334.2000122</ele>
        <time>2013-08-10T06:52:45Z</time>
      </trkpt>
      <trkpt lat="43.61864" lon="3.0618">
        <ele>334.7999878</ele>
        <time>2013-08-10T06:52:46Z</time>
      </trkpt>
      <trkpt lat="43.61863" lon="3.06178">
        <ele>334.7999878</ele>
        <time>2013-08-10T06:52:47Z</time>
      </trkpt>
      <trkpt lat="43.61859" lon="3.0617">
        <ele>335.2000122</ele>
        <time>2013-08-10T06:52:53Z</time>
      </trkpt>
      <trkpt lat="43.61859" lon="3.06168">
        <ele>335.6000061</ele>
        <time>2013-08-10T06:52:54Z</time>
      </trkpt>
      <trkpt lat="43.61858" lon="3.06166">
        <ele>336</ele>
        <time>2013-08-10T06:52:55Z</time>
      </trkpt>
      <trkpt lat="43.61858" lon="3.06165">
        <ele>336.3999939</ele>
        <time>2013-08-10T06:52:56Z</time>
      </trkpt>
      <trkpt lat="43.61857" lon="3.06164">
        <ele>336.7999878</ele>
        <time>2013-08-10T06:52:57Z</time>
      </trkpt>
      <trkpt lat="43.61857" lon="3.06158">
        <ele>336.7999878</ele>
        <time>2013-08-10T06:53:01Z</time>
      </trkpt>
      <trkpt lat="43.61856" lon="3.06156">
        <ele>336.7999878</ele>
        <time>2013-08-10T06:53:03Z</time>
      </trkpt>
      <trkpt lat="43.61855" lon="3.06152">
        <ele>337.2000122</ele>
        <time>2013-08-10T06:53:06Z</time>
      </trkpt>
      <trkpt lat="43.61854" lon="3.06151">
        <ele>337.6000061</ele>
        <time>2013-08-10T06:53:07Z</time>
      </trkpt>
      <trkpt lat="43.61854" lon="3.06149">
        <ele>338</ele>
        <time>2013-08-10T06:53:08Z</time>
      </trkpt>
      <trkpt lat="43.61853" lon="3.06148">
        <ele>338.3999939</ele>
        <time>2013-08-10T06:53:09Z</time>
      </trkpt>
      <trkpt lat="43.61853" lon="3.06146">
        <ele>338.7999878</ele>
        <time>2013-08-10T06:53:10Z</time>
      </trkpt>
      <trkpt lat="43.61851" lon="3.0614">
        <ele>338.7999878</ele>
        <time>2013-08-10T06:53:13Z</time>
      </trkpt>
      <trkpt lat="43.61846" lon="3.0613">
        <ele>339.3999939</ele>
        <time>2013-08-10T06:53:19Z</time>
      </trkpt>
      <trkpt lat="43.61844" lon="3.06128">
        <ele>339.7999878</ele>
        <time>2013-08-10T06:53:20Z</time>
      </trkpt>
      <trkpt lat="43.61844" lon="3.06125">
        <ele>340.2000122</ele>
        <time>2013-08-10T06:53:21Z</time>
      </trkpt>
      <trkpt lat="43.61843" lon="3.06123">
        <ele>340.6000061</ele>
        <time>2013-08-10T06:53:22Z</time>
      </trkpt>
      <trkpt lat="43.61842" lon="3.06121">
        <ele>341.2000122</ele>
        <time>2013-08-10T06:53:23Z</time>
      </trkpt>
      <trkpt lat="43.61839" lon="3.06115">
        <ele>341.2000122</ele>
        <time>2013-08-10T06:53:26Z</time>
      </trkpt>
      <trkpt lat="43.61837" lon="3.06112">
        <ele>341.2000122</ele>
        <time>2013-08-10T06:53:28Z</time>
      </trkpt>
      <trkpt lat="43.61836" lon="3.06109">
        <ele>341.2000122</ele>
        <time>2013-08-10T06:53:30Z</time>
      </trkpt>
      <trkpt lat="43.61834" lon="3.06106">
        <ele>341.2000122</ele>
        <time>2013-08-10T06:53:32Z</time>
      </trkpt>
      <trkpt lat="43.61833" lon="3.06103">
        <ele>341.6000061</ele>
        <time>2013-08-10T06:53:34Z</time>
      </trkpt>
      <trkpt lat="43.61833" lon="3.06102">
        <ele>342</ele>
        <time>2013-08-10T06:53:35Z</time>
      </trkpt>
      <trkpt lat="43.61832" lon="3.061">
        <ele>342.3999939</ele>
        <time>2013-08-10T06:53:36Z</time>
      </trkpt>
      <trkpt lat="43.61832" lon="3.06099">
        <ele>342.7999878</ele>
        <time>2013-08-10T06:53:37Z</time>
      </trkpt>
      <trkpt lat="43.61831" lon="3.06097">
        <ele>343.2000122</ele>
        <time>2013-08-10T06:53:38Z</time>
      </trkpt>
      <trkpt lat="43.61831" lon="3.06096">
        <ele>343.2000122</ele>
        <time>2013-08-10T06:53:39Z</time>
      </trkpt>
      <trkpt lat="43.61831" lon="3.0609">
        <ele>343.6000061</ele>
        <time>2013-08-10T06:53:42Z</time>
      </trkpt>
      <trkpt lat="43.61831" lon="3.06089">
        <ele>344.2000122</ele>
        <time>2013-08-10T06:53:43Z</time>
      </trkpt>
      <trkpt lat="43.6183" lon="3.06087">
        <ele>344.6000061</ele>
        <time>2013-08-10T06:53:44Z</time>
      </trkpt>
      <trkpt lat="43.6183" lon="3.06085">
        <ele>345</ele>
        <time>2013-08-10T06:53:45Z</time>
      </trkpt>
      <trkpt lat="43.61829" lon="3.06083">
        <ele>345.6000061</ele>
        <time>2013-08-10T06:53:46Z</time>
      </trkpt>
      <trkpt lat="43.61826" lon="3.06069">
        <ele>345.6000061</ele>
        <time>2013-08-10T06:53:53Z</time>
      </trkpt>
      <trkpt lat="43.61825" lon="3.06067">
        <ele>345.6000061</ele>
        <time>2013-08-10T06:53:54Z</time>
      </trkpt>
      <trkpt lat="43.61822" lon="3.06063">
        <ele>346</ele>
        <time>2013-08-10T06:53:56Z</time>
      </trkpt>
      <trkpt lat="43.61821" lon="3.06061">
        <ele>346.3999939</ele>
        <time>2013-08-10T06:53:57Z</time>
      </trkpt>
      <trkpt lat="43.61819" lon="3.06059">
        <ele>346.7999878</ele>
        <time>2013-08-10T06:53:58Z</time>
      </trkpt>
      <trkpt lat="43.61817" lon="3.06058">
        <ele>347.2000122</ele>
        <time>2013-08-10T06:53:59Z</time>
      </trkpt>
      <trkpt lat="43.61815" lon="3.06057">
        <ele>347.7999878</ele>
        <time>2013-08-10T06:54:00Z</time>
      </trkpt>
      <trkpt lat="43.61808" lon="3.06054">
        <ele>347.7999878</ele>
        <time>2013-08-10T06:54:05Z</time>
      </trkpt>
      <trkpt lat="43.61795" lon="3.06052">
        <ele>347.7999878</ele>
        <time>2013-08-10T06:54:14Z</time>
      </trkpt>
      <trkpt lat="43.61792" lon="3.06051">
        <ele>348.2000122</ele>
        <time>2013-08-10T06:54:17Z</time>
      </trkpt>
      <trkpt lat="43.61791" lon="3.0605">
        <ele>348.6000061</ele>
        <time>2013-08-10T06:54:18Z</time>
      </trkpt>
      <trkpt lat="43.61789" lon="3.0605">
        <ele>349.3999939</ele>
        <time>2013-08-10T06:54:19Z</time>
      </trkpt>
      <trkpt lat="43.61788" lon="3.06049">
        <ele>349.7999878</ele>
        <time>2013-08-10T06:54:20Z</time>
      </trkpt>
      <trkpt lat="43.61787" lon="3.06049">
        <ele>349.7999878</ele>
        <time>2013-08-10T06:54:21Z</time>
      </trkpt>
      <trkpt lat="43.61786" lon="3.06049">
        <ele>349.7999878</ele>
        <time>2013-08-10T06:54:22Z</time>
      </trkpt>
      <trkpt lat="43.61777" lon="3.06046">
        <ele>349.7999878</ele>
        <time>2013-08-10T06:54:29Z</time>
      </trkpt>
      <trkpt lat="43.61772" lon="3.06044">
        <ele>350.2000122</ele>
        <time>2013-08-10T06:54:31Z</time>
      </trkpt>
      <trkpt lat="43.61771" lon="3.06042">
        <ele>350.6000061</ele>
        <time>2013-08-10T06:54:32Z</time>
      </trkpt>
      <trkpt lat="43.61769" lon="3.06041">
        <ele>351</ele>
        <time>2013-08-10T06:54:33Z</time>
      </trkpt>
      <trkpt lat="43.61767" lon="3.0604">
        <ele>351.3999939</ele>
        <time>2013-08-10T06:54:34Z</time>
      </trkpt>
      <trkpt lat="43.61765" lon="3.06039">
        <ele>351.7999878</ele>
        <time>2013-08-10T06:54:35Z</time>
      </trkpt>
      <trkpt lat="43.6176" lon="3.06036">
        <ele>351.7999878</ele>
        <time>2013-08-10T06:54:37Z</time>
      </trkpt>
      <trkpt lat="43.61757" lon="3.06035">
        <ele>351.7999878</ele>
        <time>2013-08-10T06:54:39Z</time>
      </trkpt>
      <trkpt lat="43.61752" lon="3.06033">
        <ele>351.7999878</ele>
        <time>2013-08-10T06:54:42Z</time>
      </trkpt>
      <trkpt lat="43.61748" lon="3.06031">
        <ele>351.7999878</ele>
        <time>2013-08-10T06:54:45Z</time>
      </trkpt>
      <trkpt lat="43.61746" lon="3.0603">
        <ele>351.7999878</ele>
        <time>2013-08-10T06:54:46Z</time>
      </trkpt>
      <trkpt lat="43.61743" lon="3.0603">
        <ele>352.2000122</ele>
        <time>2013-08-10T06:54:48Z</time>
      </trkpt>
      <trkpt lat="43.61742" lon="3.06029">
        <ele>352.6000061</ele>
        <time>2013-08-10T06:54:49Z</time>
      </trkpt>
      <trkpt lat="43.61741" lon="3.06029">
        <ele>353</ele>
        <time>2013-08-10T06:54:50Z</time>
      </trkpt>
      <trkpt lat="43.61739" lon="3.06029">
        <ele>353.3999939</ele>
        <time>2013-08-10T06:54:51Z</time>
      </trkpt>
      <trkpt lat="43.61738" lon="3.06029">
        <ele>354</ele>
        <time>2013-08-10T06:54:52Z</time>
      </trkpt>
      <trkpt lat="43.61735" lon="3.06029">
        <ele>354</ele>
        <time>2013-08-10T06:54:54Z</time>
      </trkpt>
      <trkpt lat="43.61725" lon="3.06027">
        <ele>354</ele>
        <time>2013-08-10T06:54:59Z</time>
      </trkpt>
      <trkpt lat="43.61724" lon="3.06026">
        <ele>354</ele>
        <time>2013-08-10T06:55:00Z</time>
      </trkpt>
      <trkpt lat="43.61722" lon="3.06026">
        <ele>354.3999939</ele>
        <time>2013-08-10T06:55:01Z</time>
      </trkpt>
      <trkpt lat="43.61721" lon="3.06025">
        <ele>354.7999878</ele>
        <time>2013-08-10T06:55:02Z</time>
      </trkpt>
      <trkpt lat="43.61721" lon="3.06025">
        <ele>355.2000122</ele>
        <time>2013-08-10T06:55:03Z</time>
      </trkpt>
      <trkpt lat="43.6172" lon="3.06025">
        <ele>355.6000061</ele>
        <time>2013-08-10T06:55:04Z</time>
      </trkpt>
      <trkpt lat="43.6172" lon="3.06024">
        <ele>356</ele>
        <time>2013-08-10T06:55:05Z</time>
      </trkpt>
      <trkpt lat="43.61718" lon="3.06023">
        <ele>356.6000061</ele>
        <time>2013-08-10T06:55:08Z</time>
      </trkpt>
      <trkpt lat="43.61717" lon="3.06023">
        <ele>357</ele>
        <time>2013-08-10T06:55:09Z</time>
      </trkpt>
      <trkpt lat="43.61716" lon="3.06023">
        <ele>357.3999939</ele>
        <time>2013-08-10T06:55:10Z</time>
      </trkpt>
      <trkpt lat="43.61715" lon="3.06023">
        <ele>357.7999878</ele>
        <time>2013-08-10T06:55:11Z</time>
      </trkpt>
      <trkpt lat="43.61713" lon="3.06024">
        <ele>358.3999939</ele>
        <time>2013-08-10T06:55:12Z</time>
      </trkpt>
      <trkpt lat="43.61712" lon="3.06026">
        <ele>358.3999939</ele>
        <time>2013-08-10T06:55:15Z</time>
      </trkpt>
      <trkpt lat="43.61711" lon="3.06029">
        <ele>358.7999878</ele>
        <time>2013-08-10T06:55:17Z</time>
      </trkpt>
      <trkpt lat="43.61711" lon="3.06029">
        <ele>359.2000122</ele>
        <time>2013-08-10T06:55:18Z</time>
      </trkpt>
      <trkpt lat="43.61711" lon="3.0603">
        <ele>359.6000061</ele>
        <time>2013-08-10T06:55:19Z</time>
      </trkpt>
      <trkpt lat="43.6171" lon="3.0603">
        <ele>360</ele>
        <time>2013-08-10T06:55:20Z</time>
      </trkpt>
      <trkpt lat="43.6171" lon="3.0603">
        <ele>360.3999939</ele>
        <time>2013-08-10T06:55:21Z</time>
      </trkpt>
      <trkpt lat="43.6171" lon="3.06031">
        <ele>360.3999939</ele>
        <time>2013-08-10T06:55:22Z</time>
      </trkpt>
      <trkpt lat="43.6171" lon="3.06031">
        <ele>360.3999939</ele>
        <time>2013-08-10T06:55:23Z</time>
      </trkpt>
      <trkpt lat="43.61716" lon="3.06032">
        <ele>360.3999939</ele>
        <time>2013-08-10T06:55:29Z</time>
      </trkpt>
      <trkpt lat="43.61723" lon="3.06036">
        <ele>360.3999939</ele>
        <time>2013-08-10T06:55:35Z</time>
      </trkpt>
      <trkpt lat="43.61725" lon="3.06038">
        <ele>360.7999878</ele>
        <time>2013-08-10T06:55:36Z</time>
      </trkpt>
      <trkpt lat="43.61726" lon="3.06039">
        <ele>361.2000122</ele>
        <time>2013-08-10T06:55:37Z</time>
      </trkpt>
      <trkpt lat="43.61728" lon="3.0604">
        <ele>361.6000061</ele>
        <time>2013-08-10T06:55:38Z</time>
      </trkpt>
      <trkpt lat="43.61729" lon="3.06041">
        <ele>362</ele>
        <time>2013-08-10T06:55:39Z</time>
      </trkpt>
      <trkpt lat="43.61731" lon="3.06042">
        <ele>362.6000061</ele>
        <time>2013-08-10T06:55:40Z</time>
      </trkpt>
      <trkpt lat="43.61734" lon="3.06044">
        <ele>362.6000061</ele>
        <time>2013-08-10T06:55:43Z</time>
      </trkpt>
      <trkpt lat="43.61744" lon="3.06054">
        <ele>362.6000061</ele>
        <time>2013-08-10T06:55:50Z</time>
      </trkpt>
      <trkpt lat="43.61745" lon="3.06055">
        <ele>363</ele>
        <time>2013-08-10T06:55:51Z</time>
      </trkpt>
      <trkpt lat="43.61746" lon="3.06056">
        <ele>363.3999939</ele>
        <time>2013-08-10T06:55:52Z</time>
      </trkpt>
      <trkpt lat="43.61747" lon="3.06057">
        <ele>363.7999878</ele>
        <time>2013-08-10T06:55:53Z</time>
      </trkpt>
      <trkpt lat="43.61749" lon="3.06058">
        <ele>364.2000122</ele>
        <time>2013-08-10T06:55:54Z</time>
      </trkpt>
      <trkpt lat="43.61752" lon="3.06062">
        <ele>364.6000061</ele>
        <time>2013-08-10T06:55:55Z</time>
      </trkpt>
      <trkpt lat="43.61765" lon="3.06074">
        <ele>364.6000061</ele>
        <time>2013-08-10T06:56:03Z</time>
      </trkpt>
      <trkpt lat="43.61771" lon="3.06081">
        <ele>364.6000061</ele>
        <time>2013-08-10T06:56:08Z</time>
      </trkpt>
      <trkpt lat="43.61772" lon="3.06087">
        <ele>364.6000061</ele>
        <time>2013-08-10T06:56:11Z</time>
      </trkpt>
      <trkpt lat="43.6177" lon="3.06089">
        <ele>365</ele>
        <time>2013-08-10T06:56:14Z</time>
      </trkpt>
      <trkpt lat="43.61769" lon="3.06089">
        <ele>365.3999939</ele>
        <time>2013-08-10T06:56:15Z</time>
      </trkpt>
      <trkpt lat="43.61768" lon="3.06089">
        <ele>365.7999878</ele>
        <time>2013-08-10T06:56:16Z</time>
      </trkpt>
      <trkpt lat="43.61767" lon="3.06089">
        <ele>366.2000122</ele>
        <time>2013-08-10T06:56:17Z</time>
      </trkpt>
      <trkpt lat="43.61766" lon="3.06088">
        <ele>366.6000061</ele>
        <time>2013-08-10T06:56:18Z</time>
      </trkpt>
      <trkpt lat="43.6176" lon="3.06085">
        <ele>366.6000061</ele>
        <time>2013-08-10T06:56:22Z</time>
      </trkpt>
      <trkpt lat="43.61757" lon="3.06084">
        <ele>367</ele>
        <time>2013-08-10T06:56:24Z</time>
      </trkpt>
      <trkpt lat="43.61756" lon="3.06084">
        <ele>367.3999939</ele>
        <time>2013-08-10T06:56:25Z</time>
      </trkpt>
      <trkpt lat="43.61755" lon="3.06083">
        <ele>367.7999878</ele>
        <time>2013-08-10T06:56:26Z</time>
      </trkpt>
      <trkpt lat="43.61753" lon="3.06083">
        <ele>368.2000122</ele>
        <time>2013-08-10T06:56:27Z</time>
      </trkpt>
      <trkpt lat="43.61752" lon="3.06082">
        <ele>368.6000061</ele>
        <time>2013-08-10T06:56:28Z</time>
      </trkpt>
      <trkpt lat="43.6175" lon="3.06081">
        <ele>368.6000061</ele>
        <time>2013-08-10T06:56:30Z</time>
      </trkpt>
      <trkpt lat="43.61749" lon="3.06081">
        <ele>368.6000061</ele>
        <time>2013-08-10T06:56:31Z</time>
      </trkpt>
      <trkpt lat="43.61743" lon="3.06079">
        <ele>368.6000061</ele>
        <time>2013-08-10T06:56:35Z</time>
      </trkpt>
      <trkpt lat="43.6174" lon="3.0608">
        <ele>369</ele>
        <time>2013-08-10T06:56:37Z</time>
      </trkpt>
      <trkpt lat="43.61739" lon="3.06079">
        <ele>369.3999939</ele>
        <time>2013-08-10T06:56:38Z</time>
      </trkpt>
      <trkpt lat="43.61737" lon="3.06079">
        <ele>369.7999878</ele>
        <time>2013-08-10T06:56:39Z</time>
      </trkpt>
      <trkpt lat="43.61735" lon="3.06079">
        <ele>370.2000122</ele>
        <time>2013-08-10T06:56:40Z</time>
      </trkpt>
      <trkpt lat="43.61734" lon="3.06079">
        <ele>370.6000061</ele>
        <time>2013-08-10T06:56:41Z</time>
      </trkpt>
      <trkpt lat="43.61732" lon="3.06078">
        <ele>370.6000061</ele>
        <time>2013-08-10T06:56:42Z</time>
      </trkpt>
      <trkpt lat="43.61721" lon="3.06075">
        <ele>371.6000061</ele>
        <time>2013-08-10T06:56:48Z</time>
      </trkpt>
      <trkpt lat="43.6172" lon="3.06075">
        <ele>372</ele>
        <time>2013-08-10T06:56:49Z</time>
      </trkpt>
      <trkpt lat="43.61718" lon="3.06074">
        <ele>372.3999939</ele>
        <time>2013-08-10T06:56:50Z</time>
      </trkpt>
      <trkpt lat="43.61717" lon="3.06074">
        <ele>372.7999878</ele>
        <time>2013-08-10T06:56:51Z</time>
      </trkpt>
      <trkpt lat="43.61709" lon="3.06073">
        <ele>372.7999878</ele>
        <time>2013-08-10T06:56:57Z</time>
      </trkpt>
      <trkpt lat="43.61707" lon="3.06072">
        <ele>373.2000122</ele>
        <time>2013-08-10T06:56:59Z</time>
      </trkpt>
      <trkpt lat="43.61706" lon="3.06072">
        <ele>373.6000061</ele>
        <time>2013-08-10T06:57:00Z</time>
      </trkpt>
      <trkpt lat="43.61705" lon="3.06071">
        <ele>374</ele>
        <time>2013-08-10T06:57:01Z</time>
      </trkpt>
      <trkpt lat="43.61704" lon="3.06071">
        <ele>374.3999939</ele>
        <time>2013-08-10T06:57:02Z</time>
      </trkpt>
      <trkpt lat="43.61703" lon="3.06071">
        <ele>375</ele>
        <time>2013-08-10T06:57:03Z</time>
      </trkpt>
      <trkpt lat="43.61701" lon="3.06071">
        <ele>375</ele>
        <time>2013-08-10T06:57:05Z</time>
      </trkpt>
      <trkpt lat="43.6169" lon="3.0607">
        <ele>375</ele>
        <time>2013-08-10T06:57:13Z</time>
      </trkpt>
      <trkpt lat="43.61687" lon="3.06069">
        <ele>375.3999939</ele>
        <time>2013-08-10T06:57:15Z</time>
      </trkpt>
      <trkpt lat="43.61685" lon="3.06069">
        <ele>375.7999878</ele>
        <time>2013-08-10T06:57:16Z</time>
      </trkpt>
      <trkpt lat="43.61683" lon="3.06068">
        <ele>376.2000122</ele>
        <time>2013-08-10T06:57:17Z</time>
      </trkpt>
      <trkpt lat="43.61681" lon="3.06067">
        <ele>376.6000061</ele>
        <time>2013-08-10T06:57:18Z</time>
      </trkpt>
      <trkpt lat="43.61679" lon="3.06066">
        <ele>377</ele>
        <time>2013-08-10T06:57:19Z</time>
      </trkpt>
      <trkpt lat="43.61673" lon="3.06064">
        <ele>377</ele>
        <time>2013-08-10T06:57:22Z</time>
      </trkpt>
      <trkpt lat="43.61673" lon="3.06064">
        <ele>377</ele>
        <time>2013-08-10T06:57:23Z</time>
      </trkpt>
      <trkpt lat="43.61673" lon="3.06064">
        <ele>377.3999939</ele>
        <time>2013-08-10T06:57:29Z</time>
      </trkpt>
      <trkpt lat="43.61673" lon="3.06064">
        <ele>377.7999878</ele>
        <time>2013-08-10T06:57:30Z</time>
      </trkpt>
      <trkpt lat="43.61673" lon="3.06064">
        <ele>378.2000122</ele>
        <time>2013-08-10T06:57:31Z</time>
      </trkpt>
      <trkpt lat="43.61673" lon="3.06064">
        <ele>378.6000061</ele>
        <time>2013-08-10T06:57:32Z</time>
      </trkpt>
      <trkpt lat="43.61673" lon="3.06064">
        <ele>379</ele>
        <time>2013-08-10T06:57:33Z</time>
      </trkpt>
      <trkpt lat="43.61674" lon="3.06059">
        <ele>379</ele>
        <time>2013-08-10T06:57:36Z</time>
      </trkpt>
      <trkpt lat="43.61673" lon="3.06058">
        <ele>379</ele>
        <time>2013-08-10T06:57:37Z</time>
      </trkpt>
      <trkpt lat="43.6167" lon="3.06048">
        <ele>379</ele>
        <time>2013-08-10T06:57:43Z</time>
      </trkpt>
      <trkpt lat="43.61674" lon="3.06043">
        <ele>379</ele>
        <time>2013-08-10T06:57:48Z</time>
      </trkpt>
      <trkpt lat="43.6167" lon="3.06036">
        <ele>379.3999939</ele>
        <time>2013-08-10T06:57:49Z</time>
      </trkpt>
      <trkpt lat="43.6167" lon="3.06034">
        <ele>379.7999878</ele>
        <time>2013-08-10T06:57:50Z</time>
      </trkpt>
      <trkpt lat="43.6167" lon="3.06032">
        <ele>380.3999939</ele>
        <time>2013-08-10T06:57:51Z</time>
      </trkpt>
      <trkpt lat="43.61671" lon="3.0603">
        <ele>380.7999878</ele>
        <time>2013-08-10T06:57:52Z</time>
      </trkpt>
      <trkpt lat="43.61671" lon="3.06028">
        <ele>381.2000122</ele>
        <time>2013-08-10T06:57:53Z</time>
      </trkpt>
      <trkpt lat="43.61664" lon="3.06016">
        <ele>381.2000122</ele>
        <time>2013-08-10T06:57:55Z</time>
      </trkpt>
      <trkpt lat="43.61663" lon="3.06014">
        <ele>381.2000122</ele>
        <time>2013-08-10T06:57:56Z</time>
      </trkpt>
      <trkpt lat="43.61655" lon="3.05998">
        <ele>381.2000122</ele>
        <time>2013-08-10T06:58:01Z</time>
      </trkpt>
      <trkpt lat="43.61653" lon="3.05994">
        <ele>382</ele>
        <time>2013-08-10T06:58:02Z</time>
      </trkpt>
      <trkpt lat="43.61652" lon="3.0599">
        <ele>382.3999939</ele>
        <time>2013-08-10T06:58:03Z</time>
      </trkpt>
      <trkpt lat="43.61652" lon="3.05987">
        <ele>382.7999878</ele>
        <time>2013-08-10T06:58:04Z</time>
      </trkpt>
      <trkpt lat="43.61651" lon="3.05984">
        <ele>383.2000122</ele>
        <time>2013-08-10T06:58:05Z</time>
      </trkpt>
      <trkpt lat="43.61649" lon="3.05979">
        <ele>383.2000122</ele>
        <time>2013-08-10T06:58:07Z</time>
      </trkpt>
      <trkpt lat="43.61649" lon="3.05977">
        <ele>383.2000122</ele>
        <time>2013-08-10T06:58:08Z</time>
      </trkpt>
      <trkpt lat="43.61649" lon="3.05968">
        <ele>383.6000061</ele>
        <time>2013-08-10T06:58:12Z</time>
      </trkpt>
      <trkpt lat="43.61649" lon="3.05966">
        <ele>384</ele>
        <time>2013-08-10T06:58:13Z</time>
      </trkpt>
      <trkpt lat="43.61649" lon="3.05964">
        <ele>384.3999939</ele>
        <time>2013-08-10T06:58:14Z</time>
      </trkpt>
      <trkpt lat="43.61649" lon="3.05962">
        <ele>384.7999878</ele>
        <time>2013-08-10T06:58:15Z</time>
      </trkpt>
      <trkpt lat="43.61649" lon="3.0596">
        <ele>385.2000122</ele>
        <time>2013-08-10T06:58:16Z</time>
      </trkpt>
      <trkpt lat="43.61648" lon="3.05953">
        <ele>385.2000122</ele>
        <time>2013-08-10T06:58:19Z</time>
      </trkpt>
      <trkpt lat="43.61645" lon="3.05941">
        <ele>385.6000061</ele>
        <time>2013-08-10T06:58:25Z</time>
      </trkpt>
      <trkpt lat="43.61645" lon="3.05939">
        <ele>386.3999939</ele>
        <time>2013-08-10T06:58:26Z</time>
      </trkpt>
      <trkpt lat="43.61644" lon="3.05937">
        <ele>386.7999878</ele>
        <time>2013-08-10T06:58:27Z</time>
      </trkpt>
      <trkpt lat="43.61643" lon="3.05935">
        <ele>387.2000122</ele>
        <time>2013-08-10T06:58:28Z</time>
      </trkpt>
      <trkpt lat="43.61641" lon="3.05926">
        <ele>387.2000122</ele>
        <time>2013-08-10T06:58:32Z</time>
      </trkpt>
      <trkpt lat="43.61639" lon="3.05922">
        <ele>387.2000122</ele>
        <time>2013-08-10T06:58:35Z</time>
      </trkpt>
      <trkpt lat="43.61639" lon="3.05918">
        <ele>387.2000122</ele>
        <time>2013-08-10T06:58:37Z</time>
      </trkpt>
      <trkpt lat="43.61638" lon="3.0591">
        <ele>387.6000061</ele>
        <time>2013-08-10T06:58:40Z</time>
      </trkpt>
      <trkpt lat="43.61637" lon="3.05908">
        <ele>388.2000122</ele>
        <time>2013-08-10T06:58:41Z</time>
      </trkpt>
      <trkpt lat="43.61636" lon="3.05905">
        <ele>388.6000061</ele>
        <time>2013-08-10T06:58:42Z</time>
      </trkpt>
      <trkpt lat="43.61635" lon="3.05903">
        <ele>389</ele>
        <time>2013-08-10T06:58:43Z</time>
      </trkpt>
      <trkpt lat="43.61634" lon="3.05899">
        <ele>389.3999939</ele>
        <time>2013-08-10T06:58:44Z</time>
      </trkpt>
      <trkpt lat="43.6163" lon="3.05887">
        <ele>389.3999939</ele>
        <time>2013-08-10T06:58:49Z</time>
      </trkpt>
      <trkpt lat="43.61627" lon="3.05888">
        <ele>389.3999939</ele>
        <time>2013-08-10T06:58:54Z</time>
      </trkpt>
      <trkpt lat="43.61626" lon="3.05889">
        <ele>389.7999878</ele>
        <time>2013-08-10T06:58:55Z</time>
      </trkpt>
      <trkpt lat="43.61626" lon="3.0589">
        <ele>390.2000122</ele>
        <time>2013-08-10T06:58:56Z</time>
      </trkpt>
      <trkpt lat="43.61626" lon="3.05891">
        <ele>390.6000061</ele>
        <time>2013-08-10T06:58:57Z</time>
      </trkpt>
      <trkpt lat="43.61626" lon="3.05893">
        <ele>391</ele>
        <time>2013-08-10T06:58:58Z</time>
      </trkpt>
      <trkpt lat="43.61626" lon="3.05895">
        <ele>391.3999939</ele>
        <time>2013-08-10T06:58:59Z</time>
      </trkpt>
      <trkpt lat="43.61628" lon="3.05898">
        <ele>391.3999939</ele>
        <time>2013-08-10T06:59:01Z</time>
      </trkpt>
      <trkpt lat="43.6163" lon="3.05908">
        <ele>391.3999939</ele>
        <time>2013-08-10T06:59:07Z</time>
      </trkpt>
      <trkpt lat="43.6163" lon="3.05911">
        <ele>391.7999878</ele>
        <time>2013-08-10T06:59:09Z</time>
      </trkpt>
      <trkpt lat="43.6163" lon="3.05913">
        <ele>392.2000122</ele>
        <time>2013-08-10T06:59:10Z</time>
      </trkpt>
      <trkpt lat="43.6163" lon="3.05915">
        <ele>392.6000061</ele>
        <time>2013-08-10T06:59:11Z</time>
      </trkpt>
      <trkpt lat="43.61629" lon="3.05916">
        <ele>393</ele>
        <time>2013-08-10T06:59:12Z</time>
      </trkpt>
      <trkpt lat="43.61629" lon="3.05918">
        <ele>393.3999939</ele>
        <time>2013-08-10T06:59:13Z</time>
      </trkpt>
      <trkpt lat="43.61629" lon="3.0592">
        <ele>393.3999939</ele>
        <time>2013-08-10T06:59:14Z</time>
      </trkpt>
      <trkpt lat="43.61629" lon="3.0593">
        <ele>393.3999939</ele>
        <time>2013-08-10T06:59:20Z</time>
      </trkpt>
      <trkpt lat="43.61629" lon="3.05932">
        <ele>393.3999939</ele>
        <time>2013-08-10T06:59:21Z</time>
      </trkpt>
      <trkpt lat="43.61628" lon="3.05934">
        <ele>394</ele>
        <time>2013-08-10T06:59:22Z</time>
      </trkpt>
      <trkpt lat="43.61628" lon="3.05936">
        <ele>394.3999939</ele>
        <time>2013-08-10T06:59:23Z</time>
      </trkpt>
      <trkpt lat="43.61627" lon="3.05938">
        <ele>394.7999878</ele>
        <time>2013-08-10T06:59:24Z</time>
      </trkpt>
      <trkpt lat="43.61627" lon="3.0594">
        <ele>395.2000122</ele>
        <time>2013-08-10T06:59:25Z</time>
      </trkpt>
      <trkpt lat="43.61627" lon="3.05942">
        <ele>395.6000061</ele>
        <time>2013-08-10T06:59:26Z</time>
      </trkpt>
      <trkpt lat="43.61629" lon="3.0595">
        <ele>395.6000061</ele>
        <time>2013-08-10T06:59:30Z</time>
      </trkpt>
      <trkpt lat="43.61628" lon="3.05963">
        <ele>395.6000061</ele>
        <time>2013-08-10T06:59:36Z</time>
      </trkpt>
      <trkpt lat="43.61629" lon="3.0597">
        <ele>396</ele>
        <time>2013-08-10T06:59:39Z</time>
      </trkpt>
      <trkpt lat="43.61629" lon="3.05971">
        <ele>396.7999878</ele>
        <time>2013-08-10T06:59:40Z</time>
      </trkpt>
      <trkpt lat="43.61629" lon="3.05973">
        <ele>397.2000122</ele>
        <time>2013-08-10T06:59:41Z</time>
      </trkpt>
      <trkpt lat="43.61629" lon="3.05975">
        <ele>397.6000061</ele>
        <time>2013-08-10T06:59:42Z</time>
      </trkpt>
      <trkpt lat="43.61629" lon="3.05977">
        <ele>397.6000061</ele>
        <time>2013-08-10T06:59:43Z</time>
      </trkpt>
      <trkpt lat="43.61629" lon="3.05982">
        <ele>397.6000061</ele>
        <time>2013-08-10T06:59:46Z</time>
      </trkpt>
      <trkpt lat="43.6163" lon="3.05989">
        <ele>397.6000061</ele>
        <time>2013-08-10T06:59:50Z</time>
      </trkpt>
      <trkpt lat="43.61628" lon="3.06002">
        <ele>397.6000061</ele>
        <time>2013-08-10T06:59:57Z</time>
      </trkpt>
      <trkpt lat="43.61628" lon="3.06004">
        <ele>398</ele>
        <time>2013-08-10T06:59:58Z</time>
      </trkpt>
      <trkpt lat="43.61627" lon="3.06007">
        <ele>398.3999939</ele>
        <time>2013-08-10T06:59:59Z</time>
      </trkpt>
      <trkpt lat="43.61627" lon="3.06009">
        <ele>398.7999878</ele>
        <time>2013-08-10T07:00:00Z</time>
      </trkpt>
      <trkpt lat="43.61626" lon="3.06011">
        <ele>399.2000122</ele>
        <time>2013-08-10T07:00:01Z</time>
      </trkpt>
      <trkpt lat="43.61625" lon="3.06013">
        <ele>399.6000061</ele>
        <time>2013-08-10T07:00:02Z</time>
      </trkpt>
      <trkpt lat="43.61624" lon="3.06015">
        <ele>399.6000061</ele>
        <time>2013-08-10T07:00:03Z</time>
      </trkpt>
      <trkpt lat="43.61621" lon="3.06021">
        <ele>399.6000061</ele>
        <time>2013-08-10T07:00:06Z</time>
      </trkpt>
      <trkpt lat="43.61619" lon="3.06027">
        <ele>399.6000061</ele>
        <time>2013-08-10T07:00:10Z</time>
      </trkpt>
      <trkpt lat="43.61617" lon="3.06033">
        <ele>400.2000122</ele>
        <time>2013-08-10T07:00:14Z</time>
      </trkpt>
      <trkpt lat="43.61616" lon="3.06035">
        <ele>400.6000061</ele>
        <time>2013-08-10T07:00:15Z</time>
      </trkpt>
      <trkpt lat="43.61616" lon="3.06037">
        <ele>401</ele>
        <time>2013-08-10T07:00:16Z</time>
      </trkpt>
      <trkpt lat="43.61615" lon="3.06038">
        <ele>401.3999939</ele>
        <time>2013-08-10T07:00:17Z</time>
      </trkpt>
      <trkpt lat="43.61614" lon="3.0604">
        <ele>401.7999878</ele>
        <time>2013-08-10T07:00:18Z</time>
      </trkpt>
      <trkpt lat="43.61611" lon="3.06048">
        <ele>401.7999878</ele>
        <time>2013-08-10T07:00:22Z</time>
      </trkpt>
      <trkpt lat="43.61613" lon="3.06059">
        <ele>401.7999878</ele>
        <time>2013-08-10T07:00:27Z</time>
      </trkpt>
      <trkpt lat="43.61615" lon="3.06064">
        <ele>401.7999878</ele>
        <time>2013-08-10T07:00:30Z</time>
      </trkpt>
      <trkpt lat="43.6162" lon="3.06071">
        <ele>401.7999878</ele>
        <time>2013-08-10T07:00:34Z</time>
      </trkpt>
      <trkpt lat="43.61621" lon="3.06073">
        <ele>402.2000122</ele>
        <time>2013-08-10T07:00:35Z</time>
      </trkpt>
      <trkpt lat="43.61623" lon="3.06076">
        <ele>402.6000061</ele>
        <time>2013-08-10T07:00:36Z</time>
      </trkpt>
      <trkpt lat="43.61624" lon="3.06078">
        <ele>403</ele>
        <time>2013-08-10T07:00:37Z</time>
      </trkpt>
      <trkpt lat="43.61625" lon="3.06081">
        <ele>403.3999939</ele>
        <time>2013-08-10T07:00:38Z</time>
      </trkpt>
      <trkpt lat="43.61626" lon="3.06083">
        <ele>403.7999878</ele>
        <time>2013-08-10T07:00:39Z</time>
      </trkpt>
      <trkpt lat="43.61626" lon="3.06085">
        <ele>403.7999878</ele>
        <time>2013-08-10T07:00:40Z</time>
      </trkpt>
      <trkpt lat="43.61627" lon="3.06087">
        <ele>403.7999878</ele>
        <time>2013-08-10T07:00:41Z</time>
      </trkpt>
      <trkpt lat="43.61634" lon="3.06105">
        <ele>403.7999878</ele>
        <time>2013-08-10T07:00:48Z</time>
      </trkpt>
      <trkpt lat="43.61635" lon="3.06107">
        <ele>403.7999878</ele>
        <time>2013-08-10T07:00:49Z</time>
      </trkpt>
      <trkpt lat="43.61643" lon="3.06115">
        <ele>404.7999878</ele>
        <time>2013-08-10T07:00:54Z</time>
      </trkpt>
      <trkpt lat="43.61644" lon="3.06118">
        <ele>405.2000122</ele>
        <time>2013-08-10T07:00:55Z</time>
      </trkpt>
      <trkpt lat="43.61646" lon="3.0612">
        <ele>405.6000061</ele>
        <time>2013-08-10T07:00:56Z</time>
      </trkpt>
      <trkpt lat="43.61647" lon="3.06121">
        <ele>406</ele>
        <time>2013-08-10T07:00:57Z</time>
      </trkpt>
      <trkpt lat="43.61655" lon="3.06126">
        <ele>406</ele>
        <time>2013-08-10T07:01:01Z</time>
      </trkpt>
      <trkpt lat="43.61662" lon="3.0613">
        <ele>406.3999939</ele>
        <time>2013-08-10T07:01:05Z</time>
      </trkpt>
      <trkpt lat="43.61664" lon="3.06131">
        <ele>406.7999878</ele>
        <time>2013-08-10T07:01:06Z</time>
      </trkpt>
      <trkpt lat="43.61665" lon="3.06132">
        <ele>407.2000122</ele>
        <time>2013-08-10T07:01:07Z</time>
      </trkpt>
      <trkpt lat="43.61665" lon="3.06134">
        <ele>407.6000061</ele>
        <time>2013-08-10T07:01:08Z</time>
      </trkpt>
      <trkpt lat="43.61666" lon="3.06136">
        <ele>408</ele>
        <time>2013-08-10T07:01:09Z</time>
      </trkpt>
      <trkpt lat="43.61666" lon="3.06139">
        <ele>408</ele>
        <time>2013-08-10T07:01:10Z</time>
      </trkpt>
      <trkpt lat="43.61666" lon="3.06144">
        <ele>408</ele>
        <time>2013-08-10T07:01:12Z</time>
      </trkpt>
      <trkpt lat="43.61661" lon="3.06147">
        <ele>408.3999939</ele>
        <time>2013-08-10T07:01:16Z</time>
      </trkpt>
      <trkpt lat="43.6166" lon="3.06146">
        <ele>408.7999878</ele>
        <time>2013-08-10T07:01:17Z</time>
      </trkpt>
      <trkpt lat="43.61658" lon="3.06145">
        <ele>409.2000122</ele>
        <time>2013-08-10T07:01:18Z</time>
      </trkpt>
      <trkpt lat="43.61656" lon="3.06145">
        <ele>410</ele>
        <time>2013-08-10T07:01:19Z</time>
      </trkpt>
      <trkpt lat="43.61655" lon="3.06144">
        <ele>410</ele>
        <time>2013-08-10T07:01:20Z</time>
      </trkpt>
      <trkpt lat="43.6165" lon="3.06142">
        <ele>410</ele>
        <time>2013-08-10T07:01:24Z</time>
      </trkpt>
      <trkpt lat="43.61648" lon="3.06142">
        <ele>410.3999939</ele>
        <time>2013-08-10T07:01:25Z</time>
      </trkpt>
      <trkpt lat="43.61647" lon="3.06142">
        <ele>410.7999878</ele>
        <time>2013-08-10T07:01:26Z</time>
      </trkpt>
      <trkpt lat="43.61646" lon="3.06142">
        <ele>411.3999939</ele>
        <time>2013-08-10T07:01:27Z</time>
      </trkpt>
      <trkpt lat="43.61645" lon="3.06141">
        <ele>411.7999878</ele>
        <time>2013-08-10T07:01:28Z</time>
      </trkpt>
      <trkpt lat="43.61643" lon="3.06141">
        <ele>412.2000122</ele>
        <time>2013-08-10T07:01:29Z</time>
      </trkpt>
      <trkpt lat="43.61639" lon="3.0614">
        <ele>412.2000122</ele>
        <time>2013-08-10T07:01:32Z</time>
      </trkpt>
      <trkpt lat="43.61636" lon="3.06139">
        <ele>412.6000061</ele>
        <time>2013-08-10T07:01:35Z</time>
      </trkpt>
      <trkpt lat="43.61635" lon="3.06139">
        <ele>413</ele>
        <time>2013-08-10T07:01:36Z</time>
      </trkpt>
      <trkpt lat="43.61634" lon="3.06139">
        <ele>413.3999939</ele>
        <time>2013-08-10T07:01:37Z</time>
      </trkpt>
      <trkpt lat="43.61633" lon="3.06139">
        <ele>413.7999878</ele>
        <time>2013-08-10T07:01:38Z</time>
      </trkpt>
      <trkpt lat="43.61633" lon="3.06138">
        <ele>414.2000122</ele>
        <time>2013-08-10T07:01:39Z</time>
      </trkpt>
      <trkpt lat="43.61633" lon="3.06138">
        <ele>414.2000122</ele>
        <time>2013-08-10T07:01:41Z</time>
      </trkpt>
      <trkpt lat="43.61629" lon="3.06136">
        <ele>414.2000122</ele>
        <time>2013-08-10T07:01:45Z</time>
      </trkpt>
      <trkpt lat="43.61627" lon="3.06135">
        <ele>414.2000122</ele>
        <time>2013-08-10T07:01:46Z</time>
      </trkpt>
      <trkpt lat="43.61622" lon="3.06131">
        <ele>414.2000122</ele>
        <time>2013-08-10T07:01:50Z</time>
      </trkpt>
      <trkpt lat="43.61621" lon="3.06131">
        <ele>414.2000122</ele>
        <time>2013-08-10T07:01:51Z</time>
      </trkpt>
      <trkpt lat="43.6162" lon="3.06129">
        <ele>414.6000061</ele>
        <time>2013-08-10T07:01:53Z</time>
      </trkpt>
      <trkpt lat="43.61619" lon="3.06129">
        <ele>415.2000122</ele>
        <time>2013-08-10T07:01:54Z</time>
      </trkpt>
      <trkpt lat="43.61618" lon="3.06127">
        <ele>415.6000061</ele>
        <time>2013-08-10T07:01:55Z</time>
      </trkpt>
      <trkpt lat="43.61617" lon="3.06126">
        <ele>416</ele>
        <time>2013-08-10T07:01:56Z</time>
      </trkpt>
      <trkpt lat="43.61617" lon="3.06126">
        <ele>416.3999939</ele>
        <time>2013-08-10T07:01:57Z</time>
      </trkpt>
      <trkpt lat="43.61616" lon="3.06125">
        <ele>416.3999939</ele>
        <time>2013-08-10T07:01:58Z</time>
      </trkpt>
      <trkpt lat="43.61614" lon="3.06123">
        <ele>416.3999939</ele>
        <time>2013-08-10T07:02:00Z</time>
      </trkpt>
      <trkpt lat="43.61607" lon="3.06116">
        <ele>416.3999939</ele>
        <time>2013-08-10T07:02:06Z</time>
      </trkpt>
      <trkpt lat="43.61601" lon="3.06111">
        <ele>416.3999939</ele>
        <time>2013-08-10T07:02:11Z</time>
      </trkpt>
      <trkpt lat="43.616" lon="3.0611">
        <ele>416.7999878</ele>
        <time>2013-08-10T07:02:12Z</time>
      </trkpt>
      <trkpt lat="43.61599" lon="3.06108">
        <ele>417.2000122</ele>
        <time>2013-08-10T07:02:13Z</time>
      </trkpt>
      <trkpt lat="43.61598" lon="3.06107">
        <ele>417.6000061</ele>
        <time>2013-08-10T07:02:14Z</time>
      </trkpt>
      <trkpt lat="43.61597" lon="3.06105">
        <ele>418</ele>
        <time>2013-08-10T07:02:15Z</time>
      </trkpt>
      <trkpt lat="43.61596" lon="3.06103">
        <ele>418.3999939</ele>
        <time>2013-08-10T07:02:16Z</time>
      </trkpt>
      <trkpt lat="43.61594" lon="3.061">
        <ele>418.3999939</ele>
        <time>2013-08-10T07:02:18Z</time>
      </trkpt>
      <trkpt lat="43.61587" lon="3.06084">
        <ele>418.3999939</ele>
        <time>2013-08-10T07:02:24Z</time>
      </trkpt>
      <trkpt lat="43.61587" lon="3.06081">
        <ele>418.3999939</ele>
        <time>2013-08-10T07:02:25Z</time>
      </trkpt>
      <trkpt lat="43.61586" lon="3.06069">
        <ele>418.3999939</ele>
        <time>2013-08-10T07:02:29Z</time>
      </trkpt>
      <trkpt lat="43.61583" lon="3.06056">
        <ele>419.3999939</ele>
        <time>2013-08-10T07:02:34Z</time>
      </trkpt>
      <trkpt lat="43.61582" lon="3.06054">
        <ele>419.7999878</ele>
        <time>2013-08-10T07:02:35Z</time>
      </trkpt>
      <trkpt lat="43.61582" lon="3.06052">
        <ele>420.2000122</ele>
        <time>2013-08-10T07:02:36Z</time>
      </trkpt>
      <trkpt lat="43.61581" lon="3.0605">
        <ele>420.6000061</ele>
        <time>2013-08-10T07:02:37Z</time>
      </trkpt>
      <trkpt lat="43.6158" lon="3.06048">
        <ele>420.6000061</ele>
        <time>2013-08-10T07:02:39Z</time>
      </trkpt>
      <trkpt lat="43.61579" lon="3.06046">
        <ele>420.6000061</ele>
        <time>2013-08-10T07:02:41Z</time>
      </trkpt>
      <trkpt lat="43.61579" lon="3.06033">
        <ele>420.6000061</ele>
        <time>2013-08-10T07:02:48Z</time>
      </trkpt>
      <trkpt lat="43.61579" lon="3.06029">
        <ele>421</ele>
        <time>2013-08-10T07:02:50Z</time>
      </trkpt>
      <trkpt lat="43.61579" lon="3.06027">
        <ele>421.3999939</ele>
        <time>2013-08-10T07:02:51Z</time>
      </trkpt>
      <trkpt lat="43.61579" lon="3.06025">
        <ele>421.7999878</ele>
        <time>2013-08-10T07:02:52Z</time>
      </trkpt>
      <trkpt lat="43.61579" lon="3.06022">
        <ele>422.2000122</ele>
        <time>2013-08-10T07:02:53Z</time>
      </trkpt>
      <trkpt lat="43.61578" lon="3.0602">
        <ele>422.6000061</ele>
        <time>2013-08-10T07:02:54Z</time>
      </trkpt>
      <trkpt lat="43.61578" lon="3.06016">
        <ele>422.6000061</ele>
        <time>2013-08-10T07:02:55Z</time>
      </trkpt>
      <trkpt lat="43.61578" lon="3.06014">
        <ele>423</ele>
        <time>2013-08-10T07:02:56Z</time>
      </trkpt>
      <trkpt lat="43.61578" lon="3.06011">
        <ele>423.3999939</ele>
        <time>2013-08-10T07:02:57Z</time>
      </trkpt>
      <trkpt lat="43.61578" lon="3.06009">
        <ele>423.7999878</ele>
        <time>2013-08-10T07:02:58Z</time>
      </trkpt>
      <trkpt lat="43.61578" lon="3.06008">
        <ele>424.7999878</ele>
        <time>2013-08-10T07:02:59Z</time>
      </trkpt>
      <trkpt lat="43.61578" lon="3.06005">
        <ele>424.7999878</ele>
        <time>2013-08-10T07:03:00Z</time>
      </trkpt>
      <trkpt lat="43.61576" lon="3.05997">
        <ele>424.7999878</ele>
        <time>2013-08-10T07:03:04Z</time>
      </trkpt>
      <trkpt lat="43.61574" lon="3.05992">
        <ele>424.7999878</ele>
        <time>2013-08-10T07:03:06Z</time>
      </trkpt>
      <trkpt lat="43.61572" lon="3.05982">
        <ele>424.7999878</ele>
        <time>2013-08-10T07:03:12Z</time>
      </trkpt>
      <trkpt lat="43.61571" lon="3.0598">
        <ele>425.2000122</ele>
        <time>2013-08-10T07:03:13Z</time>
      </trkpt>
      <trkpt lat="43.6157" lon="3.05979">
        <ele>425.6000061</ele>
        <time>2013-08-10T07:03:14Z</time>
      </trkpt>
      <trkpt lat="43.6157" lon="3.05978">
        <ele>426</ele>
        <time>2013-08-10T07:03:15Z</time>
      </trkpt>
      <trkpt lat="43.61569" lon="3.05977">
        <ele>426.3999939</ele>
        <time>2013-08-10T07:03:16Z</time>
      </trkpt>
      <trkpt lat="43.61569" lon="3.05976">
        <ele>426.7999878</ele>
        <time>2013-08-10T07:03:17Z</time>
      </trkpt>
      <trkpt lat="43.61568" lon="3.05974">
        <ele>426.7999878</ele>
        <time>2013-08-10T07:03:19Z</time>
      </trkpt>
      <trkpt lat="43.61568" lon="3.05972">
        <ele>426.7999878</ele>
        <time>2013-08-10T07:03:20Z</time>
      </trkpt>
      <trkpt lat="43.61567" lon="3.05969">
        <ele>427.2000122</ele>
        <time>2013-08-10T07:03:22Z</time>
      </trkpt>
      <trkpt lat="43.61567" lon="3.05967">
        <ele>428</ele>
        <time>2013-08-10T07:03:23Z</time>
      </trkpt>
      <trkpt lat="43.61567" lon="3.05966">
        <ele>428.3999939</ele>
        <time>2013-08-10T07:03:25Z</time>
      </trkpt>
      <trkpt lat="43.61567" lon="3.05964">
        <ele>428.7999878</ele>
        <time>2013-08-10T07:03:26Z</time>
      </trkpt>
      <trkpt lat="43.61566" lon="3.05961">
        <ele>428.7999878</ele>
        <time>2013-08-10T07:03:27Z</time>
      </trkpt>
      <trkpt lat="43.61564" lon="3.05956">
        <ele>429.2000122</ele>
        <time>2013-08-10T07:03:29Z</time>
      </trkpt>
      <trkpt lat="43.61563" lon="3.05953">
        <ele>429.6000061</ele>
        <time>2013-08-10T07:03:30Z</time>
      </trkpt>
      <trkpt lat="43.61562" lon="3.0595">
        <ele>430.2000122</ele>
        <time>2013-08-10T07:03:31Z</time>
      </trkpt>
      <trkpt lat="43.61561" lon="3.05948">
        <ele>430.6000061</ele>
        <time>2013-08-10T07:03:32Z</time>
      </trkpt>
      <trkpt lat="43.61561" lon="3.05946">
        <ele>431</ele>
        <time>2013-08-10T07:03:33Z</time>
      </trkpt>
      <trkpt lat="43.6156" lon="3.05943">
        <ele>431</ele>
        <time>2013-08-10T07:03:35Z</time>
      </trkpt>
      <trkpt lat="43.61557" lon="3.05933">
        <ele>431</ele>
        <time>2013-08-10T07:03:40Z</time>
      </trkpt>
      <trkpt lat="43.61557" lon="3.05932">
        <ele>431.3999939</ele>
        <time>2013-08-10T07:03:41Z</time>
      </trkpt>
      <trkpt lat="43.61556" lon="3.0593">
        <ele>431.7999878</ele>
        <time>2013-08-10T07:03:42Z</time>
      </trkpt>
      <trkpt lat="43.61555" lon="3.05928">
        <ele>432.3999939</ele>
        <time>2013-08-10T07:03:43Z</time>
      </trkpt>
      <trkpt lat="43.61554" lon="3.05925">
        <ele>432.7999878</ele>
        <time>2013-08-10T07:03:44Z</time>
      </trkpt>
      <trkpt lat="43.61553" lon="3.05922">
        <ele>433.2000122</ele>
        <time>2013-08-10T07:03:45Z</time>
      </trkpt>
      <trkpt lat="43.61551" lon="3.05918">
        <ele>433.2000122</ele>
        <time>2013-08-10T07:03:47Z</time>
      </trkpt>
      <trkpt lat="43.61542" lon="3.05893">
        <ele>433.2000122</ele>
        <time>2013-08-10T07:03:56Z</time>
      </trkpt>
      <trkpt lat="43.61542" lon="3.05891">
        <ele>433.2000122</ele>
        <time>2013-08-10T07:03:57Z</time>
      </trkpt>
      <trkpt lat="43.61536" lon="3.05876">
        <ele>433.2000122</ele>
        <time>2013-08-10T07:04:01Z</time>
      </trkpt>
      <trkpt lat="43.61535" lon="3.05873">
        <ele>433.6000061</ele>
        <time>2013-08-10T07:04:02Z</time>
      </trkpt>
      <trkpt lat="43.61534" lon="3.05871">
        <ele>434</ele>
        <time>2013-08-10T07:04:03Z</time>
      </trkpt>
      <trkpt lat="43.61533" lon="3.05868">
        <ele>434.3999939</ele>
        <time>2013-08-10T07:04:04Z</time>
      </trkpt>
      <trkpt lat="43.61532" lon="3.05865">
        <ele>434.7999878</ele>
        <time>2013-08-10T07:04:05Z</time>
      </trkpt>
      <trkpt lat="43.61531" lon="3.05863">
        <ele>435.2000122</ele>
        <time>2013-08-10T07:04:06Z</time>
      </trkpt>
      <trkpt lat="43.6153" lon="3.05858">
        <ele>435.2000122</ele>
        <time>2013-08-10T07:04:08Z</time>
      </trkpt>
      <trkpt lat="43.61524" lon="3.05846">
        <ele>435.2000122</ele>
        <time>2013-08-10T07:04:13Z</time>
      </trkpt>
      <trkpt lat="43.61521" lon="3.05841">
        <ele>435.6000061</ele>
        <time>2013-08-10T07:04:15Z</time>
      </trkpt>
      <trkpt lat="43.6152" lon="3.05839">
        <ele>436</ele>
        <time>2013-08-10T07:04:16Z</time>
      </trkpt>
      <trkpt lat="43.61519" lon="3.05837">
        <ele>436.3999939</ele>
        <time>2013-08-10T07:04:17Z</time>
      </trkpt>
      <trkpt lat="43.61518" lon="3.05834">
        <ele>437</ele>
        <time>2013-08-10T07:04:18Z</time>
      </trkpt>
      <trkpt lat="43.61517" lon="3.05832">
        <ele>437.3999939</ele>
        <time>2013-08-10T07:04:19Z</time>
      </trkpt>
      <trkpt lat="43.61514" lon="3.05827">
        <ele>437.3999939</ele>
        <time>2013-08-10T07:04:21Z</time>
      </trkpt>
      <trkpt lat="43.61511" lon="3.05824">
        <ele>437.3999939</ele>
        <time>2013-08-10T07:04:24Z</time>
      </trkpt>
      <trkpt lat="43.6151" lon="3.05825">
        <ele>437.3999939</ele>
        <time>2013-08-10T07:04:26Z</time>
      </trkpt>
      <trkpt lat="43.6151" lon="3.05827">
        <ele>437.7999878</ele>
        <time>2013-08-10T07:04:29Z</time>
      </trkpt>
      <trkpt lat="43.6151" lon="3.05829">
        <ele>438.2000122</ele>
        <time>2013-08-10T07:04:30Z</time>
      </trkpt>
      <trkpt lat="43.61511" lon="3.0583">
        <ele>438.6000061</ele>
        <time>2013-08-10T07:04:31Z</time>
      </trkpt>
      <trkpt lat="43.61511" lon="3.05831">
        <ele>439</ele>
        <time>2013-08-10T07:04:32Z</time>
      </trkpt>
      <trkpt lat="43.61511" lon="3.05832">
        <ele>439.3999939</ele>
        <time>2013-08-10T07:04:33Z</time>
      </trkpt>
      <trkpt lat="43.61512" lon="3.0584">
        <ele>439.7999878</ele>
        <time>2013-08-10T07:04:37Z</time>
      </trkpt>
      <trkpt lat="43.61511" lon="3.05842">
        <ele>440.2000122</ele>
        <time>2013-08-10T07:04:38Z</time>
      </trkpt>
      <trkpt lat="43.61511" lon="3.05843">
        <ele>440.6000061</ele>
        <time>2013-08-10T07:04:39Z</time>
      </trkpt>
      <trkpt lat="43.61512" lon="3.05845">
        <ele>441</ele>
        <time>2013-08-10T07:04:40Z</time>
      </trkpt>
      <trkpt lat="43.61512" lon="3.05846">
        <ele>441.3999939</ele>
        <time>2013-08-10T07:04:41Z</time>
      </trkpt>
      <trkpt lat="43.61514" lon="3.05854">
        <ele>441.3999939</ele>
        <time>2013-08-10T07:04:46Z</time>
      </trkpt>
      <trkpt lat="43.61515" lon="3.05859">
        <ele>441.7999878</ele>
        <time>2013-08-10T07:04:49Z</time>
      </trkpt>
      <trkpt lat="43.61515" lon="3.05861">
        <ele>442.2000122</ele>
        <time>2013-08-10T07:04:50Z</time>
      </trkpt>
      <trkpt lat="43.61515" lon="3.05863">
        <ele>442.6000061</ele>
        <time>2013-08-10T07:04:51Z</time>
      </trkpt>
      <trkpt lat="43.61515" lon="3.05864">
        <ele>443</ele>
        <time>2013-08-10T07:04:52Z</time>
      </trkpt>
      <trkpt lat="43.61516" lon="3.05866">
        <ele>443.3999939</ele>
        <time>2013-08-10T07:04:53Z</time>
      </trkpt>
      <trkpt lat="43.61516" lon="3.05872">
        <ele>443.3999939</ele>
        <time>2013-08-10T07:04:56Z</time>
      </trkpt>
      <trkpt lat="43.61517" lon="3.05876">
        <ele>443.3999939</ele>
        <time>2013-08-10T07:04:58Z</time>
      </trkpt>
      <trkpt lat="43.61518" lon="3.05885">
        <ele>443.3999939</ele>
        <time>2013-08-10T07:05:02Z</time>
      </trkpt>
      <trkpt lat="43.61518" lon="3.05892">
        <ele>443.7999878</ele>
        <time>2013-08-10T07:05:04Z</time>
      </trkpt>
      <trkpt lat="43.61518" lon="3.05895">
        <ele>444.2000122</ele>
        <time>2013-08-10T07:05:05Z</time>
      </trkpt>
      <trkpt lat="43.61518" lon="3.05898">
        <ele>444.6000061</ele>
        <time>2013-08-10T07:05:06Z</time>
      </trkpt>
      <trkpt lat="43.61518" lon="3.059">
        <ele>445</ele>
        <time>2013-08-10T07:05:07Z</time>
      </trkpt>
      <trkpt lat="43.61518" lon="3.05903">
        <ele>445.3999939</ele>
        <time>2013-08-10T07:05:08Z</time>
      </trkpt>
      <trkpt lat="43.61519" lon="3.05909">
        <ele>445.3999939</ele>
        <time>2013-08-10T07:05:11Z</time>
      </trkpt>
      <trkpt lat="43.61519" lon="3.05911">
        <ele>445.3999939</ele>
        <time>2013-08-10T07:05:12Z</time>
      </trkpt>
      <trkpt lat="43.6152" lon="3.05925">
        <ele>445.3999939</ele>
        <time>2013-08-10T07:05:18Z</time>
      </trkpt>
      <trkpt lat="43.6152" lon="3.05928">
        <ele>445.3999939</ele>
        <time>2013-08-10T07:05:19Z</time>
      </trkpt>
      <trkpt lat="43.6152" lon="3.05933">
        <ele>445.7999878</ele>
        <time>2013-08-10T07:05:21Z</time>
      </trkpt>
      <trkpt lat="43.61521" lon="3.05935">
        <ele>446.2000122</ele>
        <time>2013-08-10T07:05:22Z</time>
      </trkpt>
      <trkpt lat="43.61521" lon="3.05937">
        <ele>446.6000061</ele>
        <time>2013-08-10T07:05:23Z</time>
      </trkpt>
      <trkpt lat="43.61522" lon="3.05939">
        <ele>447.2000122</ele>
        <time>2013-08-10T07:05:24Z</time>
      </trkpt>
      <trkpt lat="43.61521" lon="3.05942">
        <ele>447.6000061</ele>
        <time>2013-08-10T07:05:25Z</time>
      </trkpt>
      <trkpt lat="43.61522" lon="3.05944">
        <ele>447.6000061</ele>
        <time>2013-08-10T07:05:26Z</time>
      </trkpt>
      <trkpt lat="43.61523" lon="3.05951">
        <ele>447.6000061</ele>
        <time>2013-08-10T07:05:30Z</time>
      </trkpt>
      <trkpt lat="43.61523" lon="3.05953">
        <ele>447.6000061</ele>
        <time>2013-08-10T07:05:31Z</time>
      </trkpt>
      <trkpt lat="43.61522" lon="3.05958">
        <ele>448</ele>
        <time>2013-08-10T07:05:33Z</time>
      </trkpt>
      <trkpt lat="43.61522" lon="3.05961">
        <ele>448.3999939</ele>
        <time>2013-08-10T07:05:34Z</time>
      </trkpt>
      <trkpt lat="43.61523" lon="3.05963">
        <ele>448.7999878</ele>
        <time>2013-08-10T07:05:35Z</time>
      </trkpt>
      <trkpt lat="43.61523" lon="3.05965">
        <ele>449.2000122</ele>
        <time>2013-08-10T07:05:36Z</time>
      </trkpt>
      <trkpt lat="43.61523" lon="3.05966">
        <ele>449.6000061</ele>
        <time>2013-08-10T07:05:37Z</time>
      </trkpt>
      <trkpt lat="43.61523" lon="3.05966">
        <ele>449.6000061</ele>
        <time>2013-08-10T07:05:38Z</time>
      </trkpt>
      <trkpt lat="43.61523" lon="3.05972">
        <ele>449.6000061</ele>
        <time>2013-08-10T07:05:42Z</time>
      </trkpt>
      <trkpt lat="43.6152" lon="3.05983">
        <ele>449.6000061</ele>
        <time>2013-08-10T07:05:47Z</time>
      </trkpt>
      <trkpt lat="43.61519" lon="3.0599">
        <ele>450</ele>
        <time>2013-08-10T07:05:51Z</time>
      </trkpt>
      <trkpt lat="43.61519" lon="3.05991">
        <ele>450.3999939</ele>
        <time>2013-08-10T07:05:52Z</time>
      </trkpt>
      <trkpt lat="43.6152" lon="3.05994">
        <ele>451</ele>
        <time>2013-08-10T07:05:53Z</time>
      </trkpt>
      <trkpt lat="43.6152" lon="3.05997">
        <ele>451.3999939</ele>
        <time>2013-08-10T07:05:54Z</time>
      </trkpt>
      <trkpt lat="43.6152" lon="3.06">
        <ele>451.7999878</ele>
        <time>2013-08-10T07:05:55Z</time>
      </trkpt>
      <trkpt lat="43.6152" lon="3.06009">
        <ele>451.7999878</ele>
        <time>2013-08-10T07:05:58Z</time>
      </trkpt>
      <trkpt lat="43.61519" lon="3.06024">
        <ele>451.7999878</ele>
        <time>2013-08-10T07:06:05Z</time>
      </trkpt>
      <trkpt lat="43.61519" lon="3.06032">
        <ele>452.2000122</ele>
        <time>2013-08-10T07:06:08Z</time>
      </trkpt>
      <trkpt lat="43.61519" lon="3.06036">
        <ele>452.6000061</ele>
        <time>2013-08-10T07:06:09Z</time>
      </trkpt>
      <trkpt lat="43.6152" lon="3.0604">
        <ele>453</ele>
        <time>2013-08-10T07:06:10Z</time>
      </trkpt>
      <trkpt lat="43.6152" lon="3.06044">
        <ele>453.3999939</ele>
        <time>2013-08-10T07:06:11Z</time>
      </trkpt>
      <trkpt lat="43.61522" lon="3.06048">
        <ele>453.7999878</ele>
        <time>2013-08-10T07:06:12Z</time>
      </trkpt>
      <trkpt lat="43.61522" lon="3.06058">
        <ele>453.7999878</ele>
        <time>2013-08-10T07:06:16Z</time>
      </trkpt>
      <trkpt lat="43.61523" lon="3.0606">
        <ele>453.7999878</ele>
        <time>2013-08-10T07:06:19Z</time>
      </trkpt>
      <trkpt lat="43.61523" lon="3.0606">
        <ele>453.7999878</ele>
        <time>2013-08-10T07:06:20Z</time>
      </trkpt>
      <trkpt lat="43.61525" lon="3.06089">
        <ele>453.7999878</ele>
        <time>2013-08-10T07:08:21Z</time>
      </trkpt>
      <trkpt lat="43.61525" lon="3.06092">
        <ele>453.7999878</ele>
        <time>2013-08-10T07:08:22Z</time>
      </trkpt>
      <trkpt lat="43.61526" lon="3.06097">
        <ele>453.7999878</ele>
        <time>2013-08-10T07:08:24Z</time>
      </trkpt>
      <trkpt lat="43.61527" lon="3.06099">
        <ele>453.7999878</ele>
        <time>2013-08-10T07:08:25Z</time>
      </trkpt>
      <trkpt lat="43.61533" lon="3.06115">
        <ele>453.7999878</ele>
        <time>2013-08-10T07:08:30Z</time>
      </trkpt>
      <trkpt lat="43.61538" lon="3.06132">
        <ele>453.7999878</ele>
        <time>2013-08-10T07:08:36Z</time>
      </trkpt>
      <trkpt lat="43.61539" lon="3.06134">
        <ele>453.7999878</ele>
        <time>2013-08-10T07:08:37Z</time>
      </trkpt>
      <trkpt lat="43.6154" lon="3.06142">
        <ele>453.7999878</ele>
        <time>2013-08-10T07:08:40Z</time>
      </trkpt>
      <trkpt lat="43.6154" lon="3.06145">
        <ele>454.3999939</ele>
        <time>2013-08-10T07:08:41Z</time>
      </trkpt>
      <trkpt lat="43.6154" lon="3.06147">
        <ele>454.7999878</ele>
        <time>2013-08-10T07:08:42Z</time>
      </trkpt>
      <trkpt lat="43.6154" lon="3.0615">
        <ele>455.2000122</ele>
        <time>2013-08-10T07:08:43Z</time>
      </trkpt>
      <trkpt lat="43.61541" lon="3.06152">
        <ele>456</ele>
        <time>2013-08-10T07:08:44Z</time>
      </trkpt>
      <trkpt lat="43.61542" lon="3.06157">
        <ele>456.3999939</ele>
        <time>2013-08-10T07:08:46Z</time>
      </trkpt>
      <trkpt lat="43.61542" lon="3.06159">
        <ele>456.7999878</ele>
        <time>2013-08-10T07:08:47Z</time>
      </trkpt>
      <trkpt lat="43.61543" lon="3.06162">
        <ele>457.3999939</ele>
        <time>2013-08-10T07:08:48Z</time>
      </trkpt>
      <trkpt lat="43.61542" lon="3.06164">
        <ele>457.7999878</ele>
        <time>2013-08-10T07:08:49Z</time>
      </trkpt>
      <trkpt lat="43.61542" lon="3.06166">
        <ele>458.2000122</ele>
        <time>2013-08-10T07:08:50Z</time>
      </trkpt>
      <trkpt lat="43.61545" lon="3.06175">
        <ele>458.2000122</ele>
        <time>2013-08-10T07:08:54Z</time>
      </trkpt>
      <trkpt lat="43.61545" lon="3.06177">
        <ele>458.2000122</ele>
        <time>2013-08-10T07:08:55Z</time>
      </trkpt>
      <trkpt lat="43.61546" lon="3.06182">
        <ele>458.2000122</ele>
        <time>2013-08-10T07:08:57Z</time>
      </trkpt>
      <trkpt lat="43.61547" lon="3.06191">
        <ele>458.6000061</ele>
        <time>2013-08-10T07:09:01Z</time>
      </trkpt>
      <trkpt lat="43.61549" lon="3.06194">
        <ele>459</ele>
        <time>2013-08-10T07:09:02Z</time>
      </trkpt>
      <trkpt lat="43.6155" lon="3.06197">
        <ele>459.3999939</ele>
        <time>2013-08-10T07:09:03Z</time>
      </trkpt>
      <trkpt lat="43.61551" lon="3.06199">
        <ele>459.7999878</ele>
        <time>2013-08-10T07:09:04Z</time>
      </trkpt>
      <trkpt lat="43.61552" lon="3.06202">
        <ele>460.2000122</ele>
        <time>2013-08-10T07:09:05Z</time>
      </trkpt>
      <trkpt lat="43.61556" lon="3.06209">
        <ele>460.2000122</ele>
        <time>2013-08-10T07:09:08Z</time>
      </trkpt>
      <trkpt lat="43.61563" lon="3.06221">
        <ele>460.2000122</ele>
        <time>2013-08-10T07:09:14Z</time>
      </trkpt>
      <trkpt lat="43.61565" lon="3.06225">
        <ele>460.6000061</ele>
        <time>2013-08-10T07:09:16Z</time>
      </trkpt>
      <trkpt lat="43.61567" lon="3.06227">
        <ele>461</ele>
        <time>2013-08-10T07:09:17Z</time>
      </trkpt>
      <trkpt lat="43.61568" lon="3.06229">
        <ele>461.3999939</ele>
        <time>2013-08-10T07:09:18Z</time>
      </trkpt>
      <trkpt lat="43.61568" lon="3.06231">
        <ele>461.7999878</ele>
        <time>2013-08-10T07:09:19Z</time>
      </trkpt>
      <trkpt lat="43.61569" lon="3.06233">
        <ele>462.2000122</ele>
        <time>2013-08-10T07:09:20Z</time>
      </trkpt>
      <trkpt lat="43.6157" lon="3.06235">
        <ele>462.2000122</ele>
        <time>2013-08-10T07:09:21Z</time>
      </trkpt>
      <trkpt lat="43.61574" lon="3.06252">
        <ele>462.6000061</ele>
        <time>2013-08-10T07:09:28Z</time>
      </trkpt>
      <trkpt lat="43.61574" lon="3.06254">
        <ele>463</ele>
        <time>2013-08-10T07:09:29Z</time>
      </trkpt>
      <trkpt lat="43.61574" lon="3.06256">
        <ele>463.3999939</ele>
        <time>2013-08-10T07:09:30Z</time>
      </trkpt>
      <trkpt lat="43.61575" lon="3.06258">
        <ele>463.7999878</ele>
        <time>2013-08-10T07:09:31Z</time>
      </trkpt>
      <trkpt lat="43.61575" lon="3.06261">
        <ele>464.2000122</ele>
        <time>2013-08-10T07:09:32Z</time>
      </trkpt>
      <trkpt lat="43.61575" lon="3.06263">
        <ele>464.2000122</ele>
        <time>2013-08-10T07:09:33Z</time>
      </trkpt>
      <trkpt lat="43.61575" lon="3.06267">
        <ele>464.6000061</ele>
        <time>2013-08-10T07:09:35Z</time>
      </trkpt>
      <trkpt lat="43.61574" lon="3.0627">
        <ele>465</ele>
        <time>2013-08-10T07:09:36Z</time>
      </trkpt>
      <trkpt lat="43.61575" lon="3.06273">
        <ele>465.6000061</ele>
        <time>2013-08-10T07:09:37Z</time>
      </trkpt>
      <trkpt lat="43.61575" lon="3.06275">
        <ele>466</ele>
        <time>2013-08-10T07:09:38Z</time>
      </trkpt>
      <trkpt lat="43.61575" lon="3.06278">
        <ele>466.3999939</ele>
        <time>2013-08-10T07:09:39Z</time>
      </trkpt>
      <trkpt lat="43.61571" lon="3.06292">
        <ele>466.3999939</ele>
        <time>2013-08-10T07:09:44Z</time>
      </trkpt>
      <trkpt lat="43.6157" lon="3.06294">
        <ele>466.3999939</ele>
        <time>2013-08-10T07:09:45Z</time>
      </trkpt>
      <trkpt lat="43.61565" lon="3.06301">
        <ele>466.7999878</ele>
        <time>2013-08-10T07:09:49Z</time>
      </trkpt>
      <trkpt lat="43.61564" lon="3.06303">
        <ele>467.2000122</ele>
        <time>2013-08-10T07:09:50Z</time>
      </trkpt>
      <trkpt lat="43.61562" lon="3.06304">
        <ele>467.7999878</ele>
        <time>2013-08-10T07:09:51Z</time>
      </trkpt>
      <trkpt lat="43.6156" lon="3.06305">
        <ele>468.2000122</ele>
        <time>2013-08-10T07:09:52Z</time>
      </trkpt>
      <trkpt lat="43.61559" lon="3.06306">
        <ele>468.6000061</ele>
        <time>2013-08-10T07:09:53Z</time>
      </trkpt>
      <trkpt lat="43.61554" lon="3.06308">
        <ele>468.6000061</ele>
        <time>2013-08-10T07:09:56Z</time>
      </trkpt>
      <trkpt lat="43.61545" lon="3.06309">
        <ele>469</ele>
        <time>2013-08-10T07:10:01Z</time>
      </trkpt>
      <trkpt lat="43.61543" lon="3.06309">
        <ele>469.3999939</ele>
        <time>2013-08-10T07:10:02Z</time>
      </trkpt>
      <trkpt lat="43.61542" lon="3.06309">
        <ele>469.7999878</ele>
        <time>2013-08-10T07:10:03Z</time>
      </trkpt>
      <trkpt lat="43.6154" lon="3.06309">
        <ele>470.2000122</ele>
        <time>2013-08-10T07:10:04Z</time>
      </trkpt>
      <trkpt lat="43.61539" lon="3.0631">
        <ele>470.6000061</ele>
        <time>2013-08-10T07:10:05Z</time>
      </trkpt>
      <trkpt lat="43.61529" lon="3.0631">
        <ele>470.6000061</ele>
        <time>2013-08-10T07:10:11Z</time>
      </trkpt>
      <trkpt lat="43.6152" lon="3.06309">
        <ele>471.2000122</ele>
        <time>2013-08-10T07:10:16Z</time>
      </trkpt>
      <trkpt lat="43.61518" lon="3.06309">
        <ele>471.6000061</ele>
        <time>2013-08-10T07:10:17Z</time>
      </trkpt>
      <trkpt lat="43.61517" lon="3.06309">
        <ele>472</ele>
        <time>2013-08-10T07:10:18Z</time>
      </trkpt>
      <trkpt lat="43.61515" lon="3.06309">
        <ele>472.3999939</ele>
        <time>2013-08-10T07:10:19Z</time>
      </trkpt>
      <trkpt lat="43.61514" lon="3.06309">
        <ele>473</ele>
        <time>2013-08-10T07:10:20Z</time>
      </trkpt>
      <trkpt lat="43.61503" lon="3.06309">
        <ele>473</ele>
        <time>2013-08-10T07:10:26Z</time>
      </trkpt>
      <trkpt lat="43.61487" lon="3.06312">
        <ele>473.3999939</ele>
        <time>2013-08-10T07:10:34Z</time>
      </trkpt>
      <trkpt lat="43.61485" lon="3.06312">
        <ele>473.7999878</ele>
        <time>2013-08-10T07:10:35Z</time>
      </trkpt>
      <trkpt lat="43.61483" lon="3.06312">
        <ele>474.3999939</ele>
        <time>2013-08-10T07:10:36Z</time>
      </trkpt>
      <trkpt lat="43.61481" lon="3.06312">
        <ele>474.7999878</ele>
        <time>2013-08-10T07:10:37Z</time>
      </trkpt>
      <trkpt lat="43.61479" lon="3.06312">
        <ele>475.3999939</ele>
        <time>2013-08-10T07:10:38Z</time>
      </trkpt>
      <trkpt lat="43.61475" lon="3.06314">
        <ele>475.3999939</ele>
        <time>2013-08-10T07:10:41Z</time>
      </trkpt>
      <trkpt lat="43.61465" lon="3.06317">
        <ele>475.7999878</ele>
        <time>2013-08-10T07:10:46Z</time>
      </trkpt>
      <trkpt lat="43.61463" lon="3.06317">
        <ele>476.2000122</ele>
        <time>2013-08-10T07:10:47Z</time>
      </trkpt>
      <trkpt lat="43.61461" lon="3.06317">
        <ele>477</ele>
        <time>2013-08-10T07:10:48Z</time>
      </trkpt>
      <trkpt lat="43.61459" lon="3.06318">
        <ele>477.3999939</ele>
        <time>2013-08-10T07:10:49Z</time>
      </trkpt>
      <trkpt lat="43.61446" lon="3.06323">
        <ele>477.3999939</ele>
        <time>2013-08-10T07:10:55Z</time>
      </trkpt>
      <trkpt lat="43.61438" lon="3.06327">
        <ele>477.7999878</ele>
        <time>2013-08-10T07:10:59Z</time>
      </trkpt>
      <trkpt lat="43.61436" lon="3.06328">
        <ele>478.2000122</ele>
        <time>2013-08-10T07:11:00Z</time>
      </trkpt>
      <trkpt lat="43.61434" lon="3.06329">
        <ele>478.6000061</ele>
        <time>2013-08-10T07:11:01Z</time>
      </trkpt>
      <trkpt lat="43.61432" lon="3.06329">
        <ele>479</ele>
        <time>2013-08-10T07:11:02Z</time>
      </trkpt>
      <trkpt lat="43.6143" lon="3.0633">
        <ele>479.3999939</ele>
        <time>2013-08-10T07:11:03Z</time>
      </trkpt>
      <trkpt lat="43.61418" lon="3.06335">
        <ele>479.7999878</ele>
        <time>2013-08-10T07:11:09Z</time>
      </trkpt>
      <trkpt lat="43.61416" lon="3.06335">
        <ele>480.2000122</ele>
        <time>2013-08-10T07:11:10Z</time>
      </trkpt>
      <trkpt lat="43.61414" lon="3.06336">
        <ele>480.7999878</ele>
        <time>2013-08-10T07:11:11Z</time>
      </trkpt>
      <trkpt lat="43.61412" lon="3.06336">
        <ele>481.6000061</ele>
        <time>2013-08-10T07:11:12Z</time>
      </trkpt>
      <trkpt lat="43.61404" lon="3.06337">
        <ele>482</ele>
        <time>2013-08-10T07:11:16Z</time>
      </trkpt>
      <trkpt lat="43.61402" lon="3.06338">
        <ele>482.3999939</ele>
        <time>2013-08-10T07:11:17Z</time>
      </trkpt>
      <trkpt lat="43.614" lon="3.06339">
        <ele>482.7999878</ele>
        <time>2013-08-10T07:11:18Z</time>
      </trkpt>
      <trkpt lat="43.61397" lon="3.06339">
        <ele>483.2000122</ele>
        <time>2013-08-10T07:11:19Z</time>
      </trkpt>
      <trkpt lat="43.61395" lon="3.06339">
        <ele>483.6000061</ele>
        <time>2013-08-10T07:11:20Z</time>
      </trkpt>
      <trkpt lat="43.61391" lon="3.06339">
        <ele>483.6000061</ele>
        <time>2013-08-10T07:11:22Z</time>
      </trkpt>
      <trkpt lat="43.61369" lon="3.06343">
        <ele>483.6000061</ele>
        <time>2013-08-10T07:11:31Z</time>
      </trkpt>
      <trkpt lat="43.61351" lon="3.06353">
        <ele>483.6000061</ele>
        <time>2013-08-10T07:11:37Z</time>
      </trkpt>
      <trkpt lat="43.61348" lon="3.06354">
        <ele>484</ele>
        <time>2013-08-10T07:11:38Z</time>
      </trkpt>
      <trkpt lat="43.61346" lon="3.06356">
        <ele>484.3999939</ele>
        <time>2013-08-10T07:11:39Z</time>
      </trkpt>
      <trkpt lat="43.61343" lon="3.06357">
        <ele>484.7999878</ele>
        <time>2013-08-10T07:11:40Z</time>
      </trkpt>
      <trkpt lat="43.61341" lon="3.06359">
        <ele>485.2000122</ele>
        <time>2013-08-10T07:11:41Z</time>
      </trkpt>
      <trkpt lat="43.61339" lon="3.0636">
        <ele>485.6000061</ele>
        <time>2013-08-10T07:11:42Z</time>
      </trkpt>
      <trkpt lat="43.61334" lon="3.06363">
        <ele>485.6000061</ele>
        <time>2013-08-10T07:11:44Z</time>
      </trkpt>
      <trkpt lat="43.61326" lon="3.06369">
        <ele>485.6000061</ele>
        <time>2013-08-10T07:11:48Z</time>
      </trkpt>
      <trkpt lat="43.61322" lon="3.0637">
        <ele>485.6000061</ele>
        <time>2013-08-10T07:11:50Z</time>
      </trkpt>
      <trkpt lat="43.6132" lon="3.06372">
        <ele>486</ele>
        <time>2013-08-10T07:11:51Z</time>
      </trkpt>
      <trkpt lat="43.61318" lon="3.06374">
        <ele>486.3999939</ele>
        <time>2013-08-10T07:11:52Z</time>
      </trkpt>
      <trkpt lat="43.61316" lon="3.06375">
        <ele>486.7999878</ele>
        <time>2013-08-10T07:11:53Z</time>
      </trkpt>
      <trkpt lat="43.61313" lon="3.06376">
        <ele>487.2000122</ele>
        <time>2013-08-10T07:11:54Z</time>
      </trkpt>
      <trkpt lat="43.6131" lon="3.06378">
        <ele>487.7999878</ele>
        <time>2013-08-10T07:11:55Z</time>
      </trkpt>
      <trkpt lat="43.61297" lon="3.06383">
        <ele>487.7999878</ele>
        <time>2013-08-10T07:12:00Z</time>
      </trkpt>
      <trkpt lat="43.61293" lon="3.06384">
        <ele>488.6000061</ele>
        <time>2013-08-10T07:12:02Z</time>
      </trkpt>
      <trkpt lat="43.6129" lon="3.06385">
        <ele>489</ele>
        <time>2013-08-10T07:12:03Z</time>
      </trkpt>
      <trkpt lat="43.61288" lon="3.06386">
        <ele>489.3999939</ele>
        <time>2013-08-10T07:12:04Z</time>
      </trkpt>
      <trkpt lat="43.61286" lon="3.06387">
        <ele>489.7999878</ele>
        <time>2013-08-10T07:12:05Z</time>
      </trkpt>
      <trkpt lat="43.61282" lon="3.06388">
        <ele>489.7999878</ele>
        <time>2013-08-10T07:12:07Z</time>
      </trkpt>
      <trkpt lat="43.61272" lon="3.06391">
        <ele>490.2000122</ele>
        <time>2013-08-10T07:12:11Z</time>
      </trkpt>
      <trkpt lat="43.61269" lon="3.06391">
        <ele>490.7999878</ele>
        <time>2013-08-10T07:12:12Z</time>
      </trkpt>
      <trkpt lat="43.61267" lon="3.06392">
        <ele>491.2000122</ele>
        <time>2013-08-10T07:12:13Z</time>
      </trkpt>
      <trkpt lat="43.61265" lon="3.06392">
        <ele>491.6000061</ele>
        <time>2013-08-10T07:12:14Z</time>
      </trkpt>
      <trkpt lat="43.61262" lon="3.06392">
        <ele>492</ele>
        <time>2013-08-10T07:12:15Z</time>
      </trkpt>
      <trkpt lat="43.61256" lon="3.06394">
        <ele>492</ele>
        <time>2013-08-10T07:12:18Z</time>
      </trkpt>
      <trkpt lat="43.61241" lon="3.06396">
        <ele>492.3999939</ele>
        <time>2013-08-10T07:12:25Z</time>
      </trkpt>
      <trkpt lat="43.61238" lon="3.06396">
        <ele>492.7999878</ele>
        <time>2013-08-10T07:12:26Z</time>
      </trkpt>
      <trkpt lat="43.61236" lon="3.06397">
        <ele>493.6000061</ele>
        <time>2013-08-10T07:12:27Z</time>
      </trkpt>
      <trkpt lat="43.61234" lon="3.06397">
        <ele>494</ele>
        <time>2013-08-10T07:12:28Z</time>
      </trkpt>
      <trkpt lat="43.61227" lon="3.06398">
        <ele>494</ele>
        <time>2013-08-10T07:12:31Z</time>
      </trkpt>
      <trkpt lat="43.61216" lon="3.06399">
        <ele>494</ele>
        <time>2013-08-10T07:12:37Z</time>
      </trkpt>
      <trkpt lat="43.6121" lon="3.064">
        <ele>494.3999939</ele>
        <time>2013-08-10T07:12:40Z</time>
      </trkpt>
      <trkpt lat="43.61207" lon="3.06401">
        <ele>495</ele>
        <time>2013-08-10T07:12:41Z</time>
      </trkpt>
      <trkpt lat="43.61206" lon="3.06401">
        <ele>495.3999939</ele>
        <time>2013-08-10T07:12:42Z</time>
      </trkpt>
      <trkpt lat="43.61203" lon="3.06401">
        <ele>495.7999878</ele>
        <time>2013-08-10T07:12:43Z</time>
      </trkpt>
      <trkpt lat="43.61202" lon="3.06401">
        <ele>496.2000122</ele>
        <time>2013-08-10T07:12:44Z</time>
      </trkpt>
      <trkpt lat="43.61191" lon="3.06404">
        <ele>496.2000122</ele>
        <time>2013-08-10T07:12:49Z</time>
      </trkpt>
      <trkpt lat="43.61178" lon="3.06406">
        <ele>496.6000061</ele>
        <time>2013-08-10T07:12:54Z</time>
      </trkpt>
      <trkpt lat="43.61175" lon="3.06407">
        <ele>497</ele>
        <time>2013-08-10T07:12:55Z</time>
      </trkpt>
      <trkpt lat="43.61172" lon="3.06408">
        <ele>497.3999939</ele>
        <time>2013-08-10T07:12:56Z</time>
      </trkpt>
      <trkpt lat="43.6117" lon="3.06408">
        <ele>497.7999878</ele>
        <time>2013-08-10T07:12:57Z</time>
      </trkpt>
      <trkpt lat="43.61167" lon="3.06408">
        <ele>498.2000122</ele>
        <time>2013-08-10T07:12:58Z</time>
      </trkpt>
      <trkpt lat="43.61159" lon="3.06408">
        <ele>498.2000122</ele>
        <time>2013-08-10T07:13:01Z</time>
      </trkpt>
      <trkpt lat="43.61148" lon="3.06407">
        <ele>498.2000122</ele>
        <time>2013-08-10T07:13:06Z</time>
      </trkpt>
      <trkpt lat="43.61146" lon="3.06406">
        <ele>498.6000061</ele>
        <time>2013-08-10T07:13:07Z</time>
      </trkpt>
      <trkpt lat="43.61145" lon="3.06405">
        <ele>499</ele>
        <time>2013-08-10T07:13:08Z</time>
      </trkpt>
      <trkpt lat="43.61143" lon="3.06402">
        <ele>499.3999939</ele>
        <time>2013-08-10T07:13:09Z</time>
      </trkpt>
      <trkpt lat="43.61142" lon="3.06399">
        <ele>499.7999878</ele>
        <time>2013-08-10T07:13:10Z</time>
      </trkpt>
      <trkpt lat="43.61142" lon="3.06397">
        <ele>500.2000122</ele>
        <time>2013-08-10T07:13:11Z</time>
      </trkpt>
      <trkpt lat="43.61138" lon="3.06377">
        <ele>500.6000061</ele>
        <time>2013-08-10T07:13:18Z</time>
      </trkpt>
      <trkpt lat="43.61138" lon="3.06374">
        <ele>501.2000122</ele>
        <time>2013-08-10T07:13:19Z</time>
      </trkpt>
      <trkpt lat="43.61138" lon="3.06372">
        <ele>501.6000061</ele>
        <time>2013-08-10T07:13:20Z</time>
      </trkpt>
      <trkpt lat="43.61138" lon="3.0637">
        <ele>502</ele>
        <time>2013-08-10T07:13:21Z</time>
      </trkpt>
      <trkpt lat="43.61137" lon="3.06367">
        <ele>502.3999939</ele>
        <time>2013-08-10T07:13:22Z</time>
      </trkpt>
      <trkpt lat="43.61136" lon="3.06361">
        <ele>502.3999939</ele>
        <time>2013-08-10T07:13:24Z</time>
      </trkpt>
      <trkpt lat="43.61133" lon="3.06349">
        <ele>502.7999878</ele>
        <time>2013-08-10T07:13:28Z</time>
      </trkpt>
      <trkpt lat="43.61132" lon="3.06346">
        <ele>503.2000122</ele>
        <time>2013-08-10T07:13:29Z</time>
      </trkpt>
      <trkpt lat="43.61131" lon="3.06343">
        <ele>503.6000061</ele>
        <time>2013-08-10T07:13:30Z</time>
      </trkpt>
      <trkpt lat="43.6113" lon="3.0634">
        <ele>504.2000122</ele>
        <time>2013-08-10T07:13:31Z</time>
      </trkpt>
      <trkpt lat="43.61129" lon="3.06338">
        <ele>504.6000061</ele>
        <time>2013-08-10T07:13:32Z</time>
      </trkpt>
      <trkpt lat="43.61127" lon="3.06325">
        <ele>505</ele>
        <time>2013-08-10T07:13:37Z</time>
      </trkpt>
      <trkpt lat="43.61126" lon="3.06322">
        <ele>505.3999939</ele>
        <time>2013-08-10T07:13:38Z</time>
      </trkpt>
      <trkpt lat="43.61125" lon="3.06319">
        <ele>505.7999878</ele>
        <time>2013-08-10T07:13:39Z</time>
      </trkpt>
      <trkpt lat="43.61125" lon="3.06316">
        <ele>506.3999939</ele>
        <time>2013-08-10T07:13:40Z</time>
      </trkpt>
      <trkpt lat="43.61125" lon="3.06313">
        <ele>506.7999878</ele>
        <time>2013-08-10T07:13:41Z</time>
      </trkpt>
      <trkpt lat="43.61125" lon="3.06307">
        <ele>506.7999878</ele>
        <time>2013-08-10T07:13:43Z</time>
      </trkpt>
      <trkpt lat="43.61125" lon="3.06293">
        <ele>507.2000122</ele>
        <time>2013-08-10T07:13:48Z</time>
      </trkpt>
      <trkpt lat="43.61124" lon="3.0629">
        <ele>507.7999878</ele>
        <time>2013-08-10T07:13:49Z</time>
      </trkpt>
      <trkpt lat="43.61124" lon="3.06287">
        <ele>508.2000122</ele>
        <time>2013-08-10T07:13:50Z</time>
      </trkpt>
      <trkpt lat="43.61124" lon="3.06285">
        <ele>508.6000061</ele>
        <time>2013-08-10T07:13:51Z</time>
      </trkpt>
      <trkpt lat="43.61124" lon="3.06282">
        <ele>509</ele>
        <time>2013-08-10T07:13:52Z</time>
      </trkpt>
      <trkpt lat="43.61124" lon="3.06275">
        <ele>509.3999939</ele>
        <time>2013-08-10T07:13:55Z</time>
      </trkpt>
      <trkpt lat="43.61124" lon="3.06272">
        <ele>509.7999878</ele>
        <time>2013-08-10T07:13:56Z</time>
      </trkpt>
      <trkpt lat="43.61124" lon="3.0627">
        <ele>510.2000122</ele>
        <time>2013-08-10T07:13:57Z</time>
      </trkpt>
      <trkpt lat="43.61123" lon="3.06268">
        <ele>510.7999878</ele>
        <time>2013-08-10T07:13:58Z</time>
      </trkpt>
      <trkpt lat="43.61123" lon="3.06265">
        <ele>511.2000122</ele>
        <time>2013-08-10T07:13:59Z</time>
      </trkpt>
      <trkpt lat="43.61124" lon="3.06251">
        <ele>511.2000122</ele>
        <time>2013-08-10T07:14:04Z</time>
      </trkpt>
      <trkpt lat="43.61126" lon="3.0623">
        <ele>511.2000122</ele>
        <time>2013-08-10T07:14:11Z</time>
      </trkpt>
      <trkpt lat="43.61125" lon="3.06227">
        <ele>511.6000061</ele>
        <time>2013-08-10T07:14:12Z</time>
      </trkpt>
      <trkpt lat="43.61125" lon="3.06225">
        <ele>512</ele>
        <time>2013-08-10T07:14:13Z</time>
      </trkpt>
      <trkpt lat="43.61125" lon="3.06222">
        <ele>512.4000244</ele>
        <time>2013-08-10T07:14:14Z</time>
      </trkpt>
      <trkpt lat="43.61125" lon="3.06219">
        <ele>512.7999878</ele>
        <time>2013-08-10T07:14:15Z</time>
      </trkpt>
      <trkpt lat="43.61125" lon="3.06217">
        <ele>513.2000122</ele>
        <time>2013-08-10T07:14:16Z</time>
      </trkpt>
      <trkpt lat="43.61125" lon="3.06214">
        <ele>513.2000122</ele>
        <time>2013-08-10T07:14:17Z</time>
      </trkpt>
      <trkpt lat="43.61125" lon="3.06202">
        <ele>513.2000122</ele>
        <time>2013-08-10T07:14:22Z</time>
      </trkpt>
      <trkpt lat="43.61125" lon="3.06201">
        <ele>513.5999756</ele>
        <time>2013-08-10T07:14:23Z</time>
      </trkpt>
      <trkpt lat="43.61125" lon="3.06201">
        <ele>514</ele>
        <time>2013-08-10T07:14:24Z</time>
      </trkpt>
      <trkpt lat="43.61124" lon="3.06198">
        <ele>514.4000244</ele>
        <time>2013-08-10T07:14:25Z</time>
      </trkpt>
      <trkpt lat="43.61122" lon="3.06195">
        <ele>514.7999878</ele>
        <time>2013-08-10T07:14:26Z</time>
      </trkpt>
      <trkpt lat="43.6112" lon="3.06192">
        <ele>515.2000122</ele>
        <time>2013-08-10T07:14:27Z</time>
      </trkpt>
      <trkpt lat="43.61112" lon="3.06188">
        <ele>515.2000122</ele>
        <time>2013-08-10T07:14:31Z</time>
      </trkpt>
      <trkpt lat="43.61111" lon="3.06188">
        <ele>515.2000122</ele>
        <time>2013-08-10T07:14:32Z</time>
      </trkpt>
      <trkpt lat="43.61105" lon="3.06189">
        <ele>515.7999878</ele>
        <time>2013-08-10T07:14:35Z</time>
      </trkpt>
      <trkpt lat="43.61104" lon="3.0619">
        <ele>516.2000122</ele>
        <time>2013-08-10T07:14:36Z</time>
      </trkpt>
      <trkpt lat="43.61102" lon="3.0619">
        <ele>516.5999756</ele>
        <time>2013-08-10T07:14:37Z</time>
      </trkpt>
      <trkpt lat="43.611" lon="3.06191">
        <ele>517</ele>
        <time>2013-08-10T07:14:38Z</time>
      </trkpt>
      <trkpt lat="43.61099" lon="3.06192">
        <ele>517.4000244</ele>
        <time>2013-08-10T07:14:39Z</time>
      </trkpt>
      <trkpt lat="43.61093" lon="3.06195">
        <ele>517.4000244</ele>
        <time>2013-08-10T07:14:44Z</time>
      </trkpt>
      <trkpt lat="43.61077" lon="3.06205">
        <ele>517.4000244</ele>
        <time>2013-08-10T07:14:51Z</time>
      </trkpt>
      <trkpt lat="43.61072" lon="3.06209">
        <ele>517.7999878</ele>
        <time>2013-08-10T07:14:53Z</time>
      </trkpt>
      <trkpt lat="43.6107" lon="3.0621">
        <ele>518.2000122</ele>
        <time>2013-08-10T07:14:54Z</time>
      </trkpt>
      <trkpt lat="43.61069" lon="3.06211">
        <ele>519</ele>
        <time>2013-08-10T07:14:55Z</time>
      </trkpt>
      <trkpt lat="43.61067" lon="3.06212">
        <ele>519.5999756</ele>
        <time>2013-08-10T07:14:56Z</time>
      </trkpt>
      <trkpt lat="43.61063" lon="3.06213">
        <ele>519.5999756</ele>
        <time>2013-08-10T07:14:58Z</time>
      </trkpt>
      <trkpt lat="43.61047" lon="3.06213">
        <ele>519.5999756</ele>
        <time>2013-08-10T07:15:05Z</time>
      </trkpt>
      <trkpt lat="43.61045" lon="3.06212">
        <ele>520</ele>
        <time>2013-08-10T07:15:06Z</time>
      </trkpt>
      <trkpt lat="43.61043" lon="3.06211">
        <ele>520.4000244</ele>
        <time>2013-08-10T07:15:07Z</time>
      </trkpt>
      <trkpt lat="43.61041" lon="3.06209">
        <ele>520.7999878</ele>
        <time>2013-08-10T07:15:08Z</time>
      </trkpt>
      <trkpt lat="43.61039" lon="3.06209">
        <ele>521.2000122</ele>
        <time>2013-08-10T07:15:09Z</time>
      </trkpt>
      <trkpt lat="43.61037" lon="3.06208">
        <ele>521.5999756</ele>
        <time>2013-08-10T07:15:10Z</time>
      </trkpt>
      <trkpt lat="43.61033" lon="3.06208">
        <ele>522</ele>
        <time>2013-08-10T07:15:12Z</time>
      </trkpt>
      <trkpt lat="43.6103" lon="3.06207">
        <ele>522.4000244</ele>
        <time>2013-08-10T07:15:13Z</time>
      </trkpt>
      <trkpt lat="43.61028" lon="3.06207">
        <ele>523</ele>
        <time>2013-08-10T07:15:14Z</time>
      </trkpt>
      <trkpt lat="43.61026" lon="3.06206">
        <ele>523.4000244</ele>
        <time>2013-08-10T07:15:15Z</time>
      </trkpt>
      <trkpt lat="43.61024" lon="3.06205">
        <ele>523.7999878</ele>
        <time>2013-08-10T07:15:16Z</time>
      </trkpt>
      <trkpt lat="43.61021" lon="3.06204">
        <ele>523.7999878</ele>
        <time>2013-08-10T07:15:18Z</time>
      </trkpt>
      <trkpt lat="43.61008" lon="3.062">
        <ele>523.7999878</ele>
        <time>2013-08-10T07:15:24Z</time>
      </trkpt>
      <trkpt lat="43.61003" lon="3.06198">
        <ele>524.2000122</ele>
        <time>2013-08-10T07:15:27Z</time>
      </trkpt>
      <trkpt lat="43.61002" lon="3.06197">
        <ele>524.5999756</ele>
        <time>2013-08-10T07:15:28Z</time>
      </trkpt>
      <trkpt lat="43.61" lon="3.06197">
        <ele>525</ele>
        <time>2013-08-10T07:15:29Z</time>
      </trkpt>
      <trkpt lat="43.60999" lon="3.06195">
        <ele>525.4000244</ele>
        <time>2013-08-10T07:15:30Z</time>
      </trkpt>
      <trkpt lat="43.60997" lon="3.06194">
        <ele>525.7999878</ele>
        <time>2013-08-10T07:15:31Z</time>
      </trkpt>
      <trkpt lat="43.6099" lon="3.06189">
        <ele>525.7999878</ele>
        <time>2013-08-10T07:15:34Z</time>
      </trkpt>
      <trkpt lat="43.60982" lon="3.06183">
        <ele>525.7999878</ele>
        <time>2013-08-10T07:15:39Z</time>
      </trkpt>
      <trkpt lat="43.60981" lon="3.06181">
        <ele>526.4000244</ele>
        <time>2013-08-10T07:15:40Z</time>
      </trkpt>
      <trkpt lat="43.60979" lon="3.0618">
        <ele>526.7999878</ele>
        <time>2013-08-10T07:15:41Z</time>
      </trkpt>
      <trkpt lat="43.60977" lon="3.06178">
        <ele>527.2000122</ele>
        <time>2013-08-10T07:15:42Z</time>
      </trkpt>
      <trkpt lat="43.60974" lon="3.06177">
        <ele>527.5999756</ele>
        <time>2013-08-10T07:15:43Z</time>
      </trkpt>
      <trkpt lat="43.60973" lon="3.06175">
        <ele>528.2000122</ele>
        <time>2013-08-10T07:15:44Z</time>
      </trkpt>
      <trkpt lat="43.60971" lon="3.06173">
        <ele>528.2000122</ele>
        <time>2013-08-10T07:15:45Z</time>
      </trkpt>
      <trkpt lat="43.60961" lon="3.06163">
        <ele>528.2000122</ele>
        <time>2013-08-10T07:15:51Z</time>
      </trkpt>
      <trkpt lat="43.6096" lon="3.06161">
        <ele>528.5999756</ele>
        <time>2013-08-10T07:15:52Z</time>
      </trkpt>
      <trkpt lat="43.60958" lon="3.06159">
        <ele>529</ele>
        <time>2013-08-10T07:15:53Z</time>
      </trkpt>
      <trkpt lat="43.60956" lon="3.06157">
        <ele>529.4000244</ele>
        <time>2013-08-10T07:15:54Z</time>
      </trkpt>
      <trkpt lat="43.60953" lon="3.06155">
        <ele>529.7999878</ele>
        <time>2013-08-10T07:15:55Z</time>
      </trkpt>
      <trkpt lat="43.60952" lon="3.06154">
        <ele>530.2000122</ele>
        <time>2013-08-10T07:15:56Z</time>
      </trkpt>
      <trkpt lat="43.60949" lon="3.0615">
        <ele>530.2000122</ele>
        <time>2013-08-10T07:15:58Z</time>
      </trkpt>
      <trkpt lat="43.60936" lon="3.06139">
        <ele>530.5999756</ele>
        <time>2013-08-10T07:16:05Z</time>
      </trkpt>
      <trkpt lat="43.60934" lon="3.06139">
        <ele>531</ele>
        <time>2013-08-10T07:16:06Z</time>
      </trkpt>
      <trkpt lat="43.60932" lon="3.06138">
        <ele>531.4000244</ele>
        <time>2013-08-10T07:16:07Z</time>
      </trkpt>
      <trkpt lat="43.6093" lon="3.06137">
        <ele>531.7999878</ele>
        <time>2013-08-10T07:16:08Z</time>
      </trkpt>
      <trkpt lat="43.60929" lon="3.06135">
        <ele>532.2000122</ele>
        <time>2013-08-10T07:16:09Z</time>
      </trkpt>
      <trkpt lat="43.60925" lon="3.06134">
        <ele>532.2000122</ele>
        <time>2013-08-10T07:16:11Z</time>
      </trkpt>
      <trkpt lat="43.60912" lon="3.0613">
        <ele>532.5999756</ele>
        <time>2013-08-10T07:16:18Z</time>
      </trkpt>
      <trkpt lat="43.60909" lon="3.06129">
        <ele>533</ele>
        <time>2013-08-10T07:16:19Z</time>
      </trkpt>
      <trkpt lat="43.60907" lon="3.06129">
        <ele>533.4000244</ele>
        <time>2013-08-10T07:16:20Z</time>
      </trkpt>
      <trkpt lat="43.60906" lon="3.06128">
        <ele>533.7999878</ele>
        <time>2013-08-10T07:16:21Z</time>
      </trkpt>
      <trkpt lat="43.60904" lon="3.06128">
        <ele>534.4000244</ele>
        <time>2013-08-10T07:16:22Z</time>
      </trkpt>
      <trkpt lat="43.60895" lon="3.06124">
        <ele>534.7999878</ele>
        <time>2013-08-10T07:16:26Z</time>
      </trkpt>
      <trkpt lat="43.60893" lon="3.06123">
        <ele>535.2000122</ele>
        <time>2013-08-10T07:16:27Z</time>
      </trkpt>
      <trkpt lat="43.60891" lon="3.06123">
        <ele>535.5999756</ele>
        <time>2013-08-10T07:16:28Z</time>
      </trkpt>
      <trkpt lat="43.60889" lon="3.06121">
        <ele>536</ele>
        <time>2013-08-10T07:16:29Z</time>
      </trkpt>
      <trkpt lat="43.60888" lon="3.06119">
        <ele>536.5999756</ele>
        <time>2013-08-10T07:16:30Z</time>
      </trkpt>
      <trkpt lat="43.60886" lon="3.06114">
        <ele>536.5999756</ele>
        <time>2013-08-10T07:16:32Z</time>
      </trkpt>
      <trkpt lat="43.60884" lon="3.06101">
        <ele>536.5999756</ele>
        <time>2013-08-10T07:16:36Z</time>
      </trkpt>
      <trkpt lat="43.60885" lon="3.06099">
        <ele>537</ele>
        <time>2013-08-10T07:16:37Z</time>
      </trkpt>
      <trkpt lat="43.60886" lon="3.06096">
        <ele>537.4000244</ele>
        <time>2013-08-10T07:16:38Z</time>
      </trkpt>
      <trkpt lat="43.60886" lon="3.06093">
        <ele>537.7999878</ele>
        <time>2013-08-10T07:16:39Z</time>
      </trkpt>
      <trkpt lat="43.60887" lon="3.06091">
        <ele>538.4000244</ele>
        <time>2013-08-10T07:16:40Z</time>
      </trkpt>
      <trkpt lat="43.60888" lon="3.06088">
        <ele>538.7999878</ele>
        <time>2013-08-10T07:16:41Z</time>
      </trkpt>
      <trkpt lat="43.6089" lon="3.06082">
        <ele>538.7999878</ele>
        <time>2013-08-10T07:16:44Z</time>
      </trkpt>
      <trkpt lat="43.60891" lon="3.0608">
        <ele>539.2000122</ele>
        <time>2013-08-10T07:16:45Z</time>
      </trkpt>
      <trkpt lat="43.60893" lon="3.06078">
        <ele>539.5999756</ele>
        <time>2013-08-10T07:16:46Z</time>
      </trkpt>
      <trkpt lat="43.60894" lon="3.06075">
        <ele>540.2000122</ele>
        <time>2013-08-10T07:16:47Z</time>
      </trkpt>
      <trkpt lat="43.60895" lon="3.06073">
        <ele>540.5999756</ele>
        <time>2013-08-10T07:16:48Z</time>
      </trkpt>
      <trkpt lat="43.60895" lon="3.06071">
        <ele>541</ele>
        <time>2013-08-10T07:16:49Z</time>
      </trkpt>
      <trkpt lat="43.60897" lon="3.06066">
        <ele>541</ele>
        <time>2013-08-10T07:16:51Z</time>
      </trkpt>
      <trkpt lat="43.60897" lon="3.06048">
        <ele>541.4000244</ele>
        <time>2013-08-10T07:16:57Z</time>
      </trkpt>
      <trkpt lat="43.60896" lon="3.06045">
        <ele>542.2000122</ele>
        <time>2013-08-10T07:16:58Z</time>
      </trkpt>
      <trkpt lat="43.60896" lon="3.06041">
        <ele>542.5999756</ele>
        <time>2013-08-10T07:16:59Z</time>
      </trkpt>
      <trkpt lat="43.60895" lon="3.06037">
        <ele>543</ele>
        <time>2013-08-10T07:17:00Z</time>
      </trkpt>
      <trkpt lat="43.60893" lon="3.06027">
        <ele>543</ele>
        <time>2013-08-10T07:17:03Z</time>
      </trkpt>
      <trkpt lat="43.60887" lon="3.06003">
        <ele>543</ele>
        <time>2013-08-10T07:17:08Z</time>
      </trkpt>
      <trkpt lat="43.60885" lon="3.05996">
        <ele>543</ele>
        <time>2013-08-10T07:17:09Z</time>
      </trkpt>
      <trkpt lat="43.60882" lon="3.05977">
        <ele>543</ele>
        <time>2013-08-10T07:17:12Z</time>
      </trkpt>
      <trkpt lat="43.60888" lon="3.05954">
        <ele>543</ele>
        <time>2013-08-10T07:17:16Z</time>
      </trkpt>
      <trkpt lat="43.6089" lon="3.05949">
        <ele>543</ele>
        <time>2013-08-10T07:17:17Z</time>
      </trkpt>
      <trkpt lat="43.60892" lon="3.05945">
        <ele>543</ele>
        <time>2013-08-10T07:17:18Z</time>
      </trkpt>
      <trkpt lat="43.609" lon="3.05928">
        <ele>543</ele>
        <time>2013-08-10T07:17:22Z</time>
      </trkpt>
      <trkpt lat="43.60906" lon="3.05898">
        <ele>543</ele>
        <time>2013-08-10T07:17:28Z</time>
      </trkpt>
      <trkpt lat="43.60911" lon="3.05873">
        <ele>543</ele>
        <time>2013-08-10T07:17:33Z</time>
      </trkpt>
      <trkpt lat="43.60915" lon="3.05843">
        <ele>543</ele>
        <time>2013-08-10T07:17:39Z</time>
      </trkpt>
      <trkpt lat="43.60915" lon="3.05835">
        <ele>543</ele>
        <time>2013-08-10T07:17:40Z</time>
      </trkpt>
      <trkpt lat="43.60908" lon="3.0581">
        <ele>543</ele>
        <time>2013-08-10T07:17:44Z</time>
      </trkpt>
      <trkpt lat="43.60906" lon="3.05779">
        <ele>543</ele>
        <time>2013-08-10T07:17:49Z</time>
      </trkpt>
      <trkpt lat="43.60908" lon="3.05768">
        <ele>543</ele>
        <time>2013-08-10T07:17:51Z</time>
      </trkpt>
      <trkpt lat="43.6091" lon="3.05754">
        <ele>543</ele>
        <time>2013-08-10T07:17:54Z</time>
      </trkpt>
      <trkpt lat="43.60911" lon="3.0575">
        <ele>543.4000244</ele>
        <time>2013-08-10T07:17:55Z</time>
      </trkpt>
      <trkpt lat="43.60912" lon="3.05746">
        <ele>544</ele>
        <time>2013-08-10T07:17:56Z</time>
      </trkpt>
      <trkpt lat="43.60914" lon="3.05742">
        <ele>544.4000244</ele>
        <time>2013-08-10T07:17:57Z</time>
      </trkpt>
      <trkpt lat="43.60915" lon="3.05738">
        <ele>544.7999878</ele>
        <time>2013-08-10T07:17:58Z</time>
      </trkpt>
      <trkpt lat="43.60916" lon="3.05734">
        <ele>545.2000122</ele>
        <time>2013-08-10T07:17:59Z</time>
      </trkpt>
      <trkpt lat="43.60916" lon="3.05731">
        <ele>545.2000122</ele>
        <time>2013-08-10T07:18:00Z</time>
      </trkpt>
      <trkpt lat="43.60918" lon="3.05722">
        <ele>545.5999756</ele>
        <time>2013-08-10T07:18:02Z</time>
      </trkpt>
      <trkpt lat="43.60919" lon="3.05719">
        <ele>546</ele>
        <time>2013-08-10T07:18:03Z</time>
      </trkpt>
      <trkpt lat="43.60919" lon="3.05715">
        <ele>546.4000244</ele>
        <time>2013-08-10T07:18:04Z</time>
      </trkpt>
      <trkpt lat="43.6092" lon="3.05711">
        <ele>546.7999878</ele>
        <time>2013-08-10T07:18:05Z</time>
      </trkpt>
      <trkpt lat="43.6092" lon="3.05707">
        <ele>547.2000122</ele>
        <time>2013-08-10T07:18:06Z</time>
      </trkpt>
      <trkpt lat="43.60924" lon="3.05682">
        <ele>547.2000122</ele>
        <time>2013-08-10T07:18:13Z</time>
      </trkpt>
      <trkpt lat="43.60928" lon="3.05668">
        <ele>547.7999878</ele>
        <time>2013-08-10T07:18:18Z</time>
      </trkpt>
      <trkpt lat="43.6093" lon="3.05667">
        <ele>548.2000122</ele>
        <time>2013-08-10T07:18:19Z</time>
      </trkpt>
      <trkpt lat="43.60932" lon="3.05664">
        <ele>548.7999878</ele>
        <time>2013-08-10T07:18:20Z</time>
      </trkpt>
      <trkpt lat="43.60933" lon="3.05663">
        <ele>549.2000122</ele>
        <time>2013-08-10T07:18:21Z</time>
      </trkpt>
      <trkpt lat="43.60934" lon="3.05661">
        <ele>549.5999756</ele>
        <time>2013-08-10T07:18:22Z</time>
      </trkpt>
      <trkpt lat="43.60935" lon="3.0566">
        <ele>549.5999756</ele>
        <time>2013-08-10T07:18:23Z</time>
      </trkpt>
      <trkpt lat="43.60942" lon="3.05653">
        <ele>550</ele>
        <time>2013-08-10T07:18:27Z</time>
      </trkpt>
      <trkpt lat="43.60944" lon="3.05652">
        <ele>550.4000244</ele>
        <time>2013-08-10T07:18:28Z</time>
      </trkpt>
      <trkpt lat="43.60946" lon="3.0565">
        <ele>551</ele>
        <time>2013-08-10T07:18:29Z</time>
      </trkpt>
      <trkpt lat="43.60948" lon="3.05648">
        <ele>551.4000244</ele>
        <time>2013-08-10T07:18:30Z</time>
      </trkpt>
      <trkpt lat="43.6095" lon="3.05647">
        <ele>551.7999878</ele>
        <time>2013-08-10T07:18:31Z</time>
      </trkpt>
      <trkpt lat="43.60964" lon="3.05638">
        <ele>551.7999878</ele>
        <time>2013-08-10T07:18:37Z</time>
      </trkpt>
      <trkpt lat="43.60983" lon="3.05621">
        <ele>551.7999878</ele>
        <time>2013-08-10T07:18:45Z</time>
      </trkpt>
      <trkpt lat="43.60996" lon="3.05595">
        <ele>551.7999878</ele>
        <time>2013-08-10T07:18:53Z</time>
      </trkpt>
      <trkpt lat="43.61004" lon="3.05574">
        <ele>551.7999878</ele>
        <time>2013-08-10T07:18:59Z</time>
      </trkpt>
      <trkpt lat="43.61009" lon="3.05564">
        <ele>552.5999756</ele>
        <time>2013-08-10T07:19:02Z</time>
      </trkpt>
      <trkpt lat="43.61011" lon="3.05561">
        <ele>553</ele>
        <time>2013-08-10T07:19:03Z</time>
      </trkpt>
      <trkpt lat="43.61012" lon="3.05558">
        <ele>553.4000244</ele>
        <time>2013-08-10T07:19:04Z</time>
      </trkpt>
      <trkpt lat="43.61014" lon="3.05555">
        <ele>553.7999878</ele>
        <time>2013-08-10T07:19:05Z</time>
      </trkpt>
      <trkpt lat="43.61019" lon="3.05546">
        <ele>553.7999878</ele>
        <time>2013-08-10T07:19:08Z</time>
      </trkpt>
      <trkpt lat="43.6103" lon="3.05523">
        <ele>553.7999878</ele>
        <time>2013-08-10T07:19:15Z</time>
      </trkpt>
      <trkpt lat="43.61034" lon="3.05517">
        <ele>553.7999878</ele>
        <time>2013-08-10T07:19:17Z</time>
      </trkpt>
      <trkpt lat="43.61044" lon="3.05497">
        <ele>553.7999878</ele>
        <time>2013-08-10T07:19:23Z</time>
      </trkpt>
      <trkpt lat="43.6105" lon="3.05482">
        <ele>554.2000122</ele>
        <time>2013-08-10T07:19:28Z</time>
      </trkpt>
      <trkpt lat="43.6105" lon="3.05479">
        <ele>554.5999756</ele>
        <time>2013-08-10T07:19:29Z</time>
      </trkpt>
      <trkpt lat="43.61052" lon="3.05476">
        <ele>555</ele>
        <time>2013-08-10T07:19:30Z</time>
      </trkpt>
      <trkpt lat="43.61053" lon="3.05473">
        <ele>555.4000244</ele>
        <time>2013-08-10T07:19:31Z</time>
      </trkpt>
      <trkpt lat="43.61055" lon="3.0547">
        <ele>555.7999878</ele>
        <time>2013-08-10T07:19:32Z</time>
      </trkpt>
      <trkpt lat="43.6106" lon="3.05461">
        <ele>555.7999878</ele>
        <time>2013-08-10T07:19:35Z</time>
      </trkpt>
      <trkpt lat="43.61067" lon="3.05443">
        <ele>555.7999878</ele>
        <time>2013-08-10T07:19:40Z</time>
      </trkpt>
      <trkpt lat="43.61079" lon="3.05418">
        <ele>555.7999878</ele>
        <time>2013-08-10T07:19:48Z</time>
      </trkpt>
      <trkpt lat="43.61086" lon="3.05402">
        <ele>556.2000122</ele>
        <time>2013-08-10T07:19:54Z</time>
      </trkpt>
      <trkpt lat="43.61087" lon="3.05399">
        <ele>556.5999756</ele>
        <time>2013-08-10T07:19:55Z</time>
      </trkpt>
      <trkpt lat="43.61088" lon="3.05396">
        <ele>557</ele>
        <time>2013-08-10T07:19:56Z</time>
      </trkpt>
      <trkpt lat="43.61089" lon="3.05393">
        <ele>557.4000244</ele>
        <time>2013-08-10T07:19:57Z</time>
      </trkpt>
      <trkpt lat="43.6109" lon="3.05391">
        <ele>557.7999878</ele>
        <time>2013-08-10T07:19:58Z</time>
      </trkpt>
      <trkpt lat="43.61093" lon="3.0538">
        <ele>557.7999878</ele>
        <time>2013-08-10T07:20:02Z</time>
      </trkpt>
      <trkpt lat="43.61094" lon="3.05378">
        <ele>558.2000122</ele>
        <time>2013-08-10T07:20:03Z</time>
      </trkpt>
      <trkpt lat="43.61095" lon="3.05375">
        <ele>558.5999756</ele>
        <time>2013-08-10T07:20:04Z</time>
      </trkpt>
      <trkpt lat="43.61096" lon="3.05372">
        <ele>559.2000122</ele>
        <time>2013-08-10T07:20:05Z</time>
      </trkpt>
      <trkpt lat="43.61096" lon="3.05369">
        <ele>559.5999756</ele>
        <time>2013-08-10T07:20:06Z</time>
      </trkpt>
      <trkpt lat="43.61097" lon="3.05367">
        <ele>560</ele>
        <time>2013-08-10T07:20:07Z</time>
      </trkpt>
      <trkpt lat="43.61098" lon="3.05365">
        <ele>560</ele>
        <time>2013-08-10T07:20:08Z</time>
      </trkpt>
      <trkpt lat="43.61101" lon="3.05353">
        <ele>560.4000244</ele>
        <time>2013-08-10T07:20:13Z</time>
      </trkpt>
      <trkpt lat="43.61101" lon="3.0535">
        <ele>561</ele>
        <time>2013-08-10T07:20:14Z</time>
      </trkpt>
      <trkpt lat="43.61103" lon="3.05348">
        <ele>561.4000244</ele>
        <time>2013-08-10T07:20:15Z</time>
      </trkpt>
      <trkpt lat="43.61103" lon="3.05345">
        <ele>562.4000244</ele>
        <time>2013-08-10T07:20:16Z</time>
      </trkpt>
      <trkpt lat="43.61107" lon="3.05337">
        <ele>562.7999878</ele>
        <time>2013-08-10T07:20:20Z</time>
      </trkpt>
      <trkpt lat="43.61108" lon="3.05336">
        <ele>563.2000122</ele>
        <time>2013-08-10T07:20:21Z</time>
      </trkpt>
      <trkpt lat="43.61108" lon="3.05335">
        <ele>563.5999756</ele>
        <time>2013-08-10T07:20:22Z</time>
      </trkpt>
      <trkpt lat="43.61109" lon="3.05333">
        <ele>564</ele>
        <time>2013-08-10T07:20:23Z</time>
      </trkpt>
      <trkpt lat="43.61109" lon="3.05332">
        <ele>564.4000244</ele>
        <time>2013-08-10T07:20:24Z</time>
      </trkpt>
      <trkpt lat="43.61115" lon="3.0532">
        <ele>564.4000244</ele>
        <time>2013-08-10T07:20:30Z</time>
      </trkpt>
      <trkpt lat="43.61115" lon="3.05317">
        <ele>564.7999878</ele>
        <time>2013-08-10T07:20:31Z</time>
      </trkpt>
      <trkpt lat="43.61116" lon="3.05315">
        <ele>565.2000122</ele>
        <time>2013-08-10T07:20:32Z</time>
      </trkpt>
      <trkpt lat="43.61116" lon="3.05313">
        <ele>565.5999756</ele>
        <time>2013-08-10T07:20:33Z</time>
      </trkpt>
      <trkpt lat="43.61117" lon="3.05312">
        <ele>566</ele>
        <time>2013-08-10T07:20:34Z</time>
      </trkpt>
      <trkpt lat="43.61117" lon="3.05309">
        <ele>566.4000244</ele>
        <time>2013-08-10T07:20:35Z</time>
      </trkpt>
      <trkpt lat="43.61119" lon="3.05307">
        <ele>566.4000244</ele>
        <time>2013-08-10T07:20:36Z</time>
      </trkpt>
      <trkpt lat="43.61122" lon="3.053">
        <ele>566.7999878</ele>
        <time>2013-08-10T07:20:39Z</time>
      </trkpt>
      <trkpt lat="43.61123" lon="3.05298">
        <ele>567.7999878</ele>
        <time>2013-08-10T07:20:40Z</time>
      </trkpt>
      <trkpt lat="43.61124" lon="3.05296">
        <ele>568.2000122</ele>
        <time>2013-08-10T07:20:41Z</time>
      </trkpt>
      <trkpt lat="43.61125" lon="3.05294">
        <ele>568.5999756</ele>
        <time>2013-08-10T07:20:42Z</time>
      </trkpt>
      <trkpt lat="43.61131" lon="3.05285">
        <ele>569</ele>
        <time>2013-08-10T07:20:47Z</time>
      </trkpt>
      <trkpt lat="43.61133" lon="3.05283">
        <ele>569.4000244</ele>
        <time>2013-08-10T07:20:48Z</time>
      </trkpt>
      <trkpt lat="43.61134" lon="3.05281">
        <ele>569.7999878</ele>
        <time>2013-08-10T07:20:49Z</time>
      </trkpt>
      <trkpt lat="43.61136" lon="3.05279">
        <ele>570.4000244</ele>
        <time>2013-08-10T07:20:50Z</time>
      </trkpt>
      <trkpt lat="43.61138" lon="3.05278">
        <ele>570.7999878</ele>
        <time>2013-08-10T07:20:51Z</time>
      </trkpt>
      <trkpt lat="43.61143" lon="3.05273">
        <ele>570.7999878</ele>
        <time>2013-08-10T07:20:55Z</time>
      </trkpt>
      <trkpt lat="43.61145" lon="3.05272">
        <ele>571.2000122</ele>
        <time>2013-08-10T07:20:56Z</time>
      </trkpt>
      <trkpt lat="43.61146" lon="3.0527">
        <ele>571.5999756</ele>
        <time>2013-08-10T07:20:57Z</time>
      </trkpt>
      <trkpt lat="43.61148" lon="3.05268">
        <ele>572.2000122</ele>
        <time>2013-08-10T07:20:58Z</time>
      </trkpt>
      <trkpt lat="43.6115" lon="3.05266">
        <ele>572.5999756</ele>
        <time>2013-08-10T07:20:59Z</time>
      </trkpt>
      <trkpt lat="43.61151" lon="3.05263">
        <ele>573</ele>
        <time>2013-08-10T07:21:00Z</time>
      </trkpt>
      <trkpt lat="43.61154" lon="3.05258">
        <ele>573</ele>
        <time>2013-08-10T07:21:02Z</time>
      </trkpt>
      <trkpt lat="43.6116" lon="3.05244">
        <ele>573.4000244</ele>
        <time>2013-08-10T07:21:07Z</time>
      </trkpt>
      <trkpt lat="43.6116" lon="3.05241">
        <ele>573.7999878</ele>
        <time>2013-08-10T07:21:08Z</time>
      </trkpt>
      <trkpt lat="43.61161" lon="3.05238">
        <ele>574.2000122</ele>
        <time>2013-08-10T07:21:09Z</time>
      </trkpt>
      <trkpt lat="43.61162" lon="3.05235">
        <ele>574.5999756</ele>
        <time>2013-08-10T07:21:10Z</time>
      </trkpt>
      <trkpt lat="43.61162" lon="3.05232">
        <ele>575</ele>
        <time>2013-08-10T07:21:11Z</time>
      </trkpt>
      <trkpt lat="43.61163" lon="3.05217">
        <ele>575</ele>
        <time>2013-08-10T07:21:16Z</time>
      </trkpt>
      <trkpt lat="43.6116" lon="3.0519">
        <ele>575</ele>
        <time>2013-08-10T07:21:24Z</time>
      </trkpt>
      <trkpt lat="43.6116" lon="3.05177">
        <ele>575.4000244</ele>
        <time>2013-08-10T07:21:28Z</time>
      </trkpt>
      <trkpt lat="43.6116" lon="3.05174">
        <ele>576</ele>
        <time>2013-08-10T07:21:29Z</time>
      </trkpt>
      <trkpt lat="43.6116" lon="3.0517">
        <ele>576.7999878</ele>
        <time>2013-08-10T07:21:30Z</time>
      </trkpt>
      <trkpt lat="43.61161" lon="3.05167">
        <ele>577.2000122</ele>
        <time>2013-08-10T07:21:31Z</time>
      </trkpt>
      <trkpt lat="43.6116" lon="3.05164">
        <ele>577.2000122</ele>
        <time>2013-08-10T07:21:32Z</time>
      </trkpt>
      <trkpt lat="43.61157" lon="3.05153">
        <ele>577.2000122</ele>
        <time>2013-08-10T07:21:36Z</time>
      </trkpt>
      <trkpt lat="43.61151" lon="3.05132">
        <ele>577.2000122</ele>
        <time>2013-08-10T07:21:43Z</time>
      </trkpt>
      <trkpt lat="43.61147" lon="3.05122">
        <ele>577.5999756</ele>
        <time>2013-08-10T07:21:47Z</time>
      </trkpt>
      <trkpt lat="43.61146" lon="3.0512">
        <ele>578</ele>
        <time>2013-08-10T07:21:48Z</time>
      </trkpt>
      <trkpt lat="43.61145" lon="3.05118">
        <ele>578.4000244</ele>
        <time>2013-08-10T07:21:49Z</time>
      </trkpt>
      <trkpt lat="43.61144" lon="3.05116">
        <ele>578.7999878</ele>
        <time>2013-08-10T07:21:50Z</time>
      </trkpt>
      <trkpt lat="43.61144" lon="3.05114">
        <ele>579.2000122</ele>
        <time>2013-08-10T07:21:51Z</time>
      </trkpt>
      <trkpt lat="43.61141" lon="3.05103">
        <ele>579.5999756</ele>
        <time>2013-08-10T07:21:57Z</time>
      </trkpt>
      <trkpt lat="43.6114" lon="3.05101">
        <ele>580.2000122</ele>
        <time>2013-08-10T07:21:58Z</time>
      </trkpt>
      <trkpt lat="43.6114" lon="3.051">
        <ele>580.5999756</ele>
        <time>2013-08-10T07:21:59Z</time>
      </trkpt>
      <trkpt lat="43.61138" lon="3.05099">
        <ele>581</ele>
        <time>2013-08-10T07:22:00Z</time>
      </trkpt>
      <trkpt lat="43.61138" lon="3.05096">
        <ele>581.4000244</ele>
        <time>2013-08-10T07:22:01Z</time>
      </trkpt>
      <trkpt lat="43.61135" lon="3.05091">
        <ele>581.4000244</ele>
        <time>2013-08-10T07:22:04Z</time>
      </trkpt>
      <trkpt lat="43.61134" lon="3.05087">
        <ele>581.7999878</ele>
        <time>2013-08-10T07:22:06Z</time>
      </trkpt>
      <trkpt lat="43.61132" lon="3.05086">
        <ele>582.4000244</ele>
        <time>2013-08-10T07:22:07Z</time>
      </trkpt>
      <trkpt lat="43.6113" lon="3.05084">
        <ele>582.7999878</ele>
        <time>2013-08-10T07:22:08Z</time>
      </trkpt>
      <trkpt lat="43.61129" lon="3.05082">
        <ele>583.2000122</ele>
        <time>2013-08-10T07:22:09Z</time>
      </trkpt>
      <trkpt lat="43.61128" lon="3.05079">
        <ele>583.5999756</ele>
        <time>2013-08-10T07:22:10Z</time>
      </trkpt>
      <trkpt lat="43.61125" lon="3.05075">
        <ele>583.5999756</ele>
        <time>2013-08-10T07:22:12Z</time>
      </trkpt>
      <trkpt lat="43.61122" lon="3.05072">
        <ele>584</ele>
        <time>2013-08-10T07:22:14Z</time>
      </trkpt>
      <trkpt lat="43.6112" lon="3.05071">
        <ele>584.4000244</ele>
        <time>2013-08-10T07:22:15Z</time>
      </trkpt>
      <trkpt lat="43.61118" lon="3.05069">
        <ele>584.7999878</ele>
        <time>2013-08-10T07:22:16Z</time>
      </trkpt>
      <trkpt lat="43.61116" lon="3.05067">
        <ele>585.2000122</ele>
        <time>2013-08-10T07:22:17Z</time>
      </trkpt>
      <trkpt lat="43.61115" lon="3.05066">
        <ele>585.5999756</ele>
        <time>2013-08-10T07:22:18Z</time>
      </trkpt>
      <trkpt lat="43.61113" lon="3.05064">
        <ele>585.5999756</ele>
        <time>2013-08-10T07:22:19Z</time>
      </trkpt>
      <trkpt lat="43.611" lon="3.05054">
        <ele>585.5999756</ele>
        <time>2013-08-10T07:22:25Z</time>
      </trkpt>
      <trkpt lat="43.61096" lon="3.05051">
        <ele>586</ele>
        <time>2013-08-10T07:22:27Z</time>
      </trkpt>
      <trkpt lat="43.61095" lon="3.0505">
        <ele>586.4000244</ele>
        <time>2013-08-10T07:22:28Z</time>
      </trkpt>
      <trkpt lat="43.61093" lon="3.05048">
        <ele>586.7999878</ele>
        <time>2013-08-10T07:22:29Z</time>
      </trkpt>
      <trkpt lat="43.61092" lon="3.05046">
        <ele>587.2000122</ele>
        <time>2013-08-10T07:22:30Z</time>
      </trkpt>
      <trkpt lat="43.61091" lon="3.05044">
        <ele>587.5999756</ele>
        <time>2013-08-10T07:22:31Z</time>
      </trkpt>
      <trkpt lat="43.61084" lon="3.05037">
        <ele>588</ele>
        <time>2013-08-10T07:22:36Z</time>
      </trkpt>
      <trkpt lat="43.61082" lon="3.05036">
        <ele>588.4000244</ele>
        <time>2013-08-10T07:22:37Z</time>
      </trkpt>
      <trkpt lat="43.61081" lon="3.05034">
        <ele>588.7999878</ele>
        <time>2013-08-10T07:22:38Z</time>
      </trkpt>
      <trkpt lat="43.6108" lon="3.05032">
        <ele>589.2000122</ele>
        <time>2013-08-10T07:22:39Z</time>
      </trkpt>
      <trkpt lat="43.61079" lon="3.05031">
        <ele>589.7999878</ele>
        <time>2013-08-10T07:22:40Z</time>
      </trkpt>
      <trkpt lat="43.61076" lon="3.05027">
        <ele>589.7999878</ele>
        <time>2013-08-10T07:22:42Z</time>
      </trkpt>
      <trkpt lat="43.61074" lon="3.05024">
        <ele>589.7999878</ele>
        <time>2013-08-10T07:22:44Z</time>
      </trkpt>
      <trkpt lat="43.61071" lon="3.05017">
        <ele>589.7999878</ele>
        <time>2013-08-10T07:22:49Z</time>
      </trkpt>
      <trkpt lat="43.61068" lon="3.05011">
        <ele>590.2000122</ele>
        <time>2013-08-10T07:22:53Z</time>
      </trkpt>
      <trkpt lat="43.61067" lon="3.0501">
        <ele>590.5999756</ele>
        <time>2013-08-10T07:22:54Z</time>
      </trkpt>
      <trkpt lat="43.61067" lon="3.05008">
        <ele>591</ele>
        <time>2013-08-10T07:22:55Z</time>
      </trkpt>
      <trkpt lat="43.61067" lon="3.05007">
        <ele>591.4000244</ele>
        <time>2013-08-10T07:22:56Z</time>
      </trkpt>
      <trkpt lat="43.61066" lon="3.05006">
        <ele>592</ele>
        <time>2013-08-10T07:22:57Z</time>
      </trkpt>
      <trkpt lat="43.61067" lon="3.05002">
        <ele>592</ele>
        <time>2013-08-10T07:23:03Z</time>
      </trkpt>
      <trkpt lat="43.61067" lon="3.05002">
        <ele>592.4000244</ele>
        <time>2013-08-10T07:23:05Z</time>
      </trkpt>
      <trkpt lat="43.61067" lon="3.05001">
        <ele>592.7999878</ele>
        <time>2013-08-10T07:23:06Z</time>
      </trkpt>
      <trkpt lat="43.61069" lon="3.05">
        <ele>594</ele>
        <time>2013-08-10T07:24:26Z</time>
      </trkpt>
      <trkpt lat="43.6107" lon="3.05">
        <ele>594</ele>
        <time>2013-08-10T07:24:27Z</time>
      </trkpt>
      <trkpt lat="43.61071" lon="3.04999">
        <ele>594</ele>
        <time>2013-08-10T07:24:28Z</time>
      </trkpt>
      <trkpt lat="43.61084" lon="3.04997">
        <ele>594</ele>
        <time>2013-08-10T07:24:35Z</time>
      </trkpt>
      <trkpt lat="43.61085" lon="3.04997">
        <ele>594.4000244</ele>
        <time>2013-08-10T07:24:36Z</time>
      </trkpt>
      <trkpt lat="43.61087" lon="3.04997">
        <ele>594.7999878</ele>
        <time>2013-08-10T07:24:37Z</time>
      </trkpt>
      <trkpt lat="43.6109" lon="3.04997">
        <ele>595.4000244</ele>
        <time>2013-08-10T07:24:38Z</time>
      </trkpt>
      <trkpt lat="43.61091" lon="3.04997">
        <ele>595.7999878</ele>
        <time>2013-08-10T07:24:39Z</time>
      </trkpt>
      <trkpt lat="43.61094" lon="3.04997">
        <ele>596.2000122</ele>
        <time>2013-08-10T07:24:40Z</time>
      </trkpt>
      <trkpt lat="43.61097" lon="3.04995">
        <ele>596.2000122</ele>
        <time>2013-08-10T07:24:42Z</time>
      </trkpt>
      <trkpt lat="43.61106" lon="3.04993">
        <ele>597.2000122</ele>
        <time>2013-08-10T07:24:47Z</time>
      </trkpt>
      <trkpt lat="43.61108" lon="3.04993">
        <ele>597.5999756</ele>
        <time>2013-08-10T07:24:48Z</time>
      </trkpt>
      <trkpt lat="43.6111" lon="3.04992">
        <ele>598</ele>
        <time>2013-08-10T07:24:49Z</time>
      </trkpt>
      <trkpt lat="43.61112" lon="3.04993">
        <ele>598.4000244</ele>
        <time>2013-08-10T07:24:50Z</time>
      </trkpt>
      <trkpt lat="43.61118" lon="3.04991">
        <ele>598.4000244</ele>
        <time>2013-08-10T07:24:54Z</time>
      </trkpt>
      <trkpt lat="43.61133" lon="3.04981">
        <ele>598.4000244</ele>
        <time>2013-08-10T07:25:02Z</time>
      </trkpt>
      <trkpt lat="43.61141" lon="3.04975">
        <ele>598.7999878</ele>
        <time>2013-08-10T07:25:07Z</time>
      </trkpt>
      <trkpt lat="43.61142" lon="3.04973">
        <ele>599.2000122</ele>
        <time>2013-08-10T07:25:08Z</time>
      </trkpt>
      <trkpt lat="43.61142" lon="3.04971">
        <ele>599.7999878</ele>
        <time>2013-08-10T07:25:09Z</time>
      </trkpt>
      <trkpt lat="43.61143" lon="3.04969">
        <ele>600.2000122</ele>
        <time>2013-08-10T07:25:10Z</time>
      </trkpt>
      <trkpt lat="43.61143" lon="3.04967">
        <ele>600.5999756</ele>
        <time>2013-08-10T07:25:11Z</time>
      </trkpt>
      <trkpt lat="43.61142" lon="3.04959">
        <ele>600.5999756</ele>
        <time>2013-08-10T07:25:14Z</time>
      </trkpt>
      <trkpt lat="43.61138" lon="3.04954">
        <ele>601</ele>
        <time>2013-08-10T07:25:17Z</time>
      </trkpt>
      <trkpt lat="43.61136" lon="3.04952">
        <ele>601.4000244</ele>
        <time>2013-08-10T07:25:18Z</time>
      </trkpt>
      <trkpt lat="43.61135" lon="3.04951">
        <ele>601.7999878</ele>
        <time>2013-08-10T07:25:19Z</time>
      </trkpt>
      <trkpt lat="43.61133" lon="3.0495">
        <ele>602.2000122</ele>
        <time>2013-08-10T07:25:20Z</time>
      </trkpt>
      <trkpt lat="43.61131" lon="3.04949">
        <ele>602.5999756</ele>
        <time>2013-08-10T07:25:21Z</time>
      </trkpt>
      <trkpt lat="43.61123" lon="3.04943">
        <ele>602.5999756</ele>
        <time>2013-08-10T07:25:27Z</time>
      </trkpt>
      <trkpt lat="43.61114" lon="3.04938">
        <ele>603</ele>
        <time>2013-08-10T07:25:32Z</time>
      </trkpt>
      <trkpt lat="43.61113" lon="3.04937">
        <ele>603.4000244</ele>
        <time>2013-08-10T07:25:33Z</time>
      </trkpt>
      <trkpt lat="43.61111" lon="3.04936">
        <ele>603.7999878</ele>
        <time>2013-08-10T07:25:34Z</time>
      </trkpt>
      <trkpt lat="43.61109" lon="3.04935">
        <ele>604.2000122</ele>
        <time>2013-08-10T07:25:35Z</time>
      </trkpt>
      <trkpt lat="43.61108" lon="3.04934">
        <ele>604.5999756</ele>
        <time>2013-08-10T07:25:36Z</time>
      </trkpt>
      <trkpt lat="43.61107" lon="3.04933">
        <ele>604.5999756</ele>
        <time>2013-08-10T07:25:37Z</time>
      </trkpt>
      <trkpt lat="43.61103" lon="3.04929">
        <ele>604.5999756</ele>
        <time>2013-08-10T07:25:40Z</time>
      </trkpt>
      <trkpt lat="43.61099" lon="3.0492">
        <ele>605.2000122</ele>
        <time>2013-08-10T07:25:44Z</time>
      </trkpt>
      <trkpt lat="43.61098" lon="3.04918">
        <ele>605.5999756</ele>
        <time>2013-08-10T07:25:45Z</time>
      </trkpt>
      <trkpt lat="43.61097" lon="3.04916">
        <ele>606</ele>
        <time>2013-08-10T07:25:46Z</time>
      </trkpt>
      <trkpt lat="43.61096" lon="3.04914">
        <ele>606.4000244</ele>
        <time>2013-08-10T07:25:47Z</time>
      </trkpt>
      <trkpt lat="43.61095" lon="3.04911">
        <ele>606.7999878</ele>
        <time>2013-08-10T07:25:48Z</time>
      </trkpt>
      <trkpt lat="43.6109" lon="3.04901">
        <ele>606.7999878</ele>
        <time>2013-08-10T07:25:53Z</time>
      </trkpt>
      <trkpt lat="43.61089" lon="3.04899">
        <ele>607.2000122</ele>
        <time>2013-08-10T07:25:54Z</time>
      </trkpt>
      <trkpt lat="43.61088" lon="3.04897">
        <ele>607.5999756</ele>
        <time>2013-08-10T07:25:55Z</time>
      </trkpt>
      <trkpt lat="43.61088" lon="3.04895">
        <ele>608</ele>
        <time>2013-08-10T07:25:56Z</time>
      </trkpt>
      <trkpt lat="43.61087" lon="3.04893">
        <ele>608.5999756</ele>
        <time>2013-08-10T07:25:57Z</time>
      </trkpt>
      <trkpt lat="43.61087" lon="3.04891">
        <ele>609</ele>
        <time>2013-08-10T07:25:58Z</time>
      </trkpt>
      <trkpt lat="43.61085" lon="3.04886">
        <ele>609</ele>
        <time>2013-08-10T07:26:01Z</time>
      </trkpt>
      <trkpt lat="43.61083" lon="3.04883">
        <ele>609.4000244</ele>
        <time>2013-08-10T07:26:03Z</time>
      </trkpt>
      <trkpt lat="43.61083" lon="3.04881">
        <ele>609.7999878</ele>
        <time>2013-08-10T07:26:04Z</time>
      </trkpt>
      <trkpt lat="43.61081" lon="3.04879">
        <ele>610.2000122</ele>
        <time>2013-08-10T07:26:05Z</time>
      </trkpt>
      <trkpt lat="43.6108" lon="3.04877">
        <ele>610.5999756</ele>
        <time>2013-08-10T07:26:06Z</time>
      </trkpt>
      <trkpt lat="43.61079" lon="3.04875">
        <ele>611.2000122</ele>
        <time>2013-08-10T07:26:07Z</time>
      </trkpt>
      <trkpt lat="43.61077" lon="3.04872">
        <ele>611.2000122</ele>
        <time>2013-08-10T07:26:09Z</time>
      </trkpt>
      <trkpt lat="43.61073" lon="3.04866">
        <ele>611.5999756</ele>
        <time>2013-08-10T07:26:13Z</time>
      </trkpt>
      <trkpt lat="43.61072" lon="3.04865">
        <ele>612</ele>
        <time>2013-08-10T07:26:14Z</time>
      </trkpt>
      <trkpt lat="43.61071" lon="3.04864">
        <ele>612.4000244</ele>
        <time>2013-08-10T07:26:15Z</time>
      </trkpt>
      <trkpt lat="43.6107" lon="3.04863">
        <ele>612.7999878</ele>
        <time>2013-08-10T07:26:16Z</time>
      </trkpt>
      <trkpt lat="43.61068" lon="3.04861">
        <ele>613.2000122</ele>
        <time>2013-08-10T07:26:17Z</time>
      </trkpt>
      <trkpt lat="43.61062" lon="3.04854">
        <ele>613.5999756</ele>
        <time>2013-08-10T07:26:22Z</time>
      </trkpt>
      <trkpt lat="43.61061" lon="3.04852">
        <ele>614.2000122</ele>
        <time>2013-08-10T07:26:23Z</time>
      </trkpt>
      <trkpt lat="43.6106" lon="3.04849">
        <ele>614.5999756</ele>
        <time>2013-08-10T07:26:24Z</time>
      </trkpt>
      <trkpt lat="43.61059" lon="3.04848">
        <ele>615</ele>
        <time>2013-08-10T07:26:25Z</time>
      </trkpt>
      <trkpt lat="43.61058" lon="3.04846">
        <ele>615.4000244</ele>
        <time>2013-08-10T07:26:26Z</time>
      </trkpt>
      <trkpt lat="43.61055" lon="3.04842">
        <ele>615.4000244</ele>
        <time>2013-08-10T07:26:29Z</time>
      </trkpt>
      <trkpt lat="43.61054" lon="3.04841">
        <ele>615.7999878</ele>
        <time>2013-08-10T07:26:30Z</time>
      </trkpt>
      <trkpt lat="43.61053" lon="3.0484">
        <ele>616.2000122</ele>
        <time>2013-08-10T07:26:31Z</time>
      </trkpt>
      <trkpt lat="43.61052" lon="3.04839">
        <ele>616.5999756</ele>
        <time>2013-08-10T07:26:32Z</time>
      </trkpt>
      <trkpt lat="43.61051" lon="3.04837">
        <ele>617</ele>
        <time>2013-08-10T07:26:33Z</time>
      </trkpt>
      <trkpt lat="43.61051" lon="3.04836">
        <ele>617.5999756</ele>
        <time>2013-08-10T07:26:34Z</time>
      </trkpt>
      <trkpt lat="43.61049" lon="3.04833">
        <ele>617.5999756</ele>
        <time>2013-08-10T07:26:36Z</time>
      </trkpt>
      <trkpt lat="43.61048" lon="3.04832">
        <ele>617.5999756</ele>
        <time>2013-08-10T07:26:37Z</time>
      </trkpt>
      <trkpt lat="43.61046" lon="3.04829">
        <ele>618</ele>
        <time>2013-08-10T07:26:39Z</time>
      </trkpt>
      <trkpt lat="43.61045" lon="3.04828">
        <ele>618.4000244</ele>
        <time>2013-08-10T07:26:40Z</time>
      </trkpt>
      <trkpt lat="43.61044" lon="3.04828">
        <ele>618.7999878</ele>
        <time>2013-08-10T07:26:41Z</time>
      </trkpt>
      <trkpt lat="43.61043" lon="3.04828">
        <ele>619.2000122</ele>
        <time>2013-08-10T07:26:42Z</time>
      </trkpt>
      <trkpt lat="43.61043" lon="3.04827">
        <ele>619.7999878</ele>
        <time>2013-08-10T07:26:43Z</time>
      </trkpt>
      <trkpt lat="43.61041" lon="3.04822">
        <ele>620.2000122</ele>
        <time>2013-08-10T07:26:49Z</time>
      </trkpt>
      <trkpt lat="43.61041" lon="3.04821">
        <ele>620.5999756</ele>
        <time>2013-08-10T07:26:50Z</time>
      </trkpt>
      <trkpt lat="43.61041" lon="3.04821">
        <ele>621.4000244</ele>
        <time>2013-08-10T07:26:51Z</time>
      </trkpt>
      <trkpt lat="43.61042" lon="3.0482">
        <ele>621.7999878</ele>
        <time>2013-08-10T07:26:52Z</time>
      </trkpt>
      <trkpt lat="43.61043" lon="3.04819">
        <ele>621.7999878</ele>
        <time>2013-08-10T07:26:54Z</time>
      </trkpt>
      <trkpt lat="43.61046" lon="3.04819">
        <ele>621.7999878</ele>
        <time>2013-08-10T07:26:57Z</time>
      </trkpt>
      <trkpt lat="43.6105" lon="3.04819">
        <ele>621.7999878</ele>
        <time>2013-08-10T07:27:00Z</time>
      </trkpt>
      <trkpt lat="43.61051" lon="3.04819">
        <ele>621.7999878</ele>
        <time>2013-08-10T07:27:01Z</time>
      </trkpt>
      <trkpt lat="43.61055" lon="3.04818">
        <ele>622.2000122</ele>
        <time>2013-08-10T07:27:04Z</time>
      </trkpt>
      <trkpt lat="43.61056" lon="3.04817">
        <ele>622.5999756</ele>
        <time>2013-08-10T07:27:05Z</time>
      </trkpt>
      <trkpt lat="43.61057" lon="3.04817">
        <ele>623</ele>
        <time>2013-08-10T07:27:06Z</time>
      </trkpt>
      <trkpt lat="43.61058" lon="3.04816">
        <ele>623.4000244</ele>
        <time>2013-08-10T07:27:07Z</time>
      </trkpt>
      <trkpt lat="43.6106" lon="3.04815">
        <ele>623.7999878</ele>
        <time>2013-08-10T07:27:08Z</time>
      </trkpt>
      <trkpt lat="43.61062" lon="3.04815">
        <ele>623.7999878</ele>
        <time>2013-08-10T07:27:10Z</time>
      </trkpt>
      <trkpt lat="43.61068" lon="3.04814">
        <ele>623.7999878</ele>
        <time>2013-08-10T07:27:14Z</time>
      </trkpt>
      <trkpt lat="43.61073" lon="3.04813">
        <ele>624.2000122</ele>
        <time>2013-08-10T07:27:17Z</time>
      </trkpt>
      <trkpt lat="43.61075" lon="3.04813">
        <ele>624.7999878</ele>
        <time>2013-08-10T07:27:18Z</time>
      </trkpt>
      <trkpt lat="43.61077" lon="3.04813">
        <ele>625.2000122</ele>
        <time>2013-08-10T07:27:19Z</time>
      </trkpt>
      <trkpt lat="43.61079" lon="3.04813">
        <ele>625.5999756</ele>
        <time>2013-08-10T07:27:20Z</time>
      </trkpt>
      <trkpt lat="43.6108" lon="3.04814">
        <ele>626</ele>
        <time>2013-08-10T07:27:21Z</time>
      </trkpt>
      <trkpt lat="43.61082" lon="3.04814">
        <ele>626</ele>
        <time>2013-08-10T07:27:22Z</time>
      </trkpt>
      <trkpt lat="43.61093" lon="3.04818">
        <ele>626</ele>
        <time>2013-08-10T07:27:29Z</time>
      </trkpt>
      <trkpt lat="43.61104" lon="3.04826">
        <ele>626.4000244</ele>
        <time>2013-08-10T07:27:36Z</time>
      </trkpt>
      <trkpt lat="43.61106" lon="3.04826">
        <ele>626.7999878</ele>
        <time>2013-08-10T07:27:37Z</time>
      </trkpt>
      <trkpt lat="43.61108" lon="3.04826">
        <ele>627.2000122</ele>
        <time>2013-08-10T07:27:38Z</time>
      </trkpt>
      <trkpt lat="43.6111" lon="3.04827">
        <ele>627.5999756</ele>
        <time>2013-08-10T07:27:39Z</time>
      </trkpt>
      <trkpt lat="43.61111" lon="3.04828">
        <ele>628</ele>
        <time>2013-08-10T07:27:40Z</time>
      </trkpt>
      <trkpt lat="43.61115" lon="3.04829">
        <ele>628</ele>
        <time>2013-08-10T07:27:42Z</time>
      </trkpt>
      <trkpt lat="43.61124" lon="3.04832">
        <ele>628.4000244</ele>
        <time>2013-08-10T07:27:47Z</time>
      </trkpt>
      <trkpt lat="43.61126" lon="3.04832">
        <ele>628.7999878</ele>
        <time>2013-08-10T07:27:48Z</time>
      </trkpt>
      <trkpt lat="43.61127" lon="3.04831">
        <ele>629.2000122</ele>
        <time>2013-08-10T07:27:49Z</time>
      </trkpt>
      <trkpt lat="43.6113" lon="3.0483">
        <ele>629.5999756</ele>
        <time>2013-08-10T07:27:50Z</time>
      </trkpt>
      <trkpt lat="43.61132" lon="3.04829">
        <ele>630</ele>
        <time>2013-08-10T07:27:51Z</time>
      </trkpt>
      <trkpt lat="43.61139" lon="3.04826">
        <ele>630</ele>
        <time>2013-08-10T07:27:55Z</time>
      </trkpt>
      <trkpt lat="43.61146" lon="3.04822">
        <ele>630.4000244</ele>
        <time>2013-08-10T07:27:59Z</time>
      </trkpt>
      <trkpt lat="43.61147" lon="3.04821">
        <ele>630.7999878</ele>
        <time>2013-08-10T07:28:00Z</time>
      </trkpt>
      <trkpt lat="43.61149" lon="3.04819">
        <ele>631.2000122</ele>
        <time>2013-08-10T07:28:01Z</time>
      </trkpt>
      <trkpt lat="43.6115" lon="3.04818">
        <ele>631.5999756</ele>
        <time>2013-08-10T07:28:02Z</time>
      </trkpt>
      <trkpt lat="43.61152" lon="3.04817">
        <ele>632</ele>
        <time>2013-08-10T07:28:03Z</time>
      </trkpt>
      <trkpt lat="43.61161" lon="3.0481">
        <ele>632.4000244</ele>
        <time>2013-08-10T07:28:10Z</time>
      </trkpt>
      <trkpt lat="43.61162" lon="3.04809">
        <ele>632.7999878</ele>
        <time>2013-08-10T07:28:11Z</time>
      </trkpt>
      <trkpt lat="43.61164" lon="3.04809">
        <ele>633.2000122</ele>
        <time>2013-08-10T07:28:12Z</time>
      </trkpt>
      <trkpt lat="43.61165" lon="3.04808">
        <ele>633.5999756</ele>
        <time>2013-08-10T07:28:13Z</time>
      </trkpt>
      <trkpt lat="43.61167" lon="3.04808">
        <ele>634</ele>
        <time>2013-08-10T07:28:14Z</time>
      </trkpt>
      <trkpt lat="43.6117" lon="3.04804">
        <ele>634</ele>
        <time>2013-08-10T07:28:17Z</time>
      </trkpt>
      <trkpt lat="43.61171" lon="3.04802">
        <ele>634</ele>
        <time>2013-08-10T07:28:18Z</time>
      </trkpt>
      <trkpt lat="43.6117" lon="3.04801">
        <ele>634.4000244</ele>
        <time>2013-08-10T07:28:19Z</time>
      </trkpt>
      <trkpt lat="43.61169" lon="3.04799">
        <ele>634.7999878</ele>
        <time>2013-08-10T07:28:20Z</time>
      </trkpt>
      <trkpt lat="43.61168" lon="3.04798">
        <ele>635.2000122</ele>
        <time>2013-08-10T07:28:21Z</time>
      </trkpt>
      <trkpt lat="43.61166" lon="3.04798">
        <ele>635.5999756</ele>
        <time>2013-08-10T07:28:22Z</time>
      </trkpt>
      <trkpt lat="43.61165" lon="3.04799">
        <ele>636</ele>
        <time>2013-08-10T07:28:23Z</time>
      </trkpt>
      <trkpt lat="43.61164" lon="3.04799">
        <ele>636</ele>
        <time>2013-08-10T07:28:24Z</time>
      </trkpt>
      <trkpt lat="43.61159" lon="3.04801">
        <ele>636</ele>
        <time>2013-08-10T07:28:28Z</time>
      </trkpt>
      <trkpt lat="43.61157" lon="3.04802">
        <ele>636.5999756</ele>
        <time>2013-08-10T07:28:29Z</time>
      </trkpt>
      <trkpt lat="43.61156" lon="3.04802">
        <ele>637</ele>
        <time>2013-08-10T07:28:30Z</time>
      </trkpt>
      <trkpt lat="43.61154" lon="3.04802">
        <ele>637.4000244</ele>
        <time>2013-08-10T07:28:31Z</time>
      </trkpt>
      <trkpt lat="43.61152" lon="3.04803">
        <ele>637.7999878</ele>
        <time>2013-08-10T07:28:32Z</time>
      </trkpt>
      <trkpt lat="43.6115" lon="3.04803">
        <ele>638.2000122</ele>
        <time>2013-08-10T07:28:33Z</time>
      </trkpt>
      <trkpt lat="43.61145" lon="3.04804">
        <ele>638.2000122</ele>
        <time>2013-08-10T07:28:36Z</time>
      </trkpt>
      <trkpt lat="43.61135" lon="3.04802">
        <ele>638.2000122</ele>
        <time>2013-08-10T07:28:43Z</time>
      </trkpt>
      <trkpt lat="43.61132" lon="3.048">
        <ele>638.5999756</ele>
        <time>2013-08-10T07:28:45Z</time>
      </trkpt>
      <trkpt lat="43.6113" lon="3.04799">
        <ele>639</ele>
        <time>2013-08-10T07:28:46Z</time>
      </trkpt>
      <trkpt lat="43.61129" lon="3.04798">
        <ele>639.4000244</ele>
        <time>2013-08-10T07:28:47Z</time>
      </trkpt>
      <trkpt lat="43.61128" lon="3.04797">
        <ele>640.2000122</ele>
        <time>2013-08-10T07:28:48Z</time>
      </trkpt>
      <trkpt lat="43.61127" lon="3.04795">
        <ele>640.2000122</ele>
        <time>2013-08-10T07:28:49Z</time>
      </trkpt>
      <trkpt lat="43.61127" lon="3.04793">
        <ele>640.2000122</ele>
        <time>2013-08-10T07:28:50Z</time>
      </trkpt>
      <trkpt lat="43.61124" lon="3.04785">
        <ele>640.2000122</ele>
        <time>2013-08-10T07:28:55Z</time>
      </trkpt>
      <trkpt lat="43.61123" lon="3.04784">
        <ele>640.5999756</ele>
        <time>2013-08-10T07:28:56Z</time>
      </trkpt>
      <trkpt lat="43.61122" lon="3.04783">
        <ele>641</ele>
        <time>2013-08-10T07:28:57Z</time>
      </trkpt>
      <trkpt lat="43.61122" lon="3.04781">
        <ele>641.5999756</ele>
        <time>2013-08-10T07:28:58Z</time>
      </trkpt>
      <trkpt lat="43.61121" lon="3.04779">
        <ele>642</ele>
        <time>2013-08-10T07:28:59Z</time>
      </trkpt>
      <trkpt lat="43.61121" lon="3.04777">
        <ele>642.4000244</ele>
        <time>2013-08-10T07:29:00Z</time>
      </trkpt>
      <trkpt lat="43.6112" lon="3.04776">
        <ele>642.4000244</ele>
        <time>2013-08-10T07:29:01Z</time>
      </trkpt>
      <trkpt lat="43.61117" lon="3.04772">
        <ele>642.4000244</ele>
        <time>2013-08-10T07:29:04Z</time>
      </trkpt>
      <trkpt lat="43.61114" lon="3.04771">
        <ele>642.4000244</ele>
        <time>2013-08-10T07:29:07Z</time>
      </trkpt>
      <trkpt lat="43.61112" lon="3.0477">
        <ele>642.7999878</ele>
        <time>2013-08-10T07:29:09Z</time>
      </trkpt>
      <trkpt lat="43.6111" lon="3.04769">
        <ele>643.2000122</ele>
        <time>2013-08-10T07:29:10Z</time>
      </trkpt>
      <trkpt lat="43.61109" lon="3.04768">
        <ele>643.5999756</ele>
        <time>2013-08-10T07:29:11Z</time>
      </trkpt>
      <trkpt lat="43.61108" lon="3.04767">
        <ele>644</ele>
        <time>2013-08-10T07:29:12Z</time>
      </trkpt>
      <trkpt lat="43.61106" lon="3.04766">
        <ele>644.4000244</ele>
        <time>2013-08-10T07:29:13Z</time>
      </trkpt>
      <trkpt lat="43.61105" lon="3.04766">
        <ele>644.4000244</ele>
        <time>2013-08-10T07:29:14Z</time>
      </trkpt>
      <trkpt lat="43.61102" lon="3.04765">
        <ele>644.7999878</ele>
        <time>2013-08-10T07:29:16Z</time>
      </trkpt>
      <trkpt lat="43.611" lon="3.04763">
        <ele>645.2000122</ele>
        <time>2013-08-10T07:29:17Z</time>
      </trkpt>
      <trkpt lat="43.61098" lon="3.04762">
        <ele>645.5999756</ele>
        <time>2013-08-10T07:29:18Z</time>
      </trkpt>
      <trkpt lat="43.61097" lon="3.0476">
        <ele>646</ele>
        <time>2013-08-10T07:29:19Z</time>
      </trkpt>
      <trkpt lat="43.61096" lon="3.04759">
        <ele>646.4000244</ele>
        <time>2013-08-10T07:29:20Z</time>
      </trkpt>
      <trkpt lat="43.61095" lon="3.04757">
        <ele>646.4000244</ele>
        <time>2013-08-10T07:29:21Z</time>
      </trkpt>
      <trkpt lat="43.61086" lon="3.04752">
        <ele>646.4000244</ele>
        <time>2013-08-10T07:29:28Z</time>
      </trkpt>
      <trkpt lat="43.61084" lon="3.0475">
        <ele>646.7999878</ele>
        <time>2013-08-10T07:29:30Z</time>
      </trkpt>
      <trkpt lat="43.61083" lon="3.04749">
        <ele>647.2000122</ele>
        <time>2013-08-10T07:29:31Z</time>
      </trkpt>
      <trkpt lat="43.61082" lon="3.04748">
        <ele>647.5999756</ele>
        <time>2013-08-10T07:29:32Z</time>
      </trkpt>
      <trkpt lat="43.61081" lon="3.04747">
        <ele>648</ele>
        <time>2013-08-10T07:29:33Z</time>
      </trkpt>
      <trkpt lat="43.61079" lon="3.04747">
        <ele>648.4000244</ele>
        <time>2013-08-10T07:29:34Z</time>
      </trkpt>
      <trkpt lat="43.61078" lon="3.04746">
        <ele>648.4000244</ele>
        <time>2013-08-10T07:29:35Z</time>
      </trkpt>
      <trkpt lat="43.61069" lon="3.04742">
        <ele>648.4000244</ele>
        <time>2013-08-10T07:29:41Z</time>
      </trkpt>
      <trkpt lat="43.61068" lon="3.04742">
        <ele>648.4000244</ele>
        <time>2013-08-10T07:29:42Z</time>
      </trkpt>
      <trkpt lat="43.61061" lon="3.04741">
        <ele>648.4000244</ele>
        <time>2013-08-10T07:29:46Z</time>
      </trkpt>
      <trkpt lat="43.61058" lon="3.04739">
        <ele>648.4000244</ele>
        <time>2013-08-10T07:29:48Z</time>
      </trkpt>
      <trkpt lat="43.61056" lon="3.04737">
        <ele>649</ele>
        <time>2013-08-10T07:29:49Z</time>
      </trkpt>
      <trkpt lat="43.61054" lon="3.04736">
        <ele>649.4000244</ele>
        <time>2013-08-10T07:29:50Z</time>
      </trkpt>
      <trkpt lat="43.61053" lon="3.04735">
        <ele>649.7999878</ele>
        <time>2013-08-10T07:29:51Z</time>
      </trkpt>
      <trkpt lat="43.61051" lon="3.04734">
        <ele>650.2000122</ele>
        <time>2013-08-10T07:29:52Z</time>
      </trkpt>
      <trkpt lat="43.61049" lon="3.04734">
        <ele>650.5999756</ele>
        <time>2013-08-10T07:29:53Z</time>
      </trkpt>
      <trkpt lat="43.61044" lon="3.04733">
        <ele>650.5999756</ele>
        <time>2013-08-10T07:29:56Z</time>
      </trkpt>
      <trkpt lat="43.61031" lon="3.04729">
        <ele>650.5999756</ele>
        <time>2013-08-10T07:30:03Z</time>
      </trkpt>
      <trkpt lat="43.61022" lon="3.04727">
        <ele>651</ele>
        <time>2013-08-10T07:30:07Z</time>
      </trkpt>
      <trkpt lat="43.61021" lon="3.04726">
        <ele>651.4000244</ele>
        <time>2013-08-10T07:30:08Z</time>
      </trkpt>
      <trkpt lat="43.61019" lon="3.04725">
        <ele>651.7999878</ele>
        <time>2013-08-10T07:30:09Z</time>
      </trkpt>
      <trkpt lat="43.61017" lon="3.04723">
        <ele>652.2000122</ele>
        <time>2013-08-10T07:30:10Z</time>
      </trkpt>
      <trkpt lat="43.61016" lon="3.04721">
        <ele>652.5999756</ele>
        <time>2013-08-10T07:30:11Z</time>
      </trkpt>
      <trkpt lat="43.61008" lon="3.04714">
        <ele>652.5999756</ele>
        <time>2013-08-10T07:30:16Z</time>
      </trkpt>
      <trkpt lat="43.60995" lon="3.04701">
        <ele>652.5999756</ele>
        <time>2013-08-10T07:30:24Z</time>
      </trkpt>
      <trkpt lat="43.60993" lon="3.047">
        <ele>653.2000122</ele>
        <time>2013-08-10T07:30:25Z</time>
      </trkpt>
      <trkpt lat="43.60991" lon="3.04698">
        <ele>653.5999756</ele>
        <time>2013-08-10T07:30:26Z</time>
      </trkpt>
      <trkpt lat="43.60989" lon="3.04696">
        <ele>654.4000244</ele>
        <time>2013-08-10T07:30:27Z</time>
      </trkpt>
      <trkpt lat="43.60988" lon="3.04694">
        <ele>654.7999878</ele>
        <time>2013-08-10T07:30:28Z</time>
      </trkpt>
      <trkpt lat="43.60984" lon="3.04689">
        <ele>654.7999878</ele>
        <time>2013-08-10T07:30:31Z</time>
      </trkpt>
      <trkpt lat="43.60979" lon="3.04682">
        <ele>654.7999878</ele>
        <time>2013-08-10T07:30:35Z</time>
      </trkpt>
      <trkpt lat="43.60977" lon="3.04679">
        <ele>655.2000122</ele>
        <time>2013-08-10T07:30:37Z</time>
      </trkpt>
      <trkpt lat="43.60975" lon="3.04677">
        <ele>655.5999756</ele>
        <time>2013-08-10T07:30:38Z</time>
      </trkpt>
      <trkpt lat="43.60974" lon="3.04676">
        <ele>656</ele>
        <time>2013-08-10T07:30:39Z</time>
      </trkpt>
      <trkpt lat="43.60973" lon="3.04674">
        <ele>656.4000244</ele>
        <time>2013-08-10T07:30:40Z</time>
      </trkpt>
      <trkpt lat="43.60973" lon="3.04672">
        <ele>656.7999878</ele>
        <time>2013-08-10T07:30:41Z</time>
      </trkpt>
      <trkpt lat="43.6097" lon="3.04666">
        <ele>656.7999878</ele>
        <time>2013-08-10T07:30:44Z</time>
      </trkpt>
      <trkpt lat="43.60967" lon="3.04658">
        <ele>657.2000122</ele>
        <time>2013-08-10T07:30:47Z</time>
      </trkpt>
      <trkpt lat="43.60966" lon="3.04656">
        <ele>657.5999756</ele>
        <time>2013-08-10T07:30:48Z</time>
      </trkpt>
      <trkpt lat="43.60965" lon="3.04653">
        <ele>658</ele>
        <time>2013-08-10T07:30:49Z</time>
      </trkpt>
      <trkpt lat="43.60964" lon="3.04652">
        <ele>658.4000244</ele>
        <time>2013-08-10T07:30:50Z</time>
      </trkpt>
      <trkpt lat="43.60964" lon="3.0465">
        <ele>658.7999878</ele>
        <time>2013-08-10T07:30:51Z</time>
      </trkpt>
      <trkpt lat="43.60957" lon="3.04633">
        <ele>659.2000122</ele>
        <time>2013-08-10T07:30:58Z</time>
      </trkpt>
      <trkpt lat="43.60956" lon="3.04631">
        <ele>659.5999756</ele>
        <time>2013-08-10T07:30:59Z</time>
      </trkpt>
      <trkpt lat="43.60955" lon="3.04629">
        <ele>660</ele>
        <time>2013-08-10T07:31:00Z</time>
      </trkpt>
      <trkpt lat="43.60954" lon="3.04627">
        <ele>660.5999756</ele>
        <time>2013-08-10T07:31:01Z</time>
      </trkpt>
      <trkpt lat="43.60953" lon="3.04626">
        <ele>661</ele>
        <time>2013-08-10T07:31:02Z</time>
      </trkpt>
      <trkpt lat="43.60952" lon="3.04623">
        <ele>661</ele>
        <time>2013-08-10T07:31:04Z</time>
      </trkpt>
      <trkpt lat="43.60952" lon="3.04621">
        <ele>661</ele>
        <time>2013-08-10T07:31:05Z</time>
      </trkpt>
      <trkpt lat="43.60949" lon="3.04613">
        <ele>661.4000244</ele>
        <time>2013-08-10T07:31:08Z</time>
      </trkpt>
      <trkpt lat="43.60947" lon="3.04611">
        <ele>661.7999878</ele>
        <time>2013-08-10T07:31:09Z</time>
      </trkpt>
      <trkpt lat="43.60946" lon="3.04609">
        <ele>662.2000122</ele>
        <time>2013-08-10T07:31:10Z</time>
      </trkpt>
      <trkpt lat="43.60944" lon="3.04607">
        <ele>662.7999878</ele>
        <time>2013-08-10T07:31:11Z</time>
      </trkpt>
      <trkpt lat="43.60943" lon="3.04604">
        <ele>663.2000122</ele>
        <time>2013-08-10T07:31:12Z</time>
      </trkpt>
      <trkpt lat="43.60936" lon="3.04587">
        <ele>663.2000122</ele>
        <time>2013-08-10T07:31:17Z</time>
      </trkpt>
      <trkpt lat="43.60932" lon="3.04578">
        <ele>663.2000122</ele>
        <time>2013-08-10T07:31:20Z</time>
      </trkpt>
      <trkpt lat="43.60929" lon="3.04567">
        <ele>663.2000122</ele>
        <time>2013-08-10T07:31:23Z</time>
      </trkpt>
      <trkpt lat="43.60926" lon="3.04551">
        <ele>663.2000122</ele>
        <time>2013-08-10T07:31:28Z</time>
      </trkpt>
      <trkpt lat="43.60924" lon="3.04548">
        <ele>663.2000122</ele>
        <time>2013-08-10T07:31:29Z</time>
      </trkpt>
      <trkpt lat="43.6092" lon="3.04536">
        <ele>663.2000122</ele>
        <time>2013-08-10T07:31:33Z</time>
      </trkpt>
      <trkpt lat="43.60909" lon="3.04509">
        <ele>663.2000122</ele>
        <time>2013-08-10T07:31:39Z</time>
      </trkpt>
      <trkpt lat="43.60903" lon="3.04483">
        <ele>663.2000122</ele>
        <time>2013-08-10T07:31:44Z</time>
      </trkpt>
      <trkpt lat="43.60903" lon="3.04473">
        <ele>663.2000122</ele>
        <time>2013-08-10T07:31:47Z</time>
      </trkpt>
      <trkpt lat="43.60904" lon="3.04464">
        <ele>663.2000122</ele>
        <time>2013-08-10T07:31:50Z</time>
      </trkpt>
      <trkpt lat="43.60903" lon="3.04461">
        <ele>663.2000122</ele>
        <time>2013-08-10T07:31:51Z</time>
      </trkpt>
      <trkpt lat="43.60904" lon="3.04447">
        <ele>663.2000122</ele>
        <time>2013-08-10T07:31:55Z</time>
      </trkpt>
      <trkpt lat="43.60905" lon="3.04427">
        <ele>663.2000122</ele>
        <time>2013-08-10T07:32:01Z</time>
      </trkpt>
      <trkpt lat="43.60906" lon="3.04417">
        <ele>663.5999756</ele>
        <time>2013-08-10T07:32:04Z</time>
      </trkpt>
      <trkpt lat="43.60907" lon="3.04414">
        <ele>664</ele>
        <time>2013-08-10T07:32:05Z</time>
      </trkpt>
      <trkpt lat="43.60908" lon="3.04412">
        <ele>665</ele>
        <time>2013-08-10T07:32:06Z</time>
      </trkpt>
      <trkpt lat="43.60908" lon="3.04408">
        <ele>665.4000244</ele>
        <time>2013-08-10T07:32:07Z</time>
      </trkpt>
      <trkpt lat="43.60909" lon="3.04391">
        <ele>665.4000244</ele>
        <time>2013-08-10T07:32:14Z</time>
      </trkpt>
      <trkpt lat="43.6091" lon="3.04387">
        <ele>665.4000244</ele>
        <time>2013-08-10T07:32:16Z</time>
      </trkpt>
      <trkpt lat="43.60914" lon="3.0438">
        <ele>665.4000244</ele>
        <time>2013-08-10T07:32:20Z</time>
      </trkpt>
      <trkpt lat="43.60915" lon="3.04378">
        <ele>665.4000244</ele>
        <time>2013-08-10T07:32:21Z</time>
      </trkpt>
      <trkpt lat="43.60917" lon="3.04374">
        <ele>665.7999878</ele>
        <time>2013-08-10T07:32:23Z</time>
      </trkpt>
      <trkpt lat="43.60919" lon="3.04372">
        <ele>666.2000122</ele>
        <time>2013-08-10T07:32:24Z</time>
      </trkpt>
      <trkpt lat="43.6092" lon="3.0437">
        <ele>666.5999756</ele>
        <time>2013-08-10T07:32:25Z</time>
      </trkpt>
      <trkpt lat="43.60921" lon="3.04368">
        <ele>667</ele>
        <time>2013-08-10T07:32:26Z</time>
      </trkpt>
      <trkpt lat="43.60922" lon="3.04366">
        <ele>667.4000244</ele>
        <time>2013-08-10T07:32:27Z</time>
      </trkpt>
      <trkpt lat="43.60923" lon="3.04364">
        <ele>667.4000244</ele>
        <time>2013-08-10T07:32:28Z</time>
      </trkpt>
      <trkpt lat="43.60925" lon="3.04361">
        <ele>668.2000122</ele>
        <time>2013-08-10T07:32:30Z</time>
      </trkpt>
      <trkpt lat="43.60926" lon="3.0436">
        <ele>668.5999756</ele>
        <time>2013-08-10T07:32:31Z</time>
      </trkpt>
      <trkpt lat="43.60928" lon="3.04359">
        <ele>669.2000122</ele>
        <time>2013-08-10T07:32:32Z</time>
      </trkpt>
      <trkpt lat="43.6093" lon="3.04358">
        <ele>669.5999756</ele>
        <time>2013-08-10T07:32:33Z</time>
      </trkpt>
      <trkpt lat="43.60938" lon="3.04355">
        <ele>669.5999756</ele>
        <time>2013-08-10T07:32:38Z</time>
      </trkpt>
      <trkpt lat="43.60939" lon="3.04353">
        <ele>670</ele>
        <time>2013-08-10T07:32:39Z</time>
      </trkpt>
      <trkpt lat="43.60941" lon="3.04352">
        <ele>670.4000244</ele>
        <time>2013-08-10T07:32:40Z</time>
      </trkpt>
      <trkpt lat="43.60942" lon="3.04351">
        <ele>670.7999878</ele>
        <time>2013-08-10T07:32:41Z</time>
      </trkpt>
      <trkpt lat="43.60943" lon="3.04349">
        <ele>671.2000122</ele>
        <time>2013-08-10T07:32:42Z</time>
      </trkpt>
      <trkpt lat="43.60945" lon="3.04348">
        <ele>671.7999878</ele>
        <time>2013-08-10T07:32:43Z</time>
      </trkpt>
      <trkpt lat="43.60949" lon="3.04343">
        <ele>671.7999878</ele>
        <time>2013-08-10T07:32:45Z</time>
      </trkpt>
      <trkpt lat="43.60957" lon="3.04334">
        <ele>671.7999878</ele>
        <time>2013-08-10T07:32:51Z</time>
      </trkpt>
      <trkpt lat="43.60958" lon="3.04334">
        <ele>671.7999878</ele>
        <time>2013-08-10T07:32:53Z</time>
      </trkpt>
      <trkpt lat="43.60963" lon="3.04325">
        <ele>669.5999756</ele>
        <time>2013-08-10T07:33:31Z</time>
      </trkpt>
      <trkpt lat="43.60964" lon="3.04324">
        <ele>669.5999756</ele>
        <time>2013-08-10T07:33:32Z</time>
      </trkpt>
      <trkpt lat="43.60973" lon="3.04319">
        <ele>669.5999756</ele>
        <time>2013-08-10T07:33:36Z</time>
      </trkpt>
      <trkpt lat="43.60975" lon="3.04316">
        <ele>669.5999756</ele>
        <time>2013-08-10T07:33:37Z</time>
      </trkpt>
      <trkpt lat="43.60983" lon="3.04311">
        <ele>669.5999756</ele>
        <time>2013-08-10T07:33:41Z</time>
      </trkpt>
      <trkpt lat="43.60994" lon="3.043">
        <ele>669.5999756</ele>
        <time>2013-08-10T07:33:46Z</time>
      </trkpt>
      <trkpt lat="43.61004" lon="3.0429">
        <ele>669.5999756</ele>
        <time>2013-08-10T07:33:51Z</time>
      </trkpt>
      <trkpt lat="43.61006" lon="3.04288">
        <ele>669.5999756</ele>
        <time>2013-08-10T07:33:52Z</time>
      </trkpt>
      <trkpt lat="43.61014" lon="3.04275">
        <ele>669.5999756</ele>
        <time>2013-08-10T07:33:59Z</time>
      </trkpt>
      <trkpt lat="43.61014" lon="3.04272">
        <ele>669.5999756</ele>
        <time>2013-08-10T07:34:01Z</time>
      </trkpt>
      <trkpt lat="43.61014" lon="3.04272">
        <ele>669.5999756</ele>
        <time>2013-08-10T07:34:02Z</time>
      </trkpt>
      <trkpt lat="43.61018" lon="3.04271">
        <ele>669.7999878</ele>
        <time>2013-08-10T07:34:43Z</time>
      </trkpt>
      <trkpt lat="43.61018" lon="3.0427">
        <ele>669.7999878</ele>
        <time>2013-08-10T07:34:44Z</time>
      </trkpt>
      <trkpt lat="43.61019" lon="3.0427">
        <ele>669.7999878</ele>
        <time>2013-08-10T07:34:47Z</time>
      </trkpt>
      <trkpt lat="43.61021" lon="3.04269">
        <ele>667.7999878</ele>
        <time>2013-08-10T07:40:30Z</time>
      </trkpt>
      <trkpt lat="43.61022" lon="3.04269">
        <ele>667.7999878</ele>
        <time>2013-08-10T07:40:31Z</time>
      </trkpt>
      <trkpt lat="43.61023" lon="3.04269">
        <ele>667.7999878</ele>
        <time>2013-08-10T07:40:32Z</time>
      </trkpt>
      <trkpt lat="43.61034" lon="3.04269">
        <ele>667.7999878</ele>
        <time>2013-08-10T07:40:38Z</time>
      </trkpt>
      <trkpt lat="43.61043" lon="3.04267">
        <ele>668.2000122</ele>
        <time>2013-08-10T07:40:42Z</time>
      </trkpt>
      <trkpt lat="43.61046" lon="3.04266">
        <ele>668.5999756</ele>
        <time>2013-08-10T07:40:43Z</time>
      </trkpt>
      <trkpt lat="43.61048" lon="3.04266">
        <ele>669</ele>
        <time>2013-08-10T07:40:44Z</time>
      </trkpt>
      <trkpt lat="43.6105" lon="3.04265">
        <ele>669.5999756</ele>
        <time>2013-08-10T07:40:45Z</time>
      </trkpt>
      <trkpt lat="43.61053" lon="3.04264">
        <ele>670</ele>
        <time>2013-08-10T07:40:46Z</time>
      </trkpt>
      <trkpt lat="43.61055" lon="3.04264">
        <ele>670.4000244</ele>
        <time>2013-08-10T07:40:47Z</time>
      </trkpt>
      <trkpt lat="43.61056" lon="3.04263">
        <ele>670.7999878</ele>
        <time>2013-08-10T07:40:48Z</time>
      </trkpt>
      <trkpt lat="43.61058" lon="3.04263">
        <ele>671.5999756</ele>
        <time>2013-08-10T07:40:49Z</time>
      </trkpt>
      <trkpt lat="43.61059" lon="3.04264">
        <ele>672.2000122</ele>
        <time>2013-08-10T07:40:50Z</time>
      </trkpt>
      <trkpt lat="43.61066" lon="3.04264">
        <ele>672.2000122</ele>
        <time>2013-08-10T07:40:53Z</time>
      </trkpt>
      <trkpt lat="43.61073" lon="3.04261">
        <ele>672.2000122</ele>
        <time>2013-08-10T07:40:56Z</time>
      </trkpt>
      <trkpt lat="43.61081" lon="3.04259">
        <ele>672.5999756</ele>
        <time>2013-08-10T07:41:00Z</time>
      </trkpt>
      <trkpt lat="43.61083" lon="3.04258">
        <ele>673</ele>
        <time>2013-08-10T07:41:01Z</time>
      </trkpt>
      <trkpt lat="43.61084" lon="3.04258">
        <ele>673.4000244</ele>
        <time>2013-08-10T07:41:02Z</time>
      </trkpt>
      <trkpt lat="43.61087" lon="3.04257">
        <ele>673.7999878</ele>
        <time>2013-08-10T07:41:03Z</time>
      </trkpt>
      <trkpt lat="43.61088" lon="3.04257">
        <ele>674.4000244</ele>
        <time>2013-08-10T07:41:04Z</time>
      </trkpt>
      <trkpt lat="43.61091" lon="3.04256">
        <ele>674.4000244</ele>
        <time>2013-08-10T07:41:06Z</time>
      </trkpt>
      <trkpt lat="43.61101" lon="3.0425">
        <ele>674.4000244</ele>
        <time>2013-08-10T07:41:12Z</time>
      </trkpt>
      <trkpt lat="43.61103" lon="3.04249">
        <ele>674.4000244</ele>
        <time>2013-08-10T07:41:13Z</time>
      </trkpt>
      <trkpt lat="43.61109" lon="3.04245">
        <ele>674.7999878</ele>
        <time>2013-08-10T07:41:16Z</time>
      </trkpt>
      <trkpt lat="43.61111" lon="3.04244">
        <ele>675.2000122</ele>
        <time>2013-08-10T07:41:17Z</time>
      </trkpt>
      <trkpt lat="43.61113" lon="3.04244">
        <ele>675.5999756</ele>
        <time>2013-08-10T07:41:18Z</time>
      </trkpt>
      <trkpt lat="43.61115" lon="3.04243">
        <ele>676</ele>
        <time>2013-08-10T07:41:19Z</time>
      </trkpt>
      <trkpt lat="43.61117" lon="3.04241">
        <ele>676.4000244</ele>
        <time>2013-08-10T07:41:20Z</time>
      </trkpt>
      <trkpt lat="43.61128" lon="3.04235">
        <ele>676.4000244</ele>
        <time>2013-08-10T07:41:26Z</time>
      </trkpt>
      <trkpt lat="43.61134" lon="3.04233">
        <ele>676.4000244</ele>
        <time>2013-08-10T07:41:29Z</time>
      </trkpt>
      <trkpt lat="43.61135" lon="3.04233">
        <ele>676.4000244</ele>
        <time>2013-08-10T07:41:30Z</time>
      </trkpt>
      <trkpt lat="43.61139" lon="3.04232">
        <ele>676.7999878</ele>
        <time>2013-08-10T07:41:32Z</time>
      </trkpt>
      <trkpt lat="43.61141" lon="3.04231">
        <ele>677.2000122</ele>
        <time>2013-08-10T07:41:33Z</time>
      </trkpt>
      <trkpt lat="43.61142" lon="3.04231">
        <ele>677.5999756</ele>
        <time>2013-08-10T07:41:34Z</time>
      </trkpt>
      <trkpt lat="43.61144" lon="3.0423">
        <ele>678</ele>
        <time>2013-08-10T07:41:35Z</time>
      </trkpt>
      <trkpt lat="43.61146" lon="3.0423">
        <ele>678.4000244</ele>
        <time>2013-08-10T07:41:36Z</time>
      </trkpt>
      <trkpt lat="43.61157" lon="3.04227">
        <ele>678.4000244</ele>
        <time>2013-08-10T07:41:41Z</time>
      </trkpt>
      <trkpt lat="43.61171" lon="3.04221">
        <ele>678.4000244</ele>
        <time>2013-08-10T07:41:47Z</time>
      </trkpt>
      <trkpt lat="43.6119" lon="3.0421">
        <ele>678.4000244</ele>
        <time>2013-08-10T07:41:54Z</time>
      </trkpt>
      <trkpt lat="43.61202" lon="3.04198">
        <ele>678.4000244</ele>
        <time>2013-08-10T07:42:00Z</time>
      </trkpt>
      <trkpt lat="43.61209" lon="3.04189">
        <ele>678.7999878</ele>
        <time>2013-08-10T07:42:03Z</time>
      </trkpt>
      <trkpt lat="43.61211" lon="3.04186">
        <ele>679.2000122</ele>
        <time>2013-08-10T07:42:04Z</time>
      </trkpt>
      <trkpt lat="43.61214" lon="3.04183">
        <ele>679.5999756</ele>
        <time>2013-08-10T07:42:05Z</time>
      </trkpt>
      <trkpt lat="43.61217" lon="3.0418">
        <ele>680</ele>
        <time>2013-08-10T07:42:06Z</time>
      </trkpt>
      <trkpt lat="43.6122" lon="3.04176">
        <ele>680.4000244</ele>
        <time>2013-08-10T07:42:07Z</time>
      </trkpt>
      <trkpt lat="43.61229" lon="3.04162">
        <ele>680.4000244</ele>
        <time>2013-08-10T07:42:11Z</time>
      </trkpt>
      <trkpt lat="43.61237" lon="3.04151">
        <ele>680.4000244</ele>
        <time>2013-08-10T07:42:14Z</time>
      </trkpt>
      <trkpt lat="43.61241" lon="3.04143">
        <ele>680.7999878</ele>
        <time>2013-08-10T07:42:16Z</time>
      </trkpt>
      <trkpt lat="43.61244" lon="3.04139">
        <ele>681.2000122</ele>
        <time>2013-08-10T07:42:17Z</time>
      </trkpt>
      <trkpt lat="43.61246" lon="3.04135">
        <ele>681.5999756</ele>
        <time>2013-08-10T07:42:18Z</time>
      </trkpt>
      <trkpt lat="43.61249" lon="3.04131">
        <ele>682</ele>
        <time>2013-08-10T07:42:19Z</time>
      </trkpt>
      <trkpt lat="43.61252" lon="3.04127">
        <ele>682.4000244</ele>
        <time>2013-08-10T07:42:20Z</time>
      </trkpt>
      <trkpt lat="43.61265" lon="3.04102">
        <ele>682.4000244</ele>
        <time>2013-08-10T07:42:26Z</time>
      </trkpt>
      <trkpt lat="43.61278" lon="3.04082">
        <ele>682.4000244</ele>
        <time>2013-08-10T07:42:32Z</time>
      </trkpt>
      <trkpt lat="43.61283" lon="3.04078">
        <ele>683</ele>
        <time>2013-08-10T07:42:34Z</time>
      </trkpt>
      <trkpt lat="43.61285" lon="3.04076">
        <ele>683.4000244</ele>
        <time>2013-08-10T07:42:35Z</time>
      </trkpt>
      <trkpt lat="43.61287" lon="3.04076">
        <ele>683.7999878</ele>
        <time>2013-08-10T07:42:36Z</time>
      </trkpt>
      <trkpt lat="43.6129" lon="3.04075">
        <ele>684.2000122</ele>
        <time>2013-08-10T07:42:37Z</time>
      </trkpt>
      <trkpt lat="43.61292" lon="3.04074">
        <ele>684.5999756</ele>
        <time>2013-08-10T07:42:38Z</time>
      </trkpt>
      <trkpt lat="43.61299" lon="3.04068">
        <ele>684.5999756</ele>
        <time>2013-08-10T07:42:42Z</time>
      </trkpt>
      <trkpt lat="43.61305" lon="3.04059">
        <ele>685</ele>
        <time>2013-08-10T07:42:46Z</time>
      </trkpt>
      <trkpt lat="43.61306" lon="3.04055">
        <ele>685.4000244</ele>
        <time>2013-08-10T07:42:47Z</time>
      </trkpt>
      <trkpt lat="43.61307" lon="3.04052">
        <ele>685.7999878</ele>
        <time>2013-08-10T07:42:48Z</time>
      </trkpt>
      <trkpt lat="43.61308" lon="3.04049">
        <ele>686.2000122</ele>
        <time>2013-08-10T07:42:49Z</time>
      </trkpt>
      <trkpt lat="43.61309" lon="3.04045">
        <ele>686.5999756</ele>
        <time>2013-08-10T07:42:50Z</time>
      </trkpt>
      <trkpt lat="43.61309" lon="3.04027">
        <ele>686.5999756</ele>
        <time>2013-08-10T07:42:55Z</time>
      </trkpt>
      <trkpt lat="43.6131" lon="3.04011">
        <ele>687.2000122</ele>
        <time>2013-08-10T07:42:59Z</time>
      </trkpt>
      <trkpt lat="43.6131" lon="3.04008">
        <ele>687.5999756</ele>
        <time>2013-08-10T07:43:00Z</time>
      </trkpt>
      <trkpt lat="43.6131" lon="3.04004">
        <ele>688</ele>
        <time>2013-08-10T07:43:01Z</time>
      </trkpt>
      <trkpt lat="43.61311" lon="3.04">
        <ele>688.4000244</ele>
        <time>2013-08-10T07:43:02Z</time>
      </trkpt>
      <trkpt lat="43.61311" lon="3.03998">
        <ele>688.7999878</ele>
        <time>2013-08-10T07:43:03Z</time>
      </trkpt>
      <trkpt lat="43.61312" lon="3.03979">
        <ele>688.7999878</ele>
        <time>2013-08-10T07:43:08Z</time>
      </trkpt>
      <trkpt lat="43.61312" lon="3.03966">
        <ele>689.4000244</ele>
        <time>2013-08-10T07:43:12Z</time>
      </trkpt>
      <trkpt lat="43.61312" lon="3.03964">
        <ele>689.7999878</ele>
        <time>2013-08-10T07:43:13Z</time>
      </trkpt>
      <trkpt lat="43.61312" lon="3.03961">
        <ele>690.2000122</ele>
        <time>2013-08-10T07:43:14Z</time>
      </trkpt>
      <trkpt lat="43.61312" lon="3.03958">
        <ele>690.5999756</ele>
        <time>2013-08-10T07:43:15Z</time>
      </trkpt>
      <trkpt lat="43.61313" lon="3.03956">
        <ele>691</ele>
        <time>2013-08-10T07:43:16Z</time>
      </trkpt>
      <trkpt lat="43.61315" lon="3.03942">
        <ele>691</ele>
        <time>2013-08-10T07:43:21Z</time>
      </trkpt>
      <trkpt lat="43.61315" lon="3.03921">
        <ele>691</ele>
        <time>2013-08-10T07:43:29Z</time>
      </trkpt>
      <trkpt lat="43.61315" lon="3.03919">
        <ele>691.4000244</ele>
        <time>2013-08-10T07:43:30Z</time>
      </trkpt>
      <trkpt lat="43.61315" lon="3.03916">
        <ele>691.7999878</ele>
        <time>2013-08-10T07:43:31Z</time>
      </trkpt>
      <trkpt lat="43.61315" lon="3.03913">
        <ele>692.2000122</ele>
        <time>2013-08-10T07:43:32Z</time>
      </trkpt>
      <trkpt lat="43.61315" lon="3.03911">
        <ele>692.5999756</ele>
        <time>2013-08-10T07:43:33Z</time>
      </trkpt>
      <trkpt lat="43.61315" lon="3.03908">
        <ele>693</ele>
        <time>2013-08-10T07:43:34Z</time>
      </trkpt>
      <trkpt lat="43.61315" lon="3.03903">
        <ele>693</ele>
        <time>2013-08-10T07:43:36Z</time>
      </trkpt>
      <trkpt lat="43.61316" lon="3.03892">
        <ele>693.4000244</ele>
        <time>2013-08-10T07:43:41Z</time>
      </trkpt>
      <trkpt lat="43.61315" lon="3.03891">
        <ele>694.4000244</ele>
        <time>2013-08-10T07:43:42Z</time>
      </trkpt>
      <trkpt lat="43.61315" lon="3.03888">
        <ele>694.7999878</ele>
        <time>2013-08-10T07:43:43Z</time>
      </trkpt>
      <trkpt lat="43.61315" lon="3.03885">
        <ele>695.2000122</ele>
        <time>2013-08-10T07:43:44Z</time>
      </trkpt>
      <trkpt lat="43.61316" lon="3.03882">
        <ele>695.2000122</ele>
        <time>2013-08-10T07:43:46Z</time>
      </trkpt>
      <trkpt lat="43.61316" lon="3.03867">
        <ele>695.2000122</ele>
        <time>2013-08-10T07:43:52Z</time>
      </trkpt>
      <trkpt lat="43.61317" lon="3.03859">
        <ele>695.5999756</ele>
        <time>2013-08-10T07:43:56Z</time>
      </trkpt>
      <trkpt lat="43.61317" lon="3.03856">
        <ele>696.2000122</ele>
        <time>2013-08-10T07:43:57Z</time>
      </trkpt>
      <trkpt lat="43.61317" lon="3.03855">
        <ele>696.5999756</ele>
        <time>2013-08-10T07:43:58Z</time>
      </trkpt>
      <trkpt lat="43.61317" lon="3.03852">
        <ele>697</ele>
        <time>2013-08-10T07:43:59Z</time>
      </trkpt>
      <trkpt lat="43.61317" lon="3.03849">
        <ele>697.5999756</ele>
        <time>2013-08-10T07:44:00Z</time>
      </trkpt>
      <trkpt lat="43.61318" lon="3.03835">
        <ele>697.5999756</ele>
        <time>2013-08-10T07:44:06Z</time>
      </trkpt>
      <trkpt lat="43.61318" lon="3.0383">
        <ele>698</ele>
        <time>2013-08-10T07:44:08Z</time>
      </trkpt>
      <trkpt lat="43.61318" lon="3.03828">
        <ele>698.4000244</ele>
        <time>2013-08-10T07:44:09Z</time>
      </trkpt>
      <trkpt lat="43.61318" lon="3.03826">
        <ele>698.7999878</ele>
        <time>2013-08-10T07:44:10Z</time>
      </trkpt>
      <trkpt lat="43.61318" lon="3.03824">
        <ele>699.2000122</ele>
        <time>2013-08-10T07:44:11Z</time>
      </trkpt>
      <trkpt lat="43.61318" lon="3.03822">
        <ele>699.5999756</ele>
        <time>2013-08-10T07:44:12Z</time>
      </trkpt>
      <trkpt lat="43.61319" lon="3.03816">
        <ele>699.5999756</ele>
        <time>2013-08-10T07:44:14Z</time>
      </trkpt>
      <trkpt lat="43.61318" lon="3.03801">
        <ele>699.5999756</ele>
        <time>2013-08-10T07:44:21Z</time>
      </trkpt>
      <trkpt lat="43.61318" lon="3.03798">
        <ele>700</ele>
        <time>2013-08-10T07:44:22Z</time>
      </trkpt>
      <trkpt lat="43.61318" lon="3.03796">
        <ele>700.4000244</ele>
        <time>2013-08-10T07:44:23Z</time>
      </trkpt>
      <trkpt lat="43.61319" lon="3.03794">
        <ele>700.7999878</ele>
        <time>2013-08-10T07:44:24Z</time>
      </trkpt>
      <trkpt lat="43.61319" lon="3.03793">
        <ele>701.2000122</ele>
        <time>2013-08-10T07:44:25Z</time>
      </trkpt>
      <trkpt lat="43.61319" lon="3.0379">
        <ele>701.5999756</ele>
        <time>2013-08-10T07:44:26Z</time>
      </trkpt>
      <trkpt lat="43.61319" lon="3.03789">
        <ele>701.5999756</ele>
        <time>2013-08-10T07:44:27Z</time>
      </trkpt>
      <trkpt lat="43.61319" lon="3.03787">
        <ele>701.5999756</ele>
        <time>2013-08-10T07:44:28Z</time>
      </trkpt>
      <trkpt lat="43.6132" lon="3.03778">
        <ele>701.5999756</ele>
        <time>2013-08-10T07:44:33Z</time>
      </trkpt>
      <trkpt lat="43.6132" lon="3.03776">
        <ele>702.2000122</ele>
        <time>2013-08-10T07:44:34Z</time>
      </trkpt>
      <trkpt lat="43.6132" lon="3.03774">
        <ele>702.5999756</ele>
        <time>2013-08-10T07:44:35Z</time>
      </trkpt>
      <trkpt lat="43.6132" lon="3.03773">
        <ele>703</ele>
        <time>2013-08-10T07:44:36Z</time>
      </trkpt>
      <trkpt lat="43.6132" lon="3.03771">
        <ele>703.4000244</ele>
        <time>2013-08-10T07:44:37Z</time>
      </trkpt>
      <trkpt lat="43.6132" lon="3.03769">
        <ele>703.7999878</ele>
        <time>2013-08-10T07:44:38Z</time>
      </trkpt>
      <trkpt lat="43.6132" lon="3.03768">
        <ele>703.7999878</ele>
        <time>2013-08-10T07:44:39Z</time>
      </trkpt>
      <trkpt lat="43.61323" lon="3.03755">
        <ele>703.7999878</ele>
        <time>2013-08-10T07:44:47Z</time>
      </trkpt>
      <trkpt lat="43.61324" lon="3.03753">
        <ele>704.2000122</ele>
        <time>2013-08-10T07:44:48Z</time>
      </trkpt>
      <trkpt lat="43.61325" lon="3.03751">
        <ele>704.5999756</ele>
        <time>2013-08-10T07:44:49Z</time>
      </trkpt>
      <trkpt lat="43.61325" lon="3.03749">
        <ele>705</ele>
        <time>2013-08-10T07:44:50Z</time>
      </trkpt>
      <trkpt lat="43.61326" lon="3.03747">
        <ele>705.4000244</ele>
        <time>2013-08-10T07:44:51Z</time>
      </trkpt>
      <trkpt lat="43.61326" lon="3.03746">
        <ele>705.7999878</ele>
        <time>2013-08-10T07:44:52Z</time>
      </trkpt>
      <trkpt lat="43.61325" lon="3.03744">
        <ele>705.7999878</ele>
        <time>2013-08-10T07:44:53Z</time>
      </trkpt>
      <trkpt lat="43.61324" lon="3.03742">
        <ele>705.7999878</ele>
        <time>2013-08-10T07:44:54Z</time>
      </trkpt>
      <trkpt lat="43.61323" lon="3.03741">
        <ele>706.2000122</ele>
        <time>2013-08-10T07:44:55Z</time>
      </trkpt>
      <trkpt lat="43.61323" lon="3.0374">
        <ele>707.2000122</ele>
        <time>2013-08-10T07:44:56Z</time>
      </trkpt>
      <trkpt lat="43.61322" lon="3.03739">
        <ele>707.5999756</ele>
        <time>2013-08-10T07:44:57Z</time>
      </trkpt>
      <trkpt lat="43.61321" lon="3.03737">
        <ele>708</ele>
        <time>2013-08-10T07:44:58Z</time>
      </trkpt>
      <trkpt lat="43.61317" lon="3.03732">
        <ele>708</ele>
        <time>2013-08-10T07:45:02Z</time>
      </trkpt>
      <trkpt lat="43.61315" lon="3.03729">
        <ele>708</ele>
        <time>2013-08-10T07:45:04Z</time>
      </trkpt>
      <trkpt lat="43.61313" lon="3.03729">
        <ele>708</ele>
        <time>2013-08-10T07:45:05Z</time>
      </trkpt>
      <trkpt lat="43.61311" lon="3.03727">
        <ele>708.4000244</ele>
        <time>2013-08-10T07:45:08Z</time>
      </trkpt>
      <trkpt lat="43.61309" lon="3.03726">
        <ele>708.7999878</ele>
        <time>2013-08-10T07:45:09Z</time>
      </trkpt>
      <trkpt lat="43.61308" lon="3.03725">
        <ele>709.2000122</ele>
        <time>2013-08-10T07:45:10Z</time>
      </trkpt>
      <trkpt lat="43.61307" lon="3.03723">
        <ele>709.5999756</ele>
        <time>2013-08-10T07:45:11Z</time>
      </trkpt>
      <trkpt lat="43.61305" lon="3.03721">
        <ele>710</ele>
        <time>2013-08-10T07:45:12Z</time>
      </trkpt>
      <trkpt lat="43.61299" lon="3.03715">
        <ele>710</ele>
        <time>2013-08-10T07:45:15Z</time>
      </trkpt>
      <trkpt lat="43.61288" lon="3.03708">
        <ele>710</ele>
        <time>2013-08-10T07:45:21Z</time>
      </trkpt>
      <trkpt lat="43.61286" lon="3.03708">
        <ele>710</ele>
        <time>2013-08-10T07:45:22Z</time>
      </trkpt>
      <trkpt lat="43.61277" lon="3.03708">
        <ele>710.4000244</ele>
        <time>2013-08-10T07:45:27Z</time>
      </trkpt>
      <trkpt lat="43.61275" lon="3.03708">
        <ele>710.7999878</ele>
        <time>2013-08-10T07:45:28Z</time>
      </trkpt>
      <trkpt lat="43.61273" lon="3.03707">
        <ele>711.2000122</ele>
        <time>2013-08-10T07:45:29Z</time>
      </trkpt>
      <trkpt lat="43.61271" lon="3.03707">
        <ele>711.7999878</ele>
        <time>2013-08-10T07:45:30Z</time>
      </trkpt>
      <trkpt lat="43.61269" lon="3.03708">
        <ele>712.2000122</ele>
        <time>2013-08-10T07:45:31Z</time>
      </trkpt>
      <trkpt lat="43.61263" lon="3.03708">
        <ele>712.2000122</ele>
        <time>2013-08-10T07:45:34Z</time>
      </trkpt>
      <trkpt lat="43.61251" lon="3.03707">
        <ele>712.5999756</ele>
        <time>2013-08-10T07:45:40Z</time>
      </trkpt>
      <trkpt lat="43.61249" lon="3.03706">
        <ele>713</ele>
        <time>2013-08-10T07:45:41Z</time>
      </trkpt>
      <trkpt lat="43.61246" lon="3.03706">
        <ele>713.4000244</ele>
        <time>2013-08-10T07:45:42Z</time>
      </trkpt>
      <trkpt lat="43.61244" lon="3.03706">
        <ele>713.7999878</ele>
        <time>2013-08-10T07:45:43Z</time>
      </trkpt>
      <trkpt lat="43.61241" lon="3.03705">
        <ele>714.2000122</ele>
        <time>2013-08-10T07:45:44Z</time>
      </trkpt>
      <trkpt lat="43.61231" lon="3.03706">
        <ele>714.2000122</ele>
        <time>2013-08-10T07:45:48Z</time>
      </trkpt>
      <trkpt lat="43.61224" lon="3.03706">
        <ele>714.7999878</ele>
        <time>2013-08-10T07:45:51Z</time>
      </trkpt>
      <trkpt lat="43.61221" lon="3.03706">
        <ele>715.2000122</ele>
        <time>2013-08-10T07:45:52Z</time>
      </trkpt>
      <trkpt lat="43.61219" lon="3.03705">
        <ele>715.5999756</ele>
        <time>2013-08-10T07:45:53Z</time>
      </trkpt>
      <trkpt lat="43.61216" lon="3.03705">
        <ele>716</ele>
        <time>2013-08-10T07:45:54Z</time>
      </trkpt>
      <trkpt lat="43.61213" lon="3.03704">
        <ele>716.5999756</ele>
        <time>2013-08-10T07:45:55Z</time>
      </trkpt>
      <trkpt lat="43.61208" lon="3.03702">
        <ele>716.5999756</ele>
        <time>2013-08-10T07:45:57Z</time>
      </trkpt>
      <trkpt lat="43.61201" lon="3.03697">
        <ele>716.5999756</ele>
        <time>2013-08-10T07:46:00Z</time>
      </trkpt>
      <trkpt lat="43.61191" lon="3.03693">
        <ele>716.5999756</ele>
        <time>2013-08-10T07:46:05Z</time>
      </trkpt>
      <trkpt lat="43.61179" lon="3.03681">
        <ele>717</ele>
        <time>2013-08-10T07:46:10Z</time>
      </trkpt>
      <trkpt lat="43.61177" lon="3.03679">
        <ele>718</ele>
        <time>2013-08-10T07:46:11Z</time>
      </trkpt>
      <trkpt lat="43.61175" lon="3.03677">
        <ele>718.4000244</ele>
        <time>2013-08-10T07:46:12Z</time>
      </trkpt>
      <trkpt lat="43.61173" lon="3.03675">
        <ele>718.7999878</ele>
        <time>2013-08-10T07:46:13Z</time>
      </trkpt>
      <trkpt lat="43.61166" lon="3.0367">
        <ele>719.4000244</ele>
        <time>2013-08-10T07:46:16Z</time>
      </trkpt>
      <trkpt lat="43.61164" lon="3.03668">
        <ele>719.7999878</ele>
        <time>2013-08-10T07:46:17Z</time>
      </trkpt>
      <trkpt lat="43.61161" lon="3.03667">
        <ele>720.2000122</ele>
        <time>2013-08-10T07:46:18Z</time>
      </trkpt>
      <trkpt lat="43.61159" lon="3.03665">
        <ele>720.5999756</ele>
        <time>2013-08-10T07:46:19Z</time>
      </trkpt>
      <trkpt lat="43.61157" lon="3.03663">
        <ele>721</ele>
        <time>2013-08-10T07:46:20Z</time>
      </trkpt>
      <trkpt lat="43.61149" lon="3.03653">
        <ele>721</ele>
        <time>2013-08-10T07:46:24Z</time>
      </trkpt>
      <trkpt lat="43.61141" lon="3.03636">
        <ele>721.5999756</ele>
        <time>2013-08-10T07:46:30Z</time>
      </trkpt>
      <trkpt lat="43.61139" lon="3.03632">
        <ele>722</ele>
        <time>2013-08-10T07:46:31Z</time>
      </trkpt>
      <trkpt lat="43.61138" lon="3.03629">
        <ele>722.4000244</ele>
        <time>2013-08-10T07:46:32Z</time>
      </trkpt>
      <trkpt lat="43.61137" lon="3.03626">
        <ele>723</ele>
        <time>2013-08-10T07:46:33Z</time>
      </trkpt>
      <trkpt lat="43.61136" lon="3.03621">
        <ele>723.4000244</ele>
        <time>2013-08-10T07:46:34Z</time>
      </trkpt>
      <trkpt lat="43.61135" lon="3.03616">
        <ele>723.4000244</ele>
        <time>2013-08-10T07:46:35Z</time>
      </trkpt>
      <trkpt lat="43.61134" lon="3.0361">
        <ele>723.7999878</ele>
        <time>2013-08-10T07:46:37Z</time>
      </trkpt>
      <trkpt lat="43.61134" lon="3.03606">
        <ele>724.2000122</ele>
        <time>2013-08-10T07:46:38Z</time>
      </trkpt>
      <trkpt lat="43.61133" lon="3.03603">
        <ele>724.5999756</ele>
        <time>2013-08-10T07:46:39Z</time>
      </trkpt>
      <trkpt lat="43.61133" lon="3.03599">
        <ele>725</ele>
        <time>2013-08-10T07:46:40Z</time>
      </trkpt>
      <trkpt lat="43.61132" lon="3.03596">
        <ele>725.4000244</ele>
        <time>2013-08-10T07:46:41Z</time>
      </trkpt>
      <trkpt lat="43.61132" lon="3.03592">
        <ele>725.4000244</ele>
        <time>2013-08-10T07:46:42Z</time>
      </trkpt>
      <trkpt lat="43.61131" lon="3.03579">
        <ele>725.7999878</ele>
        <time>2013-08-10T07:46:46Z</time>
      </trkpt>
      <trkpt lat="43.61132" lon="3.03576">
        <ele>726.2000122</ele>
        <time>2013-08-10T07:46:47Z</time>
      </trkpt>
      <trkpt lat="43.61132" lon="3.03573">
        <ele>726.7999878</ele>
        <time>2013-08-10T07:46:48Z</time>
      </trkpt>
      <trkpt lat="43.61133" lon="3.0357">
        <ele>727.2000122</ele>
        <time>2013-08-10T07:46:49Z</time>
      </trkpt>
      <trkpt lat="43.61133" lon="3.03567">
        <ele>727.5999756</ele>
        <time>2013-08-10T07:46:50Z</time>
      </trkpt>
      <trkpt lat="43.61135" lon="3.03557">
        <ele>728</ele>
        <time>2013-08-10T07:46:54Z</time>
      </trkpt>
      <trkpt lat="43.61136" lon="3.03555">
        <ele>728.5999756</ele>
        <time>2013-08-10T07:46:55Z</time>
      </trkpt>
      <trkpt lat="43.61136" lon="3.03554">
        <ele>729</ele>
        <time>2013-08-10T07:46:56Z</time>
      </trkpt>
      <trkpt lat="43.61136" lon="3.03551">
        <ele>729.4000244</ele>
        <time>2013-08-10T07:46:57Z</time>
      </trkpt>
      <trkpt lat="43.61137" lon="3.03549">
        <ele>730</ele>
        <time>2013-08-10T07:46:58Z</time>
      </trkpt>
      <trkpt lat="43.6114" lon="3.03541">
        <ele>730.4000244</ele>
        <time>2013-08-10T07:47:02Z</time>
      </trkpt>
      <trkpt lat="43.61141" lon="3.03539">
        <ele>730.7999878</ele>
        <time>2013-08-10T07:47:03Z</time>
      </trkpt>
      <trkpt lat="43.61142" lon="3.03537">
        <ele>731.4000244</ele>
        <time>2013-08-10T07:47:04Z</time>
      </trkpt>
      <trkpt lat="43.61143" lon="3.03534">
        <ele>731.7999878</ele>
        <time>2013-08-10T07:47:05Z</time>
      </trkpt>
      <trkpt lat="43.61143" lon="3.03532">
        <ele>732.2000122</ele>
        <time>2013-08-10T07:47:06Z</time>
      </trkpt>
      <trkpt lat="43.61145" lon="3.03525">
        <ele>732.2000122</ele>
        <time>2013-08-10T07:47:09Z</time>
      </trkpt>
      <trkpt lat="43.61147" lon="3.03511">
        <ele>732.2000122</ele>
        <time>2013-08-10T07:47:16Z</time>
      </trkpt>
      <trkpt lat="43.61147" lon="3.03507">
        <ele>732.5999756</ele>
        <time>2013-08-10T07:47:18Z</time>
      </trkpt>
      <trkpt lat="43.61147" lon="3.03506">
        <ele>733</ele>
        <time>2013-08-10T07:47:19Z</time>
      </trkpt>
      <trkpt lat="43.61147" lon="3.03504">
        <ele>733.4000244</ele>
        <time>2013-08-10T07:47:20Z</time>
      </trkpt>
      <trkpt lat="43.61147" lon="3.03502">
        <ele>733.7999878</ele>
        <time>2013-08-10T07:47:21Z</time>
      </trkpt>
      <trkpt lat="43.61146" lon="3.035">
        <ele>734.2000122</ele>
        <time>2013-08-10T07:47:22Z</time>
      </trkpt>
      <trkpt lat="43.61146" lon="3.03498">
        <ele>734.2000122</ele>
        <time>2013-08-10T07:47:24Z</time>
      </trkpt>
      <trkpt lat="43.61146" lon="3.03487">
        <ele>734.7999878</ele>
        <time>2013-08-10T07:47:29Z</time>
      </trkpt>
      <trkpt lat="43.61146" lon="3.03484">
        <ele>735.2000122</ele>
        <time>2013-08-10T07:47:30Z</time>
      </trkpt>
      <trkpt lat="43.61145" lon="3.03482">
        <ele>735.5999756</ele>
        <time>2013-08-10T07:47:31Z</time>
      </trkpt>
      <trkpt lat="43.61145" lon="3.03481">
        <ele>736</ele>
        <time>2013-08-10T07:47:32Z</time>
      </trkpt>
      <trkpt lat="43.61145" lon="3.03478">
        <ele>736.4000244</ele>
        <time>2013-08-10T07:47:33Z</time>
      </trkpt>
      <trkpt lat="43.61144" lon="3.03475">
        <ele>736.4000244</ele>
        <time>2013-08-10T07:47:35Z</time>
      </trkpt>
      <trkpt lat="43.61142" lon="3.03468">
        <ele>736.7999878</ele>
        <time>2013-08-10T07:47:38Z</time>
      </trkpt>
      <trkpt lat="43.61141" lon="3.03467">
        <ele>737.2000122</ele>
        <time>2013-08-10T07:47:39Z</time>
      </trkpt>
      <trkpt lat="43.61141" lon="3.03463">
        <ele>737.7999878</ele>
        <time>2013-08-10T07:47:40Z</time>
      </trkpt>
      <trkpt lat="43.61141" lon="3.0346">
        <ele>738.2000122</ele>
        <time>2013-08-10T07:47:41Z</time>
      </trkpt>
      <trkpt lat="43.6114" lon="3.03457">
        <ele>738.5999756</ele>
        <time>2013-08-10T07:47:42Z</time>
      </trkpt>
      <trkpt lat="43.61139" lon="3.03445">
        <ele>738.5999756</ele>
        <time>2013-08-10T07:47:48Z</time>
      </trkpt>
      <trkpt lat="43.61139" lon="3.03442">
        <ele>738.5999756</ele>
        <time>2013-08-10T07:47:54Z</time>
      </trkpt>
      <trkpt lat="43.61138" lon="3.0343">
        <ele>740.5999756</ele>
        <time>2013-08-10T07:48:46Z</time>
      </trkpt>
      <trkpt lat="43.61137" lon="3.03427">
        <ele>740.5999756</ele>
        <time>2013-08-10T07:48:47Z</time>
      </trkpt>
      <trkpt lat="43.61135" lon="3.03422">
        <ele>740.5999756</ele>
        <time>2013-08-10T07:48:49Z</time>
      </trkpt>
      <trkpt lat="43.61131" lon="3.03408">
        <ele>740.5999756</ele>
        <time>2013-08-10T07:48:54Z</time>
      </trkpt>
      <trkpt lat="43.61122" lon="3.03388">
        <ele>740.5999756</ele>
        <time>2013-08-10T07:49:00Z</time>
      </trkpt>
      <trkpt lat="43.61118" lon="3.03387">
        <ele>740.5999756</ele>
        <time>2013-08-10T07:49:01Z</time>
      </trkpt>
      <trkpt lat="43.61111" lon="3.03386">
        <ele>740.5999756</ele>
        <time>2013-08-10T07:49:03Z</time>
      </trkpt>
      <trkpt lat="43.61096" lon="3.03386">
        <ele>740.5999756</ele>
        <time>2013-08-10T07:49:08Z</time>
      </trkpt>
      <trkpt lat="43.61091" lon="3.03388">
        <ele>741</ele>
        <time>2013-08-10T07:49:11Z</time>
      </trkpt>
      <trkpt lat="43.61091" lon="3.03388">
        <ele>741.4000244</ele>
        <time>2013-08-10T07:49:12Z</time>
      </trkpt>
      <trkpt lat="43.61091" lon="3.03388">
        <ele>742</ele>
        <time>2013-08-10T07:49:13Z</time>
      </trkpt>
      <trkpt lat="43.61091" lon="3.03388">
        <ele>742.4000244</ele>
        <time>2013-08-10T07:49:14Z</time>
      </trkpt>
      <trkpt lat="43.61085" lon="3.03396">
        <ele>742.7999878</ele>
        <time>2013-08-10T07:52:46Z</time>
      </trkpt>
      <trkpt lat="43.61085" lon="3.03397">
        <ele>742.7999878</ele>
        <time>2013-08-10T07:52:47Z</time>
      </trkpt>
      <trkpt lat="43.61084" lon="3.03398">
        <ele>742.7999878</ele>
        <time>2013-08-10T07:52:49Z</time>
      </trkpt>
      <trkpt lat="43.61085" lon="3.03398">
        <ele>742.7999878</ele>
        <time>2013-08-10T07:52:54Z</time>
      </trkpt>
      <trkpt lat="43.61081" lon="3.03402">
        <ele>742.7999878</ele>
        <time>2013-08-10T07:52:59Z</time>
      </trkpt>
      <trkpt lat="43.61082" lon="3.03406">
        <ele>742.7999878</ele>
        <time>2013-08-10T07:53:00Z</time>
      </trkpt>
      <trkpt lat="43.61084" lon="3.03412">
        <ele>742.7999878</ele>
        <time>2013-08-10T07:53:02Z</time>
      </trkpt>
      <trkpt lat="43.61085" lon="3.03414">
        <ele>742.4000244</ele>
        <time>2013-08-10T07:53:03Z</time>
      </trkpt>
      <trkpt lat="43.61087" lon="3.03415">
        <ele>742</ele>
        <time>2013-08-10T07:53:04Z</time>
      </trkpt>
      <trkpt lat="43.61088" lon="3.03417">
        <ele>741.5999756</ele>
        <time>2013-08-10T07:53:05Z</time>
      </trkpt>
      <trkpt lat="43.61089" lon="3.0342">
        <ele>741.2000122</ele>
        <time>2013-08-10T07:53:06Z</time>
      </trkpt>
      <trkpt lat="43.6109" lon="3.03423">
        <ele>740.7999878</ele>
        <time>2013-08-10T07:53:07Z</time>
      </trkpt>
      <trkpt lat="43.6109" lon="3.03426">
        <ele>740.7999878</ele>
        <time>2013-08-10T07:53:08Z</time>
      </trkpt>
      <trkpt lat="43.6109" lon="3.03429">
        <ele>740.2000122</ele>
        <time>2013-08-10T07:53:09Z</time>
      </trkpt>
      <trkpt lat="43.61089" lon="3.03432">
        <ele>739.7999878</ele>
        <time>2013-08-10T07:53:10Z</time>
      </trkpt>
      <trkpt lat="43.61088" lon="3.03433">
        <ele>739.4000244</ele>
        <time>2013-08-10T07:53:11Z</time>
      </trkpt>
      <trkpt lat="43.61087" lon="3.03436">
        <ele>738.5999756</ele>
        <time>2013-08-10T07:53:12Z</time>
      </trkpt>
      <trkpt lat="43.61085" lon="3.0344">
        <ele>738.5999756</ele>
        <time>2013-08-10T07:53:13Z</time>
      </trkpt>
      <trkpt lat="43.61083" lon="3.03449">
        <ele>738.2000122</ele>
        <time>2013-08-10T07:53:16Z</time>
      </trkpt>
      <trkpt lat="43.61084" lon="3.03451">
        <ele>737.7999878</ele>
        <time>2013-08-10T07:53:17Z</time>
      </trkpt>
      <trkpt lat="43.61084" lon="3.03452">
        <ele>737.4000244</ele>
        <time>2013-08-10T07:53:18Z</time>
      </trkpt>
      <trkpt lat="43.61085" lon="3.03453">
        <ele>736.7999878</ele>
        <time>2013-08-10T07:53:19Z</time>
      </trkpt>
      <trkpt lat="43.61086" lon="3.03454">
        <ele>736.4000244</ele>
        <time>2013-08-10T07:53:20Z</time>
      </trkpt>
      <trkpt lat="43.61086" lon="3.03456">
        <ele>736</ele>
        <time>2013-08-10T07:53:23Z</time>
      </trkpt>
      <trkpt lat="43.61085" lon="3.03456">
        <ele>735.4000244</ele>
        <time>2013-08-10T07:53:24Z</time>
      </trkpt>
      <trkpt lat="43.61083" lon="3.03457">
        <ele>735</ele>
        <time>2013-08-10T07:53:25Z</time>
      </trkpt>
      <trkpt lat="43.61082" lon="3.03458">
        <ele>734.4000244</ele>
        <time>2013-08-10T07:53:26Z</time>
      </trkpt>
      <trkpt lat="43.61082" lon="3.03458">
        <ele>733.7999878</ele>
        <time>2013-08-10T07:53:27Z</time>
      </trkpt>
      <trkpt lat="43.61078" lon="3.03456">
        <ele>731.7999878</ele>
        <time>2013-08-10T07:53:56Z</time>
      </trkpt>
      <trkpt lat="43.61073" lon="3.03457">
        <ele>731.7999878</ele>
        <time>2013-08-10T07:53:59Z</time>
      </trkpt>
      <trkpt lat="43.61071" lon="3.03458">
        <ele>731.7999878</ele>
        <time>2013-08-10T07:54:01Z</time>
      </trkpt>
      <trkpt lat="43.61067" lon="3.03463">
        <ele>731.7999878</ele>
        <time>2013-08-10T07:54:08Z</time>
      </trkpt>
      <trkpt lat="43.61066" lon="3.03466">
        <ele>731.7999878</ele>
        <time>2013-08-10T07:54:09Z</time>
      </trkpt>
      <trkpt lat="43.61056" lon="3.03482">
        <ele>731.7999878</ele>
        <time>2013-08-10T07:54:13Z</time>
      </trkpt>
      <trkpt lat="43.61054" lon="3.03486">
        <ele>731.2000122</ele>
        <time>2013-08-10T07:54:14Z</time>
      </trkpt>
      <trkpt lat="43.61053" lon="3.03489">
        <ele>730.7999878</ele>
        <time>2013-08-10T07:54:15Z</time>
      </trkpt>
      <trkpt lat="43.61053" lon="3.03491">
        <ele>730.2000122</ele>
        <time>2013-08-10T07:54:16Z</time>
      </trkpt>
      <trkpt lat="43.61052" lon="3.03495">
        <ele>729.5999756</ele>
        <time>2013-08-10T07:54:17Z</time>
      </trkpt>
      <trkpt lat="43.61051" lon="3.03499">
        <ele>729</ele>
        <time>2013-08-10T07:54:18Z</time>
      </trkpt>
      <trkpt lat="43.61049" lon="3.03504">
        <ele>728.4000244</ele>
        <time>2013-08-10T07:54:19Z</time>
      </trkpt>
      <trkpt lat="43.61046" lon="3.03508">
        <ele>727.7999878</ele>
        <time>2013-08-10T07:54:20Z</time>
      </trkpt>
      <trkpt lat="43.61044" lon="3.03512">
        <ele>727.4000244</ele>
        <time>2013-08-10T07:54:21Z</time>
      </trkpt>
      <trkpt lat="43.61044" lon="3.03519">
        <ele>726.7999878</ele>
        <time>2013-08-10T07:54:22Z</time>
      </trkpt>
      <trkpt lat="43.61046" lon="3.03526">
        <ele>726.2000122</ele>
        <time>2013-08-10T07:54:23Z</time>
      </trkpt>
      <trkpt lat="43.61047" lon="3.03532">
        <ele>725.5999756</ele>
        <time>2013-08-10T07:54:24Z</time>
      </trkpt>
      <trkpt lat="43.61047" lon="3.03537">
        <ele>725</ele>
        <time>2013-08-10T07:54:25Z</time>
      </trkpt>
      <trkpt lat="43.61047" lon="3.03542">
        <ele>723.5999756</ele>
        <time>2013-08-10T07:54:26Z</time>
      </trkpt>
      <trkpt lat="43.61047" lon="3.03547">
        <ele>722.7999878</ele>
        <time>2013-08-10T07:54:27Z</time>
      </trkpt>
      <trkpt lat="43.61047" lon="3.03553">
        <ele>722</ele>
        <time>2013-08-10T07:54:28Z</time>
      </trkpt>
      <trkpt lat="43.61046" lon="3.03558">
        <ele>721.4000244</ele>
        <time>2013-08-10T07:54:29Z</time>
      </trkpt>
      <trkpt lat="43.61046" lon="3.03562">
        <ele>720.5999756</ele>
        <time>2013-08-10T07:54:30Z</time>
      </trkpt>
      <trkpt lat="43.61045" lon="3.03565">
        <ele>719.7999878</ele>
        <time>2013-08-10T07:54:31Z</time>
      </trkpt>
      <trkpt lat="43.61045" lon="3.03566">
        <ele>719.2000122</ele>
        <time>2013-08-10T07:54:32Z</time>
      </trkpt>
      <trkpt lat="43.61045" lon="3.03566">
        <ele>718.5999756</ele>
        <time>2013-08-10T07:54:33Z</time>
      </trkpt>
      <trkpt lat="43.61045" lon="3.03566">
        <ele>718</ele>
        <time>2013-08-10T07:54:34Z</time>
      </trkpt>
      <trkpt lat="43.61051" lon="3.03572">
        <ele>716.2000122</ele>
        <time>2013-08-10T07:56:56Z</time>
      </trkpt>
      <trkpt lat="43.61049" lon="3.03576">
        <ele>716.2000122</ele>
        <time>2013-08-10T07:56:57Z</time>
      </trkpt>
      <trkpt lat="43.61047" lon="3.03579">
        <ele>716.2000122</ele>
        <time>2013-08-10T07:56:58Z</time>
      </trkpt>
      <trkpt lat="43.61039" lon="3.0359">
        <ele>716.2000122</ele>
        <time>2013-08-10T07:57:02Z</time>
      </trkpt>
      <trkpt lat="43.61038" lon="3.03593">
        <ele>716.2000122</ele>
        <time>2013-08-10T07:57:03Z</time>
      </trkpt>
      <trkpt lat="43.61035" lon="3.03598">
        <ele>715.7999878</ele>
        <time>2013-08-10T07:57:05Z</time>
      </trkpt>
      <trkpt lat="43.61035" lon="3.03601">
        <ele>715.2000122</ele>
        <time>2013-08-10T07:57:06Z</time>
      </trkpt>
      <trkpt lat="43.61036" lon="3.03605">
        <ele>714.7999878</ele>
        <time>2013-08-10T07:57:07Z</time>
      </trkpt>
      <trkpt lat="43.61037" lon="3.0361">
        <ele>714.2000122</ele>
        <time>2013-08-10T07:57:08Z</time>
      </trkpt>
      <trkpt lat="43.61037" lon="3.03615">
        <ele>713.5999756</ele>
        <time>2013-08-10T07:57:09Z</time>
      </trkpt>
      <trkpt lat="43.61037" lon="3.03619">
        <ele>713</ele>
        <time>2013-08-10T07:57:10Z</time>
      </trkpt>
      <trkpt lat="43.61037" lon="3.03623">
        <ele>712.4000244</ele>
        <time>2013-08-10T07:57:11Z</time>
      </trkpt>
      <trkpt lat="43.61036" lon="3.03627">
        <ele>711.7999878</ele>
        <time>2013-08-10T07:57:12Z</time>
      </trkpt>
      <trkpt lat="43.61033" lon="3.03634">
        <ele>711.4000244</ele>
        <time>2013-08-10T07:57:14Z</time>
      </trkpt>
      <trkpt lat="43.61032" lon="3.03638">
        <ele>711</ele>
        <time>2013-08-10T07:57:15Z</time>
      </trkpt>
      <trkpt lat="43.61032" lon="3.03643">
        <ele>710.5999756</ele>
        <time>2013-08-10T07:57:16Z</time>
      </trkpt>
      <trkpt lat="43.6103" lon="3.03649">
        <ele>710.2000122</ele>
        <time>2013-08-10T07:57:17Z</time>
      </trkpt>
      <trkpt lat="43.61029" lon="3.03656">
        <ele>709.4000244</ele>
        <time>2013-08-10T07:57:18Z</time>
      </trkpt>
      <trkpt lat="43.61028" lon="3.03662">
        <ele>708.7999878</ele>
        <time>2013-08-10T07:57:19Z</time>
      </trkpt>
      <trkpt lat="43.61027" lon="3.03668">
        <ele>707.2000122</ele>
        <time>2013-08-10T07:57:20Z</time>
      </trkpt>
      <trkpt lat="43.61026" lon="3.03672">
        <ele>706.5999756</ele>
        <time>2013-08-10T07:57:21Z</time>
      </trkpt>
      <trkpt lat="43.61025" lon="3.03676">
        <ele>706</ele>
        <time>2013-08-10T07:57:22Z</time>
      </trkpt>
      <trkpt lat="43.61022" lon="3.0368">
        <ele>705.4000244</ele>
        <time>2013-08-10T07:57:23Z</time>
      </trkpt>
      <trkpt lat="43.61019" lon="3.03683">
        <ele>704.7999878</ele>
        <time>2013-08-10T07:57:24Z</time>
      </trkpt>
      <trkpt lat="43.61018" lon="3.03686">
        <ele>704</ele>
        <time>2013-08-10T07:57:25Z</time>
      </trkpt>
      <trkpt lat="43.61016" lon="3.0369">
        <ele>704</ele>
        <time>2013-08-10T07:57:26Z</time>
      </trkpt>
      <trkpt lat="43.61013" lon="3.03694">
        <ele>703.5999756</ele>
        <time>2013-08-10T07:57:27Z</time>
      </trkpt>
      <trkpt lat="43.61009" lon="3.03699">
        <ele>703.2000122</ele>
        <time>2013-08-10T07:57:28Z</time>
      </trkpt>
      <trkpt lat="43.61006" lon="3.03704">
        <ele>702.7999878</ele>
        <time>2013-08-10T07:57:29Z</time>
      </trkpt>
      <trkpt lat="43.61003" lon="3.03708">
        <ele>702.4000244</ele>
        <time>2013-08-10T07:57:30Z</time>
      </trkpt>
      <trkpt lat="43.61" lon="3.03713">
        <ele>701.7999878</ele>
        <time>2013-08-10T07:57:31Z</time>
      </trkpt>
      <trkpt lat="43.60999" lon="3.03717">
        <ele>701.2000122</ele>
        <time>2013-08-10T07:57:32Z</time>
      </trkpt>
      <trkpt lat="43.60997" lon="3.03721">
        <ele>700.4000244</ele>
        <time>2013-08-10T07:57:33Z</time>
      </trkpt>
      <trkpt lat="43.60996" lon="3.03727">
        <ele>699.5999756</ele>
        <time>2013-08-10T07:57:34Z</time>
      </trkpt>
      <trkpt lat="43.60996" lon="3.03732">
        <ele>698.7999878</ele>
        <time>2013-08-10T07:57:35Z</time>
      </trkpt>
      <trkpt lat="43.60996" lon="3.03736">
        <ele>698</ele>
        <time>2013-08-10T07:57:36Z</time>
      </trkpt>
      <trkpt lat="43.60998" lon="3.03743">
        <ele>697.2000122</ele>
        <time>2013-08-10T07:57:37Z</time>
      </trkpt>
      <trkpt lat="43.60999" lon="3.03749">
        <ele>696.2000122</ele>
        <time>2013-08-10T07:57:38Z</time>
      </trkpt>
      <trkpt lat="43.61001" lon="3.03755">
        <ele>695.4000244</ele>
        <time>2013-08-10T07:57:39Z</time>
      </trkpt>
      <trkpt lat="43.61001" lon="3.03761">
        <ele>694.5999756</ele>
        <time>2013-08-10T07:57:40Z</time>
      </trkpt>
      <trkpt lat="43.60999" lon="3.03766">
        <ele>693.7999878</ele>
        <time>2013-08-10T07:57:41Z</time>
      </trkpt>
      <trkpt lat="43.60996" lon="3.0377">
        <ele>693</ele>
        <time>2013-08-10T07:57:42Z</time>
      </trkpt>
      <trkpt lat="43.60994" lon="3.03774">
        <ele>692.2000122</ele>
        <time>2013-08-10T07:57:43Z</time>
      </trkpt>
      <trkpt lat="43.60991" lon="3.0378">
        <ele>691.2000122</ele>
        <time>2013-08-10T07:57:44Z</time>
      </trkpt>
      <trkpt lat="43.6099" lon="3.03785">
        <ele>689.5999756</ele>
        <time>2013-08-10T07:57:45Z</time>
      </trkpt>
      <trkpt lat="43.60989" lon="3.03789">
        <ele>688.7999878</ele>
        <time>2013-08-10T07:57:46Z</time>
      </trkpt>
      <trkpt lat="43.60986" lon="3.03802">
        <ele>688.7999878</ele>
        <time>2013-08-10T07:57:49Z</time>
      </trkpt>
      <trkpt lat="43.60985" lon="3.03825">
        <ele>688.7999878</ele>
        <time>2013-08-10T07:57:54Z</time>
      </trkpt>
      <trkpt lat="43.60988" lon="3.03839">
        <ele>688.7999878</ele>
        <time>2013-08-10T07:57:57Z</time>
      </trkpt>
      <trkpt lat="43.60989" lon="3.03844">
        <ele>688.4000244</ele>
        <time>2013-08-10T07:57:58Z</time>
      </trkpt>
      <trkpt lat="43.6099" lon="3.03848">
        <ele>688</ele>
        <time>2013-08-10T07:57:59Z</time>
      </trkpt>
      <trkpt lat="43.60991" lon="3.03853">
        <ele>687.5999756</ele>
        <time>2013-08-10T07:58:00Z</time>
      </trkpt>
      <trkpt lat="43.60992" lon="3.03857">
        <ele>687.2000122</ele>
        <time>2013-08-10T07:58:01Z</time>
      </trkpt>
      <trkpt lat="43.60993" lon="3.03862">
        <ele>686.7999878</ele>
        <time>2013-08-10T07:58:02Z</time>
      </trkpt>
      <trkpt lat="43.60999" lon="3.03875">
        <ele>686.7999878</ele>
        <time>2013-08-10T07:58:05Z</time>
      </trkpt>
      <trkpt lat="43.61006" lon="3.03886">
        <ele>686.7999878</ele>
        <time>2013-08-10T07:58:10Z</time>
      </trkpt>
      <trkpt lat="43.61016" lon="3.03894">
        <ele>686.7999878</ele>
        <time>2013-08-10T07:58:17Z</time>
      </trkpt>
      <trkpt lat="43.61025" lon="3.039">
        <ele>686.7999878</ele>
        <time>2013-08-10T07:58:23Z</time>
      </trkpt>
      <trkpt lat="43.61042" lon="3.0391">
        <ele>687.2000122</ele>
        <time>2013-08-10T07:58:30Z</time>
      </trkpt>
      <trkpt lat="43.61044" lon="3.0391">
        <ele>687.7999878</ele>
        <time>2013-08-10T07:58:31Z</time>
      </trkpt>
      <trkpt lat="43.61047" lon="3.03912">
        <ele>688.2000122</ele>
        <time>2013-08-10T07:58:32Z</time>
      </trkpt>
      <trkpt lat="43.61049" lon="3.03913">
        <ele>688.5999756</ele>
        <time>2013-08-10T07:58:33Z</time>
      </trkpt>
      <trkpt lat="43.61052" lon="3.03913">
        <ele>689.2000122</ele>
        <time>2013-08-10T07:58:34Z</time>
      </trkpt>
      <trkpt lat="43.61058" lon="3.03915">
        <ele>689.2000122</ele>
        <time>2013-08-10T07:58:37Z</time>
      </trkpt>
      <trkpt lat="43.61073" lon="3.03922">
        <ele>689.2000122</ele>
        <time>2013-08-10T07:58:43Z</time>
      </trkpt>
      <trkpt lat="43.6109" lon="3.03932">
        <ele>689.2000122</ele>
        <time>2013-08-10T07:58:49Z</time>
      </trkpt>
      <trkpt lat="43.61109" lon="3.03944">
        <ele>689.2000122</ele>
        <time>2013-08-10T07:58:56Z</time>
      </trkpt>
      <trkpt lat="43.61122" lon="3.03955">
        <ele>689.2000122</ele>
        <time>2013-08-10T07:59:01Z</time>
      </trkpt>
      <trkpt lat="43.61139" lon="3.03965">
        <ele>689.2000122</ele>
        <time>2013-08-10T07:59:06Z</time>
      </trkpt>
      <trkpt lat="43.6115" lon="3.03975">
        <ele>689.2000122</ele>
        <time>2013-08-10T07:59:08Z</time>
      </trkpt>
      <trkpt lat="43.61159" lon="3.03984">
        <ele>689.2000122</ele>
        <time>2013-08-10T07:59:10Z</time>
      </trkpt>
      <trkpt lat="43.6117" lon="3.04001">
        <ele>688.7999878</ele>
        <time>2013-08-10T07:59:13Z</time>
      </trkpt>
      <trkpt lat="43.61174" lon="3.04007">
        <ele>688.4000244</ele>
        <time>2013-08-10T07:59:14Z</time>
      </trkpt>
      <trkpt lat="43.61178" lon="3.04013">
        <ele>687.7999878</ele>
        <time>2013-08-10T07:59:15Z</time>
      </trkpt>
      <trkpt lat="43.61183" lon="3.04018">
        <ele>687.4000244</ele>
        <time>2013-08-10T07:59:16Z</time>
      </trkpt>
      <trkpt lat="43.61189" lon="3.04021">
        <ele>687</ele>
        <time>2013-08-10T07:59:17Z</time>
      </trkpt>
      <trkpt lat="43.61195" lon="3.04023">
        <ele>686.4000244</ele>
        <time>2013-08-10T07:59:18Z</time>
      </trkpt>
      <trkpt lat="43.61201" lon="3.04025">
        <ele>685.7999878</ele>
        <time>2013-08-10T07:59:19Z</time>
      </trkpt>
      <trkpt lat="43.61208" lon="3.04026">
        <ele>685.4000244</ele>
        <time>2013-08-10T07:59:20Z</time>
      </trkpt>
      <trkpt lat="43.61214" lon="3.04028">
        <ele>684.7999878</ele>
        <time>2013-08-10T07:59:21Z</time>
      </trkpt>
      <trkpt lat="43.61224" lon="3.0403">
        <ele>684.7999878</ele>
        <time>2013-08-10T07:59:23Z</time>
      </trkpt>
      <trkpt lat="43.61242" lon="3.04031">
        <ele>684.7999878</ele>
        <time>2013-08-10T07:59:27Z</time>
      </trkpt>
      <trkpt lat="43.61254" lon="3.0403">
        <ele>684.7999878</ele>
        <time>2013-08-10T07:59:30Z</time>
      </trkpt>
      <trkpt lat="43.61267" lon="3.04034">
        <ele>684.7999878</ele>
        <time>2013-08-10T07:59:35Z</time>
      </trkpt>
      <trkpt lat="43.61274" lon="3.04047">
        <ele>684.7999878</ele>
        <time>2013-08-10T07:59:39Z</time>
      </trkpt>
      <trkpt lat="43.61275" lon="3.04051">
        <ele>685.2000122</ele>
        <time>2013-08-10T07:59:40Z</time>
      </trkpt>
      <trkpt lat="43.61276" lon="3.04054">
        <ele>685.5999756</ele>
        <time>2013-08-10T07:59:41Z</time>
      </trkpt>
      <trkpt lat="43.61278" lon="3.04057">
        <ele>686</ele>
        <time>2013-08-10T07:59:42Z</time>
      </trkpt>
      <trkpt lat="43.61279" lon="3.04059">
        <ele>686.5999756</ele>
        <time>2013-08-10T07:59:43Z</time>
      </trkpt>
      <trkpt lat="43.61281" lon="3.04061">
        <ele>687</ele>
        <time>2013-08-10T07:59:44Z</time>
      </trkpt>
      <trkpt lat="43.61282" lon="3.04063">
        <ele>687</ele>
        <time>2013-08-10T07:59:45Z</time>
      </trkpt>
      <trkpt lat="43.61287" lon="3.04062">
        <ele>687</ele>
        <time>2013-08-10T07:59:47Z</time>
      </trkpt>
      <trkpt lat="43.6129" lon="3.04061">
        <ele>687.7999878</ele>
        <time>2013-08-10T07:59:49Z</time>
      </trkpt>
      <trkpt lat="43.61292" lon="3.0406">
        <ele>688.2000122</ele>
        <time>2013-08-10T07:59:50Z</time>
      </trkpt>
      <trkpt lat="43.61293" lon="3.04059">
        <ele>688.5999756</ele>
        <time>2013-08-10T07:59:51Z</time>
      </trkpt>
      <trkpt lat="43.61295" lon="3.04057">
        <ele>689.2000122</ele>
        <time>2013-08-10T07:59:52Z</time>
      </trkpt>
      <trkpt lat="43.61298" lon="3.04051">
        <ele>689.2000122</ele>
        <time>2013-08-10T07:59:55Z</time>
      </trkpt>
      <trkpt lat="43.61299" lon="3.04048">
        <ele>689.2000122</ele>
        <time>2013-08-10T07:59:56Z</time>
      </trkpt>
      <trkpt lat="43.61301" lon="3.04029">
        <ele>689.2000122</ele>
        <time>2013-08-10T08:00:01Z</time>
      </trkpt>
      <trkpt lat="43.61301" lon="3.04026">
        <ele>689.2000122</ele>
        <time>2013-08-10T08:00:02Z</time>
      </trkpt>
      <trkpt lat="43.61304" lon="3.03997">
        <ele>689.2000122</ele>
        <time>2013-08-10T08:00:10Z</time>
      </trkpt>
      <trkpt lat="43.61304" lon="3.03969">
        <ele>689.5999756</ele>
        <time>2013-08-10T08:00:18Z</time>
      </trkpt>
      <trkpt lat="43.61305" lon="3.03966">
        <ele>690</ele>
        <time>2013-08-10T08:00:19Z</time>
      </trkpt>
      <trkpt lat="43.61305" lon="3.03963">
        <ele>690.4000244</ele>
        <time>2013-08-10T08:00:20Z</time>
      </trkpt>
      <trkpt lat="43.61305" lon="3.0396">
        <ele>690.7999878</ele>
        <time>2013-08-10T08:00:21Z</time>
      </trkpt>
      <trkpt lat="43.61305" lon="3.03957">
        <ele>691.4000244</ele>
        <time>2013-08-10T08:00:22Z</time>
      </trkpt>
      <trkpt lat="43.61306" lon="3.03954">
        <ele>691.7999878</ele>
        <time>2013-08-10T08:00:23Z</time>
      </trkpt>
      <trkpt lat="43.61306" lon="3.03951">
        <ele>692.2000122</ele>
        <time>2013-08-10T08:00:24Z</time>
      </trkpt>
      <trkpt lat="43.61306" lon="3.03948">
        <ele>692.5999756</ele>
        <time>2013-08-10T08:00:25Z</time>
      </trkpt>
      <trkpt lat="43.61306" lon="3.03945">
        <ele>693</ele>
        <time>2013-08-10T08:00:26Z</time>
      </trkpt>
      <trkpt lat="43.61306" lon="3.03942">
        <ele>693.4000244</ele>
        <time>2013-08-10T08:00:27Z</time>
      </trkpt>
      <trkpt lat="43.61307" lon="3.03931">
        <ele>693.4000244</ele>
        <time>2013-08-10T08:00:31Z</time>
      </trkpt>
      <trkpt lat="43.61306" lon="3.03916">
        <ele>693.4000244</ele>
        <time>2013-08-10T08:00:37Z</time>
      </trkpt>
      <trkpt lat="43.61306" lon="3.03914">
        <ele>694.2000122</ele>
        <time>2013-08-10T08:00:38Z</time>
      </trkpt>
      <trkpt lat="43.61306" lon="3.03911">
        <ele>694.5999756</ele>
        <time>2013-08-10T08:00:39Z</time>
      </trkpt>
      <trkpt lat="43.61306" lon="3.03909">
        <ele>695</ele>
        <time>2013-08-10T08:00:40Z</time>
      </trkpt>
      <trkpt lat="43.61306" lon="3.03906">
        <ele>695.4000244</ele>
        <time>2013-08-10T08:00:41Z</time>
      </trkpt>
      <trkpt lat="43.61306" lon="3.03901">
        <ele>695.4000244</ele>
        <time>2013-08-10T08:00:43Z</time>
      </trkpt>
      <trkpt lat="43.61306" lon="3.03897">
        <ele>695.4000244</ele>
        <time>2013-08-10T08:00:45Z</time>
      </trkpt>
      <trkpt lat="43.61305" lon="3.03889">
        <ele>695.7999878</ele>
        <time>2013-08-10T08:00:48Z</time>
      </trkpt>
      <trkpt lat="43.61306" lon="3.03887">
        <ele>696.2000122</ele>
        <time>2013-08-10T08:00:49Z</time>
      </trkpt>
      <trkpt lat="43.61307" lon="3.03884">
        <ele>696.5999756</ele>
        <time>2013-08-10T08:00:50Z</time>
      </trkpt>
      <trkpt lat="43.61308" lon="3.03881">
        <ele>697.2000122</ele>
        <time>2013-08-10T08:00:51Z</time>
      </trkpt>
      <trkpt lat="43.61308" lon="3.03878">
        <ele>697.5999756</ele>
        <time>2013-08-10T08:00:52Z</time>
      </trkpt>
      <trkpt lat="43.61308" lon="3.03875">
        <ele>697.5999756</ele>
        <time>2013-08-10T08:00:53Z</time>
      </trkpt>
      <trkpt lat="43.61309" lon="3.03873">
        <ele>697.5999756</ele>
        <time>2013-08-10T08:00:54Z</time>
      </trkpt>
      <trkpt lat="43.61309" lon="3.0387">
        <ele>698</ele>
        <time>2013-08-10T08:00:55Z</time>
      </trkpt>
      <trkpt lat="43.61309" lon="3.03867">
        <ele>698.4000244</ele>
        <time>2013-08-10T08:00:56Z</time>
      </trkpt>
      <trkpt lat="43.61309" lon="3.03865">
        <ele>698.7999878</ele>
        <time>2013-08-10T08:00:57Z</time>
      </trkpt>
      <trkpt lat="43.6131" lon="3.03862">
        <ele>699.2000122</ele>
        <time>2013-08-10T08:00:58Z</time>
      </trkpt>
      <trkpt lat="43.6131" lon="3.03859">
        <ele>699.5999756</ele>
        <time>2013-08-10T08:00:59Z</time>
      </trkpt>
      <trkpt lat="43.61309" lon="3.03856">
        <ele>699.5999756</ele>
        <time>2013-08-10T08:01:00Z</time>
      </trkpt>
      <trkpt lat="43.6131" lon="3.03848">
        <ele>700.5999756</ele>
        <time>2013-08-10T08:01:03Z</time>
      </trkpt>
      <trkpt lat="43.6131" lon="3.03846">
        <ele>701</ele>
        <time>2013-08-10T08:01:04Z</time>
      </trkpt>
      <trkpt lat="43.6131" lon="3.03843">
        <ele>701.4000244</ele>
        <time>2013-08-10T08:01:05Z</time>
      </trkpt>
      <trkpt lat="43.6131" lon="3.03841">
        <ele>701.7999878</ele>
        <time>2013-08-10T08:01:06Z</time>
      </trkpt>
      <trkpt lat="43.61311" lon="3.03831">
        <ele>701.7999878</ele>
        <time>2013-08-10T08:01:10Z</time>
      </trkpt>
      <trkpt lat="43.61312" lon="3.03818">
        <ele>701.7999878</ele>
        <time>2013-08-10T08:01:15Z</time>
      </trkpt>
      <trkpt lat="43.61313" lon="3.03813">
        <ele>702.2000122</ele>
        <time>2013-08-10T08:01:17Z</time>
      </trkpt>
      <trkpt lat="43.61313" lon="3.0381">
        <ele>702.7999878</ele>
        <time>2013-08-10T08:01:18Z</time>
      </trkpt>
      <trkpt lat="43.61313" lon="3.03808">
        <ele>703.2000122</ele>
        <time>2013-08-10T08:01:19Z</time>
      </trkpt>
      <trkpt lat="43.61313" lon="3.03806">
        <ele>703.5999756</ele>
        <time>2013-08-10T08:01:20Z</time>
      </trkpt>
      <trkpt lat="43.61314" lon="3.03804">
        <ele>704</ele>
        <time>2013-08-10T08:01:21Z</time>
      </trkpt>
      <trkpt lat="43.61314" lon="3.03797">
        <ele>704.4000244</ele>
        <time>2013-08-10T08:01:24Z</time>
      </trkpt>
      <trkpt lat="43.61314" lon="3.03795">
        <ele>704.7999878</ele>
        <time>2013-08-10T08:01:25Z</time>
      </trkpt>
      <trkpt lat="43.61314" lon="3.03793">
        <ele>705.2000122</ele>
        <time>2013-08-10T08:01:26Z</time>
      </trkpt>
      <trkpt lat="43.61314" lon="3.03792">
        <ele>705.5999756</ele>
        <time>2013-08-10T08:01:27Z</time>
      </trkpt>
      <trkpt lat="43.61315" lon="3.0379">
        <ele>706</ele>
        <time>2013-08-10T08:01:28Z</time>
      </trkpt>
      <trkpt lat="43.61319" lon="3.0378">
        <ele>706</ele>
        <time>2013-08-10T08:01:34Z</time>
      </trkpt>
      <trkpt lat="43.6132" lon="3.03776">
        <ele>706.5999756</ele>
        <time>2013-08-10T08:01:36Z</time>
      </trkpt>
      <trkpt lat="43.6132" lon="3.03775">
        <ele>707</ele>
        <time>2013-08-10T08:01:37Z</time>
      </trkpt>
      <trkpt lat="43.61321" lon="3.03774">
        <ele>707.5999756</ele>
        <time>2013-08-10T08:01:38Z</time>
      </trkpt>
      <trkpt lat="43.61321" lon="3.03772">
        <ele>708</ele>
        <time>2013-08-10T08:01:39Z</time>
      </trkpt>
      <trkpt lat="43.61322" lon="3.0377">
        <ele>708.5999756</ele>
        <time>2013-08-10T08:01:40Z</time>
      </trkpt>
      <trkpt lat="43.61324" lon="3.03762">
        <ele>709</ele>
        <time>2013-08-10T08:01:44Z</time>
      </trkpt>
      <trkpt lat="43.61324" lon="3.03761">
        <ele>709.4000244</ele>
        <time>2013-08-10T08:01:45Z</time>
      </trkpt>
      <trkpt lat="43.61324" lon="3.03758">
        <ele>709.7999878</ele>
        <time>2013-08-10T08:01:46Z</time>
      </trkpt>
      <trkpt lat="43.61324" lon="3.03755">
        <ele>710.2000122</ele>
        <time>2013-08-10T08:01:47Z</time>
      </trkpt>
      <trkpt lat="43.61325" lon="3.03753">
        <ele>710.5999756</ele>
        <time>2013-08-10T08:01:48Z</time>
      </trkpt>
      <trkpt lat="43.61324" lon="3.03745">
        <ele>710.5999756</ele>
        <time>2013-08-10T08:01:52Z</time>
      </trkpt>
      <trkpt lat="43.61319" lon="3.03734">
        <ele>710.5999756</ele>
        <time>2013-08-10T08:01:58Z</time>
      </trkpt>
      <trkpt lat="43.61311" lon="3.03725">
        <ele>710.5999756</ele>
        <time>2013-08-10T08:02:05Z</time>
      </trkpt>
      <trkpt lat="43.61307" lon="3.03722">
        <ele>711</ele>
        <time>2013-08-10T08:02:08Z</time>
      </trkpt>
      <trkpt lat="43.61306" lon="3.03722">
        <ele>711.4000244</ele>
        <time>2013-08-10T08:02:09Z</time>
      </trkpt>
      <trkpt lat="43.61305" lon="3.03721">
        <ele>711.7999878</ele>
        <time>2013-08-10T08:02:10Z</time>
      </trkpt>
      <trkpt lat="43.61304" lon="3.03719">
        <ele>712.2000122</ele>
        <time>2013-08-10T08:02:11Z</time>
      </trkpt>
      <trkpt lat="43.61303" lon="3.03718">
        <ele>712.5999756</ele>
        <time>2013-08-10T08:02:12Z</time>
      </trkpt>
      <trkpt lat="43.61295" lon="3.03713">
        <ele>713</ele>
        <time>2013-08-10T08:02:16Z</time>
      </trkpt>
      <trkpt lat="43.61293" lon="3.03712">
        <ele>713.7999878</ele>
        <time>2013-08-10T08:02:17Z</time>
      </trkpt>
      <trkpt lat="43.61292" lon="3.03711">
        <ele>714.2000122</ele>
        <time>2013-08-10T08:02:18Z</time>
      </trkpt>
      <trkpt lat="43.6129" lon="3.03711">
        <ele>714.5999756</ele>
        <time>2013-08-10T08:02:19Z</time>
      </trkpt>
      <trkpt lat="43.61287" lon="3.0371">
        <ele>714.5999756</ele>
        <time>2013-08-10T08:02:20Z</time>
      </trkpt>
      <trkpt lat="43.61273" lon="3.03709">
        <ele>714.5999756</ele>
        <time>2013-08-10T08:02:26Z</time>
      </trkpt>
      <trkpt lat="43.61267" lon="3.03707">
        <ele>715</ele>
        <time>2013-08-10T08:02:29Z</time>
      </trkpt>
      <trkpt lat="43.61265" lon="3.03707">
        <ele>715.4000244</ele>
        <time>2013-08-10T08:02:30Z</time>
      </trkpt>
      <trkpt lat="43.61263" lon="3.03708">
        <ele>715.7999878</ele>
        <time>2013-08-10T08:02:31Z</time>
      </trkpt>
      <trkpt lat="43.61261" lon="3.03708">
        <ele>716.2000122</ele>
        <time>2013-08-10T08:02:32Z</time>
      </trkpt>
      <trkpt lat="43.61259" lon="3.03709">
        <ele>716.5999756</ele>
        <time>2013-08-10T08:02:33Z</time>
      </trkpt>
      <trkpt lat="43.6124" lon="3.03708">
        <ele>716.5999756</ele>
        <time>2013-08-10T08:02:41Z</time>
      </trkpt>
      <trkpt lat="43.61236" lon="3.03707">
        <ele>717</ele>
        <time>2013-08-10T08:02:43Z</time>
      </trkpt>
      <trkpt lat="43.61234" lon="3.03707">
        <ele>717.4000244</ele>
        <time>2013-08-10T08:02:44Z</time>
      </trkpt>
      <trkpt lat="43.61232" lon="3.03707">
        <ele>717.7999878</ele>
        <time>2013-08-10T08:02:45Z</time>
      </trkpt>
      <trkpt lat="43.61229" lon="3.03707">
        <ele>718.2000122</ele>
        <time>2013-08-10T08:02:46Z</time>
      </trkpt>
      <trkpt lat="43.61227" lon="3.03707">
        <ele>718.5999756</ele>
        <time>2013-08-10T08:02:47Z</time>
      </trkpt>
      <trkpt lat="43.61224" lon="3.03706">
        <ele>718.5999756</ele>
        <time>2013-08-10T08:02:48Z</time>
      </trkpt>
      <trkpt lat="43.61209" lon="3.03696">
        <ele>718.5999756</ele>
        <time>2013-08-10T08:02:55Z</time>
      </trkpt>
      <trkpt lat="43.61198" lon="3.03687">
        <ele>718.5999756</ele>
        <time>2013-08-10T08:03:01Z</time>
      </trkpt>
      <trkpt lat="43.61194" lon="3.03685">
        <ele>719</ele>
        <time>2013-08-10T08:03:03Z</time>
      </trkpt>
      <trkpt lat="43.61191" lon="3.03684">
        <ele>719.4000244</ele>
        <time>2013-08-10T08:03:04Z</time>
      </trkpt>
      <trkpt lat="43.61189" lon="3.03682">
        <ele>719.7999878</ele>
        <time>2013-08-10T08:03:05Z</time>
      </trkpt>
      <trkpt lat="43.61186" lon="3.0368">
        <ele>720.2000122</ele>
        <time>2013-08-10T08:03:06Z</time>
      </trkpt>
      <trkpt lat="43.61184" lon="3.03678">
        <ele>720.7999878</ele>
        <time>2013-08-10T08:03:07Z</time>
      </trkpt>
      <trkpt lat="43.61182" lon="3.03676">
        <ele>720.7999878</ele>
        <time>2013-08-10T08:03:08Z</time>
      </trkpt>
      <trkpt lat="43.61171" lon="3.03667">
        <ele>720.7999878</ele>
        <time>2013-08-10T08:03:14Z</time>
      </trkpt>
      <trkpt lat="43.61167" lon="3.03664">
        <ele>721.2000122</ele>
        <time>2013-08-10T08:03:16Z</time>
      </trkpt>
      <trkpt lat="43.61164" lon="3.03662">
        <ele>721.5999756</ele>
        <time>2013-08-10T08:03:17Z</time>
      </trkpt>
      <trkpt lat="43.61163" lon="3.03656">
        <ele>722</ele>
        <time>2013-08-10T08:03:18Z</time>
      </trkpt>
      <trkpt lat="43.6116" lon="3.0365">
        <ele>722.4000244</ele>
        <time>2013-08-10T08:03:19Z</time>
      </trkpt>
      <trkpt lat="43.61158" lon="3.03645">
        <ele>722.7999878</ele>
        <time>2013-08-10T08:03:20Z</time>
      </trkpt>
      <trkpt lat="43.61151" lon="3.03631">
        <ele>722.7999878</ele>
        <time>2013-08-10T08:03:24Z</time>
      </trkpt>
      <trkpt lat="43.61146" lon="3.03621">
        <ele>723.2000122</ele>
        <time>2013-08-10T08:03:28Z</time>
      </trkpt>
      <trkpt lat="43.61146" lon="3.03619">
        <ele>723.5999756</ele>
        <time>2013-08-10T08:03:29Z</time>
      </trkpt>
      <trkpt lat="43.61145" lon="3.03617">
        <ele>724</ele>
        <time>2013-08-10T08:03:30Z</time>
      </trkpt>
      <trkpt lat="43.61144" lon="3.03616">
        <ele>724.7999878</ele>
        <time>2013-08-10T08:03:31Z</time>
      </trkpt>
      <trkpt lat="43.61142" lon="3.03614">
        <ele>724.7999878</ele>
        <time>2013-08-10T08:03:32Z</time>
      </trkpt>
      <trkpt lat="43.61137" lon="3.03599">
        <ele>725.4000244</ele>
        <time>2013-08-10T08:03:37Z</time>
      </trkpt>
      <trkpt lat="43.61136" lon="3.03597">
        <ele>725.7999878</ele>
        <time>2013-08-10T08:03:38Z</time>
      </trkpt>
      <trkpt lat="43.61136" lon="3.03594">
        <ele>726.2000122</ele>
        <time>2013-08-10T08:03:39Z</time>
      </trkpt>
      <trkpt lat="43.61135" lon="3.03592">
        <ele>726.5999756</ele>
        <time>2013-08-10T08:03:40Z</time>
      </trkpt>
      <trkpt lat="43.61135" lon="3.03589">
        <ele>727.2000122</ele>
        <time>2013-08-10T08:03:41Z</time>
      </trkpt>
      <trkpt lat="43.61133" lon="3.03583">
        <ele>727.5999756</ele>
        <time>2013-08-10T08:03:43Z</time>
      </trkpt>
      <trkpt lat="43.61133" lon="3.03581">
        <ele>728</ele>
        <time>2013-08-10T08:03:44Z</time>
      </trkpt>
      <trkpt lat="43.61133" lon="3.03578">
        <ele>728.4000244</ele>
        <time>2013-08-10T08:03:45Z</time>
      </trkpt>
      <trkpt lat="43.61133" lon="3.03575">
        <ele>728.7999878</ele>
        <time>2013-08-10T08:03:46Z</time>
      </trkpt>
      <trkpt lat="43.61133" lon="3.03573">
        <ele>729.4000244</ele>
        <time>2013-08-10T08:03:47Z</time>
      </trkpt>
      <trkpt lat="43.61136" lon="3.03557">
        <ele>729.7999878</ele>
        <time>2013-08-10T08:03:53Z</time>
      </trkpt>
      <trkpt lat="43.61137" lon="3.03554">
        <ele>730.4000244</ele>
        <time>2013-08-10T08:03:54Z</time>
      </trkpt>
      <trkpt lat="43.61138" lon="3.03552">
        <ele>730.7999878</ele>
        <time>2013-08-10T08:03:55Z</time>
      </trkpt>
      <trkpt lat="43.61139" lon="3.03549">
        <ele>731.7999878</ele>
        <time>2013-08-10T08:03:56Z</time>
      </trkpt>
      <trkpt lat="43.61142" lon="3.03539">
        <ele>732.2000122</ele>
        <time>2013-08-10T08:04:00Z</time>
      </trkpt>
      <trkpt lat="43.61143" lon="3.03537">
        <ele>732.7999878</ele>
        <time>2013-08-10T08:04:01Z</time>
      </trkpt>
      <trkpt lat="43.61144" lon="3.03535">
        <ele>733.2000122</ele>
        <time>2013-08-10T08:04:02Z</time>
      </trkpt>
      <trkpt lat="43.61145" lon="3.03532">
        <ele>733.5999756</ele>
        <time>2013-08-10T08:04:03Z</time>
      </trkpt>
      <trkpt lat="43.61145" lon="3.03529">
        <ele>734</ele>
        <time>2013-08-10T08:04:04Z</time>
      </trkpt>
      <trkpt lat="43.61148" lon="3.0352">
        <ele>734</ele>
        <time>2013-08-10T08:04:08Z</time>
      </trkpt>
      <trkpt lat="43.61149" lon="3.03504">
        <ele>734.5999756</ele>
        <time>2013-08-10T08:04:14Z</time>
      </trkpt>
      <trkpt lat="43.61149" lon="3.03502">
        <ele>735</ele>
        <time>2013-08-10T08:04:15Z</time>
      </trkpt>
      <trkpt lat="43.61149" lon="3.03499">
        <ele>735.5999756</ele>
        <time>2013-08-10T08:04:16Z</time>
      </trkpt>
      <trkpt lat="43.61149" lon="3.03497">
        <ele>736</ele>
        <time>2013-08-10T08:04:17Z</time>
      </trkpt>
      <trkpt lat="43.61149" lon="3.03495">
        <ele>736.4000244</ele>
        <time>2013-08-10T08:04:18Z</time>
      </trkpt>
      <trkpt lat="43.61147" lon="3.03482">
        <ele>737</ele>
        <time>2013-08-10T08:04:23Z</time>
      </trkpt>
      <trkpt lat="43.61146" lon="3.03479">
        <ele>737.4000244</ele>
        <time>2013-08-10T08:04:24Z</time>
      </trkpt>
      <trkpt lat="43.61146" lon="3.03477">
        <ele>737.7999878</ele>
        <time>2013-08-10T08:04:25Z</time>
      </trkpt>
      <trkpt lat="43.61145" lon="3.03474">
        <ele>738.2000122</ele>
        <time>2013-08-10T08:04:26Z</time>
      </trkpt>
      <trkpt lat="43.61145" lon="3.0347">
        <ele>738.5999756</ele>
        <time>2013-08-10T08:04:27Z</time>
      </trkpt>
      <trkpt lat="43.61145" lon="3.03468">
        <ele>738.5999756</ele>
        <time>2013-08-10T08:04:28Z</time>
      </trkpt>
      <trkpt lat="43.61144" lon="3.0346">
        <ele>739</ele>
        <time>2013-08-10T08:04:31Z</time>
      </trkpt>
      <trkpt lat="43.61143" lon="3.03457">
        <ele>739.4000244</ele>
        <time>2013-08-10T08:04:32Z</time>
      </trkpt>
      <trkpt lat="43.61143" lon="3.03454">
        <ele>739.7999878</ele>
        <time>2013-08-10T08:04:33Z</time>
      </trkpt>
      <trkpt lat="43.61143" lon="3.0345">
        <ele>740.2000122</ele>
        <time>2013-08-10T08:04:34Z</time>
      </trkpt>
      <trkpt lat="43.61143" lon="3.03446">
        <ele>740.5999756</ele>
        <time>2013-08-10T08:04:35Z</time>
      </trkpt>
      <trkpt lat="43.61144" lon="3.03443">
        <ele>740.5999756</ele>
        <time>2013-08-10T08:04:36Z</time>
      </trkpt>
      <trkpt lat="43.61148" lon="3.03434">
        <ele>741</ele>
        <time>2013-08-10T08:04:39Z</time>
      </trkpt>
      <trkpt lat="43.6115" lon="3.03431">
        <ele>741.4000244</ele>
        <time>2013-08-10T08:04:40Z</time>
      </trkpt>
      <trkpt lat="43.61152" lon="3.03429">
        <ele>742</ele>
        <time>2013-08-10T08:04:41Z</time>
      </trkpt>
      <trkpt lat="43.61154" lon="3.03427">
        <ele>742.4000244</ele>
        <time>2013-08-10T08:04:42Z</time>
      </trkpt>
      <trkpt lat="43.61156" lon="3.03426">
        <ele>742.7999878</ele>
        <time>2013-08-10T08:04:43Z</time>
      </trkpt>
      <trkpt lat="43.61164" lon="3.03419">
        <ele>742.7999878</ele>
        <time>2013-08-10T08:04:48Z</time>
      </trkpt>
      <trkpt lat="43.61174" lon="3.03409">
        <ele>743.2000122</ele>
        <time>2013-08-10T08:04:54Z</time>
      </trkpt>
      <trkpt lat="43.61176" lon="3.03407">
        <ele>743.5999756</ele>
        <time>2013-08-10T08:04:55Z</time>
      </trkpt>
      <trkpt lat="43.61178" lon="3.03405">
        <ele>744</ele>
        <time>2013-08-10T08:04:56Z</time>
      </trkpt>
      <trkpt lat="43.61179" lon="3.03404">
        <ele>744.4000244</ele>
        <time>2013-08-10T08:04:57Z</time>
      </trkpt>
      <trkpt lat="43.61181" lon="3.03402">
        <ele>744.7999878</ele>
        <time>2013-08-10T08:04:58Z</time>
      </trkpt>
      <trkpt lat="43.61185" lon="3.03396">
        <ele>745.2000122</ele>
        <time>2013-08-10T08:05:01Z</time>
      </trkpt>
      <trkpt lat="43.61186" lon="3.03394">
        <ele>745.5999756</ele>
        <time>2013-08-10T08:05:02Z</time>
      </trkpt>
      <trkpt lat="43.61187" lon="3.03391">
        <ele>746</ele>
        <time>2013-08-10T08:05:03Z</time>
      </trkpt>
      <trkpt lat="43.61188" lon="3.03388">
        <ele>746.4000244</ele>
        <time>2013-08-10T08:05:04Z</time>
      </trkpt>
      <trkpt lat="43.61189" lon="3.03386">
        <ele>746.7999878</ele>
        <time>2013-08-10T08:05:05Z</time>
      </trkpt>
      <trkpt lat="43.61191" lon="3.03377">
        <ele>746.7999878</ele>
        <time>2013-08-10T08:05:08Z</time>
      </trkpt>
      <trkpt lat="43.61195" lon="3.03361">
        <ele>746.7999878</ele>
        <time>2013-08-10T08:05:14Z</time>
      </trkpt>
      <trkpt lat="43.61196" lon="3.03356">
        <ele>747.4000244</ele>
        <time>2013-08-10T08:05:16Z</time>
      </trkpt>
      <trkpt lat="43.61197" lon="3.03354">
        <ele>747.7999878</ele>
        <time>2013-08-10T08:05:17Z</time>
      </trkpt>
      <trkpt lat="43.61198" lon="3.03352">
        <ele>748.2000122</ele>
        <time>2013-08-10T08:05:18Z</time>
      </trkpt>
      <trkpt lat="43.61199" lon="3.03349">
        <ele>748.5999756</ele>
        <time>2013-08-10T08:05:19Z</time>
      </trkpt>
      <trkpt lat="43.61199" lon="3.03347">
        <ele>749.2000122</ele>
        <time>2013-08-10T08:05:20Z</time>
      </trkpt>
      <trkpt lat="43.612" lon="3.03344">
        <ele>749.2000122</ele>
        <time>2013-08-10T08:05:21Z</time>
      </trkpt>
      <trkpt lat="43.61205" lon="3.03328">
        <ele>749.2000122</ele>
        <time>2013-08-10T08:05:27Z</time>
      </trkpt>
      <trkpt lat="43.61209" lon="3.03309">
        <ele>749.5999756</ele>
        <time>2013-08-10T08:05:34Z</time>
      </trkpt>
      <trkpt lat="43.61209" lon="3.03306">
        <ele>750.5999756</ele>
        <time>2013-08-10T08:05:35Z</time>
      </trkpt>
      <trkpt lat="43.6121" lon="3.03303">
        <ele>751.2000122</ele>
        <time>2013-08-10T08:05:36Z</time>
      </trkpt>
      <trkpt lat="43.6121" lon="3.03299">
        <ele>751.5999756</ele>
        <time>2013-08-10T08:05:37Z</time>
      </trkpt>
      <trkpt lat="43.61209" lon="3.03292">
        <ele>751.5999756</ele>
        <time>2013-08-10T08:05:39Z</time>
      </trkpt>
      <trkpt lat="43.61207" lon="3.03289">
        <ele>751.5999756</ele>
        <time>2013-08-10T08:05:40Z</time>
      </trkpt>
      <trkpt lat="43.61194" lon="3.03278">
        <ele>751.5999756</ele>
        <time>2013-08-10T08:05:45Z</time>
      </trkpt>
      <trkpt lat="43.61174" lon="3.03271">
        <ele>751.5999756</ele>
        <time>2013-08-10T08:05:52Z</time>
      </trkpt>
      <trkpt lat="43.61159" lon="3.03268">
        <ele>751.5999756</ele>
        <time>2013-08-10T08:05:58Z</time>
      </trkpt>
      <trkpt lat="43.61141" lon="3.0326">
        <ele>751.5999756</ele>
        <time>2013-08-10T08:06:04Z</time>
      </trkpt>
      <trkpt lat="43.61125" lon="3.03251">
        <ele>751.5999756</ele>
        <time>2013-08-10T08:06:10Z</time>
      </trkpt>
      <trkpt lat="43.61108" lon="3.03241">
        <ele>751.5999756</ele>
        <time>2013-08-10T08:06:17Z</time>
      </trkpt>
      <trkpt lat="43.61092" lon="3.03233">
        <ele>752</ele>
        <time>2013-08-10T08:06:23Z</time>
      </trkpt>
      <trkpt lat="43.61089" lon="3.03232">
        <ele>752.4000244</ele>
        <time>2013-08-10T08:06:24Z</time>
      </trkpt>
      <trkpt lat="43.61086" lon="3.03231">
        <ele>753.4000244</ele>
        <time>2013-08-10T08:06:25Z</time>
      </trkpt>
      <trkpt lat="43.61084" lon="3.0323">
        <ele>753.7999878</ele>
        <time>2013-08-10T08:06:26Z</time>
      </trkpt>
      <trkpt lat="43.61076" lon="3.03224">
        <ele>753.7999878</ele>
        <time>2013-08-10T08:06:29Z</time>
      </trkpt>
      <trkpt lat="43.61069" lon="3.03221">
        <ele>754.2000122</ele>
        <time>2013-08-10T08:06:32Z</time>
      </trkpt>
      <trkpt lat="43.61066" lon="3.0322">
        <ele>754.5999756</ele>
        <time>2013-08-10T08:06:33Z</time>
      </trkpt>
      <trkpt lat="43.61064" lon="3.03219">
        <ele>755</ele>
        <time>2013-08-10T08:06:34Z</time>
      </trkpt>
      <trkpt lat="43.61062" lon="3.03219">
        <ele>755.4000244</ele>
        <time>2013-08-10T08:06:35Z</time>
      </trkpt>
      <trkpt lat="43.61059" lon="3.03218">
        <ele>755.7999878</ele>
        <time>2013-08-10T08:06:36Z</time>
      </trkpt>
      <trkpt lat="43.61057" lon="3.03218">
        <ele>756.2000122</ele>
        <time>2013-08-10T08:06:37Z</time>
      </trkpt>
      <trkpt lat="43.61055" lon="3.03218">
        <ele>756.5999756</ele>
        <time>2013-08-10T08:06:38Z</time>
      </trkpt>
      <trkpt lat="43.61052" lon="3.03218">
        <ele>757</ele>
        <time>2013-08-10T08:06:39Z</time>
      </trkpt>
      <trkpt lat="43.6105" lon="3.03218">
        <ele>757.4000244</ele>
        <time>2013-08-10T08:06:40Z</time>
      </trkpt>
      <trkpt lat="43.61048" lon="3.03218">
        <ele>757.7999878</ele>
        <time>2013-08-10T08:06:41Z</time>
      </trkpt>
      <trkpt lat="43.61045" lon="3.03216">
        <ele>757.7999878</ele>
        <time>2013-08-10T08:06:43Z</time>
      </trkpt>
      <trkpt lat="43.6104" lon="3.03212">
        <ele>757.7999878</ele>
        <time>2013-08-10T08:06:46Z</time>
      </trkpt>
      <trkpt lat="43.61038" lon="3.03211">
        <ele>758.4000244</ele>
        <time>2013-08-10T08:06:47Z</time>
      </trkpt>
      <trkpt lat="43.61037" lon="3.0321">
        <ele>758.7999878</ele>
        <time>2013-08-10T08:06:48Z</time>
      </trkpt>
      <trkpt lat="43.61035" lon="3.03209">
        <ele>759.5999756</ele>
        <time>2013-08-10T08:06:49Z</time>
      </trkpt>
      <trkpt lat="43.61034" lon="3.03209">
        <ele>760</ele>
        <time>2013-08-10T08:06:50Z</time>
      </trkpt>
      <trkpt lat="43.61029" lon="3.03206">
        <ele>760.5999756</ele>
        <time>2013-08-10T08:06:53Z</time>
      </trkpt>
      <trkpt lat="43.61027" lon="3.03205">
        <ele>761</ele>
        <time>2013-08-10T08:06:54Z</time>
      </trkpt>
      <trkpt lat="43.61025" lon="3.03203">
        <ele>761.4000244</ele>
        <time>2013-08-10T08:06:55Z</time>
      </trkpt>
      <trkpt lat="43.61023" lon="3.03202">
        <ele>761.7999878</ele>
        <time>2013-08-10T08:06:56Z</time>
      </trkpt>
      <trkpt lat="43.61022" lon="3.03201">
        <ele>762.2000122</ele>
        <time>2013-08-10T08:06:57Z</time>
      </trkpt>
      <trkpt lat="43.61014" lon="3.03198">
        <ele>762.2000122</ele>
        <time>2013-08-10T08:07:02Z</time>
      </trkpt>
      <trkpt lat="43.61013" lon="3.03197">
        <ele>762.2000122</ele>
        <time>2013-08-10T08:07:03Z</time>
      </trkpt>
      <trkpt lat="43.61012" lon="3.03197">
        <ele>762.2000122</ele>
        <time>2013-08-10T08:07:04Z</time>
      </trkpt>
      <trkpt lat="43.61005" lon="3.03195">
        <ele>762.2000122</ele>
        <time>2013-08-10T08:07:08Z</time>
      </trkpt>
      <trkpt lat="43.60996" lon="3.03193">
        <ele>762.2000122</ele>
        <time>2013-08-10T08:07:14Z</time>
      </trkpt>
      <trkpt lat="43.60994" lon="3.03193">
        <ele>762.2000122</ele>
        <time>2013-08-10T08:07:15Z</time>
      </trkpt>
      <trkpt lat="43.60993" lon="3.03193">
        <ele>762.5999756</ele>
        <time>2013-08-10T08:07:16Z</time>
      </trkpt>
      <trkpt lat="43.60991" lon="3.03192">
        <ele>763</ele>
        <time>2013-08-10T08:07:17Z</time>
      </trkpt>
      <trkpt lat="43.6099" lon="3.03191">
        <ele>763.4000244</ele>
        <time>2013-08-10T08:07:18Z</time>
      </trkpt>
      <trkpt lat="43.60989" lon="3.0319">
        <ele>763.7999878</ele>
        <time>2013-08-10T08:07:19Z</time>
      </trkpt>
      <trkpt lat="43.60988" lon="3.03189">
        <ele>764.2000122</ele>
        <time>2013-08-10T08:07:20Z</time>
      </trkpt>
      <trkpt lat="43.60987" lon="3.03189">
        <ele>764.2000122</ele>
        <time>2013-08-10T08:07:21Z</time>
      </trkpt>
      <trkpt lat="43.6098" lon="3.03188">
        <ele>764.7999878</ele>
        <time>2013-08-10T08:07:25Z</time>
      </trkpt>
      <trkpt lat="43.60978" lon="3.03188">
        <ele>765.2000122</ele>
        <time>2013-08-10T08:07:26Z</time>
      </trkpt>
      <trkpt lat="43.60977" lon="3.03188">
        <ele>765.5999756</ele>
        <time>2013-08-10T08:07:27Z</time>
      </trkpt>
      <trkpt lat="43.60975" lon="3.03188">
        <ele>766</ele>
        <time>2013-08-10T08:07:28Z</time>
      </trkpt>
      <trkpt lat="43.60974" lon="3.03187">
        <ele>766.4000244</ele>
        <time>2013-08-10T08:07:29Z</time>
      </trkpt>
      <trkpt lat="43.60967" lon="3.03184">
        <ele>766.4000244</ele>
        <time>2013-08-10T08:07:33Z</time>
      </trkpt>
      <trkpt lat="43.60965" lon="3.03182">
        <ele>766.4000244</ele>
        <time>2013-08-10T08:07:34Z</time>
      </trkpt>
      <trkpt lat="43.60954" lon="3.03177">
        <ele>766.4000244</ele>
        <time>2013-08-10T08:07:40Z</time>
      </trkpt>
      <trkpt lat="43.6095" lon="3.03176">
        <ele>766.4000244</ele>
        <time>2013-08-10T08:07:43Z</time>
      </trkpt>
      <trkpt lat="43.60943" lon="3.03177">
        <ele>766.4000244</ele>
        <time>2013-08-10T08:07:47Z</time>
      </trkpt>
      <trkpt lat="43.60937" lon="3.0318">
        <ele>766.4000244</ele>
        <time>2013-08-10T08:07:51Z</time>
      </trkpt>
      <trkpt lat="43.60934" lon="3.03177">
        <ele>766.7999878</ele>
        <time>2013-08-10T08:07:52Z</time>
      </trkpt>
      <trkpt lat="43.60932" lon="3.03175">
        <ele>767.4000244</ele>
        <time>2013-08-10T08:07:53Z</time>
      </trkpt>
      <trkpt lat="43.6093" lon="3.03174">
        <ele>767.7999878</ele>
        <time>2013-08-10T08:07:54Z</time>
      </trkpt>
      <trkpt lat="43.60928" lon="3.03174">
        <ele>768.2000122</ele>
        <time>2013-08-10T08:07:55Z</time>
      </trkpt>
      <trkpt lat="43.60927" lon="3.03173">
        <ele>768.5999756</ele>
        <time>2013-08-10T08:07:56Z</time>
      </trkpt>
      <trkpt lat="43.60915" lon="3.03174">
        <ele>768.5999756</ele>
        <time>2013-08-10T08:08:02Z</time>
      </trkpt>
      <trkpt lat="43.60906" lon="3.03168">
        <ele>769</ele>
        <time>2013-08-10T08:08:07Z</time>
      </trkpt>
      <trkpt lat="43.60904" lon="3.03168">
        <ele>769.4000244</ele>
        <time>2013-08-10T08:08:08Z</time>
      </trkpt>
      <trkpt lat="43.60902" lon="3.03166">
        <ele>769.7999878</ele>
        <time>2013-08-10T08:08:09Z</time>
      </trkpt>
      <trkpt lat="43.60899" lon="3.03165">
        <ele>770.2000122</ele>
        <time>2013-08-10T08:08:10Z</time>
      </trkpt>
      <trkpt lat="43.60897" lon="3.03163">
        <ele>770.5999756</ele>
        <time>2013-08-10T08:08:11Z</time>
      </trkpt>
      <trkpt lat="43.60893" lon="3.0316">
        <ele>771.2000122</ele>
        <time>2013-08-10T08:08:13Z</time>
      </trkpt>
      <trkpt lat="43.60892" lon="3.03159">
        <ele>771.5999756</ele>
        <time>2013-08-10T08:08:14Z</time>
      </trkpt>
      <trkpt lat="43.6089" lon="3.03158">
        <ele>772</ele>
        <time>2013-08-10T08:08:15Z</time>
      </trkpt>
      <trkpt lat="43.60887" lon="3.03157">
        <ele>772.4000244</ele>
        <time>2013-08-10T08:08:16Z</time>
      </trkpt>
      <trkpt lat="43.60884" lon="3.03157">
        <ele>772.7999878</ele>
        <time>2013-08-10T08:08:17Z</time>
      </trkpt>
      <trkpt lat="43.60876" lon="3.03154">
        <ele>772.7999878</ele>
        <time>2013-08-10T08:08:20Z</time>
      </trkpt>
      <trkpt lat="43.60856" lon="3.03148">
        <ele>772.7999878</ele>
        <time>2013-08-10T08:08:27Z</time>
      </trkpt>
      <trkpt lat="43.6084" lon="3.0314">
        <ele>772.7999878</ele>
        <time>2013-08-10T08:08:32Z</time>
      </trkpt>
      <trkpt lat="43.60837" lon="3.03139">
        <ele>772.7999878</ele>
        <time>2013-08-10T08:08:33Z</time>
      </trkpt>
      <trkpt lat="43.60819" lon="3.03128">
        <ele>772.7999878</ele>
        <time>2013-08-10T08:08:38Z</time>
      </trkpt>
      <trkpt lat="43.60815" lon="3.03127">
        <ele>772.7999878</ele>
        <time>2013-08-10T08:08:39Z</time>
      </trkpt>
      <trkpt lat="43.60799" lon="3.03123">
        <ele>772.7999878</ele>
        <time>2013-08-10T08:08:43Z</time>
      </trkpt>
      <trkpt lat="43.60791" lon="3.03121">
        <ele>772.7999878</ele>
        <time>2013-08-10T08:08:45Z</time>
      </trkpt>
      <trkpt lat="43.60776" lon="3.03115">
        <ele>772.7999878</ele>
        <time>2013-08-10T08:08:49Z</time>
      </trkpt>
      <trkpt lat="43.60774" lon="3.03113">
        <ele>772.7999878</ele>
        <time>2013-08-10T08:08:50Z</time>
      </trkpt>
      <trkpt lat="43.60769" lon="3.03108">
        <ele>772.7999878</ele>
        <time>2013-08-10T08:08:55Z</time>
      </trkpt>
      <trkpt lat="43.60764" lon="3.03105">
        <ele>772.7999878</ele>
        <time>2013-08-10T08:08:59Z</time>
      </trkpt>
      <trkpt lat="43.6076" lon="3.03104">
        <ele>772.7999878</ele>
        <time>2013-08-10T08:09:01Z</time>
      </trkpt>
      <trkpt lat="43.60748" lon="3.03107">
        <ele>772.7999878</ele>
        <time>2013-08-10T08:09:06Z</time>
      </trkpt>
      <trkpt lat="43.60739" lon="3.03104">
        <ele>772.7999878</ele>
        <time>2013-08-10T08:09:09Z</time>
      </trkpt>
      <trkpt lat="43.60735" lon="3.031">
        <ele>772.7999878</ele>
        <time>2013-08-10T08:09:11Z</time>
      </trkpt>
      <trkpt lat="43.60724" lon="3.03091">
        <ele>772.4000244</ele>
        <time>2013-08-10T08:09:14Z</time>
      </trkpt>
      <trkpt lat="43.60721" lon="3.03088">
        <ele>772</ele>
        <time>2013-08-10T08:09:15Z</time>
      </trkpt>
      <trkpt lat="43.60718" lon="3.03086">
        <ele>771.4000244</ele>
        <time>2013-08-10T08:09:16Z</time>
      </trkpt>
      <trkpt lat="43.60716" lon="3.03083">
        <ele>770.5999756</ele>
        <time>2013-08-10T08:09:17Z</time>
      </trkpt>
      <trkpt lat="43.60709" lon="3.03072">
        <ele>770.5999756</ele>
        <time>2013-08-10T08:09:21Z</time>
      </trkpt>
      <trkpt lat="43.60703" lon="3.0306">
        <ele>770.5999756</ele>
        <time>2013-08-10T08:09:25Z</time>
      </trkpt>
      <trkpt lat="43.60699" lon="3.03055">
        <ele>770.5999756</ele>
        <time>2013-08-10T08:09:28Z</time>
      </trkpt>
      <trkpt lat="43.60687" lon="3.03049">
        <ele>770.5999756</ele>
        <time>2013-08-10T08:09:33Z</time>
      </trkpt>
      <trkpt lat="43.60678" lon="3.03046">
        <ele>770.5999756</ele>
        <time>2013-08-10T08:09:35Z</time>
      </trkpt>
      <trkpt lat="43.6067" lon="3.03041">
        <ele>770.5999756</ele>
        <time>2013-08-10T08:09:37Z</time>
      </trkpt>
      <trkpt lat="43.60664" lon="3.03036">
        <ele>770.2000122</ele>
        <time>2013-08-10T08:09:39Z</time>
      </trkpt>
      <trkpt lat="43.60661" lon="3.03034">
        <ele>769.7999878</ele>
        <time>2013-08-10T08:09:40Z</time>
      </trkpt>
      <trkpt lat="43.60659" lon="3.03032">
        <ele>769.4000244</ele>
        <time>2013-08-10T08:09:41Z</time>
      </trkpt>
      <trkpt lat="43.60657" lon="3.03031">
        <ele>768.5999756</ele>
        <time>2013-08-10T08:09:42Z</time>
      </trkpt>
      <trkpt lat="43.60639" lon="3.03023">
        <ele>768.5999756</ele>
        <time>2013-08-10T08:09:49Z</time>
      </trkpt>
      <trkpt lat="43.60629" lon="3.03016">
        <ele>768.5999756</ele>
        <time>2013-08-10T08:09:53Z</time>
      </trkpt>
      <trkpt lat="43.60616" lon="3.03004">
        <ele>768.5999756</ele>
        <time>2013-08-10T08:09:59Z</time>
      </trkpt>
      <trkpt lat="43.60613" lon="3.03001">
        <ele>768.5999756</ele>
        <time>2013-08-10T08:10:04Z</time>
      </trkpt>
      <trkpt lat="43.60613" lon="3.03001">
        <ele>768.5999756</ele>
        <time>2013-08-10T08:10:05Z</time>
      </trkpt>
      <trkpt lat="43.60613" lon="3.03001">
        <ele>768.5999756</ele>
        <time>2013-08-10T08:10:13Z</time>
      </trkpt>
      <trkpt lat="43.60616" lon="3.03004">
        <ele>768.5999756</ele>
        <time>2013-08-10T08:10:16Z</time>
      </trkpt>
      <trkpt lat="43.60616" lon="3.03005">
        <ele>768.5999756</ele>
        <time>2013-08-10T08:10:17Z</time>
      </trkpt>
      <trkpt lat="43.60616" lon="3.03005">
        <ele>768.5999756</ele>
        <time>2013-08-10T08:10:20Z</time>
      </trkpt>
      <trkpt lat="43.60621" lon="3.0301">
        <ele>768.5999756</ele>
        <time>2013-08-10T08:10:24Z</time>
      </trkpt>
      <trkpt lat="43.60633" lon="3.03022">
        <ele>768.5999756</ele>
        <time>2013-08-10T08:10:30Z</time>
      </trkpt>
      <trkpt lat="43.60644" lon="3.03028">
        <ele>768.5999756</ele>
        <time>2013-08-10T08:10:35Z</time>
      </trkpt>
      <trkpt lat="43.60655" lon="3.03033">
        <ele>768.5999756</ele>
        <time>2013-08-10T08:10:40Z</time>
      </trkpt>
      <trkpt lat="43.60669" lon="3.03044">
        <ele>768.5999756</ele>
        <time>2013-08-10T08:10:45Z</time>
      </trkpt>
      <trkpt lat="43.60683" lon="3.03049">
        <ele>768.5999756</ele>
        <time>2013-08-10T08:10:51Z</time>
      </trkpt>
      <trkpt lat="43.60687" lon="3.0305">
        <ele>768.5999756</ele>
        <time>2013-08-10T08:10:53Z</time>
      </trkpt>
      <trkpt lat="43.60692" lon="3.03051">
        <ele>769</ele>
        <time>2013-08-10T08:10:55Z</time>
      </trkpt>
      <trkpt lat="43.60693" lon="3.03052">
        <ele>769.7999878</ele>
        <time>2013-08-10T08:10:56Z</time>
      </trkpt>
      <trkpt lat="43.60694" lon="3.03052">
        <ele>770.4000244</ele>
        <time>2013-08-10T08:10:57Z</time>
      </trkpt>
      <trkpt lat="43.60694" lon="3.03052">
        <ele>770.7999878</ele>
        <time>2013-08-10T08:10:58Z</time>
      </trkpt>
      <trkpt lat="43.60694" lon="3.03052">
        <ele>770.7999878</ele>
        <time>2013-08-10T08:10:59Z</time>
      </trkpt>
      <trkpt lat="43.607" lon="3.03059">
        <ele>770.7999878</ele>
        <time>2013-08-10T08:14:38Z</time>
      </trkpt>
      <trkpt lat="43.60703" lon="3.03063">
        <ele>770.7999878</ele>
        <time>2013-08-10T08:14:39Z</time>
      </trkpt>
      <trkpt lat="43.60713" lon="3.03079">
        <ele>770.7999878</ele>
        <time>2013-08-10T08:14:43Z</time>
      </trkpt>
      <trkpt lat="43.60725" lon="3.03093">
        <ele>770.7999878</ele>
        <time>2013-08-10T08:14:48Z</time>
      </trkpt>
      <trkpt lat="43.60727" lon="3.03096">
        <ele>770.7999878</ele>
        <time>2013-08-10T08:14:49Z</time>
      </trkpt>
      <trkpt lat="43.60734" lon="3.03101">
        <ele>770.7999878</ele>
        <time>2013-08-10T08:14:52Z</time>
      </trkpt>
      <trkpt lat="43.60738" lon="3.03103">
        <ele>770.7999878</ele>
        <time>2013-08-10T08:14:54Z</time>
      </trkpt>
      <trkpt lat="43.6074" lon="3.03106">
        <ele>770.7999878</ele>
        <time>2013-08-10T08:14:57Z</time>
      </trkpt>
      <trkpt lat="43.6074" lon="3.03106">
        <ele>770.7999878</ele>
        <time>2013-08-10T08:14:59Z</time>
      </trkpt>
      <trkpt lat="43.6074" lon="3.03106">
        <ele>770.7999878</ele>
        <time>2013-08-10T08:15:00Z</time>
      </trkpt>
      <trkpt lat="43.6074" lon="3.03106">
        <ele>770.7999878</ele>
        <time>2013-08-10T08:15:01Z</time>
      </trkpt>
      <trkpt lat="43.60739" lon="3.03108">
        <ele>770.7999878</ele>
        <time>2013-08-10T08:15:02Z</time>
      </trkpt>
      <trkpt lat="43.60735" lon="3.03112">
        <ele>770.7999878</ele>
        <time>2013-08-10T08:15:04Z</time>
      </trkpt>
      <trkpt lat="43.60731" lon="3.03118">
        <ele>770.7999878</ele>
        <time>2013-08-10T08:15:06Z</time>
      </trkpt>
      <trkpt lat="43.6073" lon="3.03122">
        <ele>770.7999878</ele>
        <time>2013-08-10T08:15:07Z</time>
      </trkpt>
      <trkpt lat="43.60731" lon="3.03125">
        <ele>770.7999878</ele>
        <time>2013-08-10T08:15:08Z</time>
      </trkpt>
      <trkpt lat="43.6073" lon="3.03132">
        <ele>770.4000244</ele>
        <time>2013-08-10T08:15:11Z</time>
      </trkpt>
      <trkpt lat="43.6073" lon="3.03134">
        <ele>770</ele>
        <time>2013-08-10T08:15:12Z</time>
      </trkpt>
      <trkpt lat="43.60729" lon="3.03136">
        <ele>769.4000244</ele>
        <time>2013-08-10T08:15:13Z</time>
      </trkpt>
      <trkpt lat="43.60729" lon="3.03136">
        <ele>769</ele>
        <time>2013-08-10T08:15:14Z</time>
      </trkpt>
      <trkpt lat="43.60729" lon="3.03136">
        <ele>768.5999756</ele>
        <time>2013-08-10T08:15:15Z</time>
      </trkpt>
      <trkpt lat="43.60729" lon="3.03136">
        <ele>768.5999756</ele>
        <time>2013-08-10T08:15:17Z</time>
      </trkpt>
      <trkpt lat="43.60732" lon="3.03149">
        <ele>768.5999756</ele>
        <time>2013-08-10T08:17:16Z</time>
      </trkpt>
      <trkpt lat="43.60733" lon="3.03152">
        <ele>768.2000122</ele>
        <time>2013-08-10T08:17:17Z</time>
      </trkpt>
      <trkpt lat="43.60734" lon="3.03156">
        <ele>767.7999878</ele>
        <time>2013-08-10T08:17:18Z</time>
      </trkpt>
      <trkpt lat="43.60734" lon="3.0316">
        <ele>767.4000244</ele>
        <time>2013-08-10T08:17:19Z</time>
      </trkpt>
      <trkpt lat="43.60734" lon="3.03164">
        <ele>766.7999878</ele>
        <time>2013-08-10T08:17:20Z</time>
      </trkpt>
      <trkpt lat="43.60735" lon="3.03169">
        <ele>766.4000244</ele>
        <time>2013-08-10T08:17:21Z</time>
      </trkpt>
      <trkpt lat="43.60735" lon="3.03172">
        <ele>766</ele>
        <time>2013-08-10T08:17:22Z</time>
      </trkpt>
      <trkpt lat="43.60735" lon="3.03176">
        <ele>765.5999756</ele>
        <time>2013-08-10T08:17:23Z</time>
      </trkpt>
      <trkpt lat="43.60734" lon="3.03179">
        <ele>765.2000122</ele>
        <time>2013-08-10T08:17:24Z</time>
      </trkpt>
      <trkpt lat="43.60733" lon="3.03182">
        <ele>764.7999878</ele>
        <time>2013-08-10T08:17:25Z</time>
      </trkpt>
      <trkpt lat="43.60731" lon="3.03185">
        <ele>764.2000122</ele>
        <time>2013-08-10T08:17:26Z</time>
      </trkpt>
      <trkpt lat="43.60731" lon="3.0319">
        <ele>763.5999756</ele>
        <time>2013-08-10T08:17:27Z</time>
      </trkpt>
      <trkpt lat="43.60729" lon="3.03194">
        <ele>763</ele>
        <time>2013-08-10T08:17:28Z</time>
      </trkpt>
      <trkpt lat="43.60728" lon="3.03198">
        <ele>762.2000122</ele>
        <time>2013-08-10T08:17:29Z</time>
      </trkpt>
      <trkpt lat="43.60727" lon="3.03203">
        <ele>761.5999756</ele>
        <time>2013-08-10T08:17:30Z</time>
      </trkpt>
      <trkpt lat="43.60726" lon="3.03207">
        <ele>760</ele>
        <time>2013-08-10T08:17:31Z</time>
      </trkpt>
      <trkpt lat="43.60725" lon="3.03211">
        <ele>759.4000244</ele>
        <time>2013-08-10T08:17:32Z</time>
      </trkpt>
      <trkpt lat="43.60724" lon="3.03215">
        <ele>758.5999756</ele>
        <time>2013-08-10T08:17:33Z</time>
      </trkpt>
      <trkpt lat="43.60724" lon="3.03218">
        <ele>758</ele>
        <time>2013-08-10T08:17:34Z</time>
      </trkpt>
      <trkpt lat="43.60723" lon="3.03223">
        <ele>757.2000122</ele>
        <time>2013-08-10T08:17:35Z</time>
      </trkpt>
      <trkpt lat="43.60722" lon="3.03228">
        <ele>756.5999756</ele>
        <time>2013-08-10T08:17:36Z</time>
      </trkpt>
      <trkpt lat="43.60722" lon="3.03234">
        <ele>756</ele>
        <time>2013-08-10T08:17:37Z</time>
      </trkpt>
      <trkpt lat="43.60721" lon="3.03239">
        <ele>755.2000122</ele>
        <time>2013-08-10T08:17:38Z</time>
      </trkpt>
      <trkpt lat="43.60722" lon="3.03242">
        <ele>754.5999756</ele>
        <time>2013-08-10T08:17:39Z</time>
      </trkpt>
      <trkpt lat="43.60723" lon="3.03244">
        <ele>754</ele>
        <time>2013-08-10T08:17:40Z</time>
      </trkpt>
      <trkpt lat="43.60723" lon="3.03247">
        <ele>753.4000244</ele>
        <time>2013-08-10T08:17:41Z</time>
      </trkpt>
      <trkpt lat="43.60724" lon="3.03252">
        <ele>752.7999878</ele>
        <time>2013-08-10T08:17:42Z</time>
      </trkpt>
      <trkpt lat="43.60725" lon="3.03257">
        <ele>752</ele>
        <time>2013-08-10T08:17:43Z</time>
      </trkpt>
      <trkpt lat="43.60725" lon="3.0326">
        <ele>751.4000244</ele>
        <time>2013-08-10T08:17:44Z</time>
      </trkpt>
      <trkpt lat="43.60726" lon="3.03265">
        <ele>750.7999878</ele>
        <time>2013-08-10T08:17:45Z</time>
      </trkpt>
      <trkpt lat="43.60727" lon="3.0327">
        <ele>750</ele>
        <time>2013-08-10T08:17:46Z</time>
      </trkpt>
      <trkpt lat="43.60729" lon="3.03274">
        <ele>749.5999756</ele>
        <time>2013-08-10T08:17:47Z</time>
      </trkpt>
      <trkpt lat="43.60731" lon="3.03279">
        <ele>749.2000122</ele>
        <time>2013-08-10T08:17:48Z</time>
      </trkpt>
      <trkpt lat="43.60733" lon="3.03283">
        <ele>748.5999756</ele>
        <time>2013-08-10T08:17:49Z</time>
      </trkpt>
      <trkpt lat="43.60735" lon="3.03286">
        <ele>748</ele>
        <time>2013-08-10T08:17:50Z</time>
      </trkpt>
      <trkpt lat="43.60736" lon="3.0329">
        <ele>747.4000244</ele>
        <time>2013-08-10T08:17:51Z</time>
      </trkpt>
      <trkpt lat="43.60737" lon="3.03294">
        <ele>746.7999878</ele>
        <time>2013-08-10T08:17:52Z</time>
      </trkpt>
      <trkpt lat="43.60737" lon="3.03297">
        <ele>746.2000122</ele>
        <time>2013-08-10T08:17:53Z</time>
      </trkpt>
      <trkpt lat="43.60737" lon="3.03301">
        <ele>745.4000244</ele>
        <time>2013-08-10T08:17:54Z</time>
      </trkpt>
      <trkpt lat="43.60738" lon="3.03305">
        <ele>745</ele>
        <time>2013-08-10T08:17:55Z</time>
      </trkpt>
      <trkpt lat="43.60737" lon="3.03309">
        <ele>744.2000122</ele>
        <time>2013-08-10T08:17:56Z</time>
      </trkpt>
      <trkpt lat="43.60737" lon="3.03312">
        <ele>743.7999878</ele>
        <time>2013-08-10T08:17:57Z</time>
      </trkpt>
      <trkpt lat="43.60737" lon="3.03315">
        <ele>743.2000122</ele>
        <time>2013-08-10T08:17:58Z</time>
      </trkpt>
      <trkpt lat="43.60736" lon="3.03318">
        <ele>743.2000122</ele>
        <time>2013-08-10T08:17:59Z</time>
      </trkpt>
      <trkpt lat="43.60734" lon="3.03324">
        <ele>743.2000122</ele>
        <time>2013-08-10T08:18:03Z</time>
      </trkpt>
      <trkpt lat="43.60734" lon="3.03324">
        <ele>743.2000122</ele>
        <time>2013-08-10T08:18:04Z</time>
      </trkpt>
      <trkpt lat="43.60734" lon="3.03324">
        <ele>742.7999878</ele>
        <time>2013-08-10T08:18:05Z</time>
      </trkpt>
      <trkpt lat="43.60734" lon="3.03324">
        <ele>742.4000244</ele>
        <time>2013-08-10T08:18:06Z</time>
      </trkpt>
      <trkpt lat="43.60724" lon="3.03341">
        <ele>741.2000122</ele>
        <time>2013-08-10T08:18:31Z</time>
      </trkpt>
      <trkpt lat="43.6072" lon="3.03348">
        <ele>741.2000122</ele>
        <time>2013-08-10T08:18:33Z</time>
      </trkpt>
      <trkpt lat="43.60718" lon="3.03352">
        <ele>740.7999878</ele>
        <time>2013-08-10T08:18:34Z</time>
      </trkpt>
      <trkpt lat="43.60717" lon="3.03358">
        <ele>740.4000244</ele>
        <time>2013-08-10T08:18:35Z</time>
      </trkpt>
      <trkpt lat="43.60715" lon="3.03362">
        <ele>740</ele>
        <time>2013-08-10T08:18:36Z</time>
      </trkpt>
      <trkpt lat="43.60714" lon="3.03367">
        <ele>739.5999756</ele>
        <time>2013-08-10T08:18:37Z</time>
      </trkpt>
      <trkpt lat="43.60713" lon="3.03371">
        <ele>739.2000122</ele>
        <time>2013-08-10T08:18:38Z</time>
      </trkpt>
      <trkpt lat="43.60707" lon="3.0339">
        <ele>739.2000122</ele>
        <time>2013-08-10T08:18:42Z</time>
      </trkpt>
      <trkpt lat="43.60706" lon="3.03395">
        <ele>738.5999756</ele>
        <time>2013-08-10T08:18:43Z</time>
      </trkpt>
      <trkpt lat="43.60706" lon="3.03398">
        <ele>738.2000122</ele>
        <time>2013-08-10T08:18:44Z</time>
      </trkpt>
      <trkpt lat="43.60706" lon="3.03402">
        <ele>737.7999878</ele>
        <time>2013-08-10T08:18:45Z</time>
      </trkpt>
      <trkpt lat="43.60706" lon="3.03406">
        <ele>736.7999878</ele>
        <time>2013-08-10T08:18:46Z</time>
      </trkpt>
      <trkpt lat="43.6071" lon="3.03422">
        <ele>736.7999878</ele>
        <time>2013-08-10T08:18:50Z</time>
      </trkpt>
      <trkpt lat="43.60713" lon="3.03438">
        <ele>736.7999878</ele>
        <time>2013-08-10T08:18:54Z</time>
      </trkpt>
      <trkpt lat="43.60713" lon="3.03445">
        <ele>736.7999878</ele>
        <time>2013-08-10T08:18:56Z</time>
      </trkpt>
      <trkpt lat="43.60713" lon="3.03449">
        <ele>736.4000244</ele>
        <time>2013-08-10T08:18:58Z</time>
      </trkpt>
      <trkpt lat="43.60714" lon="3.0345">
        <ele>735.7999878</ele>
        <time>2013-08-10T08:18:59Z</time>
      </trkpt>
      <trkpt lat="43.60714" lon="3.0345">
        <ele>735.4000244</ele>
        <time>2013-08-10T08:19:00Z</time>
      </trkpt>
      <trkpt lat="43.60709" lon="3.03468">
        <ele>728.2000122</ele>
        <time>2013-08-10T08:19:59Z</time>
      </trkpt>
      <trkpt lat="43.60708" lon="3.03472">
        <ele>727.4000244</ele>
        <time>2013-08-10T08:20:00Z</time>
      </trkpt>
      <trkpt lat="43.60708" lon="3.03476">
        <ele>727</ele>
        <time>2013-08-10T08:20:01Z</time>
      </trkpt>
      <trkpt lat="43.60707" lon="3.03482">
        <ele>726.4000244</ele>
        <time>2013-08-10T08:20:02Z</time>
      </trkpt>
      <trkpt lat="43.60707" lon="3.03488">
        <ele>725.7999878</ele>
        <time>2013-08-10T08:20:03Z</time>
      </trkpt>
      <trkpt lat="43.60707" lon="3.03494">
        <ele>725.2000122</ele>
        <time>2013-08-10T08:20:04Z</time>
      </trkpt>
      <trkpt lat="43.60707" lon="3.03498">
        <ele>724.5999756</ele>
        <time>2013-08-10T08:20:05Z</time>
      </trkpt>
      <trkpt lat="43.60707" lon="3.03501">
        <ele>724.2000122</ele>
        <time>2013-08-10T08:20:06Z</time>
      </trkpt>
      <trkpt lat="43.60708" lon="3.03505">
        <ele>723.5999756</ele>
        <time>2013-08-10T08:20:07Z</time>
      </trkpt>
      <trkpt lat="43.60709" lon="3.03508">
        <ele>723</ele>
        <time>2013-08-10T08:20:08Z</time>
      </trkpt>
      <trkpt lat="43.60709" lon="3.03511">
        <ele>722.5999756</ele>
        <time>2013-08-10T08:20:09Z</time>
      </trkpt>
      <trkpt lat="43.60709" lon="3.03513">
        <ele>722</ele>
        <time>2013-08-10T08:20:10Z</time>
      </trkpt>
      <trkpt lat="43.60709" lon="3.03515">
        <ele>722</ele>
        <time>2013-08-10T08:20:11Z</time>
      </trkpt>
      <trkpt lat="43.60709" lon="3.03516">
        <ele>722</ele>
        <time>2013-08-10T08:20:12Z</time>
      </trkpt>
      <trkpt lat="43.60709" lon="3.03518">
        <ele>722</ele>
        <time>2013-08-10T08:20:20Z</time>
      </trkpt>
      <trkpt lat="43.60708" lon="3.0352">
        <ele>721.5999756</ele>
        <time>2013-08-10T08:20:23Z</time>
      </trkpt>
      <trkpt lat="43.60708" lon="3.03521">
        <ele>721.2000122</ele>
        <time>2013-08-10T08:20:24Z</time>
      </trkpt>
      <trkpt lat="43.60708" lon="3.03523">
        <ele>720</ele>
        <time>2013-08-10T08:20:25Z</time>
      </trkpt>
      <trkpt lat="43.60707" lon="3.03525">
        <ele>720</ele>
        <time>2013-08-10T08:20:28Z</time>
      </trkpt>
      <trkpt lat="43.60707" lon="3.03527">
        <ele>720</ele>
        <time>2013-08-10T08:20:31Z</time>
      </trkpt>
      <trkpt lat="43.60696" lon="3.03545">
        <ele>712.4000244</ele>
        <time>2013-08-10T08:21:25Z</time>
      </trkpt>
      <trkpt lat="43.60696" lon="3.03546">
        <ele>712</ele>
        <time>2013-08-10T08:21:26Z</time>
      </trkpt>
      <trkpt lat="43.60695" lon="3.03547">
        <ele>711.5999756</ele>
        <time>2013-08-10T08:21:27Z</time>
      </trkpt>
      <trkpt lat="43.60694" lon="3.03549">
        <ele>711.5999756</ele>
        <time>2013-08-10T08:21:31Z</time>
      </trkpt>
      <trkpt lat="43.60692" lon="3.03553">
        <ele>709.4000244</ele>
        <time>2013-08-10T08:21:38Z</time>
      </trkpt>
      <trkpt lat="43.60691" lon="3.03556">
        <ele>708.7999878</ele>
        <time>2013-08-10T08:21:39Z</time>
      </trkpt>
      <trkpt lat="43.60691" lon="3.0356">
        <ele>708.4000244</ele>
        <time>2013-08-10T08:21:40Z</time>
      </trkpt>
      <trkpt lat="43.60689" lon="3.03562">
        <ele>707.7999878</ele>
        <time>2013-08-10T08:21:41Z</time>
      </trkpt>
      <trkpt lat="43.60689" lon="3.03563">
        <ele>707.4000244</ele>
        <time>2013-08-10T08:21:42Z</time>
      </trkpt>
      <trkpt lat="43.60686" lon="3.03566">
        <ele>706.7999878</ele>
        <time>2013-08-10T08:21:43Z</time>
      </trkpt>
      <trkpt lat="43.60684" lon="3.03568">
        <ele>706.2000122</ele>
        <time>2013-08-10T08:21:44Z</time>
      </trkpt>
      <trkpt lat="43.60682" lon="3.03571">
        <ele>705.5999756</ele>
        <time>2013-08-10T08:21:45Z</time>
      </trkpt>
      <trkpt lat="43.6068" lon="3.03572">
        <ele>704.7999878</ele>
        <time>2013-08-10T08:21:46Z</time>
      </trkpt>
      <trkpt lat="43.60677" lon="3.03574">
        <ele>704</ele>
        <time>2013-08-10T08:21:47Z</time>
      </trkpt>
      <trkpt lat="43.60674" lon="3.03576">
        <ele>703.2000122</ele>
        <time>2013-08-10T08:21:48Z</time>
      </trkpt>
      <trkpt lat="43.60671" lon="3.03578">
        <ele>702.4000244</ele>
        <time>2013-08-10T08:21:49Z</time>
      </trkpt>
      <trkpt lat="43.60669" lon="3.03579">
        <ele>701.5999756</ele>
        <time>2013-08-10T08:21:50Z</time>
      </trkpt>
      <trkpt lat="43.60667" lon="3.0358">
        <ele>700.7999878</ele>
        <time>2013-08-10T08:21:51Z</time>
      </trkpt>
      <trkpt lat="43.60665" lon="3.03581">
        <ele>700</ele>
        <time>2013-08-10T08:21:52Z</time>
      </trkpt>
      <trkpt lat="43.60664" lon="3.03582">
        <ele>699.2000122</ele>
        <time>2013-08-10T08:21:53Z</time>
      </trkpt>
      <trkpt lat="43.60663" lon="3.03583">
        <ele>698.5999756</ele>
        <time>2013-08-10T08:21:54Z</time>
      </trkpt>
      <trkpt lat="43.60662" lon="3.03584">
        <ele>697.7999878</ele>
        <time>2013-08-10T08:21:55Z</time>
      </trkpt>
      <trkpt lat="43.60662" lon="3.03587">
        <ele>697.2000122</ele>
        <time>2013-08-10T08:21:56Z</time>
      </trkpt>
      <trkpt lat="43.60662" lon="3.03589">
        <ele>696.5999756</ele>
        <time>2013-08-10T08:21:57Z</time>
      </trkpt>
      <trkpt lat="43.60662" lon="3.03592">
        <ele>696</ele>
        <time>2013-08-10T08:21:58Z</time>
      </trkpt>
      <trkpt lat="43.60661" lon="3.03593">
        <ele>695.4000244</ele>
        <time>2013-08-10T08:21:59Z</time>
      </trkpt>
      <trkpt lat="43.60661" lon="3.03594">
        <ele>694.7999878</ele>
        <time>2013-08-10T08:22:00Z</time>
      </trkpt>
      <trkpt lat="43.60661" lon="3.03594">
        <ele>694.2000122</ele>
        <time>2013-08-10T08:22:01Z</time>
      </trkpt>
      <trkpt lat="43.60661" lon="3.03595">
        <ele>693.7999878</ele>
        <time>2013-08-10T08:22:03Z</time>
      </trkpt>
      <trkpt lat="43.6066" lon="3.03595">
        <ele>692.5999756</ele>
        <time>2013-08-10T08:22:06Z</time>
      </trkpt>
      <trkpt lat="43.60658" lon="3.03595">
        <ele>692.2000122</ele>
        <time>2013-08-10T08:22:07Z</time>
      </trkpt>
      <trkpt lat="43.60656" lon="3.03596">
        <ele>692.2000122</ele>
        <time>2013-08-10T08:22:08Z</time>
      </trkpt>
      <trkpt lat="43.60655" lon="3.03597">
        <ele>691.7999878</ele>
        <time>2013-08-10T08:22:09Z</time>
      </trkpt>
      <trkpt lat="43.60654" lon="3.03598">
        <ele>691.4000244</ele>
        <time>2013-08-10T08:22:10Z</time>
      </trkpt>
      <trkpt lat="43.60653" lon="3.03598">
        <ele>691</ele>
        <time>2013-08-10T08:22:11Z</time>
      </trkpt>
      <trkpt lat="43.6065" lon="3.03599">
        <ele>690.2000122</ele>
        <time>2013-08-10T08:22:13Z</time>
      </trkpt>
      <trkpt lat="43.60649" lon="3.036">
        <ele>689.7999878</ele>
        <time>2013-08-10T08:22:14Z</time>
      </trkpt>
      <trkpt lat="43.60648" lon="3.03601">
        <ele>689.4000244</ele>
        <time>2013-08-10T08:22:15Z</time>
      </trkpt>
      <trkpt lat="43.60647" lon="3.03603">
        <ele>689</ele>
        <time>2013-08-10T08:22:16Z</time>
      </trkpt>
      <trkpt lat="43.60646" lon="3.03604">
        <ele>688.5999756</ele>
        <time>2013-08-10T08:22:17Z</time>
      </trkpt>
      <trkpt lat="43.60645" lon="3.03606">
        <ele>688</ele>
        <time>2013-08-10T08:22:18Z</time>
      </trkpt>
      <trkpt lat="43.60643" lon="3.03607">
        <ele>687.5999756</ele>
        <time>2013-08-10T08:22:19Z</time>
      </trkpt>
      <trkpt lat="43.60641" lon="3.03608">
        <ele>687</ele>
        <time>2013-08-10T08:22:20Z</time>
      </trkpt>
      <trkpt lat="43.60639" lon="3.03609">
        <ele>686.5999756</ele>
        <time>2013-08-10T08:22:21Z</time>
      </trkpt>
      <trkpt lat="43.60638" lon="3.03609">
        <ele>686</ele>
        <time>2013-08-10T08:22:22Z</time>
      </trkpt>
      <trkpt lat="43.60635" lon="3.03609">
        <ele>685.4000244</ele>
        <time>2013-08-10T08:22:23Z</time>
      </trkpt>
      <trkpt lat="43.60633" lon="3.03609">
        <ele>684.7999878</ele>
        <time>2013-08-10T08:22:24Z</time>
      </trkpt>
      <trkpt lat="43.60632" lon="3.0361">
        <ele>684.2000122</ele>
        <time>2013-08-10T08:22:25Z</time>
      </trkpt>
      <trkpt lat="43.6063" lon="3.03611">
        <ele>683.4000244</ele>
        <time>2013-08-10T08:22:26Z</time>
      </trkpt>
      <trkpt lat="43.60628" lon="3.03611">
        <ele>682.7999878</ele>
        <time>2013-08-10T08:22:27Z</time>
      </trkpt>
      <trkpt lat="43.60626" lon="3.03612">
        <ele>681.4000244</ele>
        <time>2013-08-10T08:22:28Z</time>
      </trkpt>
      <trkpt lat="43.60624" lon="3.03612">
        <ele>681</ele>
        <time>2013-08-10T08:22:29Z</time>
      </trkpt>
      <trkpt lat="43.60622" lon="3.03613">
        <ele>680.5999756</ele>
        <time>2013-08-10T08:22:30Z</time>
      </trkpt>
      <trkpt lat="43.60619" lon="3.03614">
        <ele>680.2000122</ele>
        <time>2013-08-10T08:22:31Z</time>
      </trkpt>
      <trkpt lat="43.60617" lon="3.03615">
        <ele>679.7999878</ele>
        <time>2013-08-10T08:22:32Z</time>
      </trkpt>
      <trkpt lat="43.60615" lon="3.03616">
        <ele>679.4000244</ele>
        <time>2013-08-10T08:22:33Z</time>
      </trkpt>
      <trkpt lat="43.60613" lon="3.03617">
        <ele>678.7999878</ele>
        <time>2013-08-10T08:22:34Z</time>
      </trkpt>
      <trkpt lat="43.60611" lon="3.03618">
        <ele>678.4000244</ele>
        <time>2013-08-10T08:22:35Z</time>
      </trkpt>
      <trkpt lat="43.60611" lon="3.03619">
        <ele>677.7999878</ele>
        <time>2013-08-10T08:22:36Z</time>
      </trkpt>
      <trkpt lat="43.60611" lon="3.03619">
        <ele>677.4000244</ele>
        <time>2013-08-10T08:22:37Z</time>
      </trkpt>
      <trkpt lat="43.60611" lon="3.03619">
        <ele>676.7999878</ele>
        <time>2013-08-10T08:22:38Z</time>
      </trkpt>
      <trkpt lat="43.60603" lon="3.03622">
        <ele>672.5999756</ele>
        <time>2013-08-10T08:23:11Z</time>
      </trkpt>
      <trkpt lat="43.60602" lon="3.03622">
        <ele>672.5999756</ele>
        <time>2013-08-10T08:23:14Z</time>
      </trkpt>
      <trkpt lat="43.60599" lon="3.03624">
        <ele>672.2000122</ele>
        <time>2013-08-10T08:23:21Z</time>
      </trkpt>
      <trkpt lat="43.60598" lon="3.03624">
        <ele>671.7999878</ele>
        <time>2013-08-10T08:23:22Z</time>
      </trkpt>
      <trkpt lat="43.60596" lon="3.03624">
        <ele>671.4000244</ele>
        <time>2013-08-10T08:23:23Z</time>
      </trkpt>
      <trkpt lat="43.60595" lon="3.03623">
        <ele>670.7999878</ele>
        <time>2013-08-10T08:23:24Z</time>
      </trkpt>
      <trkpt lat="43.60595" lon="3.03623">
        <ele>670.4000244</ele>
        <time>2013-08-10T08:23:25Z</time>
      </trkpt>
      <trkpt lat="43.60594" lon="3.03624">
        <ele>670.4000244</ele>
        <time>2013-08-10T08:23:28Z</time>
      </trkpt>
      <trkpt lat="43.60594" lon="3.03624">
        <ele>670</ele>
        <time>2013-08-10T08:23:29Z</time>
      </trkpt>
      <trkpt lat="43.60593" lon="3.03624">
        <ele>669.5999756</ele>
        <time>2013-08-10T08:23:30Z</time>
      </trkpt>
      <trkpt lat="43.60587" lon="3.03622">
        <ele>668.2000122</ele>
        <time>2013-08-10T08:23:39Z</time>
      </trkpt>
      <trkpt lat="43.60585" lon="3.03621">
        <ele>668.2000122</ele>
        <time>2013-08-10T08:23:40Z</time>
      </trkpt>
      <trkpt lat="43.60585" lon="3.03621">
        <ele>667.4000244</ele>
        <time>2013-08-10T08:23:42Z</time>
      </trkpt>
      <trkpt lat="43.6058" lon="3.03624">
        <ele>666</ele>
        <time>2013-08-10T08:23:49Z</time>
      </trkpt>
      <trkpt lat="43.60579" lon="3.03626">
        <ele>666</ele>
        <time>2013-08-10T08:23:50Z</time>
      </trkpt>
      <trkpt lat="43.60578" lon="3.03627">
        <ele>665.5999756</ele>
        <time>2013-08-10T08:23:51Z</time>
      </trkpt>
      <trkpt lat="43.60578" lon="3.03627">
        <ele>665.2000122</ele>
        <time>2013-08-10T08:23:52Z</time>
      </trkpt>
      <trkpt lat="43.60578" lon="3.03627">
        <ele>664.5999756</ele>
        <time>2013-08-10T08:23:53Z</time>
      </trkpt>
      <trkpt lat="43.60561" lon="3.03637">
        <ele>658</ele>
        <time>2013-08-10T08:24:20Z</time>
      </trkpt>
      <trkpt lat="43.6056" lon="3.03639">
        <ele>657.5999756</ele>
        <time>2013-08-10T08:24:21Z</time>
      </trkpt>
      <trkpt lat="43.60561" lon="3.03641">
        <ele>657.2000122</ele>
        <time>2013-08-10T08:24:22Z</time>
      </trkpt>
      <trkpt lat="43.6056" lon="3.03642">
        <ele>656.7999878</ele>
        <time>2013-08-10T08:24:23Z</time>
      </trkpt>
      <trkpt lat="43.6056" lon="3.03643">
        <ele>656.4000244</ele>
        <time>2013-08-10T08:24:24Z</time>
      </trkpt>
      <trkpt lat="43.60559" lon="3.03644">
        <ele>655.7999878</ele>
        <time>2013-08-10T08:24:25Z</time>
      </trkpt>
      <trkpt lat="43.60529" lon="3.03653">
        <ele>643.2000122</ele>
        <time>2013-08-10T08:25:19Z</time>
      </trkpt>
      <trkpt lat="43.60529" lon="3.03653">
        <ele>642.7999878</ele>
        <time>2013-08-10T08:25:20Z</time>
      </trkpt>
      <trkpt lat="43.60529" lon="3.03654">
        <ele>642.4000244</ele>
        <time>2013-08-10T08:25:21Z</time>
      </trkpt>
      <trkpt lat="43.60529" lon="3.03653">
        <ele>642.4000244</ele>
        <time>2013-08-10T08:25:24Z</time>
      </trkpt>
      <trkpt lat="43.60522" lon="3.03659">
        <ele>641</ele>
        <time>2013-08-10T08:25:42Z</time>
      </trkpt>
      <trkpt lat="43.6052" lon="3.03659">
        <ele>640.5999756</ele>
        <time>2013-08-10T08:25:43Z</time>
      </trkpt>
      <trkpt lat="43.60519" lon="3.03659">
        <ele>640</ele>
        <time>2013-08-10T08:25:44Z</time>
      </trkpt>
      <trkpt lat="43.60518" lon="3.03658">
        <ele>639.4000244</ele>
        <time>2013-08-10T08:25:45Z</time>
      </trkpt>
      <trkpt lat="43.60514" lon="3.03656">
        <ele>638.7999878</ele>
        <time>2013-08-10T08:25:46Z</time>
      </trkpt>
      <trkpt lat="43.60513" lon="3.03656">
        <ele>637.5999756</ele>
        <time>2013-08-10T08:25:47Z</time>
      </trkpt>
      <trkpt lat="43.60513" lon="3.03655">
        <ele>637</ele>
        <time>2013-08-10T08:25:48Z</time>
      </trkpt>
      <trkpt lat="43.60513" lon="3.03655">
        <ele>636.4000244</ele>
        <time>2013-08-10T08:25:49Z</time>
      </trkpt>
      <trkpt lat="43.60513" lon="3.03655">
        <ele>635.5999756</ele>
        <time>2013-08-10T08:25:50Z</time>
      </trkpt>
      <trkpt lat="43.60513" lon="3.03655">
        <ele>635</ele>
        <time>2013-08-10T08:25:51Z</time>
      </trkpt>
      <trkpt lat="43.60513" lon="3.03655">
        <ele>635</ele>
        <time>2013-08-10T08:25:52Z</time>
      </trkpt>
      <trkpt lat="43.60513" lon="3.03655">
        <ele>635</ele>
        <time>2013-08-10T08:25:53Z</time>
      </trkpt>
      <trkpt lat="43.60508" lon="3.03656">
        <ele>635</ele>
        <time>2013-08-10T08:27:20Z</time>
      </trkpt>
      <trkpt lat="43.60505" lon="3.03656">
        <ele>635</ele>
        <time>2013-08-10T08:27:21Z</time>
      </trkpt>
      <trkpt lat="43.60502" lon="3.03657">
        <ele>634.4000244</ele>
        <time>2013-08-10T08:27:22Z</time>
      </trkpt>
      <trkpt lat="43.60502" lon="3.03657">
        <ele>633.7999878</ele>
        <time>2013-08-10T08:27:23Z</time>
      </trkpt>
      <trkpt lat="43.60501" lon="3.03657">
        <ele>633.2000122</ele>
        <time>2013-08-10T08:27:24Z</time>
      </trkpt>
      <trkpt lat="43.60497" lon="3.03658">
        <ele>632.5999756</ele>
        <time>2013-08-10T08:27:25Z</time>
      </trkpt>
      <trkpt lat="43.60497" lon="3.03659">
        <ele>631</ele>
        <time>2013-08-10T08:27:26Z</time>
      </trkpt>
      <trkpt lat="43.60496" lon="3.03661">
        <ele>630.4000244</ele>
        <time>2013-08-10T08:27:27Z</time>
      </trkpt>
      <trkpt lat="43.60495" lon="3.03663">
        <ele>629.7999878</ele>
        <time>2013-08-10T08:27:28Z</time>
      </trkpt>
      <trkpt lat="43.60493" lon="3.03663">
        <ele>629.2000122</ele>
        <time>2013-08-10T08:27:29Z</time>
      </trkpt>
      <trkpt lat="43.60492" lon="3.03664">
        <ele>628.5999756</ele>
        <time>2013-08-10T08:27:30Z</time>
      </trkpt>
      <trkpt lat="43.60491" lon="3.03663">
        <ele>628</ele>
        <time>2013-08-10T08:27:31Z</time>
      </trkpt>
      <trkpt lat="43.60489" lon="3.03662">
        <ele>627.4000244</ele>
        <time>2013-08-10T08:27:32Z</time>
      </trkpt>
      <trkpt lat="43.60487" lon="3.03662">
        <ele>626.7999878</ele>
        <time>2013-08-10T08:27:33Z</time>
      </trkpt>
      <trkpt lat="43.60486" lon="3.03661">
        <ele>626.2000122</ele>
        <time>2013-08-10T08:27:34Z</time>
      </trkpt>
      <trkpt lat="43.60486" lon="3.0366">
        <ele>625.5999756</ele>
        <time>2013-08-10T08:27:35Z</time>
      </trkpt>
      <trkpt lat="43.60485" lon="3.0366">
        <ele>625.2000122</ele>
        <time>2013-08-10T08:27:36Z</time>
      </trkpt>
      <trkpt lat="43.60484" lon="3.03658">
        <ele>624.5999756</ele>
        <time>2013-08-10T08:27:37Z</time>
      </trkpt>
      <trkpt lat="43.60484" lon="3.03656">
        <ele>624</ele>
        <time>2013-08-10T08:27:38Z</time>
      </trkpt>
      <trkpt lat="43.60483" lon="3.03655">
        <ele>623.4000244</ele>
        <time>2013-08-10T08:27:39Z</time>
      </trkpt>
      <trkpt lat="43.60483" lon="3.03654">
        <ele>622.7999878</ele>
        <time>2013-08-10T08:27:40Z</time>
      </trkpt>
      <trkpt lat="43.60483" lon="3.03653">
        <ele>622.2000122</ele>
        <time>2013-08-10T08:27:41Z</time>
      </trkpt>
      <trkpt lat="43.60477" lon="3.03653">
        <ele>618.4000244</ele>
        <time>2013-08-10T08:27:53Z</time>
      </trkpt>
      <trkpt lat="43.60477" lon="3.03653">
        <ele>618.4000244</ele>
        <time>2013-08-10T08:27:54Z</time>
      </trkpt>
      <trkpt lat="43.60475" lon="3.03657">
        <ele>618.4000244</ele>
        <time>2013-08-10T08:27:56Z</time>
      </trkpt>
      <trkpt lat="43.60476" lon="3.03657">
        <ele>618</ele>
        <time>2013-08-10T08:27:57Z</time>
      </trkpt>
      <trkpt lat="43.60476" lon="3.03657">
        <ele>617.5999756</ele>
        <time>2013-08-10T08:27:58Z</time>
      </trkpt>
      <trkpt lat="43.60476" lon="3.03657">
        <ele>617.2000122</ele>
        <time>2013-08-10T08:27:59Z</time>
      </trkpt>
      <trkpt lat="43.60462" lon="3.03664">
        <ele>611.7999878</ele>
        <time>2013-08-10T08:28:43Z</time>
      </trkpt>
      <trkpt lat="43.6046" lon="3.03664">
        <ele>611.4000244</ele>
        <time>2013-08-10T08:28:44Z</time>
      </trkpt>
      <trkpt lat="43.60458" lon="3.03665">
        <ele>611</ele>
        <time>2013-08-10T08:28:45Z</time>
      </trkpt>
      <trkpt lat="43.60457" lon="3.03666">
        <ele>610.5999756</ele>
        <time>2013-08-10T08:28:46Z</time>
      </trkpt>
      <trkpt lat="43.60456" lon="3.03667">
        <ele>610</ele>
        <time>2013-08-10T08:28:47Z</time>
      </trkpt>
      <trkpt lat="43.60454" lon="3.03668">
        <ele>609.4000244</ele>
        <time>2013-08-10T08:28:48Z</time>
      </trkpt>
      <trkpt lat="43.60452" lon="3.03668">
        <ele>609</ele>
        <time>2013-08-10T08:28:49Z</time>
      </trkpt>
      <trkpt lat="43.60452" lon="3.03668">
        <ele>608.4000244</ele>
        <time>2013-08-10T08:28:50Z</time>
      </trkpt>
      <trkpt lat="43.6045" lon="3.03668">
        <ele>607.7999878</ele>
        <time>2013-08-10T08:28:51Z</time>
      </trkpt>
      <trkpt lat="43.60448" lon="3.03668">
        <ele>607.2000122</ele>
        <time>2013-08-10T08:28:52Z</time>
      </trkpt>
      <trkpt lat="43.60446" lon="3.03667">
        <ele>606.5999756</ele>
        <time>2013-08-10T08:28:53Z</time>
      </trkpt>
      <trkpt lat="43.60443" lon="3.03667">
        <ele>605.7999878</ele>
        <time>2013-08-10T08:28:54Z</time>
      </trkpt>
      <trkpt lat="43.60441" lon="3.03668">
        <ele>605</ele>
        <time>2013-08-10T08:28:55Z</time>
      </trkpt>
      <trkpt lat="43.6044" lon="3.0367">
        <ele>604.2000122</ele>
        <time>2013-08-10T08:28:56Z</time>
      </trkpt>
      <trkpt lat="43.60439" lon="3.03671">
        <ele>603.4000244</ele>
        <time>2013-08-10T08:28:57Z</time>
      </trkpt>
      <trkpt lat="43.60438" lon="3.03671">
        <ele>602.5999756</ele>
        <time>2013-08-10T08:28:58Z</time>
      </trkpt>
      <trkpt lat="43.60438" lon="3.03672">
        <ele>601.7999878</ele>
        <time>2013-08-10T08:28:59Z</time>
      </trkpt>
      <trkpt lat="43.60436" lon="3.03673">
        <ele>601</ele>
        <time>2013-08-10T08:29:00Z</time>
      </trkpt>
      <trkpt lat="43.60434" lon="3.03675">
        <ele>600.2000122</ele>
        <time>2013-08-10T08:29:01Z</time>
      </trkpt>
      <trkpt lat="43.60433" lon="3.03676">
        <ele>599.4000244</ele>
        <time>2013-08-10T08:29:02Z</time>
      </trkpt>
      <trkpt lat="43.60431" lon="3.03678">
        <ele>598.5999756</ele>
        <time>2013-08-10T08:29:03Z</time>
      </trkpt>
      <trkpt lat="43.6043" lon="3.0368">
        <ele>598</ele>
        <time>2013-08-10T08:29:04Z</time>
      </trkpt>
      <trkpt lat="43.60427" lon="3.03681">
        <ele>596.4000244</ele>
        <time>2013-08-10T08:29:05Z</time>
      </trkpt>
      <trkpt lat="43.60425" lon="3.03683">
        <ele>595.7999878</ele>
        <time>2013-08-10T08:29:06Z</time>
      </trkpt>
      <trkpt lat="43.60422" lon="3.03685">
        <ele>595.2000122</ele>
        <time>2013-08-10T08:29:07Z</time>
      </trkpt>
      <trkpt lat="43.60419" lon="3.03687">
        <ele>594.5999756</ele>
        <time>2013-08-10T08:29:08Z</time>
      </trkpt>
      <trkpt lat="43.60417" lon="3.03688">
        <ele>593.7999878</ele>
        <time>2013-08-10T08:29:09Z</time>
      </trkpt>
      <trkpt lat="43.60413" lon="3.03691">
        <ele>593</ele>
        <time>2013-08-10T08:29:10Z</time>
      </trkpt>
      <trkpt lat="43.60413" lon="3.03694">
        <ele>592.2000122</ele>
        <time>2013-08-10T08:29:11Z</time>
      </trkpt>
      <trkpt lat="43.60412" lon="3.03695">
        <ele>591.4000244</ele>
        <time>2013-08-10T08:29:12Z</time>
      </trkpt>
      <trkpt lat="43.60412" lon="3.03696">
        <ele>590.5999756</ele>
        <time>2013-08-10T08:29:13Z</time>
      </trkpt>
      <trkpt lat="43.60412" lon="3.03696">
        <ele>589.7999878</ele>
        <time>2013-08-10T08:29:14Z</time>
      </trkpt>
      <trkpt lat="43.60402" lon="3.037">
        <ele>587.7999878</ele>
        <time>2013-08-10T08:30:02Z</time>
      </trkpt>
      <trkpt lat="43.604" lon="3.037">
        <ele>587.2000122</ele>
        <time>2013-08-10T08:30:03Z</time>
      </trkpt>
      <trkpt lat="43.60398" lon="3.037">
        <ele>586.4000244</ele>
        <time>2013-08-10T08:30:04Z</time>
      </trkpt>
      <trkpt lat="43.60397" lon="3.037">
        <ele>585.5999756</ele>
        <time>2013-08-10T08:30:05Z</time>
      </trkpt>
      <trkpt lat="43.60395" lon="3.03699">
        <ele>584.7999878</ele>
        <time>2013-08-10T08:30:06Z</time>
      </trkpt>
      <trkpt lat="43.60395" lon="3.03697">
        <ele>584.2000122</ele>
        <time>2013-08-10T08:30:07Z</time>
      </trkpt>
      <trkpt lat="43.60394" lon="3.03697">
        <ele>583.4000244</ele>
        <time>2013-08-10T08:30:08Z</time>
      </trkpt>
      <trkpt lat="43.60392" lon="3.03696">
        <ele>582.5999756</ele>
        <time>2013-08-10T08:30:09Z</time>
      </trkpt>
      <trkpt lat="43.60391" lon="3.03695">
        <ele>581.7999878</ele>
        <time>2013-08-10T08:30:10Z</time>
      </trkpt>
      <trkpt lat="43.60391" lon="3.03695">
        <ele>581</ele>
        <time>2013-08-10T08:30:11Z</time>
      </trkpt>
      <trkpt lat="43.60389" lon="3.03692">
        <ele>581</ele>
        <time>2013-08-10T08:30:12Z</time>
      </trkpt>
      <trkpt lat="43.60387" lon="3.03691">
        <ele>580.5999756</ele>
        <time>2013-08-10T08:30:13Z</time>
      </trkpt>
      <trkpt lat="43.60386" lon="3.03689">
        <ele>580</ele>
        <time>2013-08-10T08:30:14Z</time>
      </trkpt>
      <trkpt lat="43.60386" lon="3.03688">
        <ele>579.5999756</ele>
        <time>2013-08-10T08:30:15Z</time>
      </trkpt>
      <trkpt lat="43.60386" lon="3.03687">
        <ele>579</ele>
        <time>2013-08-10T08:30:16Z</time>
      </trkpt>
      <trkpt lat="43.60386" lon="3.03687">
        <ele>578.5999756</ele>
        <time>2013-08-10T08:30:17Z</time>
      </trkpt>
      <trkpt lat="43.6038" lon="3.03686">
        <ele>574.4000244</ele>
        <time>2013-08-10T08:31:12Z</time>
      </trkpt>
      <trkpt lat="43.60379" lon="3.03689">
        <ele>574.4000244</ele>
        <time>2013-08-10T08:31:13Z</time>
      </trkpt>
      <trkpt lat="43.60377" lon="3.03712">
        <ele>574.4000244</ele>
        <time>2013-08-10T08:31:19Z</time>
      </trkpt>
      <trkpt lat="43.60376" lon="3.03734">
        <ele>574.4000244</ele>
        <time>2013-08-10T08:31:25Z</time>
      </trkpt>
      <trkpt lat="43.60378" lon="3.03757">
        <ele>574</ele>
        <time>2013-08-10T08:31:29Z</time>
      </trkpt>
      <trkpt lat="43.60378" lon="3.03762">
        <ele>573.4000244</ele>
        <time>2013-08-10T08:31:30Z</time>
      </trkpt>
      <trkpt lat="43.60379" lon="3.03769">
        <ele>573</ele>
        <time>2013-08-10T08:31:31Z</time>
      </trkpt>
      <trkpt lat="43.6038" lon="3.03775">
        <ele>572.5999756</ele>
        <time>2013-08-10T08:31:32Z</time>
      </trkpt>
      <trkpt lat="43.60381" lon="3.03782">
        <ele>572.2000122</ele>
        <time>2013-08-10T08:31:33Z</time>
      </trkpt>
      <trkpt lat="43.60382" lon="3.0379">
        <ele>571.7999878</ele>
        <time>2013-08-10T08:31:34Z</time>
      </trkpt>
      <trkpt lat="43.60384" lon="3.03798">
        <ele>571.2000122</ele>
        <time>2013-08-10T08:31:35Z</time>
      </trkpt>
      <trkpt lat="43.60386" lon="3.03805">
        <ele>570.7999878</ele>
        <time>2013-08-10T08:31:36Z</time>
      </trkpt>
      <trkpt lat="43.60388" lon="3.03814">
        <ele>570.4000244</ele>
        <time>2013-08-10T08:31:37Z</time>
      </trkpt>
      <trkpt lat="43.6039" lon="3.03821">
        <ele>570</ele>
        <time>2013-08-10T08:31:38Z</time>
      </trkpt>
      <trkpt lat="43.60392" lon="3.03828">
        <ele>569.4000244</ele>
        <time>2013-08-10T08:31:39Z</time>
      </trkpt>
      <trkpt lat="43.60394" lon="3.03836">
        <ele>569</ele>
        <time>2013-08-10T08:31:40Z</time>
      </trkpt>
      <trkpt lat="43.60396" lon="3.03843">
        <ele>568.5999756</ele>
        <time>2013-08-10T08:31:41Z</time>
      </trkpt>
      <trkpt lat="43.60407" lon="3.03852">
        <ele>568</ele>
        <time>2013-08-10T08:31:42Z</time>
      </trkpt>
      <trkpt lat="43.60413" lon="3.03859">
        <ele>567.5999756</ele>
        <time>2013-08-10T08:31:43Z</time>
      </trkpt>
      <trkpt lat="43.60417" lon="3.03865">
        <ele>567.2000122</ele>
        <time>2013-08-10T08:31:44Z</time>
      </trkpt>
      <trkpt lat="43.60421" lon="3.03871">
        <ele>566.7999878</ele>
        <time>2013-08-10T08:31:45Z</time>
      </trkpt>
      <trkpt lat="43.60423" lon="3.03874">
        <ele>566.4000244</ele>
        <time>2013-08-10T08:31:46Z</time>
      </trkpt>
      <trkpt lat="43.60424" lon="3.03879">
        <ele>566</ele>
        <time>2013-08-10T08:31:47Z</time>
      </trkpt>
      <trkpt lat="43.60424" lon="3.03886">
        <ele>565.4000244</ele>
        <time>2013-08-10T08:31:48Z</time>
      </trkpt>
      <trkpt lat="43.60424" lon="3.03903">
        <ele>565</ele>
        <time>2013-08-10T08:31:50Z</time>
      </trkpt>
      <trkpt lat="43.60425" lon="3.03913">
        <ele>564.4000244</ele>
        <time>2013-08-10T08:31:51Z</time>
      </trkpt>
      <trkpt lat="43.60427" lon="3.03923">
        <ele>564</ele>
        <time>2013-08-10T08:31:52Z</time>
      </trkpt>
      <trkpt lat="43.60434" lon="3.03934">
        <ele>563.5999756</ele>
        <time>2013-08-10T08:31:53Z</time>
      </trkpt>
      <trkpt lat="43.60441" lon="3.03942">
        <ele>563</ele>
        <time>2013-08-10T08:31:54Z</time>
      </trkpt>
      <trkpt lat="43.60448" lon="3.03951">
        <ele>562.4000244</ele>
        <time>2013-08-10T08:31:55Z</time>
      </trkpt>
      <trkpt lat="43.60453" lon="3.03959">
        <ele>561.7999878</ele>
        <time>2013-08-10T08:31:56Z</time>
      </trkpt>
      <trkpt lat="43.60459" lon="3.03967">
        <ele>560.7999878</ele>
        <time>2013-08-10T08:31:57Z</time>
      </trkpt>
      <trkpt lat="43.60465" lon="3.03973">
        <ele>560.2000122</ele>
        <time>2013-08-10T08:31:58Z</time>
      </trkpt>
      <trkpt lat="43.60472" lon="3.03979">
        <ele>559.5999756</ele>
        <time>2013-08-10T08:31:59Z</time>
      </trkpt>
      <trkpt lat="43.60478" lon="3.03986">
        <ele>559.2000122</ele>
        <time>2013-08-10T08:32:00Z</time>
      </trkpt>
      <trkpt lat="43.60486" lon="3.03994">
        <ele>558.5999756</ele>
        <time>2013-08-10T08:32:01Z</time>
      </trkpt>
      <trkpt lat="43.60503" lon="3.04013">
        <ele>558.2000122</ele>
        <time>2013-08-10T08:32:04Z</time>
      </trkpt>
      <trkpt lat="43.60507" lon="3.04018">
        <ele>557.5999756</ele>
        <time>2013-08-10T08:32:05Z</time>
      </trkpt>
      <trkpt lat="43.6051" lon="3.04022">
        <ele>557.2000122</ele>
        <time>2013-08-10T08:32:06Z</time>
      </trkpt>
      <trkpt lat="43.60512" lon="3.04026">
        <ele>556.7999878</ele>
        <time>2013-08-10T08:32:07Z</time>
      </trkpt>
      <trkpt lat="43.60513" lon="3.04029">
        <ele>556.4000244</ele>
        <time>2013-08-10T08:32:08Z</time>
      </trkpt>
      <trkpt lat="43.6051" lon="3.04039">
        <ele>556</ele>
        <time>2013-08-10T08:32:10Z</time>
      </trkpt>
      <trkpt lat="43.60509" lon="3.04041">
        <ele>555.4000244</ele>
        <time>2013-08-10T08:32:11Z</time>
      </trkpt>
      <trkpt lat="43.60507" lon="3.04045">
        <ele>555</ele>
        <time>2013-08-10T08:32:12Z</time>
      </trkpt>
      <trkpt lat="43.60505" lon="3.04047">
        <ele>554.5999756</ele>
        <time>2013-08-10T08:32:13Z</time>
      </trkpt>
      <trkpt lat="43.60502" lon="3.04046">
        <ele>554.2000122</ele>
        <time>2013-08-10T08:32:14Z</time>
      </trkpt>
      <trkpt lat="43.60498" lon="3.04046">
        <ele>554.2000122</ele>
        <time>2013-08-10T08:32:15Z</time>
      </trkpt>
      <trkpt lat="43.6049" lon="3.04046">
        <ele>554.2000122</ele>
        <time>2013-08-10T08:32:17Z</time>
      </trkpt>
      <trkpt lat="43.60479" lon="3.04045">
        <ele>554.2000122</ele>
        <time>2013-08-10T08:32:19Z</time>
      </trkpt>
      <trkpt lat="43.60475" lon="3.04044">
        <ele>554.2000122</ele>
        <time>2013-08-10T08:32:20Z</time>
      </trkpt>
      <trkpt lat="43.60469" lon="3.04043">
        <ele>554.2000122</ele>
        <time>2013-08-10T08:32:21Z</time>
      </trkpt>
      <trkpt lat="43.60457" lon="3.0404">
        <ele>553.5999756</ele>
        <time>2013-08-10T08:32:23Z</time>
      </trkpt>
      <trkpt lat="43.60451" lon="3.04037">
        <ele>553.2000122</ele>
        <time>2013-08-10T08:32:24Z</time>
      </trkpt>
      <trkpt lat="43.60446" lon="3.04036">
        <ele>552.7999878</ele>
        <time>2013-08-10T08:32:25Z</time>
      </trkpt>
      <trkpt lat="43.60441" lon="3.04036">
        <ele>552.4000244</ele>
        <time>2013-08-10T08:32:26Z</time>
      </trkpt>
      <trkpt lat="43.60435" lon="3.04036">
        <ele>552</ele>
        <time>2013-08-10T08:32:27Z</time>
      </trkpt>
      <trkpt lat="43.60418" lon="3.04037">
        <ele>552</ele>
        <time>2013-08-10T08:32:30Z</time>
      </trkpt>
      <trkpt lat="43.60396" lon="3.04043">
        <ele>552</ele>
        <time>2013-08-10T08:32:35Z</time>
      </trkpt>
      <trkpt lat="43.60387" lon="3.04047">
        <ele>552</ele>
        <time>2013-08-10T08:32:38Z</time>
      </trkpt>
      <trkpt lat="43.6038" lon="3.04051">
        <ele>552</ele>
        <time>2013-08-10T08:32:41Z</time>
      </trkpt>
      <trkpt lat="43.60373" lon="3.04053">
        <ele>552.4000244</ele>
        <time>2013-08-10T08:32:43Z</time>
      </trkpt>
      <trkpt lat="43.6037" lon="3.04055">
        <ele>552.7999878</ele>
        <time>2013-08-10T08:32:44Z</time>
      </trkpt>
      <trkpt lat="43.60365" lon="3.04056">
        <ele>553.2000122</ele>
        <time>2013-08-10T08:32:45Z</time>
      </trkpt>
      <trkpt lat="43.60361" lon="3.04056">
        <ele>553.5999756</ele>
        <time>2013-08-10T08:32:46Z</time>
      </trkpt>
      <trkpt lat="43.60357" lon="3.04056">
        <ele>554</ele>
        <time>2013-08-10T08:32:47Z</time>
      </trkpt>
      <trkpt lat="43.60346" lon="3.04054">
        <ele>554</ele>
        <time>2013-08-10T08:32:49Z</time>
      </trkpt>
      <trkpt lat="43.60335" lon="3.04049">
        <ele>554</ele>
        <time>2013-08-10T08:32:51Z</time>
      </trkpt>
      <trkpt lat="43.60329" lon="3.04047">
        <ele>553.4000244</ele>
        <time>2013-08-10T08:32:52Z</time>
      </trkpt>
      <trkpt lat="43.60322" lon="3.04045">
        <ele>553</ele>
        <time>2013-08-10T08:32:53Z</time>
      </trkpt>
      <trkpt lat="43.60315" lon="3.04042">
        <ele>552.4000244</ele>
        <time>2013-08-10T08:32:54Z</time>
      </trkpt>
      <trkpt lat="43.60307" lon="3.04042">
        <ele>552</ele>
        <time>2013-08-10T08:32:55Z</time>
      </trkpt>
      <trkpt lat="43.60299" lon="3.04042">
        <ele>551.2000122</ele>
        <time>2013-08-10T08:32:56Z</time>
      </trkpt>
      <trkpt lat="43.6029" lon="3.04044">
        <ele>550.5999756</ele>
        <time>2013-08-10T08:32:57Z</time>
      </trkpt>
      <trkpt lat="43.60281" lon="3.04046">
        <ele>550</ele>
        <time>2013-08-10T08:32:58Z</time>
      </trkpt>
      <trkpt lat="43.60274" lon="3.04048">
        <ele>549.4000244</ele>
        <time>2013-08-10T08:32:59Z</time>
      </trkpt>
      <trkpt lat="43.60266" lon="3.0405">
        <ele>548.7999878</ele>
        <time>2013-08-10T08:33:00Z</time>
      </trkpt>
      <trkpt lat="43.60258" lon="3.04052">
        <ele>548.2000122</ele>
        <time>2013-08-10T08:33:01Z</time>
      </trkpt>
      <trkpt lat="43.60251" lon="3.04054">
        <ele>547.5999756</ele>
        <time>2013-08-10T08:33:02Z</time>
      </trkpt>
      <trkpt lat="43.60243" lon="3.04056">
        <ele>547</ele>
        <time>2013-08-10T08:33:03Z</time>
      </trkpt>
      <trkpt lat="43.60235" lon="3.04059">
        <ele>546.5999756</ele>
        <time>2013-08-10T08:33:04Z</time>
      </trkpt>
      <trkpt lat="43.60222" lon="3.04065">
        <ele>546.5999756</ele>
        <time>2013-08-10T08:33:06Z</time>
      </trkpt>
      <trkpt lat="43.60204" lon="3.04074">
        <ele>546.5999756</ele>
        <time>2013-08-10T08:33:10Z</time>
      </trkpt>
      <trkpt lat="43.60194" lon="3.0408">
        <ele>546.5999756</ele>
        <time>2013-08-10T08:33:11Z</time>
      </trkpt>
      <trkpt lat="43.60189" lon="3.04084">
        <ele>546.5999756</ele>
        <time>2013-08-10T08:33:12Z</time>
      </trkpt>
      <trkpt lat="43.6016" lon="3.041">
        <ele>546.5999756</ele>
        <time>2013-08-10T08:33:18Z</time>
      </trkpt>
      <trkpt lat="43.6013" lon="3.04122">
        <ele>546.5999756</ele>
        <time>2013-08-10T08:33:24Z</time>
      </trkpt>
      <trkpt lat="43.60099" lon="3.04144">
        <ele>546.5999756</ele>
        <time>2013-08-10T08:33:30Z</time>
      </trkpt>
      <trkpt lat="43.60092" lon="3.04146">
        <ele>546</ele>
        <time>2013-08-10T08:33:31Z</time>
      </trkpt>
      <trkpt lat="43.60086" lon="3.04151">
        <ele>545.5999756</ele>
        <time>2013-08-10T08:33:32Z</time>
      </trkpt>
      <trkpt lat="43.6008" lon="3.04155">
        <ele>545.2000122</ele>
        <time>2013-08-10T08:33:33Z</time>
      </trkpt>
      <trkpt lat="43.60074" lon="3.04161">
        <ele>544.7999878</ele>
        <time>2013-08-10T08:33:34Z</time>
      </trkpt>
      <trkpt lat="43.60067" lon="3.04167">
        <ele>544.4000244</ele>
        <time>2013-08-10T08:33:35Z</time>
      </trkpt>
      <trkpt lat="43.60061" lon="3.04173">
        <ele>544.4000244</ele>
        <time>2013-08-10T08:33:36Z</time>
      </trkpt>
      <trkpt lat="43.60056" lon="3.04179">
        <ele>544</ele>
        <time>2013-08-10T08:33:37Z</time>
      </trkpt>
      <trkpt lat="43.6005" lon="3.04186">
        <ele>543.4000244</ele>
        <time>2013-08-10T08:33:38Z</time>
      </trkpt>
      <trkpt lat="43.60045" lon="3.04193">
        <ele>543</ele>
        <time>2013-08-10T08:33:39Z</time>
      </trkpt>
      <trkpt lat="43.60041" lon="3.04201">
        <ele>542.5999756</ele>
        <time>2013-08-10T08:33:40Z</time>
      </trkpt>
      <trkpt lat="43.60036" lon="3.04209">
        <ele>542</ele>
        <time>2013-08-10T08:33:41Z</time>
      </trkpt>
      <trkpt lat="43.6003" lon="3.04214">
        <ele>541.5999756</ele>
        <time>2013-08-10T08:33:42Z</time>
      </trkpt>
      <trkpt lat="43.60024" lon="3.04219">
        <ele>541.2000122</ele>
        <time>2013-08-10T08:33:43Z</time>
      </trkpt>
      <trkpt lat="43.60019" lon="3.04225">
        <ele>540.7999878</ele>
        <time>2013-08-10T08:33:44Z</time>
      </trkpt>
      <trkpt lat="43.60015" lon="3.04232">
        <ele>540.4000244</ele>
        <time>2013-08-10T08:33:45Z</time>
      </trkpt>
      <trkpt lat="43.60011" lon="3.04239">
        <ele>539.7999878</ele>
        <time>2013-08-10T08:33:46Z</time>
      </trkpt>
      <trkpt lat="43.60007" lon="3.04246">
        <ele>539.2000122</ele>
        <time>2013-08-10T08:33:47Z</time>
      </trkpt>
      <trkpt lat="43.60005" lon="3.04255">
        <ele>538.5999756</ele>
        <time>2013-08-10T08:33:48Z</time>
      </trkpt>
      <trkpt lat="43.60003" lon="3.04264">
        <ele>538</ele>
        <time>2013-08-10T08:33:49Z</time>
      </trkpt>
      <trkpt lat="43.60002" lon="3.04272">
        <ele>537.4000244</ele>
        <time>2013-08-10T08:33:50Z</time>
      </trkpt>
      <trkpt lat="43.6" lon="3.04276">
        <ele>536.7999878</ele>
        <time>2013-08-10T08:33:51Z</time>
      </trkpt>
      <trkpt lat="43.59997" lon="3.04278">
        <ele>536.2000122</ele>
        <time>2013-08-10T08:33:52Z</time>
      </trkpt>
      <trkpt lat="43.59993" lon="3.04278">
        <ele>535.5999756</ele>
        <time>2013-08-10T08:33:53Z</time>
      </trkpt>
      <trkpt lat="43.59989" lon="3.04275">
        <ele>535</ele>
        <time>2013-08-10T08:33:54Z</time>
      </trkpt>
      <trkpt lat="43.59984" lon="3.04273">
        <ele>534.4000244</ele>
        <time>2013-08-10T08:33:55Z</time>
      </trkpt>
      <trkpt lat="43.59979" lon="3.04271">
        <ele>533.7999878</ele>
        <time>2013-08-10T08:33:56Z</time>
      </trkpt>
      <trkpt lat="43.59975" lon="3.0427">
        <ele>533.4000244</ele>
        <time>2013-08-10T08:33:57Z</time>
      </trkpt>
      <trkpt lat="43.59972" lon="3.04275">
        <ele>532.7999878</ele>
        <time>2013-08-10T08:33:58Z</time>
      </trkpt>
      <trkpt lat="43.5997" lon="3.0428">
        <ele>532.2000122</ele>
        <time>2013-08-10T08:33:59Z</time>
      </trkpt>
      <trkpt lat="43.59968" lon="3.04287">
        <ele>531.5999756</ele>
        <time>2013-08-10T08:34:00Z</time>
      </trkpt>
      <trkpt lat="43.59966" lon="3.04293">
        <ele>530.7999878</ele>
        <time>2013-08-10T08:34:01Z</time>
      </trkpt>
      <trkpt lat="43.59965" lon="3.04298">
        <ele>529.7999878</ele>
        <time>2013-08-10T08:34:02Z</time>
      </trkpt>
      <trkpt lat="43.59963" lon="3.04301">
        <ele>529.2000122</ele>
        <time>2013-08-10T08:34:03Z</time>
      </trkpt>
      <trkpt lat="43.59961" lon="3.04303">
        <ele>528.5999756</ele>
        <time>2013-08-10T08:34:04Z</time>
      </trkpt>
      <trkpt lat="43.59959" lon="3.04304">
        <ele>528</ele>
        <time>2013-08-10T08:34:05Z</time>
      </trkpt>
      <trkpt lat="43.59953" lon="3.04303">
        <ele>527.4000244</ele>
        <time>2013-08-10T08:34:06Z</time>
      </trkpt>
      <trkpt lat="43.59948" lon="3.043">
        <ele>527</ele>
        <time>2013-08-10T08:34:07Z</time>
      </trkpt>
      <trkpt lat="43.59944" lon="3.04296">
        <ele>526.5999756</ele>
        <time>2013-08-10T08:34:08Z</time>
      </trkpt>
      <trkpt lat="43.59939" lon="3.04292">
        <ele>526</ele>
        <time>2013-08-10T08:34:09Z</time>
      </trkpt>
      <trkpt lat="43.59934" lon="3.04289">
        <ele>525.2000122</ele>
        <time>2013-08-10T08:34:10Z</time>
      </trkpt>
      <trkpt lat="43.5993" lon="3.04287">
        <ele>524.5999756</ele>
        <time>2013-08-10T08:34:11Z</time>
      </trkpt>
      <trkpt lat="43.59926" lon="3.04285">
        <ele>523.7999878</ele>
        <time>2013-08-10T08:34:12Z</time>
      </trkpt>
      <trkpt lat="43.59925" lon="3.04285">
        <ele>523.2000122</ele>
        <time>2013-08-10T08:34:13Z</time>
      </trkpt>
      <trkpt lat="43.59923" lon="3.04285">
        <ele>522.4000244</ele>
        <time>2013-08-10T08:34:14Z</time>
      </trkpt>
      <trkpt lat="43.59923" lon="3.04285">
        <ele>521.7999878</ele>
        <time>2013-08-10T08:34:15Z</time>
      </trkpt>
      <trkpt lat="43.59924" lon="3.04286">
        <ele>521</ele>
        <time>2013-08-10T08:34:16Z</time>
      </trkpt>
      <trkpt lat="43.59925" lon="3.04293">
        <ele>520.2000122</ele>
        <time>2013-08-10T08:34:32Z</time>
      </trkpt>
      <trkpt lat="43.59926" lon="3.04295">
        <ele>519.7999878</ele>
        <time>2013-08-10T08:34:33Z</time>
      </trkpt>
      <trkpt lat="43.59927" lon="3.04298">
        <ele>519.4000244</ele>
        <time>2013-08-10T08:34:34Z</time>
      </trkpt>
      <trkpt lat="43.59929" lon="3.04302">
        <ele>519</ele>
        <time>2013-08-10T08:34:35Z</time>
      </trkpt>
      <trkpt lat="43.59937" lon="3.0432">
        <ele>519</ele>
        <time>2013-08-10T08:34:39Z</time>
      </trkpt>
      <trkpt lat="43.59947" lon="3.04333">
        <ele>519</ele>
        <time>2013-08-10T08:34:44Z</time>
      </trkpt>
      <trkpt lat="43.59957" lon="3.04349">
        <ele>519</ele>
        <time>2013-08-10T08:34:50Z</time>
      </trkpt>
      <trkpt lat="43.5996" lon="3.04352">
        <ele>518.5999756</ele>
        <time>2013-08-10T08:34:51Z</time>
      </trkpt>
      <trkpt lat="43.59963" lon="3.04354">
        <ele>517.5999756</ele>
        <time>2013-08-10T08:34:52Z</time>
      </trkpt>
      <trkpt lat="43.59967" lon="3.04356">
        <ele>517.2000122</ele>
        <time>2013-08-10T08:34:53Z</time>
      </trkpt>
      <trkpt lat="43.59971" lon="3.04358">
        <ele>516.7999878</ele>
        <time>2013-08-10T08:34:54Z</time>
      </trkpt>
      <trkpt lat="43.59974" lon="3.0436">
        <ele>516.7999878</ele>
        <time>2013-08-10T08:34:55Z</time>
      </trkpt>
      <trkpt lat="43.59977" lon="3.04361">
        <ele>516.7999878</ele>
        <time>2013-08-10T08:34:56Z</time>
      </trkpt>
      <trkpt lat="43.59983" lon="3.04363">
        <ele>516.7999878</ele>
        <time>2013-08-10T08:34:58Z</time>
      </trkpt>
      <trkpt lat="43.59994" lon="3.04367">
        <ele>516.7999878</ele>
        <time>2013-08-10T08:35:01Z</time>
      </trkpt>
      <trkpt lat="43.60005" lon="3.0437">
        <ele>516.7999878</ele>
        <time>2013-08-10T08:35:04Z</time>
      </trkpt>
      <trkpt lat="43.60016" lon="3.04374">
        <ele>517.2000122</ele>
        <time>2013-08-10T08:35:07Z</time>
      </trkpt>
      <trkpt lat="43.60019" lon="3.04376">
        <ele>517.5999756</ele>
        <time>2013-08-10T08:35:08Z</time>
      </trkpt>
      <trkpt lat="43.60022" lon="3.04378">
        <ele>518</ele>
        <time>2013-08-10T08:35:09Z</time>
      </trkpt>
      <trkpt lat="43.60025" lon="3.0438">
        <ele>518.4000244</ele>
        <time>2013-08-10T08:35:10Z</time>
      </trkpt>
      <trkpt lat="43.60029" lon="3.04381">
        <ele>518.7999878</ele>
        <time>2013-08-10T08:35:11Z</time>
      </trkpt>
      <trkpt lat="43.60038" lon="3.04386">
        <ele>518.7999878</ele>
        <time>2013-08-10T08:35:14Z</time>
      </trkpt>
      <trkpt lat="43.60049" lon="3.04393">
        <ele>518.7999878</ele>
        <time>2013-08-10T08:35:18Z</time>
      </trkpt>
      <trkpt lat="43.60052" lon="3.04398">
        <ele>518.7999878</ele>
        <time>2013-08-10T08:35:19Z</time>
      </trkpt>
      <trkpt lat="43.60061" lon="3.0441">
        <ele>518.7999878</ele>
        <time>2013-08-10T08:35:22Z</time>
      </trkpt>
      <trkpt lat="43.6007" lon="3.04419">
        <ele>518.7999878</ele>
        <time>2013-08-10T08:35:25Z</time>
      </trkpt>
      <trkpt lat="43.60074" lon="3.04421">
        <ele>518.7999878</ele>
        <time>2013-08-10T08:35:26Z</time>
      </trkpt>
      <trkpt lat="43.60087" lon="3.04427">
        <ele>519.2000122</ele>
        <time>2013-08-10T08:35:29Z</time>
      </trkpt>
      <trkpt lat="43.6009" lon="3.04428">
        <ele>519.5999756</ele>
        <time>2013-08-10T08:35:30Z</time>
      </trkpt>
      <trkpt lat="43.60093" lon="3.04429">
        <ele>520.2000122</ele>
        <time>2013-08-10T08:35:31Z</time>
      </trkpt>
      <trkpt lat="43.60096" lon="3.0443">
        <ele>520.5999756</ele>
        <time>2013-08-10T08:35:32Z</time>
      </trkpt>
      <trkpt lat="43.601" lon="3.04431">
        <ele>521</ele>
        <time>2013-08-10T08:35:33Z</time>
      </trkpt>
      <trkpt lat="43.60122" lon="3.0443">
        <ele>521</ele>
        <time>2013-08-10T08:35:39Z</time>
      </trkpt>
      <trkpt lat="43.60135" lon="3.04426">
        <ele>521.4000244</ele>
        <time>2013-08-10T08:35:44Z</time>
      </trkpt>
      <trkpt lat="43.60139" lon="3.04426">
        <ele>521.7999878</ele>
        <time>2013-08-10T08:35:45Z</time>
      </trkpt>
      <trkpt lat="43.60141" lon="3.04426">
        <ele>522.2000122</ele>
        <time>2013-08-10T08:35:46Z</time>
      </trkpt>
      <trkpt lat="43.60143" lon="3.04426">
        <ele>522.5999756</ele>
        <time>2013-08-10T08:35:47Z</time>
      </trkpt>
      <trkpt lat="43.60145" lon="3.04426">
        <ele>523</ele>
        <time>2013-08-10T08:35:48Z</time>
      </trkpt>
      <trkpt lat="43.60153" lon="3.04428">
        <ele>523</ele>
        <time>2013-08-10T08:35:52Z</time>
      </trkpt>
      <trkpt lat="43.60159" lon="3.0443">
        <ele>523.4000244</ele>
        <time>2013-08-10T08:35:55Z</time>
      </trkpt>
      <trkpt lat="43.60161" lon="3.04431">
        <ele>524</ele>
        <time>2013-08-10T08:35:56Z</time>
      </trkpt>
      <trkpt lat="43.60162" lon="3.04432">
        <ele>524.4000244</ele>
        <time>2013-08-10T08:35:57Z</time>
      </trkpt>
      <trkpt lat="43.60164" lon="3.04434">
        <ele>524.7999878</ele>
        <time>2013-08-10T08:35:58Z</time>
      </trkpt>
      <trkpt lat="43.60165" lon="3.04435">
        <ele>525.2000122</ele>
        <time>2013-08-10T08:35:59Z</time>
      </trkpt>
      <trkpt lat="43.6017" lon="3.04441">
        <ele>525.2000122</ele>
        <time>2013-08-10T08:36:02Z</time>
      </trkpt>
      <trkpt lat="43.60177" lon="3.04446">
        <ele>525.2000122</ele>
        <time>2013-08-10T08:36:04Z</time>
      </trkpt>
      <trkpt lat="43.60181" lon="3.04448">
        <ele>525.2000122</ele>
        <time>2013-08-10T08:36:05Z</time>
      </trkpt>
      <trkpt lat="43.60192" lon="3.04451">
        <ele>525.2000122</ele>
        <time>2013-08-10T08:36:08Z</time>
      </trkpt>
      <trkpt lat="43.60196" lon="3.04452">
        <ele>525.2000122</ele>
        <time>2013-08-10T08:36:09Z</time>
      </trkpt>
      <trkpt lat="43.60199" lon="3.04454">
        <ele>525.2000122</ele>
        <time>2013-08-10T08:36:10Z</time>
      </trkpt>
      <trkpt lat="43.60203" lon="3.04459">
        <ele>525.2000122</ele>
        <time>2013-08-10T08:36:12Z</time>
      </trkpt>
      <trkpt lat="43.60207" lon="3.04469">
        <ele>525.2000122</ele>
        <time>2013-08-10T08:36:14Z</time>
      </trkpt>
      <trkpt lat="43.60212" lon="3.04481">
        <ele>525.2000122</ele>
        <time>2013-08-10T08:36:16Z</time>
      </trkpt>
      <trkpt lat="43.60214" lon="3.04495">
        <ele>525.2000122</ele>
        <time>2013-08-10T08:36:18Z</time>
      </trkpt>
      <trkpt lat="43.60216" lon="3.04503">
        <ele>525.2000122</ele>
        <time>2013-08-10T08:36:19Z</time>
      </trkpt>
      <trkpt lat="43.60216" lon="3.04511">
        <ele>524.7999878</ele>
        <time>2013-08-10T08:36:20Z</time>
      </trkpt>
      <trkpt lat="43.60216" lon="3.04518">
        <ele>524.4000244</ele>
        <time>2013-08-10T08:36:21Z</time>
      </trkpt>
      <trkpt lat="43.60217" lon="3.04525">
        <ele>524</ele>
        <time>2013-08-10T08:36:22Z</time>
      </trkpt>
      <trkpt lat="43.60219" lon="3.04532">
        <ele>523.5999756</ele>
        <time>2013-08-10T08:36:23Z</time>
      </trkpt>
      <trkpt lat="43.60225" lon="3.04539">
        <ele>523</ele>
        <time>2013-08-10T08:36:24Z</time>
      </trkpt>
      <trkpt lat="43.60227" lon="3.04545">
        <ele>523</ele>
        <time>2013-08-10T08:36:25Z</time>
      </trkpt>
      <trkpt lat="43.60234" lon="3.04556">
        <ele>523</ele>
        <time>2013-08-10T08:36:27Z</time>
      </trkpt>
      <trkpt lat="43.60246" lon="3.04572">
        <ele>523</ele>
        <time>2013-08-10T08:36:30Z</time>
      </trkpt>
      <trkpt lat="43.6025" lon="3.04579">
        <ele>522.5999756</ele>
        <time>2013-08-10T08:36:31Z</time>
      </trkpt>
      <trkpt lat="43.60263" lon="3.04587">
        <ele>522.2000122</ele>
        <time>2013-08-10T08:36:32Z</time>
      </trkpt>
      <trkpt lat="43.60269" lon="3.04595">
        <ele>521.7999878</ele>
        <time>2013-08-10T08:36:33Z</time>
      </trkpt>
      <trkpt lat="43.60272" lon="3.04602">
        <ele>521.4000244</ele>
        <time>2013-08-10T08:36:34Z</time>
      </trkpt>
      <trkpt lat="43.60275" lon="3.04609">
        <ele>521</ele>
        <time>2013-08-10T08:36:35Z</time>
      </trkpt>
      <trkpt lat="43.60282" lon="3.04621">
        <ele>520.5999756</ele>
        <time>2013-08-10T08:36:37Z</time>
      </trkpt>
      <trkpt lat="43.60284" lon="3.04624">
        <ele>520</ele>
        <time>2013-08-10T08:36:38Z</time>
      </trkpt>
      <trkpt lat="43.60285" lon="3.04627">
        <ele>519.5999756</ele>
        <time>2013-08-10T08:36:39Z</time>
      </trkpt>
      <trkpt lat="43.60285" lon="3.04628">
        <ele>519.2000122</ele>
        <time>2013-08-10T08:36:40Z</time>
      </trkpt>
      <trkpt lat="43.60284" lon="3.04629">
        <ele>518.5999756</ele>
        <time>2013-08-10T08:36:41Z</time>
      </trkpt>
      <trkpt lat="43.60284" lon="3.04629">
        <ele>518.5999756</ele>
        <time>2013-08-10T08:36:42Z</time>
      </trkpt>
      <trkpt lat="43.60283" lon="3.0463">
        <ele>518.2000122</ele>
        <time>2013-08-10T08:36:45Z</time>
      </trkpt>
      <trkpt lat="43.60283" lon="3.0463">
        <ele>517.7999878</ele>
        <time>2013-08-10T08:36:46Z</time>
      </trkpt>
      <trkpt lat="43.60275" lon="3.0463">
        <ele>516.4000244</ele>
        <time>2013-08-10T08:43:56Z</time>
      </trkpt>
      <trkpt lat="43.60271" lon="3.0463">
        <ele>516.4000244</ele>
        <time>2013-08-10T08:43:57Z</time>
      </trkpt>
      <trkpt lat="43.60265" lon="3.04632">
        <ele>515.7999878</ele>
        <time>2013-08-10T08:43:59Z</time>
      </trkpt>
      <trkpt lat="43.60262" lon="3.04634">
        <ele>515.2000122</ele>
        <time>2013-08-10T08:44:00Z</time>
      </trkpt>
      <trkpt lat="43.6026" lon="3.04637">
        <ele>514.7999878</ele>
        <time>2013-08-10T08:44:01Z</time>
      </trkpt>
      <trkpt lat="43.60258" lon="3.0464">
        <ele>514</ele>
        <time>2013-08-10T08:44:02Z</time>
      </trkpt>
      <trkpt lat="43.60256" lon="3.04643">
        <ele>513.4000244</ele>
        <time>2013-08-10T08:44:03Z</time>
      </trkpt>
      <trkpt lat="43.60256" lon="3.04647">
        <ele>512.7999878</ele>
        <time>2013-08-10T08:44:04Z</time>
      </trkpt>
      <trkpt lat="43.60255" lon="3.04651">
        <ele>512</ele>
        <time>2013-08-10T08:44:05Z</time>
      </trkpt>
      <trkpt lat="43.60255" lon="3.04654">
        <ele>511.2000122</ele>
        <time>2013-08-10T08:44:06Z</time>
      </trkpt>
      <trkpt lat="43.60254" lon="3.04656">
        <ele>510.6000061</ele>
        <time>2013-08-10T08:44:07Z</time>
      </trkpt>
      <trkpt lat="43.60252" lon="3.04658">
        <ele>509.7999878</ele>
        <time>2013-08-10T08:44:08Z</time>
      </trkpt>
      <trkpt lat="43.60249" lon="3.04658">
        <ele>509.2000122</ele>
        <time>2013-08-10T08:44:09Z</time>
      </trkpt>
      <trkpt lat="43.60248" lon="3.04661">
        <ele>508.3999939</ele>
        <time>2013-08-10T08:44:10Z</time>
      </trkpt>
      <trkpt lat="43.60249" lon="3.04665">
        <ele>507.6000061</ele>
        <time>2013-08-10T08:44:11Z</time>
      </trkpt>
      <trkpt lat="43.60249" lon="3.04668">
        <ele>506.7999878</ele>
        <time>2013-08-10T08:44:12Z</time>
      </trkpt>
      <trkpt lat="43.60251" lon="3.04673">
        <ele>506.2000122</ele>
        <time>2013-08-10T08:44:13Z</time>
      </trkpt>
      <trkpt lat="43.60252" lon="3.04677">
        <ele>504.6000061</ele>
        <time>2013-08-10T08:44:14Z</time>
      </trkpt>
      <trkpt lat="43.60255" lon="3.04683">
        <ele>504.2000122</ele>
        <time>2013-08-10T08:44:15Z</time>
      </trkpt>
      <trkpt lat="43.60257" lon="3.04689">
        <ele>503.7999878</ele>
        <time>2013-08-10T08:44:16Z</time>
      </trkpt>
      <trkpt lat="43.60261" lon="3.04696">
        <ele>503.3999939</ele>
        <time>2013-08-10T08:44:17Z</time>
      </trkpt>
      <trkpt lat="43.60268" lon="3.04702">
        <ele>503</ele>
        <time>2013-08-10T08:44:18Z</time>
      </trkpt>
      <trkpt lat="43.60274" lon="3.04707">
        <ele>502.3999939</ele>
        <time>2013-08-10T08:44:19Z</time>
      </trkpt>
      <trkpt lat="43.6028" lon="3.0471">
        <ele>502</ele>
        <time>2013-08-10T08:44:20Z</time>
      </trkpt>
      <trkpt lat="43.60286" lon="3.04713">
        <ele>501.6000061</ele>
        <time>2013-08-10T08:44:21Z</time>
      </trkpt>
      <trkpt lat="43.60291" lon="3.04714">
        <ele>501.2000122</ele>
        <time>2013-08-10T08:44:22Z</time>
      </trkpt>
      <trkpt lat="43.60295" lon="3.04715">
        <ele>500.7999878</ele>
        <time>2013-08-10T08:44:23Z</time>
      </trkpt>
      <trkpt lat="43.60298" lon="3.04715">
        <ele>500.3999939</ele>
        <time>2013-08-10T08:44:24Z</time>
      </trkpt>
      <trkpt lat="43.60301" lon="3.04715">
        <ele>500.3999939</ele>
        <time>2013-08-10T08:44:26Z</time>
      </trkpt>
      <trkpt lat="43.60303" lon="3.04715">
        <ele>500.3999939</ele>
        <time>2013-08-10T08:44:29Z</time>
      </trkpt>
      <trkpt lat="43.603" lon="3.04721">
        <ele>500</ele>
        <time>2013-08-10T08:44:58Z</time>
      </trkpt>
      <trkpt lat="43.60297" lon="3.04722">
        <ele>499.6000061</ele>
        <time>2013-08-10T08:44:59Z</time>
      </trkpt>
      <trkpt lat="43.60293" lon="3.04723">
        <ele>499.2000122</ele>
        <time>2013-08-10T08:45:00Z</time>
      </trkpt>
      <trkpt lat="43.60291" lon="3.04724">
        <ele>498.7999878</ele>
        <time>2013-08-10T08:45:01Z</time>
      </trkpt>
      <trkpt lat="43.60288" lon="3.04725">
        <ele>498.2000122</ele>
        <time>2013-08-10T08:45:02Z</time>
      </trkpt>
      <trkpt lat="43.60287" lon="3.04727">
        <ele>497</ele>
        <time>2013-08-10T08:45:03Z</time>
      </trkpt>
      <trkpt lat="43.60287" lon="3.04727">
        <ele>496.2000122</ele>
        <time>2013-08-10T08:45:04Z</time>
      </trkpt>
      <trkpt lat="43.60286" lon="3.04728">
        <ele>495.6000061</ele>
        <time>2013-08-10T08:45:05Z</time>
      </trkpt>
      <trkpt lat="43.60286" lon="3.04728">
        <ele>495</ele>
        <time>2013-08-10T08:45:06Z</time>
      </trkpt>
      <trkpt lat="43.60286" lon="3.04727">
        <ele>494.2000122</ele>
        <time>2013-08-10T08:45:07Z</time>
      </trkpt>
      <trkpt lat="43.60286" lon="3.04727">
        <ele>493.6000061</ele>
        <time>2013-08-10T08:45:08Z</time>
      </trkpt>
      <trkpt lat="43.60286" lon="3.04727">
        <ele>493.6000061</ele>
        <time>2013-08-10T08:45:09Z</time>
      </trkpt>
      <trkpt lat="43.60289" lon="3.04731">
        <ele>491.6000061</ele>
        <time>2013-08-10T08:45:21Z</time>
      </trkpt>
      <trkpt lat="43.6029" lon="3.04734">
        <ele>491.6000061</ele>
        <time>2013-08-10T08:45:22Z</time>
      </trkpt>
      <trkpt lat="43.60291" lon="3.04737">
        <ele>491.2000122</ele>
        <time>2013-08-10T08:45:23Z</time>
      </trkpt>
      <trkpt lat="43.60293" lon="3.04739">
        <ele>490.7999878</ele>
        <time>2013-08-10T08:45:24Z</time>
      </trkpt>
      <trkpt lat="43.60294" lon="3.04741">
        <ele>490.2000122</ele>
        <time>2013-08-10T08:45:25Z</time>
      </trkpt>
      <trkpt lat="43.60294" lon="3.04743">
        <ele>489.7999878</ele>
        <time>2013-08-10T08:45:26Z</time>
      </trkpt>
      <trkpt lat="43.60297" lon="3.04746">
        <ele>489.3999939</ele>
        <time>2013-08-10T08:45:27Z</time>
      </trkpt>
      <trkpt lat="43.60298" lon="3.04747">
        <ele>488.6000061</ele>
        <time>2013-08-10T08:45:28Z</time>
      </trkpt>
      <trkpt lat="43.603" lon="3.04749">
        <ele>488.2000122</ele>
        <time>2013-08-10T08:45:29Z</time>
      </trkpt>
      <trkpt lat="43.60302" lon="3.04752">
        <ele>487.6000061</ele>
        <time>2013-08-10T08:45:30Z</time>
      </trkpt>
      <trkpt lat="43.60304" lon="3.04755">
        <ele>487.2000122</ele>
        <time>2013-08-10T08:45:31Z</time>
      </trkpt>
      <trkpt lat="43.60306" lon="3.04757">
        <ele>486.7999878</ele>
        <time>2013-08-10T08:45:32Z</time>
      </trkpt>
      <trkpt lat="43.60309" lon="3.0476">
        <ele>486.3999939</ele>
        <time>2013-08-10T08:45:33Z</time>
      </trkpt>
      <trkpt lat="43.60311" lon="3.04762">
        <ele>486</ele>
        <time>2013-08-10T08:45:34Z</time>
      </trkpt>
      <trkpt lat="43.60313" lon="3.04764">
        <ele>485.6000061</ele>
        <time>2013-08-10T08:45:35Z</time>
      </trkpt>
      <trkpt lat="43.60315" lon="3.04765">
        <ele>485</ele>
        <time>2013-08-10T08:45:36Z</time>
      </trkpt>
      <trkpt lat="43.60316" lon="3.04767">
        <ele>484.6000061</ele>
        <time>2013-08-10T08:45:37Z</time>
      </trkpt>
      <trkpt lat="43.60318" lon="3.04769">
        <ele>484.2000122</ele>
        <time>2013-08-10T08:45:38Z</time>
      </trkpt>
      <trkpt lat="43.60319" lon="3.04772">
        <ele>483.7999878</ele>
        <time>2013-08-10T08:45:39Z</time>
      </trkpt>
      <trkpt lat="43.60321" lon="3.04776">
        <ele>483.3999939</ele>
        <time>2013-08-10T08:45:40Z</time>
      </trkpt>
      <trkpt lat="43.60322" lon="3.0478">
        <ele>483</ele>
        <time>2013-08-10T08:45:41Z</time>
      </trkpt>
      <trkpt lat="43.60325" lon="3.04785">
        <ele>482.6000061</ele>
        <time>2013-08-10T08:45:43Z</time>
      </trkpt>
      <trkpt lat="43.60327" lon="3.04787">
        <ele>482.2000122</ele>
        <time>2013-08-10T08:45:44Z</time>
      </trkpt>
      <trkpt lat="43.60329" lon="3.04788">
        <ele>481.7999878</ele>
        <time>2013-08-10T08:45:45Z</time>
      </trkpt>
      <trkpt lat="43.6033" lon="3.04789">
        <ele>481.2000122</ele>
        <time>2013-08-10T08:45:46Z</time>
      </trkpt>
      <trkpt lat="43.60331" lon="3.0479">
        <ele>480.7999878</ele>
        <time>2013-08-10T08:45:47Z</time>
      </trkpt>
      <trkpt lat="43.60332" lon="3.04792">
        <ele>480.7999878</ele>
        <time>2013-08-10T08:45:49Z</time>
      </trkpt>
      <trkpt lat="43.60334" lon="3.04797">
        <ele>480.3999939</ele>
        <time>2013-08-10T08:45:51Z</time>
      </trkpt>
      <trkpt lat="43.60335" lon="3.04798">
        <ele>480</ele>
        <time>2013-08-10T08:45:52Z</time>
      </trkpt>
      <trkpt lat="43.60337" lon="3.048">
        <ele>479.2000122</ele>
        <time>2013-08-10T08:45:53Z</time>
      </trkpt>
      <trkpt lat="43.60336" lon="3.048">
        <ele>478.7999878</ele>
        <time>2013-08-10T08:45:54Z</time>
      </trkpt>
      <trkpt lat="43.60345" lon="3.04805">
        <ele>478.7999878</ele>
        <time>2013-08-10T08:46:05Z</time>
      </trkpt>
      <trkpt lat="43.60347" lon="3.04806">
        <ele>478.3999939</ele>
        <time>2013-08-10T08:46:06Z</time>
      </trkpt>
      <trkpt lat="43.60348" lon="3.04808">
        <ele>477.7999878</ele>
        <time>2013-08-10T08:46:07Z</time>
      </trkpt>
      <trkpt lat="43.6035" lon="3.04809">
        <ele>477.3999939</ele>
        <time>2013-08-10T08:46:08Z</time>
      </trkpt>
      <trkpt lat="43.60353" lon="3.04811">
        <ele>476.6000061</ele>
        <time>2013-08-10T08:46:11Z</time>
      </trkpt>
      <trkpt lat="43.60354" lon="3.04812">
        <ele>476.6000061</ele>
        <time>2013-08-10T08:46:14Z</time>
      </trkpt>
      <trkpt lat="43.60358" lon="3.04813">
        <ele>476.6000061</ele>
        <time>2013-08-10T08:46:17Z</time>
      </trkpt>
      <trkpt lat="43.6036" lon="3.04813">
        <ele>476.2000122</ele>
        <time>2013-08-10T08:46:18Z</time>
      </trkpt>
      <trkpt lat="43.60362" lon="3.04814">
        <ele>475.7999878</ele>
        <time>2013-08-10T08:46:19Z</time>
      </trkpt>
      <trkpt lat="43.60364" lon="3.04815">
        <ele>475.3999939</ele>
        <time>2013-08-10T08:46:20Z</time>
      </trkpt>
      <trkpt lat="43.60365" lon="3.04816">
        <ele>474.7999878</ele>
        <time>2013-08-10T08:46:21Z</time>
      </trkpt>
      <trkpt lat="43.60366" lon="3.04819">
        <ele>474.3999939</ele>
        <time>2013-08-10T08:46:22Z</time>
      </trkpt>
      <trkpt lat="43.60367" lon="3.04821">
        <ele>474.3999939</ele>
        <time>2013-08-10T08:46:23Z</time>
      </trkpt>
      <trkpt lat="43.60368" lon="3.04828">
        <ele>474</ele>
        <time>2013-08-10T08:46:25Z</time>
      </trkpt>
      <trkpt lat="43.60369" lon="3.04831">
        <ele>473.3999939</ele>
        <time>2013-08-10T08:46:26Z</time>
      </trkpt>
      <trkpt lat="43.60369" lon="3.04835">
        <ele>473</ele>
        <time>2013-08-10T08:46:27Z</time>
      </trkpt>
      <trkpt lat="43.6037" lon="3.04838">
        <ele>472.3999939</ele>
        <time>2013-08-10T08:46:28Z</time>
      </trkpt>
      <trkpt lat="43.60372" lon="3.04841">
        <ele>472</ele>
        <time>2013-08-10T08:46:29Z</time>
      </trkpt>
      <trkpt lat="43.60373" lon="3.04842">
        <ele>471.3999939</ele>
        <time>2013-08-10T08:46:30Z</time>
      </trkpt>
      <trkpt lat="43.60376" lon="3.04843">
        <ele>471</ele>
        <time>2013-08-10T08:46:31Z</time>
      </trkpt>
      <trkpt lat="43.60378" lon="3.04845">
        <ele>470.6000061</ele>
        <time>2013-08-10T08:46:32Z</time>
      </trkpt>
      <trkpt lat="43.6038" lon="3.04846">
        <ele>470</ele>
        <time>2013-08-10T08:46:33Z</time>
      </trkpt>
      <trkpt lat="43.60382" lon="3.04847">
        <ele>469.6000061</ele>
        <time>2013-08-10T08:46:34Z</time>
      </trkpt>
      <trkpt lat="43.60384" lon="3.04849">
        <ele>469.2000122</ele>
        <time>2013-08-10T08:46:35Z</time>
      </trkpt>
      <trkpt lat="43.60386" lon="3.0485">
        <ele>468.7999878</ele>
        <time>2013-08-10T08:46:36Z</time>
      </trkpt>
      <trkpt lat="43.60388" lon="3.04851">
        <ele>468.3999939</ele>
        <time>2013-08-10T08:46:37Z</time>
      </trkpt>
      <trkpt lat="43.6039" lon="3.04852">
        <ele>468</ele>
        <time>2013-08-10T08:46:38Z</time>
      </trkpt>
      <trkpt lat="43.60392" lon="3.04854">
        <ele>467.6000061</ele>
        <time>2013-08-10T08:46:39Z</time>
      </trkpt>
      <trkpt lat="43.60393" lon="3.04856">
        <ele>467</ele>
        <time>2013-08-10T08:46:40Z</time>
      </trkpt>
      <trkpt lat="43.60395" lon="3.04859">
        <ele>466.6000061</ele>
        <time>2013-08-10T08:46:41Z</time>
      </trkpt>
      <trkpt lat="43.60396" lon="3.04861">
        <ele>465.6000061</ele>
        <time>2013-08-10T08:46:42Z</time>
      </trkpt>
      <trkpt lat="43.60398" lon="3.04864">
        <ele>465</ele>
        <time>2013-08-10T08:46:43Z</time>
      </trkpt>
      <trkpt lat="43.60399" lon="3.04866">
        <ele>464.3999939</ele>
        <time>2013-08-10T08:46:44Z</time>
      </trkpt>
      <trkpt lat="43.604" lon="3.04869">
        <ele>463.7999878</ele>
        <time>2013-08-10T08:46:45Z</time>
      </trkpt>
      <trkpt lat="43.604" lon="3.04872">
        <ele>463.2000122</ele>
        <time>2013-08-10T08:46:46Z</time>
      </trkpt>
      <trkpt lat="43.60401" lon="3.04873">
        <ele>462.7999878</ele>
        <time>2013-08-10T08:46:47Z</time>
      </trkpt>
      <trkpt lat="43.60401" lon="3.04874">
        <ele>462.2000122</ele>
        <time>2013-08-10T08:46:48Z</time>
      </trkpt>
      <trkpt lat="43.60402" lon="3.04874">
        <ele>461.6000061</ele>
        <time>2013-08-10T08:46:49Z</time>
      </trkpt>
      <trkpt lat="43.60402" lon="3.04874">
        <ele>460.6000061</ele>
        <time>2013-08-10T08:46:54Z</time>
      </trkpt>
      <trkpt lat="43.60405" lon="3.04874">
        <ele>460.6000061</ele>
        <time>2013-08-10T08:46:55Z</time>
      </trkpt>
      <trkpt lat="43.6041" lon="3.04875">
        <ele>460.6000061</ele>
        <time>2013-08-10T08:46:57Z</time>
      </trkpt>
      <trkpt lat="43.60412" lon="3.04876">
        <ele>460.2000122</ele>
        <time>2013-08-10T08:46:58Z</time>
      </trkpt>
      <trkpt lat="43.60414" lon="3.04878">
        <ele>459.7999878</ele>
        <time>2013-08-10T08:46:59Z</time>
      </trkpt>
      <trkpt lat="43.60415" lon="3.04878">
        <ele>459.3999939</ele>
        <time>2013-08-10T08:47:00Z</time>
      </trkpt>
      <trkpt lat="43.60417" lon="3.04881">
        <ele>458.7999878</ele>
        <time>2013-08-10T08:47:01Z</time>
      </trkpt>
      <trkpt lat="43.60418" lon="3.04884">
        <ele>458.3999939</ele>
        <time>2013-08-10T08:47:02Z</time>
      </trkpt>
      <trkpt lat="43.60419" lon="3.04889">
        <ele>458</ele>
        <time>2013-08-10T08:47:03Z</time>
      </trkpt>
      <trkpt lat="43.60419" lon="3.04893">
        <ele>457.6000061</ele>
        <time>2013-08-10T08:47:04Z</time>
      </trkpt>
      <trkpt lat="43.60419" lon="3.04897">
        <ele>457</ele>
        <time>2013-08-10T08:47:05Z</time>
      </trkpt>
      <trkpt lat="43.6042" lon="3.04901">
        <ele>456.2000122</ele>
        <time>2013-08-10T08:47:06Z</time>
      </trkpt>
      <trkpt lat="43.6042" lon="3.04905">
        <ele>455.7999878</ele>
        <time>2013-08-10T08:47:07Z</time>
      </trkpt>
      <trkpt lat="43.6042" lon="3.04909">
        <ele>455.3999939</ele>
        <time>2013-08-10T08:47:08Z</time>
      </trkpt>
      <trkpt lat="43.60422" lon="3.04913">
        <ele>455</ele>
        <time>2013-08-10T08:47:09Z</time>
      </trkpt>
      <trkpt lat="43.60424" lon="3.04916">
        <ele>454.3999939</ele>
        <time>2013-08-10T08:47:10Z</time>
      </trkpt>
      <trkpt lat="43.60426" lon="3.0492">
        <ele>454</ele>
        <time>2013-08-10T08:47:11Z</time>
      </trkpt>
      <trkpt lat="43.6043" lon="3.04927">
        <ele>454</ele>
        <time>2013-08-10T08:47:13Z</time>
      </trkpt>
      <trkpt lat="43.60432" lon="3.04931">
        <ele>453.6000061</ele>
        <time>2013-08-10T08:47:14Z</time>
      </trkpt>
      <trkpt lat="43.60435" lon="3.04934">
        <ele>453.2000122</ele>
        <time>2013-08-10T08:47:15Z</time>
      </trkpt>
      <trkpt lat="43.60439" lon="3.04938">
        <ele>452.7999878</ele>
        <time>2013-08-10T08:47:16Z</time>
      </trkpt>
      <trkpt lat="43.60443" lon="3.0494">
        <ele>452.2000122</ele>
        <time>2013-08-10T08:47:17Z</time>
      </trkpt>
      <trkpt lat="43.60447" lon="3.04942">
        <ele>451.7999878</ele>
        <time>2013-08-10T08:47:18Z</time>
      </trkpt>
      <trkpt lat="43.6045" lon="3.04944">
        <ele>451.3999939</ele>
        <time>2013-08-10T08:47:19Z</time>
      </trkpt>
      <trkpt lat="43.60452" lon="3.04945">
        <ele>451</ele>
        <time>2013-08-10T08:47:20Z</time>
      </trkpt>
      <trkpt lat="43.60453" lon="3.04947">
        <ele>450.3999939</ele>
        <time>2013-08-10T08:47:21Z</time>
      </trkpt>
      <trkpt lat="43.60455" lon="3.04948">
        <ele>450</ele>
        <time>2013-08-10T08:47:22Z</time>
      </trkpt>
      <trkpt lat="43.60457" lon="3.04949">
        <ele>449.6000061</ele>
        <time>2013-08-10T08:47:23Z</time>
      </trkpt>
      <trkpt lat="43.6046" lon="3.0495">
        <ele>449.2000122</ele>
        <time>2013-08-10T08:47:24Z</time>
      </trkpt>
      <trkpt lat="43.60462" lon="3.04951">
        <ele>448.7999878</ele>
        <time>2013-08-10T08:47:25Z</time>
      </trkpt>
      <trkpt lat="43.60464" lon="3.04952">
        <ele>448.3999939</ele>
        <time>2013-08-10T08:47:26Z</time>
      </trkpt>
      <trkpt lat="43.60466" lon="3.04954">
        <ele>447.7999878</ele>
        <time>2013-08-10T08:47:27Z</time>
      </trkpt>
      <trkpt lat="43.60467" lon="3.04955">
        <ele>447.3999939</ele>
        <time>2013-08-10T08:47:28Z</time>
      </trkpt>
      <trkpt lat="43.6047" lon="3.04956">
        <ele>446.7999878</ele>
        <time>2013-08-10T08:47:29Z</time>
      </trkpt>
      <trkpt lat="43.60472" lon="3.04957">
        <ele>446</ele>
        <time>2013-08-10T08:47:30Z</time>
      </trkpt>
      <trkpt lat="43.60474" lon="3.0496">
        <ele>445.3999939</ele>
        <time>2013-08-10T08:47:31Z</time>
      </trkpt>
      <trkpt lat="43.60476" lon="3.04965">
        <ele>445.3999939</ele>
        <time>2013-08-10T08:47:33Z</time>
      </trkpt>
      <trkpt lat="43.60477" lon="3.04966">
        <ele>445</ele>
        <time>2013-08-10T08:47:34Z</time>
      </trkpt>
      <trkpt lat="43.60477" lon="3.04967">
        <ele>444.3999939</ele>
        <time>2013-08-10T08:47:35Z</time>
      </trkpt>
      <trkpt lat="43.60477" lon="3.04968">
        <ele>443.7999878</ele>
        <time>2013-08-10T08:47:36Z</time>
      </trkpt>
      <trkpt lat="43.60477" lon="3.04973">
        <ele>442.7999878</ele>
        <time>2013-08-10T08:47:39Z</time>
      </trkpt>
      <trkpt lat="43.60473" lon="3.04983">
        <ele>442.3999939</ele>
        <time>2013-08-10T08:47:44Z</time>
      </trkpt>
      <trkpt lat="43.60472" lon="3.04983">
        <ele>442</ele>
        <time>2013-08-10T08:47:45Z</time>
      </trkpt>
      <trkpt lat="43.6047" lon="3.04983">
        <ele>441.6000061</ele>
        <time>2013-08-10T08:47:46Z</time>
      </trkpt>
      <trkpt lat="43.60468" lon="3.04982">
        <ele>441.2000122</ele>
        <time>2013-08-10T08:47:47Z</time>
      </trkpt>
      <trkpt lat="43.60466" lon="3.04983">
        <ele>440.7999878</ele>
        <time>2013-08-10T08:47:48Z</time>
      </trkpt>
      <trkpt lat="43.60465" lon="3.04984">
        <ele>440.7999878</ele>
        <time>2013-08-10T08:47:49Z</time>
      </trkpt>
      <trkpt lat="43.60456" lon="3.04987">
        <ele>440.7999878</ele>
        <time>2013-08-10T08:47:54Z</time>
      </trkpt>
      <trkpt lat="43.60455" lon="3.04988">
        <ele>441.2000122</ele>
        <time>2013-08-10T08:47:55Z</time>
      </trkpt>
      <trkpt lat="43.60452" lon="3.04989">
        <ele>441.6000061</ele>
        <time>2013-08-10T08:47:56Z</time>
      </trkpt>
      <trkpt lat="43.6045" lon="3.04989">
        <ele>442</ele>
        <time>2013-08-10T08:47:57Z</time>
      </trkpt>
      <trkpt lat="43.60449" lon="3.0499">
        <ele>442.3999939</ele>
        <time>2013-08-10T08:47:58Z</time>
      </trkpt>
      <trkpt lat="43.60447" lon="3.04991">
        <ele>442.7999878</ele>
        <time>2013-08-10T08:47:59Z</time>
      </trkpt>
      <trkpt lat="43.6044" lon="3.04995">
        <ele>442.7999878</ele>
        <time>2013-08-10T08:48:03Z</time>
      </trkpt>
      <trkpt lat="43.60437" lon="3.04998">
        <ele>443.2000122</ele>
        <time>2013-08-10T08:48:05Z</time>
      </trkpt>
      <trkpt lat="43.60436" lon="3.04999">
        <ele>443.6000061</ele>
        <time>2013-08-10T08:48:06Z</time>
      </trkpt>
      <trkpt lat="43.60434" lon="3.05">
        <ele>444</ele>
        <time>2013-08-10T08:48:07Z</time>
      </trkpt>
      <trkpt lat="43.60432" lon="3.05002">
        <ele>444.3999939</ele>
        <time>2013-08-10T08:48:08Z</time>
      </trkpt>
      <trkpt lat="43.6043" lon="3.05004">
        <ele>444.7999878</ele>
        <time>2013-08-10T08:48:09Z</time>
      </trkpt>
      <trkpt lat="43.60427" lon="3.05007">
        <ele>444.7999878</ele>
        <time>2013-08-10T08:48:11Z</time>
      </trkpt>
      <trkpt lat="43.60413" lon="3.05016">
        <ele>444.7999878</ele>
        <time>2013-08-10T08:48:18Z</time>
      </trkpt>
      <trkpt lat="43.60411" lon="3.05018">
        <ele>445.6000061</ele>
        <time>2013-08-10T08:48:19Z</time>
      </trkpt>
      <trkpt lat="43.60409" lon="3.0502">
        <ele>446</ele>
        <time>2013-08-10T08:48:20Z</time>
      </trkpt>
      <trkpt lat="43.60407" lon="3.05022">
        <ele>446.3999939</ele>
        <time>2013-08-10T08:48:21Z</time>
      </trkpt>
      <trkpt lat="43.60405" lon="3.05023">
        <ele>446.7999878</ele>
        <time>2013-08-10T08:48:22Z</time>
      </trkpt>
      <trkpt lat="43.60402" lon="3.05027">
        <ele>446.7999878</ele>
        <time>2013-08-10T08:48:24Z</time>
      </trkpt>
      <trkpt lat="43.60399" lon="3.05029">
        <ele>446.7999878</ele>
        <time>2013-08-10T08:48:26Z</time>
      </trkpt>
      <trkpt lat="43.60389" lon="3.05035">
        <ele>446.7999878</ele>
        <time>2013-08-10T08:48:31Z</time>
      </trkpt>
      <trkpt lat="43.60377" lon="3.05043">
        <ele>446.7999878</ele>
        <time>2013-08-10T08:48:36Z</time>
      </trkpt>
      <trkpt lat="43.60369" lon="3.05056">
        <ele>446.7999878</ele>
        <time>2013-08-10T08:48:41Z</time>
      </trkpt>
      <trkpt lat="43.60363" lon="3.05053">
        <ele>446.7999878</ele>
        <time>2013-08-10T08:48:46Z</time>
      </trkpt>
      <trkpt lat="43.60361" lon="3.05053">
        <ele>446.7999878</ele>
        <time>2013-08-10T08:48:47Z</time>
      </trkpt>
      <trkpt lat="43.60352" lon="3.0505">
        <ele>446.7999878</ele>
        <time>2013-08-10T08:48:50Z</time>
      </trkpt>
      <trkpt lat="43.60348" lon="3.05049">
        <ele>446.7999878</ele>
        <time>2013-08-10T08:48:51Z</time>
      </trkpt>
      <trkpt lat="43.60339" lon="3.05048">
        <ele>446.7999878</ele>
        <time>2013-08-10T08:48:53Z</time>
      </trkpt>
      <trkpt lat="43.60335" lon="3.0505">
        <ele>446.7999878</ele>
        <time>2013-08-10T08:48:54Z</time>
      </trkpt>
      <trkpt lat="43.6033" lon="3.0505">
        <ele>446.3999939</ele>
        <time>2013-08-10T08:48:55Z</time>
      </trkpt>
      <trkpt lat="43.60326" lon="3.05051">
        <ele>445.7999878</ele>
        <time>2013-08-10T08:48:56Z</time>
      </trkpt>
      <trkpt lat="43.60322" lon="3.05051">
        <ele>445.3999939</ele>
        <time>2013-08-10T08:48:57Z</time>
      </trkpt>
      <trkpt lat="43.60317" lon="3.05052">
        <ele>445</ele>
        <time>2013-08-10T08:48:58Z</time>
      </trkpt>
      <trkpt lat="43.60313" lon="3.05054">
        <ele>444.6000061</ele>
        <time>2013-08-10T08:48:59Z</time>
      </trkpt>
      <trkpt lat="43.60309" lon="3.05056">
        <ele>444.6000061</ele>
        <time>2013-08-10T08:49:00Z</time>
      </trkpt>
      <trkpt lat="43.60297" lon="3.05062">
        <ele>444.6000061</ele>
        <time>2013-08-10T08:49:04Z</time>
      </trkpt>
      <trkpt lat="43.60294" lon="3.05063">
        <ele>444.6000061</ele>
        <time>2013-08-10T08:49:05Z</time>
      </trkpt>
      <trkpt lat="43.60281" lon="3.05066">
        <ele>444.6000061</ele>
        <time>2013-08-10T08:49:10Z</time>
      </trkpt>
      <trkpt lat="43.6026" lon="3.05069">
        <ele>444.6000061</ele>
        <time>2013-08-10T08:49:17Z</time>
      </trkpt>
      <trkpt lat="43.60247" lon="3.05075">
        <ele>444.6000061</ele>
        <time>2013-08-10T08:49:23Z</time>
      </trkpt>
      <trkpt lat="43.60233" lon="3.05078">
        <ele>444.6000061</ele>
        <time>2013-08-10T08:49:29Z</time>
      </trkpt>
      <trkpt lat="43.60221" lon="3.05076">
        <ele>444.6000061</ele>
        <time>2013-08-10T08:49:34Z</time>
      </trkpt>
      <trkpt lat="43.6021" lon="3.05078">
        <ele>444.6000061</ele>
        <time>2013-08-10T08:49:38Z</time>
      </trkpt>
      <trkpt lat="43.60207" lon="3.05078">
        <ele>444.6000061</ele>
        <time>2013-08-10T08:49:39Z</time>
      </trkpt>
      <trkpt lat="43.6019" lon="3.0508">
        <ele>444.6000061</ele>
        <time>2013-08-10T08:49:45Z</time>
      </trkpt>
      <trkpt lat="43.60178" lon="3.05084">
        <ele>444.6000061</ele>
        <time>2013-08-10T08:49:50Z</time>
      </trkpt>
      <trkpt lat="43.60175" lon="3.05084">
        <ele>444.6000061</ele>
        <time>2013-08-10T08:49:52Z</time>
      </trkpt>
      <trkpt lat="43.6017" lon="3.05084">
        <ele>444.6000061</ele>
        <time>2013-08-10T08:49:55Z</time>
      </trkpt>
      <trkpt lat="43.60163" lon="3.05082">
        <ele>444.6000061</ele>
        <time>2013-08-10T08:49:59Z</time>
      </trkpt>
      <trkpt lat="43.6016" lon="3.05082">
        <ele>444.6000061</ele>
        <time>2013-08-10T08:50:01Z</time>
      </trkpt>
      <trkpt lat="43.60159" lon="3.05081">
        <ele>444.6000061</ele>
        <time>2013-08-10T08:50:02Z</time>
      </trkpt>
      <trkpt lat="43.60154" lon="3.05081">
        <ele>444.6000061</ele>
        <time>2013-08-10T08:50:05Z</time>
      </trkpt>
      <trkpt lat="43.6015" lon="3.05081">
        <ele>444.6000061</ele>
        <time>2013-08-10T08:50:07Z</time>
      </trkpt>
      <trkpt lat="43.60148" lon="3.05081">
        <ele>445</ele>
        <time>2013-08-10T08:50:08Z</time>
      </trkpt>
      <trkpt lat="43.60145" lon="3.05081">
        <ele>445.3999939</ele>
        <time>2013-08-10T08:50:09Z</time>
      </trkpt>
      <trkpt lat="43.60143" lon="3.05081">
        <ele>445.7999878</ele>
        <time>2013-08-10T08:50:10Z</time>
      </trkpt>
      <trkpt lat="43.60141" lon="3.05081">
        <ele>446.2000122</ele>
        <time>2013-08-10T08:50:11Z</time>
      </trkpt>
      <trkpt lat="43.60139" lon="3.05082">
        <ele>446.6000061</ele>
        <time>2013-08-10T08:50:12Z</time>
      </trkpt>
      <trkpt lat="43.60137" lon="3.05082">
        <ele>446.6000061</ele>
        <time>2013-08-10T08:50:13Z</time>
      </trkpt>
      <trkpt lat="43.60134" lon="3.05082">
        <ele>446.6000061</ele>
        <time>2013-08-10T08:50:15Z</time>
      </trkpt>
      <trkpt lat="43.60128" lon="3.05083">
        <ele>447</ele>
        <time>2013-08-10T08:50:17Z</time>
      </trkpt>
      <trkpt lat="43.60126" lon="3.05084">
        <ele>447.3999939</ele>
        <time>2013-08-10T08:50:18Z</time>
      </trkpt>
      <trkpt lat="43.60124" lon="3.05085">
        <ele>447.7999878</ele>
        <time>2013-08-10T08:50:19Z</time>
      </trkpt>
      <trkpt lat="43.60122" lon="3.05087">
        <ele>448.2000122</ele>
        <time>2013-08-10T08:50:20Z</time>
      </trkpt>
      <trkpt lat="43.6012" lon="3.05089">
        <ele>448.7999878</ele>
        <time>2013-08-10T08:50:21Z</time>
      </trkpt>
      <trkpt lat="43.60113" lon="3.05092">
        <ele>449.2000122</ele>
        <time>2013-08-10T08:50:24Z</time>
      </trkpt>
      <trkpt lat="43.6011" lon="3.05093">
        <ele>449.6000061</ele>
        <time>2013-08-10T08:50:25Z</time>
      </trkpt>
      <trkpt lat="43.60108" lon="3.05094">
        <ele>450</ele>
        <time>2013-08-10T08:50:26Z</time>
      </trkpt>
      <trkpt lat="43.60105" lon="3.05095">
        <ele>450.3999939</ele>
        <time>2013-08-10T08:50:27Z</time>
      </trkpt>
      <trkpt lat="43.60102" lon="3.05096">
        <ele>450.7999878</ele>
        <time>2013-08-10T08:50:28Z</time>
      </trkpt>
      <trkpt lat="43.60096" lon="3.05097">
        <ele>450.7999878</ele>
        <time>2013-08-10T08:50:31Z</time>
      </trkpt>
      <trkpt lat="43.60088" lon="3.05099">
        <ele>450.7999878</ele>
        <time>2013-08-10T08:50:36Z</time>
      </trkpt>
      <trkpt lat="43.60085" lon="3.05102">
        <ele>451.2000122</ele>
        <time>2013-08-10T08:50:38Z</time>
      </trkpt>
      <trkpt lat="43.60083" lon="3.05103">
        <ele>451.6000061</ele>
        <time>2013-08-10T08:50:39Z</time>
      </trkpt>
      <trkpt lat="43.60082" lon="3.05104">
        <ele>452.2000122</ele>
        <time>2013-08-10T08:50:40Z</time>
      </trkpt>
      <trkpt lat="43.6008" lon="3.05105">
        <ele>452.6000061</ele>
        <time>2013-08-10T08:50:41Z</time>
      </trkpt>
      <trkpt lat="43.60079" lon="3.05106">
        <ele>453</ele>
        <time>2013-08-10T08:50:42Z</time>
      </trkpt>
      <trkpt lat="43.60067" lon="3.05109">
        <ele>453</ele>
        <time>2013-08-10T08:50:48Z</time>
      </trkpt>
      <trkpt lat="43.60058" lon="3.05109">
        <ele>453</ele>
        <time>2013-08-10T08:50:54Z</time>
      </trkpt>
      <trkpt lat="43.60054" lon="3.0511">
        <ele>453.3999939</ele>
        <time>2013-08-10T08:50:55Z</time>
      </trkpt>
      <trkpt lat="43.60051" lon="3.05112">
        <ele>453.7999878</ele>
        <time>2013-08-10T08:50:56Z</time>
      </trkpt>
      <trkpt lat="43.60048" lon="3.05114">
        <ele>454.2000122</ele>
        <time>2013-08-10T08:50:57Z</time>
      </trkpt>
      <trkpt lat="43.60045" lon="3.05115">
        <ele>454.6000061</ele>
        <time>2013-08-10T08:50:58Z</time>
      </trkpt>
      <trkpt lat="43.60042" lon="3.05116">
        <ele>455</ele>
        <time>2013-08-10T08:50:59Z</time>
      </trkpt>
      <trkpt lat="43.60032" lon="3.05125">
        <ele>455</ele>
        <time>2013-08-10T08:51:04Z</time>
      </trkpt>
      <trkpt lat="43.6002" lon="3.05132">
        <ele>455</ele>
        <time>2013-08-10T08:51:10Z</time>
      </trkpt>
      <trkpt lat="43.60016" lon="3.05134">
        <ele>455</ele>
        <time>2013-08-10T08:51:12Z</time>
      </trkpt>
      <trkpt lat="43.60007" lon="3.05137">
        <ele>455</ele>
        <time>2013-08-10T08:51:16Z</time>
      </trkpt>
      <trkpt lat="43.59992" lon="3.05143">
        <ele>455</ele>
        <time>2013-08-10T08:51:22Z</time>
      </trkpt>
      <trkpt lat="43.59972" lon="3.05149">
        <ele>455</ele>
        <time>2013-08-10T08:51:28Z</time>
      </trkpt>
      <trkpt lat="43.59951" lon="3.05158">
        <ele>455</ele>
        <time>2013-08-10T08:51:33Z</time>
      </trkpt>
      <trkpt lat="43.59946" lon="3.05159">
        <ele>455</ele>
        <time>2013-08-10T08:51:34Z</time>
      </trkpt>
      <trkpt lat="43.59933" lon="3.05165">
        <ele>455</ele>
        <time>2013-08-10T08:51:37Z</time>
      </trkpt>
      <trkpt lat="43.59923" lon="3.0517">
        <ele>455</ele>
        <time>2013-08-10T08:51:40Z</time>
      </trkpt>
      <trkpt lat="43.59909" lon="3.0518">
        <ele>455</ele>
        <time>2013-08-10T08:51:45Z</time>
      </trkpt>
      <trkpt lat="43.59894" lon="3.05201">
        <ele>455</ele>
        <time>2013-08-10T08:51:52Z</time>
      </trkpt>
      <trkpt lat="43.59889" lon="3.05217">
        <ele>455</ele>
        <time>2013-08-10T08:51:56Z</time>
      </trkpt>
      <trkpt lat="43.59888" lon="3.05223">
        <ele>455</ele>
        <time>2013-08-10T08:51:57Z</time>
      </trkpt>
      <trkpt lat="43.59888" lon="3.05251">
        <ele>455</ele>
        <time>2013-08-10T08:52:03Z</time>
      </trkpt>
      <trkpt lat="43.59894" lon="3.05275">
        <ele>455</ele>
        <time>2013-08-10T08:52:08Z</time>
      </trkpt>
      <trkpt lat="43.59898" lon="3.05286">
        <ele>455</ele>
        <time>2013-08-10T08:52:11Z</time>
      </trkpt>
      <trkpt lat="43.59901" lon="3.0529">
        <ele>455</ele>
        <time>2013-08-10T08:52:13Z</time>
      </trkpt>
      <trkpt lat="43.59909" lon="3.05295">
        <ele>455</ele>
        <time>2013-08-10T08:52:16Z</time>
      </trkpt>
      <trkpt lat="43.59912" lon="3.05296">
        <ele>455</ele>
        <time>2013-08-10T08:52:17Z</time>
      </trkpt>
      <trkpt lat="43.59919" lon="3.053">
        <ele>454.6000061</ele>
        <time>2013-08-10T08:52:20Z</time>
      </trkpt>
      <trkpt lat="43.59921" lon="3.05302">
        <ele>454.2000122</ele>
        <time>2013-08-10T08:52:21Z</time>
      </trkpt>
      <trkpt lat="43.59923" lon="3.05306">
        <ele>453.7999878</ele>
        <time>2013-08-10T08:52:22Z</time>
      </trkpt>
      <trkpt lat="43.59925" lon="3.05311">
        <ele>453.3999939</ele>
        <time>2013-08-10T08:52:23Z</time>
      </trkpt>
      <trkpt lat="43.59926" lon="3.05316">
        <ele>453</ele>
        <time>2013-08-10T08:52:24Z</time>
      </trkpt>
      <trkpt lat="43.59925" lon="3.05325">
        <ele>453</ele>
        <time>2013-08-10T08:52:26Z</time>
      </trkpt>
      <trkpt lat="43.59923" lon="3.05336">
        <ele>453</ele>
        <time>2013-08-10T08:52:28Z</time>
      </trkpt>
      <trkpt lat="43.59921" lon="3.05351">
        <ele>453</ele>
        <time>2013-08-10T08:52:31Z</time>
      </trkpt>
      <trkpt lat="43.59918" lon="3.05377">
        <ele>453</ele>
        <time>2013-08-10T08:52:37Z</time>
      </trkpt>
      <trkpt lat="43.59917" lon="3.05381">
        <ele>453</ele>
        <time>2013-08-10T08:52:38Z</time>
      </trkpt>
      <trkpt lat="43.59914" lon="3.05388">
        <ele>453.3999939</ele>
        <time>2013-08-10T08:52:40Z</time>
      </trkpt>
      <trkpt lat="43.59912" lon="3.05392">
        <ele>453.7999878</ele>
        <time>2013-08-10T08:52:41Z</time>
      </trkpt>
      <trkpt lat="43.5991" lon="3.05397">
        <ele>454.2000122</ele>
        <time>2013-08-10T08:52:42Z</time>
      </trkpt>
      <trkpt lat="43.59909" lon="3.05401">
        <ele>454.6000061</ele>
        <time>2013-08-10T08:52:43Z</time>
      </trkpt>
      <trkpt lat="43.59908" lon="3.05405">
        <ele>455</ele>
        <time>2013-08-10T08:52:44Z</time>
      </trkpt>
      <trkpt lat="43.59907" lon="3.05423">
        <ele>455</ele>
        <time>2013-08-10T08:52:49Z</time>
      </trkpt>
      <trkpt lat="43.59907" lon="3.05425">
        <ele>455</ele>
        <time>2013-08-10T08:52:50Z</time>
      </trkpt>
      <trkpt lat="43.59907" lon="3.05426">
        <ele>455</ele>
        <time>2013-08-10T08:52:53Z</time>
      </trkpt>
      <trkpt lat="43.59907" lon="3.05426">
        <ele>455</ele>
        <time>2013-08-10T08:52:54Z</time>
      </trkpt>
      <trkpt lat="43.59907" lon="3.05426">
        <ele>455</ele>
        <time>2013-08-10T08:53:25Z</time>
      </trkpt>
      <trkpt lat="43.59907" lon="3.05426">
        <ele>455</ele>
        <time>2013-08-10T08:53:26Z</time>
      </trkpt>
      <trkpt lat="43.59907" lon="3.05426">
        <ele>455</ele>
        <time>2013-08-10T08:53:28Z</time>
      </trkpt>
      <trkpt lat="43.59903" lon="3.05436">
        <ele>453.6000061</ele>
        <time>2013-08-10T08:59:56Z</time>
      </trkpt>
      <trkpt lat="43.59903" lon="3.05437">
        <ele>453.2000122</ele>
        <time>2013-08-10T08:59:57Z</time>
      </trkpt>
      <trkpt lat="43.59902" lon="3.05438">
        <ele>452.7999878</ele>
        <time>2013-08-10T08:59:58Z</time>
      </trkpt>
      <trkpt lat="43.59902" lon="3.0544">
        <ele>452.3999939</ele>
        <time>2013-08-10T08:59:59Z</time>
      </trkpt>
      <trkpt lat="43.59901" lon="3.0544">
        <ele>451.7999878</ele>
        <time>2013-08-10T09:00:00Z</time>
      </trkpt>
      <trkpt lat="43.59901" lon="3.0544">
        <ele>451.3999939</ele>
        <time>2013-08-10T09:00:01Z</time>
      </trkpt>
      <trkpt lat="43.59901" lon="3.05441">
        <ele>450.7999878</ele>
        <time>2013-08-10T09:00:02Z</time>
      </trkpt>
      <trkpt lat="43.599" lon="3.0544">
        <ele>450.3999939</ele>
        <time>2013-08-10T09:00:03Z</time>
      </trkpt>
      <trkpt lat="43.599" lon="3.05442">
        <ele>450.3999939</ele>
        <time>2013-08-10T09:00:04Z</time>
      </trkpt>
      <trkpt lat="43.59891" lon="3.05447">
        <ele>450.3999939</ele>
        <time>2013-08-10T09:00:07Z</time>
      </trkpt>
      <trkpt lat="43.59887" lon="3.05448">
        <ele>450.3999939</ele>
        <time>2013-08-10T09:00:09Z</time>
      </trkpt>
      <trkpt lat="43.59887" lon="3.05449">
        <ele>450</ele>
        <time>2013-08-10T09:00:11Z</time>
      </trkpt>
      <trkpt lat="43.59887" lon="3.05449">
        <ele>449.6000061</ele>
        <time>2013-08-10T09:00:12Z</time>
      </trkpt>
      <trkpt lat="43.59886" lon="3.0545">
        <ele>449.2000122</ele>
        <time>2013-08-10T09:00:13Z</time>
      </trkpt>
      <trkpt lat="43.59886" lon="3.0545">
        <ele>448.7999878</ele>
        <time>2013-08-10T09:00:14Z</time>
      </trkpt>
      <trkpt lat="43.5988" lon="3.0545">
        <ele>448.3999939</ele>
        <time>2013-08-10T09:00:30Z</time>
      </trkpt>
      <trkpt lat="43.5988" lon="3.05448">
        <ele>448.3999939</ele>
        <time>2013-08-10T09:00:32Z</time>
      </trkpt>
      <trkpt lat="43.59878" lon="3.05445">
        <ele>447.7999878</ele>
        <time>2013-08-10T09:00:36Z</time>
      </trkpt>
      <trkpt lat="43.59873" lon="3.05452">
        <ele>443.7999878</ele>
        <time>2013-08-10T09:01:14Z</time>
      </trkpt>
      <trkpt lat="43.59873" lon="3.05453">
        <ele>443.7999878</ele>
        <time>2013-08-10T09:01:15Z</time>
      </trkpt>
      <trkpt lat="43.59873" lon="3.05453">
        <ele>443.7999878</ele>
        <time>2013-08-10T09:01:17Z</time>
      </trkpt>
      <trkpt lat="43.59876" lon="3.05456">
        <ele>443.7999878</ele>
        <time>2013-08-10T09:01:21Z</time>
      </trkpt>
      <trkpt lat="43.59876" lon="3.05458">
        <ele>443.7999878</ele>
        <time>2013-08-10T09:01:22Z</time>
      </trkpt>
      <trkpt lat="43.59876" lon="3.05461">
        <ele>443.7999878</ele>
        <time>2013-08-10T09:01:23Z</time>
      </trkpt>
      <trkpt lat="43.59873" lon="3.05471">
        <ele>443.7999878</ele>
        <time>2013-08-10T09:01:26Z</time>
      </trkpt>
      <trkpt lat="43.59872" lon="3.05473">
        <ele>443.2000122</ele>
        <time>2013-08-10T09:01:28Z</time>
      </trkpt>
      <trkpt lat="43.5987" lon="3.05476">
        <ele>442.7999878</ele>
        <time>2013-08-10T09:01:29Z</time>
      </trkpt>
      <trkpt lat="43.59869" lon="3.05478">
        <ele>442</ele>
        <time>2013-08-10T09:01:30Z</time>
      </trkpt>
      <trkpt lat="43.59868" lon="3.05479">
        <ele>441.6000061</ele>
        <time>2013-08-10T09:01:31Z</time>
      </trkpt>
      <trkpt lat="43.59867" lon="3.05483">
        <ele>441.6000061</ele>
        <time>2013-08-10T09:01:34Z</time>
      </trkpt>
      <trkpt lat="43.59867" lon="3.05482">
        <ele>441.6000061</ele>
        <time>2013-08-10T09:01:35Z</time>
      </trkpt>
      <trkpt lat="43.59856" lon="3.0548">
        <ele>440.2000122</ele>
        <time>2013-08-10T09:01:50Z</time>
      </trkpt>
      <trkpt lat="43.59854" lon="3.0548">
        <ele>439.7999878</ele>
        <time>2013-08-10T09:01:51Z</time>
      </trkpt>
      <trkpt lat="43.5985" lon="3.05481">
        <ele>439.3999939</ele>
        <time>2013-08-10T09:01:52Z</time>
      </trkpt>
      <trkpt lat="43.59843" lon="3.05482">
        <ele>439</ele>
        <time>2013-08-10T09:01:54Z</time>
      </trkpt>
      <trkpt lat="43.5984" lon="3.05483">
        <ele>438</ele>
        <time>2013-08-10T09:01:55Z</time>
      </trkpt>
      <trkpt lat="43.59838" lon="3.05485">
        <ele>437.6000061</ele>
        <time>2013-08-10T09:01:56Z</time>
      </trkpt>
      <trkpt lat="43.59836" lon="3.05487">
        <ele>437.2000122</ele>
        <time>2013-08-10T09:01:57Z</time>
      </trkpt>
      <trkpt lat="43.59835" lon="3.05489">
        <ele>437.2000122</ele>
        <time>2013-08-10T09:01:58Z</time>
      </trkpt>
      <trkpt lat="43.59831" lon="3.05491">
        <ele>436.7999878</ele>
        <time>2013-08-10T09:02:01Z</time>
      </trkpt>
      <trkpt lat="43.59829" lon="3.05491">
        <ele>436.3999939</ele>
        <time>2013-08-10T09:02:02Z</time>
      </trkpt>
      <trkpt lat="43.59828" lon="3.05491">
        <ele>436</ele>
        <time>2013-08-10T09:02:03Z</time>
      </trkpt>
      <trkpt lat="43.59826" lon="3.05491">
        <ele>435.6000061</ele>
        <time>2013-08-10T09:02:04Z</time>
      </trkpt>
      <trkpt lat="43.59824" lon="3.05491">
        <ele>435.2000122</ele>
        <time>2013-08-10T09:02:05Z</time>
      </trkpt>
      <trkpt lat="43.59812" lon="3.05495">
        <ele>435.2000122</ele>
        <time>2013-08-10T09:02:09Z</time>
      </trkpt>
      <trkpt lat="43.59807" lon="3.05496">
        <ele>434.7999878</ele>
        <time>2013-08-10T09:02:10Z</time>
      </trkpt>
      <trkpt lat="43.59803" lon="3.05499">
        <ele>434.2000122</ele>
        <time>2013-08-10T09:02:11Z</time>
      </trkpt>
      <trkpt lat="43.59798" lon="3.05501">
        <ele>433.7999878</ele>
        <time>2013-08-10T09:02:12Z</time>
      </trkpt>
      <trkpt lat="43.59794" lon="3.05504">
        <ele>433.3999939</ele>
        <time>2013-08-10T09:02:13Z</time>
      </trkpt>
      <trkpt lat="43.5979" lon="3.05507">
        <ele>433</ele>
        <time>2013-08-10T09:02:14Z</time>
      </trkpt>
      <trkpt lat="43.59771" lon="3.05514">
        <ele>433</ele>
        <time>2013-08-10T09:02:19Z</time>
      </trkpt>
      <trkpt lat="43.59767" lon="3.05515">
        <ele>432.2000122</ele>
        <time>2013-08-10T09:02:20Z</time>
      </trkpt>
      <trkpt lat="43.59765" lon="3.05516">
        <ele>431.7999878</ele>
        <time>2013-08-10T09:02:21Z</time>
      </trkpt>
      <trkpt lat="43.59764" lon="3.05517">
        <ele>431.2000122</ele>
        <time>2013-08-10T09:02:22Z</time>
      </trkpt>
      <trkpt lat="43.59763" lon="3.05519">
        <ele>430.7999878</ele>
        <time>2013-08-10T09:02:23Z</time>
      </trkpt>
      <trkpt lat="43.59763" lon="3.05519">
        <ele>430.7999878</ele>
        <time>2013-08-10T09:02:24Z</time>
      </trkpt>
      <trkpt lat="43.59762" lon="3.05521">
        <ele>430.3999939</ele>
        <time>2013-08-10T09:02:25Z</time>
      </trkpt>
      <trkpt lat="43.59761" lon="3.05522">
        <ele>430</ele>
        <time>2013-08-10T09:02:26Z</time>
      </trkpt>
      <trkpt lat="43.5976" lon="3.05523">
        <ele>429.3999939</ele>
        <time>2013-08-10T09:02:27Z</time>
      </trkpt>
      <trkpt lat="43.59759" lon="3.05524">
        <ele>429</ele>
        <time>2013-08-10T09:02:28Z</time>
      </trkpt>
      <trkpt lat="43.59758" lon="3.05526">
        <ele>428.6000061</ele>
        <time>2013-08-10T09:02:29Z</time>
      </trkpt>
      <trkpt lat="43.59757" lon="3.05526">
        <ele>428.6000061</ele>
        <time>2013-08-10T09:02:30Z</time>
      </trkpt>
      <trkpt lat="43.59756" lon="3.05528">
        <ele>428.2000122</ele>
        <time>2013-08-10T09:02:31Z</time>
      </trkpt>
      <trkpt lat="43.59754" lon="3.0553">
        <ele>427.7999878</ele>
        <time>2013-08-10T09:02:32Z</time>
      </trkpt>
      <trkpt lat="43.59752" lon="3.05532">
        <ele>427.3999939</ele>
        <time>2013-08-10T09:02:33Z</time>
      </trkpt>
      <trkpt lat="43.5975" lon="3.05535">
        <ele>427</ele>
        <time>2013-08-10T09:02:34Z</time>
      </trkpt>
      <trkpt lat="43.59748" lon="3.05538">
        <ele>426.3999939</ele>
        <time>2013-08-10T09:02:35Z</time>
      </trkpt>
      <trkpt lat="43.59746" lon="3.05541">
        <ele>426</ele>
        <time>2013-08-10T09:02:36Z</time>
      </trkpt>
      <trkpt lat="43.59744" lon="3.05544">
        <ele>425.6000061</ele>
        <time>2013-08-10T09:02:37Z</time>
      </trkpt>
      <trkpt lat="43.59741" lon="3.05547">
        <ele>425.2000122</ele>
        <time>2013-08-10T09:02:38Z</time>
      </trkpt>
      <trkpt lat="43.59739" lon="3.05549">
        <ele>424.7999878</ele>
        <time>2013-08-10T09:02:39Z</time>
      </trkpt>
      <trkpt lat="43.59738" lon="3.0555">
        <ele>424.2000122</ele>
        <time>2013-08-10T09:02:40Z</time>
      </trkpt>
      <trkpt lat="43.59734" lon="3.05555">
        <ele>423.7999878</ele>
        <time>2013-08-10T09:02:42Z</time>
      </trkpt>
      <trkpt lat="43.59733" lon="3.05557">
        <ele>423.3999939</ele>
        <time>2013-08-10T09:02:43Z</time>
      </trkpt>
      <trkpt lat="43.59732" lon="3.05558">
        <ele>422.3999939</ele>
        <time>2013-08-10T09:02:44Z</time>
      </trkpt>
      <trkpt lat="43.59732" lon="3.05559">
        <ele>422</ele>
        <time>2013-08-10T09:02:45Z</time>
      </trkpt>
      <trkpt lat="43.59731" lon="3.0556">
        <ele>422</ele>
        <time>2013-08-10T09:02:46Z</time>
      </trkpt>
      <trkpt lat="43.59731" lon="3.05562">
        <ele>421.2000122</ele>
        <time>2013-08-10T09:02:56Z</time>
      </trkpt>
      <trkpt lat="43.59731" lon="3.05562">
        <ele>420.7999878</ele>
        <time>2013-08-10T09:02:57Z</time>
      </trkpt>
      <trkpt lat="43.59731" lon="3.05562">
        <ele>420.3999939</ele>
        <time>2013-08-10T09:02:58Z</time>
      </trkpt>
      <trkpt lat="43.59725" lon="3.05559">
        <ele>420</ele>
        <time>2013-08-10T09:04:14Z</time>
      </trkpt>
      <trkpt lat="43.59725" lon="3.05558">
        <ele>419.3999939</ele>
        <time>2013-08-10T09:04:15Z</time>
      </trkpt>
      <trkpt lat="43.59724" lon="3.05557">
        <ele>419</ele>
        <time>2013-08-10T09:04:16Z</time>
      </trkpt>
      <trkpt lat="43.59723" lon="3.05556">
        <ele>418.6000061</ele>
        <time>2013-08-10T09:04:17Z</time>
      </trkpt>
      <trkpt lat="43.59701" lon="3.05554">
        <ele>411.3999939</ele>
        <time>2013-08-10T09:06:49Z</time>
      </trkpt>
      <trkpt lat="43.59701" lon="3.05554">
        <ele>411</ele>
        <time>2013-08-10T09:06:50Z</time>
      </trkpt>
      <trkpt lat="43.59701" lon="3.05554">
        <ele>410.6000061</ele>
        <time>2013-08-10T09:06:51Z</time>
      </trkpt>
      <trkpt lat="43.59698" lon="3.05544">
        <ele>407.2000122</ele>
        <time>2013-08-10T09:07:37Z</time>
      </trkpt>
      <trkpt lat="43.59698" lon="3.05543">
        <ele>407.2000122</ele>
        <time>2013-08-10T09:07:38Z</time>
      </trkpt>
      <trkpt lat="43.59697" lon="3.05541">
        <ele>407.2000122</ele>
        <time>2013-08-10T09:07:40Z</time>
      </trkpt>
      <trkpt lat="43.59697" lon="3.05535">
        <ele>405</ele>
        <time>2013-08-10T09:07:45Z</time>
      </trkpt>
      <trkpt lat="43.59696" lon="3.05529">
        <ele>404.6000061</ele>
        <time>2013-08-10T09:07:47Z</time>
      </trkpt>
      <trkpt lat="43.59696" lon="3.05525">
        <ele>404.2000122</ele>
        <time>2013-08-10T09:07:48Z</time>
      </trkpt>
      <trkpt lat="43.59695" lon="3.05522">
        <ele>403.7999878</ele>
        <time>2013-08-10T09:07:49Z</time>
      </trkpt>
      <trkpt lat="43.59694" lon="3.05519">
        <ele>403.3999939</ele>
        <time>2013-08-10T09:07:50Z</time>
      </trkpt>
      <trkpt lat="43.59694" lon="3.05516">
        <ele>402.7999878</ele>
        <time>2013-08-10T09:07:51Z</time>
      </trkpt>
      <trkpt lat="43.59693" lon="3.05515">
        <ele>402.3999939</ele>
        <time>2013-08-10T09:07:52Z</time>
      </trkpt>
      <trkpt lat="43.59692" lon="3.05514">
        <ele>402</ele>
        <time>2013-08-10T09:07:53Z</time>
      </trkpt>
      <trkpt lat="43.59692" lon="3.05513">
        <ele>401.6000061</ele>
        <time>2013-08-10T09:07:54Z</time>
      </trkpt>
      <trkpt lat="43.59685" lon="3.055">
        <ele>398.3999939</ele>
        <time>2013-08-10T09:08:14Z</time>
      </trkpt>
      <trkpt lat="43.59684" lon="3.05496">
        <ele>398.3999939</ele>
        <time>2013-08-10T09:08:15Z</time>
      </trkpt>
      <trkpt lat="43.59681" lon="3.05488">
        <ele>397.7999878</ele>
        <time>2013-08-10T09:08:17Z</time>
      </trkpt>
      <trkpt lat="43.5968" lon="3.05485">
        <ele>397.2000122</ele>
        <time>2013-08-10T09:08:18Z</time>
      </trkpt>
      <trkpt lat="43.59678" lon="3.05484">
        <ele>396.7999878</ele>
        <time>2013-08-10T09:08:19Z</time>
      </trkpt>
      <trkpt lat="43.59676" lon="3.05484">
        <ele>396.2000122</ele>
        <time>2013-08-10T09:08:20Z</time>
      </trkpt>
      <trkpt lat="43.59674" lon="3.05484">
        <ele>395.6000061</ele>
        <time>2013-08-10T09:08:21Z</time>
      </trkpt>
      <trkpt lat="43.59668" lon="3.05488">
        <ele>395.6000061</ele>
        <time>2013-08-10T09:08:24Z</time>
      </trkpt>
      <trkpt lat="43.59659" lon="3.05498">
        <ele>395.6000061</ele>
        <time>2013-08-10T09:08:28Z</time>
      </trkpt>
      <trkpt lat="43.59654" lon="3.05507">
        <ele>395.6000061</ele>
        <time>2013-08-10T09:08:30Z</time>
      </trkpt>
      <trkpt lat="43.59649" lon="3.05517">
        <ele>394.7999878</ele>
        <time>2013-08-10T09:08:32Z</time>
      </trkpt>
      <trkpt lat="43.59647" lon="3.05521">
        <ele>394.3999939</ele>
        <time>2013-08-10T09:08:33Z</time>
      </trkpt>
      <trkpt lat="43.59645" lon="3.05525">
        <ele>393.7999878</ele>
        <time>2013-08-10T09:08:34Z</time>
      </trkpt>
      <trkpt lat="43.59643" lon="3.05529">
        <ele>393.2000122</ele>
        <time>2013-08-10T09:08:35Z</time>
      </trkpt>
      <trkpt lat="43.59641" lon="3.05532">
        <ele>392.6000061</ele>
        <time>2013-08-10T09:08:36Z</time>
      </trkpt>
      <trkpt lat="43.59639" lon="3.05535">
        <ele>392.2000122</ele>
        <time>2013-08-10T09:08:37Z</time>
      </trkpt>
      <trkpt lat="43.59636" lon="3.05538">
        <ele>391.6000061</ele>
        <time>2013-08-10T09:08:38Z</time>
      </trkpt>
      <trkpt lat="43.59633" lon="3.05541">
        <ele>391.2000122</ele>
        <time>2013-08-10T09:08:39Z</time>
      </trkpt>
      <trkpt lat="43.59631" lon="3.05544">
        <ele>390.6000061</ele>
        <time>2013-08-10T09:08:40Z</time>
      </trkpt>
      <trkpt lat="43.59628" lon="3.05548">
        <ele>390.2000122</ele>
        <time>2013-08-10T09:08:41Z</time>
      </trkpt>
      <trkpt lat="43.59626" lon="3.05551">
        <ele>389.7999878</ele>
        <time>2013-08-10T09:08:42Z</time>
      </trkpt>
      <trkpt lat="43.59624" lon="3.05555">
        <ele>389.3999939</ele>
        <time>2013-08-10T09:08:43Z</time>
      </trkpt>
      <trkpt lat="43.59622" lon="3.05558">
        <ele>389</ele>
        <time>2013-08-10T09:08:44Z</time>
      </trkpt>
      <trkpt lat="43.59619" lon="3.05561">
        <ele>388.6000061</ele>
        <time>2013-08-10T09:08:45Z</time>
      </trkpt>
      <trkpt lat="43.59617" lon="3.05565">
        <ele>388.2000122</ele>
        <time>2013-08-10T09:08:46Z</time>
      </trkpt>
      <trkpt lat="43.59615" lon="3.05568">
        <ele>387.7999878</ele>
        <time>2013-08-10T09:08:47Z</time>
      </trkpt>
      <trkpt lat="43.59612" lon="3.05572">
        <ele>387.2000122</ele>
        <time>2013-08-10T09:08:48Z</time>
      </trkpt>
      <trkpt lat="43.5961" lon="3.05575">
        <ele>386.6000061</ele>
        <time>2013-08-10T09:08:49Z</time>
      </trkpt>
      <trkpt lat="43.59608" lon="3.05578">
        <ele>386</ele>
        <time>2013-08-10T09:08:50Z</time>
      </trkpt>
      <trkpt lat="43.59606" lon="3.05581">
        <ele>385.6000061</ele>
        <time>2013-08-10T09:08:51Z</time>
      </trkpt>
      <trkpt lat="43.59605" lon="3.05583">
        <ele>385</ele>
        <time>2013-08-10T09:08:52Z</time>
      </trkpt>
      <trkpt lat="43.59604" lon="3.05585">
        <ele>384.3999939</ele>
        <time>2013-08-10T09:08:53Z</time>
      </trkpt>
      <trkpt lat="43.59603" lon="3.05586">
        <ele>384</ele>
        <time>2013-08-10T09:08:54Z</time>
      </trkpt>
      <trkpt lat="43.59603" lon="3.05587">
        <ele>383.6000061</ele>
        <time>2013-08-10T09:08:55Z</time>
      </trkpt>
      <trkpt lat="43.59604" lon="3.05589">
        <ele>382.6000061</ele>
        <time>2013-08-10T09:08:56Z</time>
      </trkpt>
      <trkpt lat="43.59608" lon="3.05601">
        <ele>380.3999939</ele>
        <time>2013-08-10T09:09:04Z</time>
      </trkpt>
      <trkpt lat="43.59607" lon="3.05603">
        <ele>380</ele>
        <time>2013-08-10T09:09:05Z</time>
      </trkpt>
      <trkpt lat="43.59606" lon="3.05605">
        <ele>379.6000061</ele>
        <time>2013-08-10T09:09:06Z</time>
      </trkpt>
      <trkpt lat="43.59606" lon="3.05608">
        <ele>379</ele>
        <time>2013-08-10T09:09:07Z</time>
      </trkpt>
      <trkpt lat="43.59606" lon="3.0561">
        <ele>378.6000061</ele>
        <time>2013-08-10T09:09:08Z</time>
      </trkpt>
      <trkpt lat="43.59607" lon="3.05611">
        <ele>378.2000122</ele>
        <time>2013-08-10T09:09:09Z</time>
      </trkpt>
      <trkpt lat="43.59606" lon="3.05613">
        <ele>377.6000061</ele>
        <time>2013-08-10T09:09:10Z</time>
      </trkpt>
      <trkpt lat="43.59605" lon="3.05615">
        <ele>377.2000122</ele>
        <time>2013-08-10T09:09:11Z</time>
      </trkpt>
      <trkpt lat="43.59604" lon="3.05618">
        <ele>376.6000061</ele>
        <time>2013-08-10T09:09:12Z</time>
      </trkpt>
      <trkpt lat="43.596" lon="3.0562">
        <ele>376</ele>
        <time>2013-08-10T09:09:13Z</time>
      </trkpt>
      <trkpt lat="43.59599" lon="3.05622">
        <ele>375.6000061</ele>
        <time>2013-08-10T09:09:14Z</time>
      </trkpt>
      <trkpt lat="43.59596" lon="3.05623">
        <ele>375.2000122</ele>
        <time>2013-08-10T09:09:15Z</time>
      </trkpt>
      <trkpt lat="43.59592" lon="3.05623">
        <ele>374.6000061</ele>
        <time>2013-08-10T09:09:16Z</time>
      </trkpt>
      <trkpt lat="43.59589" lon="3.05623">
        <ele>374.2000122</ele>
        <time>2013-08-10T09:09:17Z</time>
      </trkpt>
      <trkpt lat="43.59586" lon="3.05622">
        <ele>373.6000061</ele>
        <time>2013-08-10T09:09:18Z</time>
      </trkpt>
      <trkpt lat="43.59579" lon="3.0562">
        <ele>373.6000061</ele>
        <time>2013-08-10T09:09:20Z</time>
      </trkpt>
      <trkpt lat="43.59565" lon="3.05618">
        <ele>373.2000122</ele>
        <time>2013-08-10T09:09:24Z</time>
      </trkpt>
      <trkpt lat="43.59562" lon="3.05618">
        <ele>372.6000061</ele>
        <time>2013-08-10T09:09:25Z</time>
      </trkpt>
      <trkpt lat="43.5956" lon="3.05619">
        <ele>372.2000122</ele>
        <time>2013-08-10T09:09:26Z</time>
      </trkpt>
      <trkpt lat="43.59557" lon="3.0562">
        <ele>371.3999939</ele>
        <time>2013-08-10T09:09:27Z</time>
      </trkpt>
      <trkpt lat="43.59555" lon="3.0562">
        <ele>370.7999878</ele>
        <time>2013-08-10T09:09:28Z</time>
      </trkpt>
      <trkpt lat="43.59553" lon="3.05621">
        <ele>370.2000122</ele>
        <time>2013-08-10T09:09:29Z</time>
      </trkpt>
      <trkpt lat="43.59551" lon="3.05622">
        <ele>369.6000061</ele>
        <time>2013-08-10T09:09:30Z</time>
      </trkpt>
      <trkpt lat="43.59548" lon="3.05623">
        <ele>368.7999878</ele>
        <time>2013-08-10T09:09:31Z</time>
      </trkpt>
      <trkpt lat="43.59546" lon="3.05625">
        <ele>368</ele>
        <time>2013-08-10T09:09:32Z</time>
      </trkpt>
      <trkpt lat="43.59544" lon="3.05627">
        <ele>367.2000122</ele>
        <time>2013-08-10T09:09:33Z</time>
      </trkpt>
      <trkpt lat="43.59542" lon="3.05629">
        <ele>366.2000122</ele>
        <time>2013-08-10T09:09:34Z</time>
      </trkpt>
      <trkpt lat="43.5954" lon="3.05631">
        <ele>365.2000122</ele>
        <time>2013-08-10T09:09:35Z</time>
      </trkpt>
      <trkpt lat="43.59537" lon="3.05633">
        <ele>364.2000122</ele>
        <time>2013-08-10T09:09:36Z</time>
      </trkpt>
      <trkpt lat="43.59533" lon="3.05635">
        <ele>363.2000122</ele>
        <time>2013-08-10T09:09:37Z</time>
      </trkpt>
      <trkpt lat="43.59531" lon="3.05636">
        <ele>362.2000122</ele>
        <time>2013-08-10T09:09:38Z</time>
      </trkpt>
      <trkpt lat="43.59529" lon="3.05636">
        <ele>361.2000122</ele>
        <time>2013-08-10T09:09:39Z</time>
      </trkpt>
      <trkpt lat="43.59527" lon="3.05636">
        <ele>360.2000122</ele>
        <time>2013-08-10T09:09:40Z</time>
      </trkpt>
      <trkpt lat="43.59526" lon="3.05635">
        <ele>359.3999939</ele>
        <time>2013-08-10T09:09:41Z</time>
      </trkpt>
      <trkpt lat="43.59523" lon="3.05635">
        <ele>358.3999939</ele>
        <time>2013-08-10T09:09:42Z</time>
      </trkpt>
      <trkpt lat="43.59521" lon="3.05634">
        <ele>357.7999878</ele>
        <time>2013-08-10T09:09:43Z</time>
      </trkpt>
      <trkpt lat="43.59519" lon="3.05634">
        <ele>357</ele>
        <time>2013-08-10T09:09:44Z</time>
      </trkpt>
      <trkpt lat="43.59516" lon="3.05636">
        <ele>355.7999878</ele>
        <time>2013-08-10T09:09:45Z</time>
      </trkpt>
      <trkpt lat="43.59514" lon="3.05635">
        <ele>355.2000122</ele>
        <time>2013-08-10T09:09:46Z</time>
      </trkpt>
      <trkpt lat="43.5951" lon="3.05637">
        <ele>355.2000122</ele>
        <time>2013-08-10T09:09:48Z</time>
      </trkpt>
      <trkpt lat="43.595" lon="3.05636">
        <ele>353</ele>
        <time>2013-08-10T09:10:02Z</time>
      </trkpt>
      <trkpt lat="43.59496" lon="3.05635">
        <ele>352.6000061</ele>
        <time>2013-08-10T09:10:05Z</time>
      </trkpt>
      <trkpt lat="43.59495" lon="3.05635">
        <ele>352.2000122</ele>
        <time>2013-08-10T09:10:06Z</time>
      </trkpt>
      <trkpt lat="43.59494" lon="3.05636">
        <ele>351.7999878</ele>
        <time>2013-08-10T09:10:07Z</time>
      </trkpt>
      <trkpt lat="43.59493" lon="3.05636">
        <ele>351.3999939</ele>
        <time>2013-08-10T09:10:08Z</time>
      </trkpt>
      <trkpt lat="43.59492" lon="3.05635">
        <ele>350.7999878</ele>
        <time>2013-08-10T09:10:09Z</time>
      </trkpt>
      <trkpt lat="43.5949" lon="3.05636">
        <ele>350.7999878</ele>
        <time>2013-08-10T09:10:10Z</time>
      </trkpt>
      <trkpt lat="43.59488" lon="3.05638">
        <ele>350.7999878</ele>
        <time>2013-08-10T09:10:11Z</time>
      </trkpt>
      <trkpt lat="43.59478" lon="3.05641">
        <ele>350.3999939</ele>
        <time>2013-08-10T09:10:14Z</time>
      </trkpt>
      <trkpt lat="43.59476" lon="3.05642">
        <ele>350</ele>
        <time>2013-08-10T09:10:15Z</time>
      </trkpt>
      <trkpt lat="43.59473" lon="3.05643">
        <ele>349.6000061</ele>
        <time>2013-08-10T09:10:16Z</time>
      </trkpt>
      <trkpt lat="43.5947" lon="3.05644">
        <ele>349.2000122</ele>
        <time>2013-08-10T09:10:17Z</time>
      </trkpt>
      <trkpt lat="43.59467" lon="3.05645">
        <ele>348.7999878</ele>
        <time>2013-08-10T09:10:18Z</time>
      </trkpt>
      <trkpt lat="43.59463" lon="3.05646">
        <ele>348.7999878</ele>
        <time>2013-08-10T09:10:19Z</time>
      </trkpt>
      <trkpt lat="43.59456" lon="3.0565">
        <ele>348.3999939</ele>
        <time>2013-08-10T09:10:21Z</time>
      </trkpt>
      <trkpt lat="43.59452" lon="3.05651">
        <ele>348</ele>
        <time>2013-08-10T09:10:22Z</time>
      </trkpt>
      <trkpt lat="43.59448" lon="3.05652">
        <ele>347.6000061</ele>
        <time>2013-08-10T09:10:23Z</time>
      </trkpt>
      <trkpt lat="43.59445" lon="3.05653">
        <ele>347.2000122</ele>
        <time>2013-08-10T09:10:24Z</time>
      </trkpt>
      <trkpt lat="43.59443" lon="3.05653">
        <ele>346.7999878</ele>
        <time>2013-08-10T09:10:25Z</time>
      </trkpt>
      <trkpt lat="43.59436" lon="3.05655">
        <ele>346.7999878</ele>
        <time>2013-08-10T09:10:28Z</time>
      </trkpt>
      <trkpt lat="43.59434" lon="3.05656">
        <ele>346.7999878</ele>
        <time>2013-08-10T09:10:29Z</time>
      </trkpt>
      <trkpt lat="43.59432" lon="3.05657">
        <ele>346.7999878</ele>
        <time>2013-08-10T09:10:30Z</time>
      </trkpt>
      <trkpt lat="43.59429" lon="3.05658">
        <ele>346.7999878</ele>
        <time>2013-08-10T09:10:31Z</time>
      </trkpt>
      <trkpt lat="43.59424" lon="3.0566">
        <ele>346.7999878</ele>
        <time>2013-08-10T09:10:33Z</time>
      </trkpt>
      <trkpt lat="43.59421" lon="3.05661">
        <ele>346.7999878</ele>
        <time>2013-08-10T09:10:34Z</time>
      </trkpt>
      <trkpt lat="43.59415" lon="3.05662">
        <ele>346.3999939</ele>
        <time>2013-08-10T09:10:36Z</time>
      </trkpt>
      <trkpt lat="43.59413" lon="3.05663">
        <ele>346</ele>
        <time>2013-08-10T09:10:37Z</time>
      </trkpt>
      <trkpt lat="43.59407" lon="3.05665">
        <ele>345.3999939</ele>
        <time>2013-08-10T09:10:38Z</time>
      </trkpt>
      <trkpt lat="43.59402" lon="3.05667">
        <ele>344.7999878</ele>
        <time>2013-08-10T09:10:39Z</time>
      </trkpt>
      <trkpt lat="43.59399" lon="3.05668">
        <ele>344.2000122</ele>
        <time>2013-08-10T09:10:40Z</time>
      </trkpt>
      <trkpt lat="43.59395" lon="3.05667">
        <ele>343.6000061</ele>
        <time>2013-08-10T09:10:41Z</time>
      </trkpt>
      <trkpt lat="43.59392" lon="3.05667">
        <ele>343</ele>
        <time>2013-08-10T09:10:42Z</time>
      </trkpt>
      <trkpt lat="43.59389" lon="3.05665">
        <ele>342.3999939</ele>
        <time>2013-08-10T09:10:43Z</time>
      </trkpt>
      <trkpt lat="43.59376" lon="3.05661">
        <ele>342.3999939</ele>
        <time>2013-08-10T09:10:48Z</time>
      </trkpt>
      <trkpt lat="43.59361" lon="3.0566">
        <ele>342.3999939</ele>
        <time>2013-08-10T09:10:53Z</time>
      </trkpt>
      <trkpt lat="43.59357" lon="3.05661">
        <ele>342</ele>
        <time>2013-08-10T09:10:54Z</time>
      </trkpt>
      <trkpt lat="43.59354" lon="3.05662">
        <ele>341.6000061</ele>
        <time>2013-08-10T09:10:55Z</time>
      </trkpt>
      <trkpt lat="43.59352" lon="3.05662">
        <ele>341.2000122</ele>
        <time>2013-08-10T09:10:56Z</time>
      </trkpt>
      <trkpt lat="43.59348" lon="3.05662">
        <ele>340.6000061</ele>
        <time>2013-08-10T09:10:57Z</time>
      </trkpt>
      <trkpt lat="43.59344" lon="3.05662">
        <ele>340.2000122</ele>
        <time>2013-08-10T09:10:58Z</time>
      </trkpt>
      <trkpt lat="43.59341" lon="3.05663">
        <ele>340.2000122</ele>
        <time>2013-08-10T09:10:59Z</time>
      </trkpt>
      <trkpt lat="43.59324" lon="3.05671">
        <ele>340.2000122</ele>
        <time>2013-08-10T09:11:04Z</time>
      </trkpt>
      <trkpt lat="43.59322" lon="3.0567">
        <ele>340.2000122</ele>
        <time>2013-08-10T09:11:05Z</time>
      </trkpt>
      <trkpt lat="43.59311" lon="3.05665">
        <ele>339.7999878</ele>
        <time>2013-08-10T09:11:08Z</time>
      </trkpt>
      <trkpt lat="43.59307" lon="3.05663">
        <ele>339.3999939</ele>
        <time>2013-08-10T09:11:09Z</time>
      </trkpt>
      <trkpt lat="43.59304" lon="3.05662">
        <ele>339</ele>
        <time>2013-08-10T09:11:10Z</time>
      </trkpt>
      <trkpt lat="43.59301" lon="3.05661">
        <ele>338.3999939</ele>
        <time>2013-08-10T09:11:11Z</time>
      </trkpt>
      <trkpt lat="43.59298" lon="3.05659">
        <ele>337.7999878</ele>
        <time>2013-08-10T09:11:12Z</time>
      </trkpt>
      <trkpt lat="43.59296" lon="3.05657">
        <ele>337.2000122</ele>
        <time>2013-08-10T09:11:13Z</time>
      </trkpt>
      <trkpt lat="43.59294" lon="3.05655">
        <ele>336.6000061</ele>
        <time>2013-08-10T09:11:14Z</time>
      </trkpt>
      <trkpt lat="43.59285" lon="3.0565">
        <ele>336</ele>
        <time>2013-08-10T09:11:15Z</time>
      </trkpt>
      <trkpt lat="43.59281" lon="3.05649">
        <ele>335.3999939</ele>
        <time>2013-08-10T09:11:16Z</time>
      </trkpt>
      <trkpt lat="43.59278" lon="3.05647">
        <ele>334.6000061</ele>
        <time>2013-08-10T09:11:17Z</time>
      </trkpt>
      <trkpt lat="43.59274" lon="3.05645">
        <ele>333.7999878</ele>
        <time>2013-08-10T09:11:18Z</time>
      </trkpt>
      <trkpt lat="43.59267" lon="3.05641">
        <ele>332.7999878</ele>
        <time>2013-08-10T09:11:19Z</time>
      </trkpt>
      <trkpt lat="43.59264" lon="3.05638">
        <ele>332</ele>
        <time>2013-08-10T09:11:20Z</time>
      </trkpt>
      <trkpt lat="43.59258" lon="3.05635">
        <ele>331</ele>
        <time>2013-08-10T09:11:21Z</time>
      </trkpt>
      <trkpt lat="43.59253" lon="3.05631">
        <ele>330.2000122</ele>
        <time>2013-08-10T09:11:22Z</time>
      </trkpt>
      <trkpt lat="43.59248" lon="3.05628">
        <ele>330.2000122</ele>
        <time>2013-08-10T09:11:23Z</time>
      </trkpt>
      <trkpt lat="43.59243" lon="3.05625">
        <ele>329.7999878</ele>
        <time>2013-08-10T09:11:24Z</time>
      </trkpt>
      <trkpt lat="43.59238" lon="3.05622">
        <ele>329.3999939</ele>
        <time>2013-08-10T09:11:25Z</time>
      </trkpt>
      <trkpt lat="43.59234" lon="3.05619">
        <ele>329</ele>
        <time>2013-08-10T09:11:26Z</time>
      </trkpt>
      <trkpt lat="43.59231" lon="3.05616">
        <ele>328.6000061</ele>
        <time>2013-08-10T09:11:27Z</time>
      </trkpt>
      <trkpt lat="43.59229" lon="3.05614">
        <ele>328.2000122</ele>
        <time>2013-08-10T09:11:28Z</time>
      </trkpt>
      <trkpt lat="43.59226" lon="3.05609">
        <ele>328.2000122</ele>
        <time>2013-08-10T09:11:30Z</time>
      </trkpt>
      <trkpt lat="43.5922" lon="3.05605">
        <ele>327.6000061</ele>
        <time>2013-08-10T09:11:32Z</time>
      </trkpt>
      <trkpt lat="43.59217" lon="3.05602">
        <ele>327.2000122</ele>
        <time>2013-08-10T09:11:33Z</time>
      </trkpt>
      <trkpt lat="43.59213" lon="3.05601">
        <ele>326.6000061</ele>
        <time>2013-08-10T09:11:34Z</time>
      </trkpt>
      <trkpt lat="43.5921" lon="3.05599">
        <ele>326.2000122</ele>
        <time>2013-08-10T09:11:35Z</time>
      </trkpt>
      <trkpt lat="43.59206" lon="3.05597">
        <ele>325.6000061</ele>
        <time>2013-08-10T09:11:36Z</time>
      </trkpt>
      <trkpt lat="43.59204" lon="3.05596">
        <ele>325.2000122</ele>
        <time>2013-08-10T09:11:37Z</time>
      </trkpt>
      <trkpt lat="43.59202" lon="3.05595">
        <ele>324.7999878</ele>
        <time>2013-08-10T09:11:38Z</time>
      </trkpt>
      <trkpt lat="43.592" lon="3.05595">
        <ele>324.3999939</ele>
        <time>2013-08-10T09:11:39Z</time>
      </trkpt>
      <trkpt lat="43.592" lon="3.05595">
        <ele>323.7999878</ele>
        <time>2013-08-10T09:11:40Z</time>
      </trkpt>
      <trkpt lat="43.59199" lon="3.05595">
        <ele>323.3999939</ele>
        <time>2013-08-10T09:11:41Z</time>
      </trkpt>
      <trkpt lat="43.59192" lon="3.0559">
        <ele>323.3999939</ele>
        <time>2013-08-10T09:11:46Z</time>
      </trkpt>
      <trkpt lat="43.5919" lon="3.05588">
        <ele>323.3999939</ele>
        <time>2013-08-10T09:11:47Z</time>
      </trkpt>
      <trkpt lat="43.59189" lon="3.05586">
        <ele>323.3999939</ele>
        <time>2013-08-10T09:11:48Z</time>
      </trkpt>
      <trkpt lat="43.59186" lon="3.0558">
        <ele>323.3999939</ele>
        <time>2013-08-10T09:11:52Z</time>
      </trkpt>
      <trkpt lat="43.59184" lon="3.05578">
        <ele>323.3999939</ele>
        <time>2013-08-10T09:11:55Z</time>
      </trkpt>
      <trkpt lat="43.5918" lon="3.05577">
        <ele>323.7999878</ele>
        <time>2013-08-10T09:11:58Z</time>
      </trkpt>
      <trkpt lat="43.59179" lon="3.05576">
        <ele>324.2000122</ele>
        <time>2013-08-10T09:11:59Z</time>
      </trkpt>
      <trkpt lat="43.59175" lon="3.05579">
        <ele>325.3999939</ele>
        <time>2013-08-10T09:12:13Z</time>
      </trkpt>
      <trkpt lat="43.59173" lon="3.05581">
        <ele>324.6000061</ele>
        <time>2013-08-10T09:12:14Z</time>
      </trkpt>
      <trkpt lat="43.59171" lon="3.05582">
        <ele>324.2000122</ele>
        <time>2013-08-10T09:12:15Z</time>
      </trkpt>
      <trkpt lat="43.59168" lon="3.05584">
        <ele>323.7999878</ele>
        <time>2013-08-10T09:12:16Z</time>
      </trkpt>
      <trkpt lat="43.59167" lon="3.05584">
        <ele>323.2000122</ele>
        <time>2013-08-10T09:12:17Z</time>
      </trkpt>
      <trkpt lat="43.59165" lon="3.05584">
        <ele>322.6000061</ele>
        <time>2013-08-10T09:12:18Z</time>
      </trkpt>
      <trkpt lat="43.59164" lon="3.05586">
        <ele>322</ele>
        <time>2013-08-10T09:12:19Z</time>
      </trkpt>
      <trkpt lat="43.59163" lon="3.05588">
        <ele>321.3999939</ele>
        <time>2013-08-10T09:12:20Z</time>
      </trkpt>
      <trkpt lat="43.59161" lon="3.05589">
        <ele>321</ele>
        <time>2013-08-10T09:12:21Z</time>
      </trkpt>
      <trkpt lat="43.59159" lon="3.0559">
        <ele>320.6000061</ele>
        <time>2013-08-10T09:12:22Z</time>
      </trkpt>
      <trkpt lat="43.59155" lon="3.05591">
        <ele>320</ele>
        <time>2013-08-10T09:12:23Z</time>
      </trkpt>
      <trkpt lat="43.59152" lon="3.05592">
        <ele>319.6000061</ele>
        <time>2013-08-10T09:12:24Z</time>
      </trkpt>
      <trkpt lat="43.59149" lon="3.05593">
        <ele>319.2000122</ele>
        <time>2013-08-10T09:12:25Z</time>
      </trkpt>
      <trkpt lat="43.59145" lon="3.05592">
        <ele>318.7999878</ele>
        <time>2013-08-10T09:12:26Z</time>
      </trkpt>
      <trkpt lat="43.59142" lon="3.05591">
        <ele>318.2000122</ele>
        <time>2013-08-10T09:12:27Z</time>
      </trkpt>
      <trkpt lat="43.59138" lon="3.0559">
        <ele>317.7999878</ele>
        <time>2013-08-10T09:12:28Z</time>
      </trkpt>
      <trkpt lat="43.59135" lon="3.05589">
        <ele>317.2000122</ele>
        <time>2013-08-10T09:12:29Z</time>
      </trkpt>
      <trkpt lat="43.59133" lon="3.05588">
        <ele>316.7999878</ele>
        <time>2013-08-10T09:12:30Z</time>
      </trkpt>
      <trkpt lat="43.59129" lon="3.05586">
        <ele>316.7999878</ele>
        <time>2013-08-10T09:12:33Z</time>
      </trkpt>
      <trkpt lat="43.59114" lon="3.05591">
        <ele>314.6000061</ele>
        <time>2013-08-10T09:12:42Z</time>
      </trkpt>
      <trkpt lat="43.59111" lon="3.05592">
        <ele>314</ele>
        <time>2013-08-10T09:12:43Z</time>
      </trkpt>
      <trkpt lat="43.59108" lon="3.05592">
        <ele>313.2000122</ele>
        <time>2013-08-10T09:12:44Z</time>
      </trkpt>
      <trkpt lat="43.59104" lon="3.05592">
        <ele>312.3999939</ele>
        <time>2013-08-10T09:12:45Z</time>
      </trkpt>
      <trkpt lat="43.591" lon="3.05592">
        <ele>311.6000061</ele>
        <time>2013-08-10T09:12:46Z</time>
      </trkpt>
      <trkpt lat="43.59097" lon="3.05591">
        <ele>310.6000061</ele>
        <time>2013-08-10T09:12:47Z</time>
      </trkpt>
      <trkpt lat="43.59094" lon="3.05591">
        <ele>309.7999878</ele>
        <time>2013-08-10T09:12:48Z</time>
      </trkpt>
      <trkpt lat="43.59091" lon="3.05591">
        <ele>308.7999878</ele>
        <time>2013-08-10T09:12:49Z</time>
      </trkpt>
      <trkpt lat="43.59089" lon="3.05592">
        <ele>307.7999878</ele>
        <time>2013-08-10T09:12:50Z</time>
      </trkpt>
      <trkpt lat="43.59085" lon="3.05594">
        <ele>306.7999878</ele>
        <time>2013-08-10T09:12:51Z</time>
      </trkpt>
      <trkpt lat="43.59083" lon="3.05595">
        <ele>305.7999878</ele>
        <time>2013-08-10T09:12:52Z</time>
      </trkpt>
      <trkpt lat="43.5908" lon="3.05594">
        <ele>304.6000061</ele>
        <time>2013-08-10T09:12:53Z</time>
      </trkpt>
      <trkpt lat="43.59077" lon="3.05593">
        <ele>303.7999878</ele>
        <time>2013-08-10T09:12:54Z</time>
      </trkpt>
      <trkpt lat="43.59075" lon="3.05592">
        <ele>302.7999878</ele>
        <time>2013-08-10T09:12:55Z</time>
      </trkpt>
      <trkpt lat="43.59073" lon="3.05591">
        <ele>302</ele>
        <time>2013-08-10T09:12:56Z</time>
      </trkpt>
      <trkpt lat="43.59072" lon="3.05591">
        <ele>301</ele>
        <time>2013-08-10T09:12:57Z</time>
      </trkpt>
      <trkpt lat="43.59068" lon="3.0559">
        <ele>300</ele>
        <time>2013-08-10T09:12:58Z</time>
      </trkpt>
      <trkpt lat="43.59064" lon="3.0559">
        <ele>299.6000061</ele>
        <time>2013-08-10T09:12:59Z</time>
      </trkpt>
      <trkpt lat="43.59062" lon="3.05589">
        <ele>299</ele>
        <time>2013-08-10T09:13:00Z</time>
      </trkpt>
      <trkpt lat="43.59059" lon="3.05588">
        <ele>298.6000061</ele>
        <time>2013-08-10T09:13:01Z</time>
      </trkpt>
      <trkpt lat="43.59055" lon="3.05585">
        <ele>297.3999939</ele>
        <time>2013-08-10T09:13:02Z</time>
      </trkpt>
      <trkpt lat="43.59053" lon="3.05581">
        <ele>296.6000061</ele>
        <time>2013-08-10T09:13:03Z</time>
      </trkpt>
      <trkpt lat="43.5905" lon="3.05578">
        <ele>296</ele>
        <time>2013-08-10T09:13:04Z</time>
      </trkpt>
      <trkpt lat="43.59047" lon="3.05574">
        <ele>295.2000122</ele>
        <time>2013-08-10T09:13:05Z</time>
      </trkpt>
      <trkpt lat="43.59045" lon="3.0557">
        <ele>294.6000061</ele>
        <time>2013-08-10T09:13:06Z</time>
      </trkpt>
      <trkpt lat="43.59042" lon="3.05567">
        <ele>293.7999878</ele>
        <time>2013-08-10T09:13:07Z</time>
      </trkpt>
      <trkpt lat="43.59038" lon="3.05562">
        <ele>293</ele>
        <time>2013-08-10T09:13:08Z</time>
      </trkpt>
      <trkpt lat="43.59024" lon="3.05551">
        <ele>293</ele>
        <time>2013-08-10T09:13:12Z</time>
      </trkpt>
      <trkpt lat="43.59015" lon="3.05545">
        <ele>293</ele>
        <time>2013-08-10T09:13:14Z</time>
      </trkpt>
      <trkpt lat="43.59012" lon="3.05542">
        <ele>292.6000061</ele>
        <time>2013-08-10T09:13:15Z</time>
      </trkpt>
      <trkpt lat="43.59009" lon="3.05539">
        <ele>292.2000122</ele>
        <time>2013-08-10T09:13:16Z</time>
      </trkpt>
      <trkpt lat="43.59006" lon="3.05537">
        <ele>291.7999878</ele>
        <time>2013-08-10T09:13:17Z</time>
      </trkpt>
      <trkpt lat="43.59004" lon="3.05533">
        <ele>291.3999939</ele>
        <time>2013-08-10T09:13:18Z</time>
      </trkpt>
      <trkpt lat="43.59003" lon="3.05529">
        <ele>291</ele>
        <time>2013-08-10T09:13:19Z</time>
      </trkpt>
      <trkpt lat="43.59" lon="3.05522">
        <ele>291</ele>
        <time>2013-08-10T09:13:21Z</time>
      </trkpt>
      <trkpt lat="43.58998" lon="3.05517">
        <ele>291</ele>
        <time>2013-08-10T09:13:23Z</time>
      </trkpt>
      <trkpt lat="43.58992" lon="3.05511">
        <ele>291</ele>
        <time>2013-08-10T09:13:27Z</time>
      </trkpt>
      <trkpt lat="43.58981" lon="3.05514">
        <ele>290.6000061</ele>
        <time>2013-08-10T09:13:32Z</time>
      </trkpt>
      <trkpt lat="43.58977" lon="3.05517">
        <ele>290.2000122</ele>
        <time>2013-08-10T09:13:33Z</time>
      </trkpt>
      <trkpt lat="43.58974" lon="3.05522">
        <ele>289.6000061</ele>
        <time>2013-08-10T09:13:34Z</time>
      </trkpt>
      <trkpt lat="43.58971" lon="3.05527">
        <ele>289.2000122</ele>
        <time>2013-08-10T09:13:35Z</time>
      </trkpt>
      <trkpt lat="43.58968" lon="3.05531">
        <ele>288.7999878</ele>
        <time>2013-08-10T09:13:36Z</time>
      </trkpt>
      <trkpt lat="43.58958" lon="3.05544">
        <ele>288.3999939</ele>
        <time>2013-08-10T09:13:40Z</time>
      </trkpt>
      <trkpt lat="43.58954" lon="3.05548">
        <ele>288</ele>
        <time>2013-08-10T09:13:41Z</time>
      </trkpt>
      <trkpt lat="43.58952" lon="3.05551">
        <ele>287.6000061</ele>
        <time>2013-08-10T09:13:42Z</time>
      </trkpt>
      <trkpt lat="43.58948" lon="3.05554">
        <ele>287.2000122</ele>
        <time>2013-08-10T09:13:43Z</time>
      </trkpt>
      <trkpt lat="43.58944" lon="3.05554">
        <ele>286.7999878</ele>
        <time>2013-08-10T09:13:44Z</time>
      </trkpt>
      <trkpt lat="43.58918" lon="3.05555">
        <ele>286.7999878</ele>
        <time>2013-08-10T09:13:51Z</time>
      </trkpt>
      <trkpt lat="43.58909" lon="3.05555">
        <ele>286.3999939</ele>
        <time>2013-08-10T09:13:53Z</time>
      </trkpt>
      <trkpt lat="43.58904" lon="3.05554">
        <ele>286</ele>
        <time>2013-08-10T09:13:54Z</time>
      </trkpt>
      <trkpt lat="43.58899" lon="3.05554">
        <ele>285.6000061</ele>
        <time>2013-08-10T09:13:55Z</time>
      </trkpt>
      <trkpt lat="43.58896" lon="3.05553">
        <ele>285</ele>
        <time>2013-08-10T09:13:56Z</time>
      </trkpt>
      <trkpt lat="43.58892" lon="3.05552">
        <ele>284.3999939</ele>
        <time>2013-08-10T09:13:57Z</time>
      </trkpt>
      <trkpt lat="43.58888" lon="3.05551">
        <ele>283.7999878</ele>
        <time>2013-08-10T09:13:58Z</time>
      </trkpt>
      <trkpt lat="43.58883" lon="3.0555">
        <ele>283.2000122</ele>
        <time>2013-08-10T09:13:59Z</time>
      </trkpt>
      <trkpt lat="43.5888" lon="3.0555">
        <ele>282.6000061</ele>
        <time>2013-08-10T09:14:00Z</time>
      </trkpt>
      <trkpt lat="43.58876" lon="3.05549">
        <ele>282</ele>
        <time>2013-08-10T09:14:01Z</time>
      </trkpt>
      <trkpt lat="43.58873" lon="3.05549">
        <ele>281.2000122</ele>
        <time>2013-08-10T09:14:02Z</time>
      </trkpt>
      <trkpt lat="43.58869" lon="3.05549">
        <ele>280.6000061</ele>
        <time>2013-08-10T09:14:03Z</time>
      </trkpt>
      <trkpt lat="43.58866" lon="3.05549">
        <ele>280</ele>
        <time>2013-08-10T09:14:04Z</time>
      </trkpt>
      <trkpt lat="43.58862" lon="3.05547">
        <ele>279.2000122</ele>
        <time>2013-08-10T09:14:05Z</time>
      </trkpt>
      <trkpt lat="43.58858" lon="3.05547">
        <ele>278.6000061</ele>
        <time>2013-08-10T09:14:06Z</time>
      </trkpt>
      <trkpt lat="43.58852" lon="3.05548">
        <ele>277.7999878</ele>
        <time>2013-08-10T09:14:07Z</time>
      </trkpt>
      <trkpt lat="43.58846" lon="3.05548">
        <ele>277.2000122</ele>
        <time>2013-08-10T09:14:08Z</time>
      </trkpt>
      <trkpt lat="43.58839" lon="3.0555">
        <ele>276.2000122</ele>
        <time>2013-08-10T09:14:09Z</time>
      </trkpt>
      <trkpt lat="43.5883" lon="3.05552">
        <ele>275.3999939</ele>
        <time>2013-08-10T09:14:10Z</time>
      </trkpt>
      <trkpt lat="43.58826" lon="3.05557">
        <ele>274.2000122</ele>
        <time>2013-08-10T09:14:11Z</time>
      </trkpt>
      <trkpt lat="43.58822" lon="3.05559">
        <ele>273.2000122</ele>
        <time>2013-08-10T09:14:12Z</time>
      </trkpt>
      <trkpt lat="43.5882" lon="3.0556">
        <ele>272</ele>
        <time>2013-08-10T09:14:13Z</time>
      </trkpt>
      <trkpt lat="43.58819" lon="3.05561">
        <ele>271</ele>
        <time>2013-08-10T09:14:14Z</time>
      </trkpt>
      <trkpt lat="43.5882" lon="3.05564">
        <ele>269.7999878</ele>
        <time>2013-08-10T09:14:15Z</time>
      </trkpt>
      <trkpt lat="43.58821" lon="3.05566">
        <ele>267.7999878</ele>
        <time>2013-08-10T09:14:16Z</time>
      </trkpt>
      <trkpt lat="43.58823" lon="3.0557">
        <ele>266.6000061</ele>
        <time>2013-08-10T09:14:17Z</time>
      </trkpt>
      <trkpt lat="43.58824" lon="3.05574">
        <ele>266</ele>
        <time>2013-08-10T09:14:18Z</time>
      </trkpt>
      <trkpt lat="43.58825" lon="3.05579">
        <ele>265.3999939</ele>
        <time>2013-08-10T09:14:19Z</time>
      </trkpt>
      <trkpt lat="43.58827" lon="3.05584">
        <ele>264.6000061</ele>
        <time>2013-08-10T09:14:20Z</time>
      </trkpt>
      <trkpt lat="43.58827" lon="3.05588">
        <ele>264</ele>
        <time>2013-08-10T09:14:21Z</time>
      </trkpt>
      <trkpt lat="43.58826" lon="3.05594">
        <ele>263.3999939</ele>
        <time>2013-08-10T09:14:22Z</time>
      </trkpt>
      <trkpt lat="43.58825" lon="3.05599">
        <ele>262.7999878</ele>
        <time>2013-08-10T09:14:23Z</time>
      </trkpt>
      <trkpt lat="43.58824" lon="3.05603">
        <ele>262</ele>
        <time>2013-08-10T09:14:24Z</time>
      </trkpt>
      <trkpt lat="43.58822" lon="3.05606">
        <ele>261.3999939</ele>
        <time>2013-08-10T09:14:25Z</time>
      </trkpt>
      <trkpt lat="43.5882" lon="3.05608">
        <ele>260.6000061</ele>
        <time>2013-08-10T09:14:26Z</time>
      </trkpt>
      <trkpt lat="43.58818" lon="3.0561">
        <ele>260</ele>
        <time>2013-08-10T09:14:27Z</time>
      </trkpt>
      <trkpt lat="43.58816" lon="3.05612">
        <ele>259.2000122</ele>
        <time>2013-08-10T09:14:28Z</time>
      </trkpt>
      <trkpt lat="43.58813" lon="3.05615">
        <ele>258.3999939</ele>
        <time>2013-08-10T09:14:29Z</time>
      </trkpt>
      <trkpt lat="43.58812" lon="3.05616">
        <ele>257.7999878</ele>
        <time>2013-08-10T09:14:30Z</time>
      </trkpt>
      <trkpt lat="43.58811" lon="3.05618">
        <ele>257</ele>
        <time>2013-08-10T09:14:31Z</time>
      </trkpt>
      <trkpt lat="43.58813" lon="3.05622">
        <ele>256.3999939</ele>
        <time>2013-08-10T09:14:32Z</time>
      </trkpt>
      <trkpt lat="43.58814" lon="3.05625">
        <ele>255.8000031</ele>
        <time>2013-08-10T09:14:33Z</time>
      </trkpt>
      <trkpt lat="43.58816" lon="3.05627">
        <ele>255.1999969</ele>
        <time>2013-08-10T09:14:34Z</time>
      </trkpt>
      <trkpt lat="43.58818" lon="3.0563">
        <ele>254.3999939</ele>
        <time>2013-08-10T09:14:35Z</time>
      </trkpt>
      <trkpt lat="43.58819" lon="3.05631">
        <ele>253.8000031</ele>
        <time>2013-08-10T09:14:36Z</time>
      </trkpt>
      <trkpt lat="43.58821" lon="3.05634">
        <ele>253</ele>
        <time>2013-08-10T09:14:37Z</time>
      </trkpt>
      <trkpt lat="43.58823" lon="3.05636">
        <ele>252.1999969</ele>
        <time>2013-08-10T09:14:38Z</time>
      </trkpt>
      <trkpt lat="43.58825" lon="3.05639">
        <ele>251.6000061</ele>
        <time>2013-08-10T09:14:39Z</time>
      </trkpt>
      <trkpt lat="43.58826" lon="3.05641">
        <ele>250</ele>
        <time>2013-08-10T09:14:40Z</time>
      </trkpt>
      <trkpt lat="43.58832" lon="3.05648">
        <ele>247.3999939</ele>
        <time>2013-08-10T09:14:47Z</time>
      </trkpt>
      <trkpt lat="43.58834" lon="3.0565">
        <ele>247.3999939</ele>
        <time>2013-08-10T09:14:51Z</time>
      </trkpt>
      <trkpt lat="43.58834" lon="3.05651">
        <ele>247.3999939</ele>
        <time>2013-08-10T09:14:52Z</time>
      </trkpt>
      <trkpt lat="43.58835" lon="3.05655">
        <ele>247.3999939</ele>
        <time>2013-08-10T09:14:57Z</time>
      </trkpt>
      <trkpt lat="43.58835" lon="3.05658">
        <ele>247.3999939</ele>
        <time>2013-08-10T09:14:59Z</time>
      </trkpt>
      <trkpt lat="43.58835" lon="3.05659">
        <ele>247.3999939</ele>
        <time>2013-08-10T09:15:00Z</time>
      </trkpt>
      <trkpt lat="43.58834" lon="3.05668">
        <ele>247.3999939</ele>
        <time>2013-08-10T09:15:04Z</time>
      </trkpt>
      <trkpt lat="43.58833" lon="3.05671">
        <ele>247.3999939</ele>
        <time>2013-08-10T09:15:06Z</time>
      </trkpt>
      <trkpt lat="43.58833" lon="3.05673">
        <ele>247.8000031</ele>
        <time>2013-08-10T09:15:07Z</time>
      </trkpt>
      <trkpt lat="43.58833" lon="3.05674">
        <ele>248.1999969</ele>
        <time>2013-08-10T09:15:08Z</time>
      </trkpt>
      <trkpt lat="43.58833" lon="3.05675">
        <ele>248.6000061</ele>
        <time>2013-08-10T09:15:09Z</time>
      </trkpt>
      <trkpt lat="43.58833" lon="3.05676">
        <ele>249</ele>
        <time>2013-08-10T09:15:10Z</time>
      </trkpt>
      <trkpt lat="43.58832" lon="3.05677">
        <ele>249.3999939</ele>
        <time>2013-08-10T09:15:11Z</time>
      </trkpt>
      <trkpt lat="43.5883" lon="3.05685">
        <ele>249.8000031</ele>
        <time>2013-08-10T09:15:15Z</time>
      </trkpt>
      <trkpt lat="43.58829" lon="3.05687">
        <ele>250.1999969</ele>
        <time>2013-08-10T09:15:16Z</time>
      </trkpt>
      <trkpt lat="43.58829" lon="3.05689">
        <ele>250.8000031</ele>
        <time>2013-08-10T09:15:17Z</time>
      </trkpt>
      <trkpt lat="43.58828" lon="3.0569">
        <ele>251.1999969</ele>
        <time>2013-08-10T09:15:18Z</time>
      </trkpt>
      <trkpt lat="43.58828" lon="3.05691">
        <ele>251.6000061</ele>
        <time>2013-08-10T09:15:19Z</time>
      </trkpt>
      <trkpt lat="43.58829" lon="3.05693">
        <ele>251.6000061</ele>
        <time>2013-08-10T09:15:22Z</time>
      </trkpt>
      <trkpt lat="43.58827" lon="3.05698">
        <ele>251.6000061</ele>
        <time>2013-08-10T09:15:28Z</time>
      </trkpt>
      <trkpt lat="43.58824" lon="3.05702">
        <ele>252</ele>
        <time>2013-08-10T09:15:31Z</time>
      </trkpt>
      <trkpt lat="43.58823" lon="3.05703">
        <ele>252.3999939</ele>
        <time>2013-08-10T09:15:32Z</time>
      </trkpt>
      <trkpt lat="43.58821" lon="3.05704">
        <ele>252.8000031</ele>
        <time>2013-08-10T09:15:33Z</time>
      </trkpt>
      <trkpt lat="43.5882" lon="3.05705">
        <ele>253.3999939</ele>
        <time>2013-08-10T09:15:34Z</time>
      </trkpt>
      <trkpt lat="43.58819" lon="3.05705">
        <ele>253.8000031</ele>
        <time>2013-08-10T09:15:35Z</time>
      </trkpt>
      <trkpt lat="43.58813" lon="3.05703">
        <ele>253.8000031</ele>
        <time>2013-08-10T09:15:38Z</time>
      </trkpt>
      <trkpt lat="43.58808" lon="3.05701">
        <ele>253.8000031</ele>
        <time>2013-08-10T09:15:41Z</time>
      </trkpt>
      <trkpt lat="43.58807" lon="3.05701">
        <ele>254.1999969</ele>
        <time>2013-08-10T09:15:42Z</time>
      </trkpt>
      <trkpt lat="43.58806" lon="3.057">
        <ele>254.6000061</ele>
        <time>2013-08-10T09:15:43Z</time>
      </trkpt>
      <trkpt lat="43.58806" lon="3.05699">
        <ele>255.1999969</ele>
        <time>2013-08-10T09:15:44Z</time>
      </trkpt>
      <trkpt lat="43.58805" lon="3.05698">
        <ele>255.6000061</ele>
        <time>2013-08-10T09:15:45Z</time>
      </trkpt>
      <trkpt lat="43.58804" lon="3.05697">
        <ele>256</ele>
        <time>2013-08-10T09:15:46Z</time>
      </trkpt>
      <trkpt lat="43.58801" lon="3.05697">
        <ele>256</ele>
        <time>2013-08-10T09:15:48Z</time>
      </trkpt>
      <trkpt lat="43.58798" lon="3.05698">
        <ele>256</ele>
        <time>2013-08-10T09:15:51Z</time>
      </trkpt>
      <trkpt lat="43.58798" lon="3.05698">
        <ele>256</ele>
        <time>2013-08-10T09:15:52Z</time>
      </trkpt>
      <trkpt lat="43.58793" lon="3.05699">
        <ele>258.2000122</ele>
        <time>2013-08-10T09:16:07Z</time>
      </trkpt>
      <trkpt lat="43.58793" lon="3.05699">
        <ele>258.6000061</ele>
        <time>2013-08-10T09:16:09Z</time>
      </trkpt>
      <trkpt lat="43.58793" lon="3.05699">
        <ele>259</ele>
        <time>2013-08-10T09:16:10Z</time>
      </trkpt>
      <trkpt lat="43.58784" lon="3.05704">
        <ele>261.3999939</ele>
        <time>2013-08-10T09:16:23Z</time>
      </trkpt>
      <trkpt lat="43.58783" lon="3.05704">
        <ele>261.7999878</ele>
        <time>2013-08-10T09:16:24Z</time>
      </trkpt>
      <trkpt lat="43.58782" lon="3.05705">
        <ele>262.2000122</ele>
        <time>2013-08-10T09:16:25Z</time>
      </trkpt>
      <trkpt lat="43.58781" lon="3.05705">
        <ele>262.2000122</ele>
        <time>2013-08-10T09:16:26Z</time>
      </trkpt>
      <trkpt lat="43.58777" lon="3.05706">
        <ele>262.2000122</ele>
        <time>2013-08-10T09:16:33Z</time>
      </trkpt>
      <trkpt lat="43.58771" lon="3.05707">
        <ele>262.2000122</ele>
        <time>2013-08-10T09:16:56Z</time>
      </trkpt>
      <trkpt lat="43.58769" lon="3.05706">
        <ele>262.2000122</ele>
        <time>2013-08-10T09:16:57Z</time>
      </trkpt>
      <trkpt lat="43.58767" lon="3.05707">
        <ele>262.7999878</ele>
        <time>2013-08-10T09:16:59Z</time>
      </trkpt>
      <trkpt lat="43.58766" lon="3.05707">
        <ele>263.2000122</ele>
        <time>2013-08-10T09:17:00Z</time>
      </trkpt>
      <trkpt lat="43.58766" lon="3.05708">
        <ele>263.6000061</ele>
        <time>2013-08-10T09:17:01Z</time>
      </trkpt>
      <trkpt lat="43.58765" lon="3.05708">
        <ele>264</ele>
        <time>2013-08-10T09:17:02Z</time>
      </trkpt>
      <trkpt lat="43.58764" lon="3.05708">
        <ele>264.3999939</ele>
        <time>2013-08-10T09:17:03Z</time>
      </trkpt>
      <trkpt lat="43.58762" lon="3.05709">
        <ele>264.3999939</ele>
        <time>2013-08-10T09:17:05Z</time>
      </trkpt>
      <trkpt lat="43.58761" lon="3.0571">
        <ele>264.3999939</ele>
        <time>2013-08-10T09:17:07Z</time>
      </trkpt>
      <trkpt lat="43.58759" lon="3.05711">
        <ele>264.7999878</ele>
        <time>2013-08-10T09:17:10Z</time>
      </trkpt>
      <trkpt lat="43.58758" lon="3.05711">
        <ele>265.2000122</ele>
        <time>2013-08-10T09:17:11Z</time>
      </trkpt>
      <trkpt lat="43.58757" lon="3.05711">
        <ele>265.7999878</ele>
        <time>2013-08-10T09:17:12Z</time>
      </trkpt>
      <trkpt lat="43.58756" lon="3.05711">
        <ele>266.2000122</ele>
        <time>2013-08-10T09:17:13Z</time>
      </trkpt>
      <trkpt lat="43.58754" lon="3.0571">
        <ele>266.6000061</ele>
        <time>2013-08-10T09:17:14Z</time>
      </trkpt>
      <trkpt lat="43.5875" lon="3.0571">
        <ele>266.6000061</ele>
        <time>2013-08-10T09:17:17Z</time>
      </trkpt>
      <trkpt lat="43.58749" lon="3.0571">
        <ele>266.6000061</ele>
        <time>2013-08-10T09:17:18Z</time>
      </trkpt>
      <trkpt lat="43.58745" lon="3.0571">
        <ele>267</ele>
        <time>2013-08-10T09:17:25Z</time>
      </trkpt>
      <trkpt lat="43.58743" lon="3.05711">
        <ele>268.6000061</ele>
        <time>2013-08-10T09:17:31Z</time>
      </trkpt>
      <trkpt lat="43.58738" lon="3.0571">
        <ele>268.6000061</ele>
        <time>2013-08-10T09:17:34Z</time>
      </trkpt>
      <trkpt lat="43.58734" lon="3.05712">
        <ele>268.6000061</ele>
        <time>2013-08-10T09:17:37Z</time>
      </trkpt>
      <trkpt lat="43.58732" lon="3.05712">
        <ele>268.6000061</ele>
        <time>2013-08-10T09:17:38Z</time>
      </trkpt>
      <trkpt lat="43.58727" lon="3.05713">
        <ele>269</ele>
        <time>2013-08-10T09:17:41Z</time>
      </trkpt>
      <trkpt lat="43.58725" lon="3.05714">
        <ele>269.3999939</ele>
        <time>2013-08-10T09:17:42Z</time>
      </trkpt>
      <trkpt lat="43.58723" lon="3.05714">
        <ele>269.7999878</ele>
        <time>2013-08-10T09:17:43Z</time>
      </trkpt>
      <trkpt lat="43.58721" lon="3.05714">
        <ele>270.2000122</ele>
        <time>2013-08-10T09:17:44Z</time>
      </trkpt>
      <trkpt lat="43.58719" lon="3.05714">
        <ele>270.6000061</ele>
        <time>2013-08-10T09:17:45Z</time>
      </trkpt>
      <trkpt lat="43.58707" lon="3.0571">
        <ele>270.6000061</ele>
        <time>2013-08-10T09:17:49Z</time>
      </trkpt>
      <trkpt lat="43.58695" lon="3.05703">
        <ele>270.2000122</ele>
        <time>2013-08-10T09:17:52Z</time>
      </trkpt>
      <trkpt lat="43.58692" lon="3.05701">
        <ele>269.7999878</ele>
        <time>2013-08-10T09:17:53Z</time>
      </trkpt>
      <trkpt lat="43.58688" lon="3.05698">
        <ele>269.3999939</ele>
        <time>2013-08-10T09:17:54Z</time>
      </trkpt>
      <trkpt lat="43.58685" lon="3.05695">
        <ele>269</ele>
        <time>2013-08-10T09:17:55Z</time>
      </trkpt>
      <trkpt lat="43.58681" lon="3.05693">
        <ele>268.3999939</ele>
        <time>2013-08-10T09:17:56Z</time>
      </trkpt>
      <trkpt lat="43.58678" lon="3.05692">
        <ele>268</ele>
        <time>2013-08-10T09:17:57Z</time>
      </trkpt>
      <trkpt lat="43.58675" lon="3.05692">
        <ele>267</ele>
        <time>2013-08-10T09:17:58Z</time>
      </trkpt>
      <trkpt lat="43.58673" lon="3.05692">
        <ele>266.3999939</ele>
        <time>2013-08-10T09:17:59Z</time>
      </trkpt>
      <trkpt lat="43.58658" lon="3.05687">
        <ele>266.3999939</ele>
        <time>2013-08-10T09:18:05Z</time>
      </trkpt>
      <trkpt lat="43.58647" lon="3.05682">
        <ele>266.3999939</ele>
        <time>2013-08-10T09:18:10Z</time>
      </trkpt>
      <trkpt lat="43.58635" lon="3.05671">
        <ele>266.3999939</ele>
        <time>2013-08-10T09:18:14Z</time>
      </trkpt>
      <trkpt lat="43.58623" lon="3.05661">
        <ele>266.3999939</ele>
        <time>2013-08-10T09:18:18Z</time>
      </trkpt>
      <trkpt lat="43.58617" lon="3.05658">
        <ele>266.3999939</ele>
        <time>2013-08-10T09:18:20Z</time>
      </trkpt>
      <trkpt lat="43.58603" lon="3.05649">
        <ele>266.3999939</ele>
        <time>2013-08-10T09:18:25Z</time>
      </trkpt>
      <trkpt lat="43.58586" lon="3.0564">
        <ele>266.3999939</ele>
        <time>2013-08-10T09:18:30Z</time>
      </trkpt>
      <trkpt lat="43.58574" lon="3.05634">
        <ele>266.3999939</ele>
        <time>2013-08-10T09:18:34Z</time>
      </trkpt>
      <trkpt lat="43.58569" lon="3.05631">
        <ele>266.7999878</ele>
        <time>2013-08-10T09:18:36Z</time>
      </trkpt>
      <trkpt lat="43.58565" lon="3.0563">
        <ele>267.2000122</ele>
        <time>2013-08-10T09:18:37Z</time>
      </trkpt>
      <trkpt lat="43.58563" lon="3.05629">
        <ele>267.6000061</ele>
        <time>2013-08-10T09:18:38Z</time>
      </trkpt>
      <trkpt lat="43.5856" lon="3.05628">
        <ele>268</ele>
        <time>2013-08-10T09:18:39Z</time>
      </trkpt>
      <trkpt lat="43.58558" lon="3.05628">
        <ele>268.3999939</ele>
        <time>2013-08-10T09:18:40Z</time>
      </trkpt>
      <trkpt lat="43.58537" lon="3.05625">
        <ele>268.3999939</ele>
        <time>2013-08-10T09:18:47Z</time>
      </trkpt>
      <trkpt lat="43.58512" lon="3.05621">
        <ele>268</ele>
        <time>2013-08-10T09:18:52Z</time>
      </trkpt>
      <trkpt lat="43.58508" lon="3.05621">
        <ele>267.6000061</ele>
        <time>2013-08-10T09:18:53Z</time>
      </trkpt>
      <trkpt lat="43.58504" lon="3.05622">
        <ele>267</ele>
        <time>2013-08-10T09:18:54Z</time>
      </trkpt>
      <trkpt lat="43.58502" lon="3.05623">
        <ele>266.6000061</ele>
        <time>2013-08-10T09:18:55Z</time>
      </trkpt>
      <trkpt lat="43.58499" lon="3.05624">
        <ele>266</ele>
        <time>2013-08-10T09:18:56Z</time>
      </trkpt>
      <trkpt lat="43.58498" lon="3.05626">
        <ele>265.3999939</ele>
        <time>2013-08-10T09:18:57Z</time>
      </trkpt>
      <trkpt lat="43.58498" lon="3.05628">
        <ele>264.7999878</ele>
        <time>2013-08-10T09:18:58Z</time>
      </trkpt>
      <trkpt lat="43.58497" lon="3.05631">
        <ele>264.2000122</ele>
        <time>2013-08-10T09:18:59Z</time>
      </trkpt>
      <trkpt lat="43.58497" lon="3.05633">
        <ele>263.6000061</ele>
        <time>2013-08-10T09:19:00Z</time>
      </trkpt>
      <trkpt lat="43.58498" lon="3.0564">
        <ele>263.6000061</ele>
        <time>2013-08-10T09:19:02Z</time>
      </trkpt>
      <trkpt lat="43.58499" lon="3.05655">
        <ele>263.6000061</ele>
        <time>2013-08-10T09:19:05Z</time>
      </trkpt>
      <trkpt lat="43.585" lon="3.05686">
        <ele>263.6000061</ele>
        <time>2013-08-10T09:19:11Z</time>
      </trkpt>
      <trkpt lat="43.585" lon="3.05692">
        <ele>263.6000061</ele>
        <time>2013-08-10T09:19:12Z</time>
      </trkpt>
      <trkpt lat="43.585" lon="3.05705">
        <ele>263.2000122</ele>
        <time>2013-08-10T09:19:14Z</time>
      </trkpt>
      <trkpt lat="43.585" lon="3.05711">
        <ele>262.7999878</ele>
        <time>2013-08-10T09:19:15Z</time>
      </trkpt>
      <trkpt lat="43.58501" lon="3.05718">
        <ele>262.3999939</ele>
        <time>2013-08-10T09:19:16Z</time>
      </trkpt>
      <trkpt lat="43.58502" lon="3.05724">
        <ele>262</ele>
        <time>2013-08-10T09:19:17Z</time>
      </trkpt>
      <trkpt lat="43.58504" lon="3.05729">
        <ele>261.6000061</ele>
        <time>2013-08-10T09:19:18Z</time>
      </trkpt>
      <trkpt lat="43.58506" lon="3.05739">
        <ele>261.6000061</ele>
        <time>2013-08-10T09:19:20Z</time>
      </trkpt>
      <trkpt lat="43.58508" lon="3.05767">
        <ele>261.6000061</ele>
        <time>2013-08-10T09:19:25Z</time>
      </trkpt>
      <trkpt lat="43.5851" lon="3.05782">
        <ele>261.6000061</ele>
        <time>2013-08-10T09:19:27Z</time>
      </trkpt>
      <trkpt lat="43.58514" lon="3.05799">
        <ele>261</ele>
        <time>2013-08-10T09:19:29Z</time>
      </trkpt>
      <trkpt lat="43.58516" lon="3.05807">
        <ele>260.6000061</ele>
        <time>2013-08-10T09:19:30Z</time>
      </trkpt>
      <trkpt lat="43.58518" lon="3.05814">
        <ele>260.2000122</ele>
        <time>2013-08-10T09:19:31Z</time>
      </trkpt>
      <trkpt lat="43.5852" lon="3.05822">
        <ele>259.6000061</ele>
        <time>2013-08-10T09:19:32Z</time>
      </trkpt>
      <trkpt lat="43.58521" lon="3.0583">
        <ele>259.2000122</ele>
        <time>2013-08-10T09:19:33Z</time>
      </trkpt>
      <trkpt lat="43.58524" lon="3.05845">
        <ele>258.7999878</ele>
        <time>2013-08-10T09:19:35Z</time>
      </trkpt>
      <trkpt lat="43.58524" lon="3.05853">
        <ele>258.3999939</ele>
        <time>2013-08-10T09:19:36Z</time>
      </trkpt>
      <trkpt lat="43.58523" lon="3.0586">
        <ele>258</ele>
        <time>2013-08-10T09:19:37Z</time>
      </trkpt>
      <trkpt lat="43.58523" lon="3.05868">
        <ele>257</ele>
        <time>2013-08-10T09:19:38Z</time>
      </trkpt>
      <trkpt lat="43.58523" lon="3.05874">
        <ele>257</ele>
        <time>2013-08-10T09:19:39Z</time>
      </trkpt>
      <trkpt lat="43.58527" lon="3.05904">
        <ele>257</ele>
        <time>2013-08-10T09:19:44Z</time>
      </trkpt>
      <trkpt lat="43.5852" lon="3.05919">
        <ele>257</ele>
        <time>2013-08-10T09:19:47Z</time>
      </trkpt>
      <trkpt lat="43.58509" lon="3.05923">
        <ele>257</ele>
        <time>2013-08-10T09:19:49Z</time>
      </trkpt>
      <trkpt lat="43.58503" lon="3.05925">
        <ele>257</ele>
        <time>2013-08-10T09:19:50Z</time>
      </trkpt>
      <trkpt lat="43.58498" lon="3.05927">
        <ele>256.6000061</ele>
        <time>2013-08-10T09:19:51Z</time>
      </trkpt>
      <trkpt lat="43.58494" lon="3.05929">
        <ele>256.2000122</ele>
        <time>2013-08-10T09:19:52Z</time>
      </trkpt>
      <trkpt lat="43.58491" lon="3.0593">
        <ele>255.8000031</ele>
        <time>2013-08-10T09:19:53Z</time>
      </trkpt>
      <trkpt lat="43.58489" lon="3.05934">
        <ele>255.3999939</ele>
        <time>2013-08-10T09:19:54Z</time>
      </trkpt>
      <trkpt lat="43.58489" lon="3.05938">
        <ele>255</ele>
        <time>2013-08-10T09:19:55Z</time>
      </trkpt>
      <trkpt lat="43.58494" lon="3.05944">
        <ele>255</ele>
        <time>2013-08-10T09:19:57Z</time>
      </trkpt>
      <trkpt lat="43.58498" lon="3.05949">
        <ele>255</ele>
        <time>2013-08-10T09:19:59Z</time>
      </trkpt>
      <trkpt lat="43.58506" lon="3.05957">
        <ele>255</ele>
        <time>2013-08-10T09:20:03Z</time>
      </trkpt>
      <trkpt lat="43.58512" lon="3.05964">
        <ele>255.3999939</ele>
        <time>2013-08-10T09:20:06Z</time>
      </trkpt>
      <trkpt lat="43.58514" lon="3.05966">
        <ele>255.8000031</ele>
        <time>2013-08-10T09:20:07Z</time>
      </trkpt>
      <trkpt lat="43.58516" lon="3.05968">
        <ele>256.2000122</ele>
        <time>2013-08-10T09:20:08Z</time>
      </trkpt>
      <trkpt lat="43.58519" lon="3.0597">
        <ele>256.6000061</ele>
        <time>2013-08-10T09:20:09Z</time>
      </trkpt>
      <trkpt lat="43.58521" lon="3.05973">
        <ele>257</ele>
        <time>2013-08-10T09:20:10Z</time>
      </trkpt>
      <trkpt lat="43.58523" lon="3.05975">
        <ele>257</ele>
        <time>2013-08-10T09:20:11Z</time>
      </trkpt>
      <trkpt lat="43.58524" lon="3.05977">
        <ele>257.3999939</ele>
        <time>2013-08-10T09:20:12Z</time>
      </trkpt>
      <trkpt lat="43.58526" lon="3.05979">
        <ele>257.7999878</ele>
        <time>2013-08-10T09:20:13Z</time>
      </trkpt>
      <trkpt lat="43.58527" lon="3.05982">
        <ele>258.2000122</ele>
        <time>2013-08-10T09:20:14Z</time>
      </trkpt>
      <trkpt lat="43.58528" lon="3.05984">
        <ele>258.6000061</ele>
        <time>2013-08-10T09:20:15Z</time>
      </trkpt>
      <trkpt lat="43.5853" lon="3.05987">
        <ele>259</ele>
        <time>2013-08-10T09:20:16Z</time>
      </trkpt>
      <trkpt lat="43.58531" lon="3.0599">
        <ele>259</ele>
        <time>2013-08-10T09:20:17Z</time>
      </trkpt>
      <trkpt lat="43.58532" lon="3.05993">
        <ele>259.6000061</ele>
        <time>2013-08-10T09:20:18Z</time>
      </trkpt>
      <trkpt lat="43.58533" lon="3.05996">
        <ele>260</ele>
        <time>2013-08-10T09:20:19Z</time>
      </trkpt>
      <trkpt lat="43.58534" lon="3.05998">
        <ele>260.6000061</ele>
        <time>2013-08-10T09:20:20Z</time>
      </trkpt>
      <trkpt lat="43.58535" lon="3.06">
        <ele>261</ele>
        <time>2013-08-10T09:20:21Z</time>
      </trkpt>
      <trkpt lat="43.58536" lon="3.06002">
        <ele>261.6000061</ele>
        <time>2013-08-10T09:20:22Z</time>
      </trkpt>
      <trkpt lat="43.58537" lon="3.06004">
        <ele>262</ele>
        <time>2013-08-10T09:20:23Z</time>
      </trkpt>
      <trkpt lat="43.58538" lon="3.06006">
        <ele>262.3999939</ele>
        <time>2013-08-10T09:20:24Z</time>
      </trkpt>
      <trkpt lat="43.58539" lon="3.06008">
        <ele>262.7999878</ele>
        <time>2013-08-10T09:20:25Z</time>
      </trkpt>
      <trkpt lat="43.5854" lon="3.0601">
        <ele>263.2000122</ele>
        <time>2013-08-10T09:20:26Z</time>
      </trkpt>
      <trkpt lat="43.58542" lon="3.06012">
        <ele>263.6000061</ele>
        <time>2013-08-10T09:20:27Z</time>
      </trkpt>
      <trkpt lat="43.58545" lon="3.06017">
        <ele>263.6000061</ele>
        <time>2013-08-10T09:20:29Z</time>
      </trkpt>
      <trkpt lat="43.58555" lon="3.06026">
        <ele>263.6000061</ele>
        <time>2013-08-10T09:20:34Z</time>
      </trkpt>
      <trkpt lat="43.58575" lon="3.06036">
        <ele>263.6000061</ele>
        <time>2013-08-10T09:20:41Z</time>
      </trkpt>
      <trkpt lat="43.58585" lon="3.06034">
        <ele>264</ele>
        <time>2013-08-10T09:20:44Z</time>
      </trkpt>
      <trkpt lat="43.58588" lon="3.06034">
        <ele>264.3999939</ele>
        <time>2013-08-10T09:20:45Z</time>
      </trkpt>
      <trkpt lat="43.58592" lon="3.06034">
        <ele>264.7999878</ele>
        <time>2013-08-10T09:20:46Z</time>
      </trkpt>
      <trkpt lat="43.58595" lon="3.06034">
        <ele>265.2000122</ele>
        <time>2013-08-10T09:20:47Z</time>
      </trkpt>
      <trkpt lat="43.58598" lon="3.06035">
        <ele>265.6000061</ele>
        <time>2013-08-10T09:20:48Z</time>
      </trkpt>
      <trkpt lat="43.586" lon="3.06038">
        <ele>265.6000061</ele>
        <time>2013-08-10T09:20:49Z</time>
      </trkpt>
      <trkpt lat="43.58601" lon="3.06042">
        <ele>265.6000061</ele>
        <time>2013-08-10T09:20:50Z</time>
      </trkpt>
      <trkpt lat="43.58598" lon="3.06055">
        <ele>265.6000061</ele>
        <time>2013-08-10T09:20:53Z</time>
      </trkpt>
      <trkpt lat="43.58595" lon="3.06059">
        <ele>265.6000061</ele>
        <time>2013-08-10T09:20:54Z</time>
      </trkpt>
      <trkpt lat="43.58582" lon="3.06081">
        <ele>265.6000061</ele>
        <time>2013-08-10T09:20:59Z</time>
      </trkpt>
      <trkpt lat="43.58573" lon="3.06116">
        <ele>265.6000061</ele>
        <time>2013-08-10T09:21:06Z</time>
      </trkpt>
      <trkpt lat="43.5857" lon="3.06145">
        <ele>265.6000061</ele>
        <time>2013-08-10T09:21:12Z</time>
      </trkpt>
      <trkpt lat="43.58569" lon="3.06182">
        <ele>265.6000061</ele>
        <time>2013-08-10T09:21:20Z</time>
      </trkpt>
      <trkpt lat="43.58569" lon="3.06195">
        <ele>266</ele>
        <time>2013-08-10T09:21:23Z</time>
      </trkpt>
      <trkpt lat="43.58568" lon="3.06199">
        <ele>266.6000061</ele>
        <time>2013-08-10T09:21:24Z</time>
      </trkpt>
      <trkpt lat="43.58568" lon="3.06204">
        <ele>267</ele>
        <time>2013-08-10T09:21:25Z</time>
      </trkpt>
      <trkpt lat="43.58567" lon="3.06208">
        <ele>267.3999939</ele>
        <time>2013-08-10T09:21:26Z</time>
      </trkpt>
      <trkpt lat="43.58566" lon="3.06213">
        <ele>267.7999878</ele>
        <time>2013-08-10T09:21:27Z</time>
      </trkpt>
      <trkpt lat="43.58566" lon="3.06218">
        <ele>267.7999878</ele>
        <time>2013-08-10T09:21:28Z</time>
      </trkpt>
      <trkpt lat="43.58566" lon="3.0625">
        <ele>267.7999878</ele>
        <time>2013-08-10T09:21:35Z</time>
      </trkpt>
      <trkpt lat="43.58574" lon="3.06276">
        <ele>268.2000122</ele>
        <time>2013-08-10T09:21:41Z</time>
      </trkpt>
      <trkpt lat="43.58576" lon="3.06279">
        <ele>268.6000061</ele>
        <time>2013-08-10T09:21:42Z</time>
      </trkpt>
      <trkpt lat="43.58577" lon="3.06283">
        <ele>269</ele>
        <time>2013-08-10T09:21:43Z</time>
      </trkpt>
      <trkpt lat="43.58579" lon="3.06286">
        <ele>269.6000061</ele>
        <time>2013-08-10T09:21:44Z</time>
      </trkpt>
      <trkpt lat="43.5858" lon="3.0629">
        <ele>270</ele>
        <time>2013-08-10T09:21:45Z</time>
      </trkpt>
      <trkpt lat="43.58584" lon="3.063">
        <ele>270</ele>
        <time>2013-08-10T09:21:48Z</time>
      </trkpt>
      <trkpt lat="43.58592" lon="3.06318">
        <ele>270</ele>
        <time>2013-08-10T09:21:53Z</time>
      </trkpt>
      <trkpt lat="43.58596" lon="3.06325">
        <ele>270.3999939</ele>
        <time>2013-08-10T09:21:55Z</time>
      </trkpt>
      <trkpt lat="43.58598" lon="3.06327">
        <ele>270.7999878</ele>
        <time>2013-08-10T09:21:56Z</time>
      </trkpt>
      <trkpt lat="43.586" lon="3.0633">
        <ele>271.2000122</ele>
        <time>2013-08-10T09:21:57Z</time>
      </trkpt>
      <trkpt lat="43.58603" lon="3.06333">
        <ele>271.6000061</ele>
        <time>2013-08-10T09:21:58Z</time>
      </trkpt>
      <trkpt lat="43.58606" lon="3.06334">
        <ele>272</ele>
        <time>2013-08-10T09:21:59Z</time>
      </trkpt>
      <trkpt lat="43.58617" lon="3.06341">
        <ele>272</ele>
        <time>2013-08-10T09:22:03Z</time>
      </trkpt>
      <trkpt lat="43.58638" lon="3.06345">
        <ele>272</ele>
        <time>2013-08-10T09:22:10Z</time>
      </trkpt>
      <trkpt lat="43.58657" lon="3.0634">
        <ele>272</ele>
        <time>2013-08-10T09:22:16Z</time>
      </trkpt>
      <trkpt lat="43.58676" lon="3.06334">
        <ele>272.3999939</ele>
        <time>2013-08-10T09:22:23Z</time>
      </trkpt>
      <trkpt lat="43.58679" lon="3.06333">
        <ele>272.7999878</ele>
        <time>2013-08-10T09:22:24Z</time>
      </trkpt>
      <trkpt lat="43.58683" lon="3.06333">
        <ele>273.2000122</ele>
        <time>2013-08-10T09:22:25Z</time>
      </trkpt>
      <trkpt lat="43.58686" lon="3.06332">
        <ele>273.6000061</ele>
        <time>2013-08-10T09:22:26Z</time>
      </trkpt>
      <trkpt lat="43.58689" lon="3.06332">
        <ele>274.2000122</ele>
        <time>2013-08-10T09:22:27Z</time>
      </trkpt>
      <trkpt lat="43.58698" lon="3.06331">
        <ele>274.2000122</ele>
        <time>2013-08-10T09:22:30Z</time>
      </trkpt>
      <trkpt lat="43.58721" lon="3.06333">
        <ele>274.2000122</ele>
        <time>2013-08-10T09:22:38Z</time>
      </trkpt>
      <trkpt lat="43.58724" lon="3.06334">
        <ele>274.6000061</ele>
        <time>2013-08-10T09:22:39Z</time>
      </trkpt>
      <trkpt lat="43.58727" lon="3.06334">
        <ele>275</ele>
        <time>2013-08-10T09:22:40Z</time>
      </trkpt>
      <trkpt lat="43.5873" lon="3.06335">
        <ele>275.3999939</ele>
        <time>2013-08-10T09:22:41Z</time>
      </trkpt>
      <trkpt lat="43.58733" lon="3.06336">
        <ele>275.7999878</ele>
        <time>2013-08-10T09:22:42Z</time>
      </trkpt>
      <trkpt lat="43.58735" lon="3.06337">
        <ele>276.2000122</ele>
        <time>2013-08-10T09:22:43Z</time>
      </trkpt>
      <trkpt lat="43.58742" lon="3.06339">
        <ele>276.2000122</ele>
        <time>2013-08-10T09:22:45Z</time>
      </trkpt>
      <trkpt lat="43.58758" lon="3.06347">
        <ele>276.2000122</ele>
        <time>2013-08-10T09:22:51Z</time>
      </trkpt>
      <trkpt lat="43.58764" lon="3.06348">
        <ele>276.6000061</ele>
        <time>2013-08-10T09:22:53Z</time>
      </trkpt>
      <trkpt lat="43.58767" lon="3.06348">
        <ele>277</ele>
        <time>2013-08-10T09:22:54Z</time>
      </trkpt>
      <trkpt lat="43.5877" lon="3.06349">
        <ele>277.3999939</ele>
        <time>2013-08-10T09:22:55Z</time>
      </trkpt>
      <trkpt lat="43.58773" lon="3.0635">
        <ele>278.3999939</ele>
        <time>2013-08-10T09:22:56Z</time>
      </trkpt>
      <trkpt lat="43.5879" lon="3.06348">
        <ele>278.3999939</ele>
        <time>2013-08-10T09:23:02Z</time>
      </trkpt>
      <trkpt lat="43.58797" lon="3.06346">
        <ele>278.7999878</ele>
        <time>2013-08-10T09:23:05Z</time>
      </trkpt>
      <trkpt lat="43.58799" lon="3.06345">
        <ele>279.2000122</ele>
        <time>2013-08-10T09:23:06Z</time>
      </trkpt>
      <trkpt lat="43.58801" lon="3.06344">
        <ele>279.6000061</ele>
        <time>2013-08-10T09:23:07Z</time>
      </trkpt>
      <trkpt lat="43.58803" lon="3.06342">
        <ele>280.2000122</ele>
        <time>2013-08-10T09:23:08Z</time>
      </trkpt>
      <trkpt lat="43.58805" lon="3.0634">
        <ele>280.6000061</ele>
        <time>2013-08-10T09:23:09Z</time>
      </trkpt>
      <trkpt lat="43.58809" lon="3.06336">
        <ele>281</ele>
        <time>2013-08-10T09:23:11Z</time>
      </trkpt>
      <trkpt lat="43.58812" lon="3.06334">
        <ele>281.3999939</ele>
        <time>2013-08-10T09:23:12Z</time>
      </trkpt>
      <trkpt lat="43.58814" lon="3.06333">
        <ele>281.7999878</ele>
        <time>2013-08-10T09:23:13Z</time>
      </trkpt>
      <trkpt lat="43.58817" lon="3.06331">
        <ele>282.2000122</ele>
        <time>2013-08-10T09:23:14Z</time>
      </trkpt>
      <trkpt lat="43.58819" lon="3.06328">
        <ele>282.6000061</ele>
        <time>2013-08-10T09:23:15Z</time>
      </trkpt>
      <trkpt lat="43.58821" lon="3.06325">
        <ele>282.6000061</ele>
        <time>2013-08-10T09:23:16Z</time>
      </trkpt>
      <trkpt lat="43.58828" lon="3.06311">
        <ele>282.6000061</ele>
        <time>2013-08-10T09:23:20Z</time>
      </trkpt>
      <trkpt lat="43.58829" lon="3.06307">
        <ele>283</ele>
        <time>2013-08-10T09:23:21Z</time>
      </trkpt>
      <trkpt lat="43.5883" lon="3.06304">
        <ele>283.3999939</ele>
        <time>2013-08-10T09:23:22Z</time>
      </trkpt>
      <trkpt lat="43.5883" lon="3.06301">
        <ele>283.7999878</ele>
        <time>2013-08-10T09:23:23Z</time>
      </trkpt>
      <trkpt lat="43.58832" lon="3.06298">
        <ele>284.2000122</ele>
        <time>2013-08-10T09:23:24Z</time>
      </trkpt>
      <trkpt lat="43.58833" lon="3.06296">
        <ele>284.6000061</ele>
        <time>2013-08-10T09:23:25Z</time>
      </trkpt>
      <trkpt lat="43.58835" lon="3.06293">
        <ele>284.6000061</ele>
        <time>2013-08-10T09:23:26Z</time>
      </trkpt>
      <trkpt lat="43.58838" lon="3.0629">
        <ele>284.6000061</ele>
        <time>2013-08-10T09:23:30Z</time>
      </trkpt>
      <trkpt lat="43.58837" lon="3.06292">
        <ele>284.6000061</ele>
        <time>2013-08-10T09:23:31Z</time>
      </trkpt>
      <trkpt lat="43.58835" lon="3.06298">
        <ele>284.6000061</ele>
        <time>2013-08-10T09:23:34Z</time>
      </trkpt>
      <trkpt lat="43.58836" lon="3.06302">
        <ele>284.6000061</ele>
        <time>2013-08-10T09:23:35Z</time>
      </trkpt>
      <trkpt lat="43.58838" lon="3.06306">
        <ele>284.6000061</ele>
        <time>2013-08-10T09:23:36Z</time>
      </trkpt>
      <trkpt lat="43.58844" lon="3.06324">
        <ele>284.6000061</ele>
        <time>2013-08-10T09:23:40Z</time>
      </trkpt>
      <trkpt lat="43.58846" lon="3.0633">
        <ele>284.6000061</ele>
        <time>2013-08-10T09:23:42Z</time>
      </trkpt>
      <trkpt lat="43.58851" lon="3.06348">
        <ele>285.3999939</ele>
        <time>2013-08-10T09:23:46Z</time>
      </trkpt>
      <trkpt lat="43.58851" lon="3.06352">
        <ele>285.7999878</ele>
        <time>2013-08-10T09:23:47Z</time>
      </trkpt>
      <trkpt lat="43.58852" lon="3.06356">
        <ele>286.3999939</ele>
        <time>2013-08-10T09:23:48Z</time>
      </trkpt>
      <trkpt lat="43.58853" lon="3.0636">
        <ele>286.7999878</ele>
        <time>2013-08-10T09:23:49Z</time>
      </trkpt>
      <trkpt lat="43.5886" lon="3.06382">
        <ele>286.7999878</ele>
        <time>2013-08-10T09:23:55Z</time>
      </trkpt>
      <trkpt lat="43.58873" lon="3.06394">
        <ele>286.7999878</ele>
        <time>2013-08-10T09:24:01Z</time>
      </trkpt>
      <trkpt lat="43.58885" lon="3.06396">
        <ele>287.2000122</ele>
        <time>2013-08-10T09:24:06Z</time>
      </trkpt>
      <trkpt lat="43.58888" lon="3.06397">
        <ele>287.6000061</ele>
        <time>2013-08-10T09:24:07Z</time>
      </trkpt>
      <trkpt lat="43.5889" lon="3.06399">
        <ele>288</ele>
        <time>2013-08-10T09:24:08Z</time>
      </trkpt>
      <trkpt lat="43.58892" lon="3.064">
        <ele>288.3999939</ele>
        <time>2013-08-10T09:24:09Z</time>
      </trkpt>
      <trkpt lat="43.58895" lon="3.06402">
        <ele>288.7999878</ele>
        <time>2013-08-10T09:24:10Z</time>
      </trkpt>
      <trkpt lat="43.58901" lon="3.06408">
        <ele>288.7999878</ele>
        <time>2013-08-10T09:24:13Z</time>
      </trkpt>
      <trkpt lat="43.5891" lon="3.06427">
        <ele>289.2000122</ele>
        <time>2013-08-10T09:24:19Z</time>
      </trkpt>
      <trkpt lat="43.58911" lon="3.0643">
        <ele>289.6000061</ele>
        <time>2013-08-10T09:24:20Z</time>
      </trkpt>
      <trkpt lat="43.58913" lon="3.06433">
        <ele>290</ele>
        <time>2013-08-10T09:24:21Z</time>
      </trkpt>
      <trkpt lat="43.58914" lon="3.06436">
        <ele>290.3999939</ele>
        <time>2013-08-10T09:24:22Z</time>
      </trkpt>
      <trkpt lat="43.58916" lon="3.0644">
        <ele>290.7999878</ele>
        <time>2013-08-10T09:24:23Z</time>
      </trkpt>
      <trkpt lat="43.5892" lon="3.06445">
        <ele>290.7999878</ele>
        <time>2013-08-10T09:24:25Z</time>
      </trkpt>
      <trkpt lat="43.58924" lon="3.06448">
        <ele>290.7999878</ele>
        <time>2013-08-10T09:24:27Z</time>
      </trkpt>
      <trkpt lat="43.5893" lon="3.06447">
        <ele>290.7999878</ele>
        <time>2013-08-10T09:24:29Z</time>
      </trkpt>
      <trkpt lat="43.58936" lon="3.06447">
        <ele>290.7999878</ele>
        <time>2013-08-10T09:24:31Z</time>
      </trkpt>
      <trkpt lat="43.58943" lon="3.06444">
        <ele>291.2000122</ele>
        <time>2013-08-10T09:24:35Z</time>
      </trkpt>
      <trkpt lat="43.58945" lon="3.06443">
        <ele>291.7999878</ele>
        <time>2013-08-10T09:24:36Z</time>
      </trkpt>
      <trkpt lat="43.58948" lon="3.06443">
        <ele>292.2000122</ele>
        <time>2013-08-10T09:24:37Z</time>
      </trkpt>
      <trkpt lat="43.5895" lon="3.06443">
        <ele>292.6000061</ele>
        <time>2013-08-10T09:24:38Z</time>
      </trkpt>
      <trkpt lat="43.58953" lon="3.06443">
        <ele>293.2000122</ele>
        <time>2013-08-10T09:24:39Z</time>
      </trkpt>
      <trkpt lat="43.58961" lon="3.06443">
        <ele>293.2000122</ele>
        <time>2013-08-10T09:24:42Z</time>
      </trkpt>
      <trkpt lat="43.58977" lon="3.06448">
        <ele>293.2000122</ele>
        <time>2013-08-10T09:24:48Z</time>
      </trkpt>
      <trkpt lat="43.58989" lon="3.06463">
        <ele>293.2000122</ele>
        <time>2013-08-10T09:24:54Z</time>
      </trkpt>
      <trkpt lat="43.59" lon="3.06489">
        <ele>293.2000122</ele>
        <time>2013-08-10T09:25:01Z</time>
      </trkpt>
      <trkpt lat="43.59003" lon="3.06495">
        <ele>293.6000061</ele>
        <time>2013-08-10T09:25:03Z</time>
      </trkpt>
      <trkpt lat="43.59005" lon="3.06498">
        <ele>294</ele>
        <time>2013-08-10T09:25:04Z</time>
      </trkpt>
      <trkpt lat="43.59006" lon="3.06502">
        <ele>294.3999939</ele>
        <time>2013-08-10T09:25:05Z</time>
      </trkpt>
      <trkpt lat="43.59008" lon="3.06505">
        <ele>294.7999878</ele>
        <time>2013-08-10T09:25:06Z</time>
      </trkpt>
      <trkpt lat="43.59009" lon="3.06509">
        <ele>295.3999939</ele>
        <time>2013-08-10T09:25:07Z</time>
      </trkpt>
      <trkpt lat="43.59012" lon="3.06515">
        <ele>295.3999939</ele>
        <time>2013-08-10T09:25:09Z</time>
      </trkpt>
      <trkpt lat="43.59024" lon="3.06536">
        <ele>295.3999939</ele>
        <time>2013-08-10T09:25:16Z</time>
      </trkpt>
      <trkpt lat="43.59037" lon="3.06549">
        <ele>295.3999939</ele>
        <time>2013-08-10T09:25:22Z</time>
      </trkpt>
      <trkpt lat="43.59039" lon="3.0655">
        <ele>295.7999878</ele>
        <time>2013-08-10T09:25:23Z</time>
      </trkpt>
      <trkpt lat="43.59041" lon="3.06551">
        <ele>296.6000061</ele>
        <time>2013-08-10T09:25:24Z</time>
      </trkpt>
      <trkpt lat="43.59043" lon="3.06552">
        <ele>297</ele>
        <time>2013-08-10T09:25:25Z</time>
      </trkpt>
      <trkpt lat="43.59046" lon="3.06553">
        <ele>297.3999939</ele>
        <time>2013-08-10T09:25:26Z</time>
      </trkpt>
      <trkpt lat="43.59055" lon="3.06558">
        <ele>297.3999939</ele>
        <time>2013-08-10T09:25:30Z</time>
      </trkpt>
      <trkpt lat="43.59071" lon="3.06566">
        <ele>297.3999939</ele>
        <time>2013-08-10T09:25:37Z</time>
      </trkpt>
      <trkpt lat="43.59092" lon="3.06574">
        <ele>297.3999939</ele>
        <time>2013-08-10T09:25:45Z</time>
      </trkpt>
      <trkpt lat="43.591" lon="3.06574">
        <ele>298.2000122</ele>
        <time>2013-08-10T09:25:48Z</time>
      </trkpt>
      <trkpt lat="43.59103" lon="3.06574">
        <ele>298.6000061</ele>
        <time>2013-08-10T09:25:49Z</time>
      </trkpt>
      <trkpt lat="43.59106" lon="3.06575">
        <ele>299</ele>
        <time>2013-08-10T09:25:50Z</time>
      </trkpt>
      <trkpt lat="43.59109" lon="3.06576">
        <ele>299.6000061</ele>
        <time>2013-08-10T09:25:51Z</time>
      </trkpt>
      <trkpt lat="43.59116" lon="3.06586">
        <ele>299.6000061</ele>
        <time>2013-08-10T09:25:55Z</time>
      </trkpt>
      <trkpt lat="43.5911" lon="3.06595">
        <ele>299.6000061</ele>
        <time>2013-08-10T09:25:59Z</time>
      </trkpt>
      <trkpt lat="43.59095" lon="3.06598">
        <ele>299.6000061</ele>
        <time>2013-08-10T09:26:02Z</time>
      </trkpt>
      <trkpt lat="43.59091" lon="3.06598">
        <ele>299.6000061</ele>
        <time>2013-08-10T09:26:03Z</time>
      </trkpt>
      <trkpt lat="43.59066" lon="3.06606">
        <ele>299.6000061</ele>
        <time>2013-08-10T09:26:09Z</time>
      </trkpt>
      <trkpt lat="43.59039" lon="3.06629">
        <ele>299.6000061</ele>
        <time>2013-08-10T09:26:16Z</time>
      </trkpt>
      <trkpt lat="43.59022" lon="3.06648">
        <ele>299.6000061</ele>
        <time>2013-08-10T09:26:21Z</time>
      </trkpt>
      <trkpt lat="43.59019" lon="3.06652">
        <ele>299.6000061</ele>
        <time>2013-08-10T09:26:22Z</time>
      </trkpt>
      <trkpt lat="43.59013" lon="3.06674">
        <ele>299.6000061</ele>
        <time>2013-08-10T09:26:26Z</time>
      </trkpt>
      <trkpt lat="43.59011" lon="3.06701">
        <ele>299.6000061</ele>
        <time>2013-08-10T09:26:31Z</time>
      </trkpt>
      <trkpt lat="43.59012" lon="3.06707">
        <ele>299.6000061</ele>
        <time>2013-08-10T09:26:32Z</time>
      </trkpt>
      <trkpt lat="43.59013" lon="3.06749">
        <ele>299.6000061</ele>
        <time>2013-08-10T09:26:39Z</time>
      </trkpt>
      <trkpt lat="43.59013" lon="3.06792">
        <ele>299.6000061</ele>
        <time>2013-08-10T09:26:46Z</time>
      </trkpt>
      <trkpt lat="43.59013" lon="3.06798">
        <ele>299.6000061</ele>
        <time>2013-08-10T09:26:47Z</time>
      </trkpt>
      <trkpt lat="43.59014" lon="3.06811">
        <ele>299.6000061</ele>
        <time>2013-08-10T09:26:49Z</time>
      </trkpt>
      <trkpt lat="43.59017" lon="3.0683">
        <ele>299.6000061</ele>
        <time>2013-08-10T09:26:52Z</time>
      </trkpt>
      <trkpt lat="43.59019" lon="3.06836">
        <ele>300</ele>
        <time>2013-08-10T09:26:53Z</time>
      </trkpt>
      <trkpt lat="43.5902" lon="3.06843">
        <ele>300.3999939</ele>
        <time>2013-08-10T09:26:54Z</time>
      </trkpt>
      <trkpt lat="43.59022" lon="3.06849">
        <ele>300.7999878</ele>
        <time>2013-08-10T09:26:55Z</time>
      </trkpt>
      <trkpt lat="43.59024" lon="3.06855">
        <ele>301.2000122</ele>
        <time>2013-08-10T09:26:56Z</time>
      </trkpt>
      <trkpt lat="43.59026" lon="3.06861">
        <ele>301.6000061</ele>
        <time>2013-08-10T09:26:57Z</time>
      </trkpt>
      <trkpt lat="43.59028" lon="3.06867">
        <ele>301.6000061</ele>
        <time>2013-08-10T09:26:58Z</time>
      </trkpt>
      <trkpt lat="43.5904" lon="3.06901">
        <ele>301.6000061</ele>
        <time>2013-08-10T09:27:04Z</time>
      </trkpt>
      <trkpt lat="43.59057" lon="3.0693">
        <ele>301.6000061</ele>
        <time>2013-08-10T09:27:10Z</time>
      </trkpt>
      <trkpt lat="43.59069" lon="3.06951">
        <ele>302</ele>
        <time>2013-08-10T09:27:14Z</time>
      </trkpt>
      <trkpt lat="43.59069" lon="3.06958">
        <ele>302.3999939</ele>
        <time>2013-08-10T09:27:15Z</time>
      </trkpt>
      <trkpt lat="43.59071" lon="3.06965">
        <ele>302.7999878</ele>
        <time>2013-08-10T09:27:16Z</time>
      </trkpt>
      <trkpt lat="43.5907" lon="3.0697">
        <ele>303.2000122</ele>
        <time>2013-08-10T09:27:17Z</time>
      </trkpt>
      <trkpt lat="43.59069" lon="3.06976">
        <ele>303.7999878</ele>
        <time>2013-08-10T09:27:18Z</time>
      </trkpt>
      <trkpt lat="43.59068" lon="3.06981">
        <ele>303.7999878</ele>
        <time>2013-08-10T09:27:19Z</time>
      </trkpt>
      <trkpt lat="43.59068" lon="3.06997">
        <ele>303.7999878</ele>
        <time>2013-08-10T09:27:22Z</time>
      </trkpt>
      <trkpt lat="43.5907" lon="3.07007">
        <ele>303.7999878</ele>
        <time>2013-08-10T09:27:24Z</time>
      </trkpt>
      <trkpt lat="43.59073" lon="3.07011">
        <ele>303.7999878</ele>
        <time>2013-08-10T09:27:25Z</time>
      </trkpt>
      <trkpt lat="43.59079" lon="3.07013">
        <ele>303.7999878</ele>
        <time>2013-08-10T09:27:27Z</time>
      </trkpt>
      <trkpt lat="43.59084" lon="3.07011">
        <ele>303.7999878</ele>
        <time>2013-08-10T09:27:30Z</time>
      </trkpt>
      <trkpt lat="43.59087" lon="3.0701">
        <ele>303.7999878</ele>
        <time>2013-08-10T09:27:32Z</time>
      </trkpt>
      <trkpt lat="43.59095" lon="3.07007">
        <ele>303.7999878</ele>
        <time>2013-08-10T09:27:38Z</time>
      </trkpt>
      <trkpt lat="43.59096" lon="3.07006">
        <ele>304.2000122</ele>
        <time>2013-08-10T09:27:39Z</time>
      </trkpt>
      <trkpt lat="43.59098" lon="3.07005">
        <ele>304.6000061</ele>
        <time>2013-08-10T09:27:40Z</time>
      </trkpt>
      <trkpt lat="43.59099" lon="3.07004">
        <ele>305</ele>
        <time>2013-08-10T09:27:41Z</time>
      </trkpt>
      <trkpt lat="43.591" lon="3.07003">
        <ele>305.3999939</ele>
        <time>2013-08-10T09:27:42Z</time>
      </trkpt>
      <trkpt lat="43.59101" lon="3.07002">
        <ele>305.7999878</ele>
        <time>2013-08-10T09:27:43Z</time>
      </trkpt>
      <trkpt lat="43.59102" lon="3.06998">
        <ele>306.2000122</ele>
        <time>2013-08-10T09:27:45Z</time>
      </trkpt>
      <trkpt lat="43.59102" lon="3.06997">
        <ele>306.7999878</ele>
        <time>2013-08-10T09:27:46Z</time>
      </trkpt>
      <trkpt lat="43.59103" lon="3.06995">
        <ele>307.2000122</ele>
        <time>2013-08-10T09:27:47Z</time>
      </trkpt>
      <trkpt lat="43.59102" lon="3.06993">
        <ele>307.6000061</ele>
        <time>2013-08-10T09:27:48Z</time>
      </trkpt>
      <trkpt lat="43.59102" lon="3.06992">
        <ele>308</ele>
        <time>2013-08-10T09:27:49Z</time>
      </trkpt>
      <trkpt lat="43.59103" lon="3.06988">
        <ele>308</ele>
        <time>2013-08-10T09:27:51Z</time>
      </trkpt>
      <trkpt lat="43.59103" lon="3.06986">
        <ele>308.3999939</ele>
        <time>2013-08-10T09:27:52Z</time>
      </trkpt>
      <trkpt lat="43.59103" lon="3.06984">
        <ele>308.7999878</ele>
        <time>2013-08-10T09:27:53Z</time>
      </trkpt>
      <trkpt lat="43.59103" lon="3.06982">
        <ele>309.2000122</ele>
        <time>2013-08-10T09:27:54Z</time>
      </trkpt>
      <trkpt lat="43.59103" lon="3.06981">
        <ele>309.6000061</ele>
        <time>2013-08-10T09:27:55Z</time>
      </trkpt>
      <trkpt lat="43.59103" lon="3.06979">
        <ele>310</ele>
        <time>2013-08-10T09:27:56Z</time>
      </trkpt>
      <trkpt lat="43.59103" lon="3.06978">
        <ele>310</ele>
        <time>2013-08-10T09:27:57Z</time>
      </trkpt>
      <trkpt lat="43.59103" lon="3.06976">
        <ele>310</ele>
        <time>2013-08-10T09:27:58Z</time>
      </trkpt>
      <trkpt lat="43.59103" lon="3.06972">
        <ele>310.3999939</ele>
        <time>2013-08-10T09:28:00Z</time>
      </trkpt>
      <trkpt lat="43.59103" lon="3.06971">
        <ele>310.7999878</ele>
        <time>2013-08-10T09:28:01Z</time>
      </trkpt>
      <trkpt lat="43.59103" lon="3.06969">
        <ele>311.3999939</ele>
        <time>2013-08-10T09:28:02Z</time>
      </trkpt>
      <trkpt lat="43.59103" lon="3.06967">
        <ele>311.7999878</ele>
        <time>2013-08-10T09:28:03Z</time>
      </trkpt>
      <trkpt lat="43.59104" lon="3.06965">
        <ele>312.2000122</ele>
        <time>2013-08-10T09:28:04Z</time>
      </trkpt>
      <trkpt lat="43.59106" lon="3.06954">
        <ele>312.2000122</ele>
        <time>2013-08-10T09:28:10Z</time>
      </trkpt>
      <trkpt lat="43.59107" lon="3.06953">
        <ele>312.6000061</ele>
        <time>2013-08-10T09:28:11Z</time>
      </trkpt>
      <trkpt lat="43.59108" lon="3.06951">
        <ele>313</ele>
        <time>2013-08-10T09:28:12Z</time>
      </trkpt>
      <trkpt lat="43.59108" lon="3.0695">
        <ele>313.3999939</ele>
        <time>2013-08-10T09:28:13Z</time>
      </trkpt>
      <trkpt lat="43.5911" lon="3.06948">
        <ele>313.7999878</ele>
        <time>2013-08-10T09:28:14Z</time>
      </trkpt>
      <trkpt lat="43.5911" lon="3.06948">
        <ele>314.2000122</ele>
        <time>2013-08-10T09:28:15Z</time>
      </trkpt>
      <trkpt lat="43.59114" lon="3.0694">
        <ele>314.6000061</ele>
        <time>2013-08-10T09:28:20Z</time>
      </trkpt>
      <trkpt lat="43.59115" lon="3.06939">
        <ele>315</ele>
        <time>2013-08-10T09:28:21Z</time>
      </trkpt>
      <trkpt lat="43.59115" lon="3.06937">
        <ele>315.3999939</ele>
        <time>2013-08-10T09:28:22Z</time>
      </trkpt>
      <trkpt lat="43.59116" lon="3.06936">
        <ele>315.7999878</ele>
        <time>2013-08-10T09:28:23Z</time>
      </trkpt>
      <trkpt lat="43.59117" lon="3.06934">
        <ele>316.2000122</ele>
        <time>2013-08-10T09:28:24Z</time>
      </trkpt>
      <trkpt lat="43.5912" lon="3.0693">
        <ele>316.2000122</ele>
        <time>2013-08-10T09:28:27Z</time>
      </trkpt>
      <trkpt lat="43.5912" lon="3.06929">
        <ele>316.2000122</ele>
        <time>2013-08-10T09:28:28Z</time>
      </trkpt>
      <trkpt lat="43.59121" lon="3.06927">
        <ele>316.7999878</ele>
        <time>2013-08-10T09:28:29Z</time>
      </trkpt>
      <trkpt lat="43.59121" lon="3.06926">
        <ele>317.2000122</ele>
        <time>2013-08-10T09:28:30Z</time>
      </trkpt>
      <trkpt lat="43.59122" lon="3.06925">
        <ele>317.6000061</ele>
        <time>2013-08-10T09:28:31Z</time>
      </trkpt>
      <trkpt lat="43.59122" lon="3.06923">
        <ele>318</ele>
        <time>2013-08-10T09:28:32Z</time>
      </trkpt>
      <trkpt lat="43.59123" lon="3.06922">
        <ele>318.3999939</ele>
        <time>2013-08-10T09:28:33Z</time>
      </trkpt>
      <trkpt lat="43.59123" lon="3.0692">
        <ele>318.3999939</ele>
        <time>2013-08-10T09:28:34Z</time>
      </trkpt>
      <trkpt lat="43.59124" lon="3.06908">
        <ele>319.2000122</ele>
        <time>2013-08-10T09:28:42Z</time>
      </trkpt>
      <trkpt lat="43.59124" lon="3.06906">
        <ele>319.6000061</ele>
        <time>2013-08-10T09:28:43Z</time>
      </trkpt>
      <trkpt lat="43.59124" lon="3.06904">
        <ele>320</ele>
        <time>2013-08-10T09:28:44Z</time>
      </trkpt>
      <trkpt lat="43.59124" lon="3.06903">
        <ele>320.3999939</ele>
        <time>2013-08-10T09:28:45Z</time>
      </trkpt>
      <trkpt lat="43.59123" lon="3.06896">
        <ele>320.3999939</ele>
        <time>2013-08-10T09:28:50Z</time>
      </trkpt>
      <trkpt lat="43.59123" lon="3.06895">
        <ele>321</ele>
        <time>2013-08-10T09:28:51Z</time>
      </trkpt>
      <trkpt lat="43.59122" lon="3.06894">
        <ele>321.3999939</ele>
        <time>2013-08-10T09:28:52Z</time>
      </trkpt>
      <trkpt lat="43.59122" lon="3.06893">
        <ele>321.7999878</ele>
        <time>2013-08-10T09:28:53Z</time>
      </trkpt>
      <trkpt lat="43.59121" lon="3.06892">
        <ele>322.2000122</ele>
        <time>2013-08-10T09:28:54Z</time>
      </trkpt>
      <trkpt lat="43.59121" lon="3.06891">
        <ele>322.6000061</ele>
        <time>2013-08-10T09:28:55Z</time>
      </trkpt>
      <trkpt lat="43.59118" lon="3.0689">
        <ele>322.6000061</ele>
        <time>2013-08-10T09:28:58Z</time>
      </trkpt>
      <trkpt lat="43.59111" lon="3.06885">
        <ele>323</ele>
        <time>2013-08-10T09:29:04Z</time>
      </trkpt>
      <trkpt lat="43.5911" lon="3.06883">
        <ele>323.3999939</ele>
        <time>2013-08-10T09:29:05Z</time>
      </trkpt>
      <trkpt lat="43.5911" lon="3.06881">
        <ele>324.3999939</ele>
        <time>2013-08-10T09:29:06Z</time>
      </trkpt>
      <trkpt lat="43.59108" lon="3.0688">
        <ele>324.7999878</ele>
        <time>2013-08-10T09:29:07Z</time>
      </trkpt>
      <trkpt lat="43.59103" lon="3.06875">
        <ele>324.7999878</ele>
        <time>2013-08-10T09:29:11Z</time>
      </trkpt>
      <trkpt lat="43.59102" lon="3.06871">
        <ele>324.7999878</ele>
        <time>2013-08-10T09:29:13Z</time>
      </trkpt>
      <trkpt lat="43.59101" lon="3.06864">
        <ele>324.7999878</ele>
        <time>2013-08-10T09:29:17Z</time>
      </trkpt>
      <trkpt lat="43.59101" lon="3.06862">
        <ele>325.2000122</ele>
        <time>2013-08-10T09:29:18Z</time>
      </trkpt>
      <trkpt lat="43.59101" lon="3.0686">
        <ele>325.6000061</ele>
        <time>2013-08-10T09:29:19Z</time>
      </trkpt>
      <trkpt lat="43.59101" lon="3.0686">
        <ele>326</ele>
        <time>2013-08-10T09:29:20Z</time>
      </trkpt>
      <trkpt lat="43.59101" lon="3.06859">
        <ele>326.3999939</ele>
        <time>2013-08-10T09:29:21Z</time>
      </trkpt>
      <trkpt lat="43.591" lon="3.06857">
        <ele>326.7999878</ele>
        <time>2013-08-10T09:29:22Z</time>
      </trkpt>
      <trkpt lat="43.591" lon="3.06853">
        <ele>326.7999878</ele>
        <time>2013-08-10T09:29:24Z</time>
      </trkpt>
      <trkpt lat="43.591" lon="3.06844">
        <ele>327.2000122</ele>
        <time>2013-08-10T09:29:30Z</time>
      </trkpt>
      <trkpt lat="43.59101" lon="3.06843">
        <ele>328.2000122</ele>
        <time>2013-08-10T09:29:31Z</time>
      </trkpt>
      <trkpt lat="43.59102" lon="3.06842">
        <ele>328.6000061</ele>
        <time>2013-08-10T09:29:32Z</time>
      </trkpt>
      <trkpt lat="43.59102" lon="3.0684">
        <ele>329</ele>
        <time>2013-08-10T09:29:33Z</time>
      </trkpt>
      <trkpt lat="43.59103" lon="3.06834">
        <ele>329.3999939</ele>
        <time>2013-08-10T09:29:37Z</time>
      </trkpt>
      <trkpt lat="43.59104" lon="3.06832">
        <ele>329.7999878</ele>
        <time>2013-08-10T09:29:38Z</time>
      </trkpt>
      <trkpt lat="43.59104" lon="3.06831">
        <ele>330.2000122</ele>
        <time>2013-08-10T09:29:39Z</time>
      </trkpt>
      <trkpt lat="43.59104" lon="3.06829">
        <ele>330.6000061</ele>
        <time>2013-08-10T09:29:40Z</time>
      </trkpt>
      <trkpt lat="43.59104" lon="3.06827">
        <ele>331</ele>
        <time>2013-08-10T09:29:41Z</time>
      </trkpt>
      <trkpt lat="43.59105" lon="3.06822">
        <ele>331.3999939</ele>
        <time>2013-08-10T09:29:44Z</time>
      </trkpt>
      <trkpt lat="43.59106" lon="3.0682">
        <ele>331.7999878</ele>
        <time>2013-08-10T09:29:45Z</time>
      </trkpt>
      <trkpt lat="43.59107" lon="3.06818">
        <ele>332.2000122</ele>
        <time>2013-08-10T09:29:46Z</time>
      </trkpt>
      <trkpt lat="43.59107" lon="3.06817">
        <ele>332.7999878</ele>
        <time>2013-08-10T09:29:47Z</time>
      </trkpt>
      <trkpt lat="43.59107" lon="3.06815">
        <ele>333.2000122</ele>
        <time>2013-08-10T09:29:48Z</time>
      </trkpt>
      <trkpt lat="43.59108" lon="3.06812">
        <ele>333.2000122</ele>
        <time>2013-08-10T09:29:51Z</time>
      </trkpt>
      <trkpt lat="43.59109" lon="3.0681">
        <ele>333.2000122</ele>
        <time>2013-08-10T09:29:52Z</time>
      </trkpt>
      <trkpt lat="43.5911" lon="3.06805">
        <ele>333.6000061</ele>
        <time>2013-08-10T09:29:55Z</time>
      </trkpt>
      <trkpt lat="43.5911" lon="3.06803">
        <ele>334.3999939</ele>
        <time>2013-08-10T09:29:56Z</time>
      </trkpt>
      <trkpt lat="43.59111" lon="3.06801">
        <ele>334.7999878</ele>
        <time>2013-08-10T09:29:57Z</time>
      </trkpt>
      <trkpt lat="43.59111" lon="3.06799">
        <ele>335.2000122</ele>
        <time>2013-08-10T09:29:58Z</time>
      </trkpt>
      <trkpt lat="43.59111" lon="3.06797">
        <ele>335.2000122</ele>
        <time>2013-08-10T09:29:59Z</time>
      </trkpt>
      <trkpt lat="43.59113" lon="3.06788">
        <ele>335.2000122</ele>
        <time>2013-08-10T09:30:05Z</time>
      </trkpt>
      <trkpt lat="43.59113" lon="3.06784">
        <ele>335.2000122</ele>
        <time>2013-08-10T09:30:07Z</time>
      </trkpt>
      <trkpt lat="43.59112" lon="3.06781">
        <ele>335.6000061</ele>
        <time>2013-08-10T09:30:09Z</time>
      </trkpt>
      <trkpt lat="43.59112" lon="3.06779">
        <ele>336.2000122</ele>
        <time>2013-08-10T09:30:10Z</time>
      </trkpt>
      <trkpt lat="43.59112" lon="3.06777">
        <ele>336.6000061</ele>
        <time>2013-08-10T09:30:11Z</time>
      </trkpt>
      <trkpt lat="43.59112" lon="3.06774">
        <ele>337</ele>
        <time>2013-08-10T09:30:12Z</time>
      </trkpt>
      <trkpt lat="43.59113" lon="3.06772">
        <ele>337.3999939</ele>
        <time>2013-08-10T09:30:13Z</time>
      </trkpt>
      <trkpt lat="43.59112" lon="3.06758">
        <ele>337.7999878</ele>
        <time>2013-08-10T09:30:20Z</time>
      </trkpt>
      <trkpt lat="43.59112" lon="3.06757">
        <ele>338.2000122</ele>
        <time>2013-08-10T09:30:21Z</time>
      </trkpt>
      <trkpt lat="43.59112" lon="3.06754">
        <ele>338.6000061</ele>
        <time>2013-08-10T09:30:22Z</time>
      </trkpt>
      <trkpt lat="43.59113" lon="3.06752">
        <ele>339</ele>
        <time>2013-08-10T09:30:23Z</time>
      </trkpt>
      <trkpt lat="43.59113" lon="3.06749">
        <ele>339.3999939</ele>
        <time>2013-08-10T09:30:24Z</time>
      </trkpt>
      <trkpt lat="43.59115" lon="3.0674">
        <ele>339.3999939</ele>
        <time>2013-08-10T09:30:28Z</time>
      </trkpt>
      <trkpt lat="43.59123" lon="3.06729">
        <ele>340</ele>
        <time>2013-08-10T09:30:34Z</time>
      </trkpt>
      <trkpt lat="43.59125" lon="3.06727">
        <ele>340.3999939</ele>
        <time>2013-08-10T09:30:35Z</time>
      </trkpt>
      <trkpt lat="43.59126" lon="3.06727">
        <ele>340.7999878</ele>
        <time>2013-08-10T09:30:36Z</time>
      </trkpt>
      <trkpt lat="43.59128" lon="3.06726">
        <ele>341.2000122</ele>
        <time>2013-08-10T09:30:37Z</time>
      </trkpt>
      <trkpt lat="43.5913" lon="3.06726">
        <ele>341.6000061</ele>
        <time>2013-08-10T09:30:38Z</time>
      </trkpt>
      <trkpt lat="43.59134" lon="3.06723">
        <ele>341.6000061</ele>
        <time>2013-08-10T09:30:40Z</time>
      </trkpt>
      <trkpt lat="43.59148" lon="3.06719">
        <ele>341.6000061</ele>
        <time>2013-08-10T09:30:48Z</time>
      </trkpt>
      <trkpt lat="43.59155" lon="3.06718">
        <ele>342</ele>
        <time>2013-08-10T09:30:52Z</time>
      </trkpt>
      <trkpt lat="43.59157" lon="3.06718">
        <ele>342.3999939</ele>
        <time>2013-08-10T09:30:53Z</time>
      </trkpt>
      <trkpt lat="43.59159" lon="3.06718">
        <ele>342.7999878</ele>
        <time>2013-08-10T09:30:54Z</time>
      </trkpt>
      <trkpt lat="43.59161" lon="3.06718">
        <ele>343.3999939</ele>
        <time>2013-08-10T09:30:55Z</time>
      </trkpt>
      <trkpt lat="43.59163" lon="3.06718">
        <ele>343.7999878</ele>
        <time>2013-08-10T09:30:56Z</time>
      </trkpt>
      <trkpt lat="43.59173" lon="3.06716">
        <ele>344.2000122</ele>
        <time>2013-08-10T09:31:01Z</time>
      </trkpt>
      <trkpt lat="43.59175" lon="3.06716">
        <ele>344.6000061</ele>
        <time>2013-08-10T09:31:02Z</time>
      </trkpt>
      <trkpt lat="43.59178" lon="3.06715">
        <ele>345</ele>
        <time>2013-08-10T09:31:03Z</time>
      </trkpt>
      <trkpt lat="43.59179" lon="3.06715">
        <ele>345.6000061</ele>
        <time>2013-08-10T09:31:04Z</time>
      </trkpt>
      <trkpt lat="43.59181" lon="3.06714">
        <ele>346</ele>
        <time>2013-08-10T09:31:05Z</time>
      </trkpt>
      <trkpt lat="43.59184" lon="3.06712">
        <ele>346</ele>
        <time>2013-08-10T09:31:06Z</time>
      </trkpt>
      <trkpt lat="43.59198" lon="3.06703">
        <ele>346</ele>
        <time>2013-08-10T09:31:13Z</time>
      </trkpt>
      <trkpt lat="43.59202" lon="3.06701">
        <ele>346.3999939</ele>
        <time>2013-08-10T09:31:15Z</time>
      </trkpt>
      <trkpt lat="43.59204" lon="3.06699">
        <ele>346.7999878</ele>
        <time>2013-08-10T09:31:16Z</time>
      </trkpt>
      <trkpt lat="43.59206" lon="3.06697">
        <ele>347.2000122</ele>
        <time>2013-08-10T09:31:17Z</time>
      </trkpt>
      <trkpt lat="43.59209" lon="3.06695">
        <ele>347.6000061</ele>
        <time>2013-08-10T09:31:18Z</time>
      </trkpt>
      <trkpt lat="43.59211" lon="3.06692">
        <ele>348.2000122</ele>
        <time>2013-08-10T09:31:19Z</time>
      </trkpt>
      <trkpt lat="43.59213" lon="3.0669">
        <ele>348.2000122</ele>
        <time>2013-08-10T09:31:20Z</time>
      </trkpt>
      <trkpt lat="43.59229" lon="3.06671">
        <ele>348.2000122</ele>
        <time>2013-08-10T09:31:27Z</time>
      </trkpt>
      <trkpt lat="43.59245" lon="3.06652">
        <ele>348.2000122</ele>
        <time>2013-08-10T09:31:34Z</time>
      </trkpt>
      <trkpt lat="43.59261" lon="3.06642">
        <ele>348.2000122</ele>
        <time>2013-08-10T09:31:40Z</time>
      </trkpt>
      <trkpt lat="43.59278" lon="3.06639">
        <ele>348.6000061</ele>
        <time>2013-08-10T09:31:46Z</time>
      </trkpt>
      <trkpt lat="43.59281" lon="3.06639">
        <ele>349</ele>
        <time>2013-08-10T09:31:47Z</time>
      </trkpt>
      <trkpt lat="43.59284" lon="3.06639">
        <ele>349.3999939</ele>
        <time>2013-08-10T09:31:48Z</time>
      </trkpt>
      <trkpt lat="43.59287" lon="3.06638">
        <ele>349.7999878</ele>
        <time>2013-08-10T09:31:49Z</time>
      </trkpt>
      <trkpt lat="43.5929" lon="3.06638">
        <ele>350.2000122</ele>
        <time>2013-08-10T09:31:50Z</time>
      </trkpt>
      <trkpt lat="43.59298" lon="3.06636">
        <ele>350.2000122</ele>
        <time>2013-08-10T09:31:53Z</time>
      </trkpt>
      <trkpt lat="43.59301" lon="3.06635">
        <ele>350.6000061</ele>
        <time>2013-08-10T09:31:54Z</time>
      </trkpt>
      <trkpt lat="43.59303" lon="3.06635">
        <ele>351</ele>
        <time>2013-08-10T09:31:55Z</time>
      </trkpt>
      <trkpt lat="43.59306" lon="3.06635">
        <ele>351.3999939</ele>
        <time>2013-08-10T09:31:56Z</time>
      </trkpt>
      <trkpt lat="43.59308" lon="3.06634">
        <ele>351.7999878</ele>
        <time>2013-08-10T09:31:57Z</time>
      </trkpt>
      <trkpt lat="43.59311" lon="3.06634">
        <ele>352.2000122</ele>
        <time>2013-08-10T09:31:58Z</time>
      </trkpt>
      <trkpt lat="43.59315" lon="3.06635">
        <ele>352.2000122</ele>
        <time>2013-08-10T09:32:00Z</time>
      </trkpt>
      <trkpt lat="43.59322" lon="3.06637">
        <ele>352.6000061</ele>
        <time>2013-08-10T09:32:03Z</time>
      </trkpt>
      <trkpt lat="43.59325" lon="3.06638">
        <ele>353</ele>
        <time>2013-08-10T09:32:04Z</time>
      </trkpt>
      <trkpt lat="43.59326" lon="3.06638">
        <ele>353.3999939</ele>
        <time>2013-08-10T09:32:05Z</time>
      </trkpt>
      <trkpt lat="43.59329" lon="3.06639">
        <ele>353.7999878</ele>
        <time>2013-08-10T09:32:06Z</time>
      </trkpt>
      <trkpt lat="43.59331" lon="3.0664">
        <ele>354.2000122</ele>
        <time>2013-08-10T09:32:07Z</time>
      </trkpt>
      <trkpt lat="43.59342" lon="3.06648">
        <ele>354.2000122</ele>
        <time>2013-08-10T09:32:13Z</time>
      </trkpt>
      <trkpt lat="43.59347" lon="3.06653">
        <ele>354.6000061</ele>
        <time>2013-08-10T09:32:16Z</time>
      </trkpt>
      <trkpt lat="43.59349" lon="3.06655">
        <ele>355</ele>
        <time>2013-08-10T09:32:17Z</time>
      </trkpt>
      <trkpt lat="43.59351" lon="3.06656">
        <ele>355.6000061</ele>
        <time>2013-08-10T09:32:18Z</time>
      </trkpt>
      <trkpt lat="43.59354" lon="3.06658">
        <ele>356</ele>
        <time>2013-08-10T09:32:19Z</time>
      </trkpt>
      <trkpt lat="43.59356" lon="3.0666">
        <ele>356.3999939</ele>
        <time>2013-08-10T09:32:20Z</time>
      </trkpt>
      <trkpt lat="43.59365" lon="3.06668">
        <ele>356.3999939</ele>
        <time>2013-08-10T09:32:24Z</time>
      </trkpt>
      <trkpt lat="43.59387" lon="3.06678">
        <ele>356.3999939</ele>
        <time>2013-08-10T09:32:31Z</time>
      </trkpt>
      <trkpt lat="43.59402" lon="3.06686">
        <ele>356.7999878</ele>
        <time>2013-08-10T09:32:36Z</time>
      </trkpt>
      <trkpt lat="43.59405" lon="3.06687">
        <ele>357.2000122</ele>
        <time>2013-08-10T09:32:37Z</time>
      </trkpt>
      <trkpt lat="43.59407" lon="3.06688">
        <ele>357.6000061</ele>
        <time>2013-08-10T09:32:38Z</time>
      </trkpt>
      <trkpt lat="43.59409" lon="3.0669">
        <ele>358</ele>
        <time>2013-08-10T09:32:39Z</time>
      </trkpt>
      <trkpt lat="43.59412" lon="3.06691">
        <ele>358.3999939</ele>
        <time>2013-08-10T09:32:40Z</time>
      </trkpt>
      <trkpt lat="43.59422" lon="3.06695">
        <ele>358.3999939</ele>
        <time>2013-08-10T09:32:43Z</time>
      </trkpt>
      <trkpt lat="43.59436" lon="3.06703">
        <ele>358.3999939</ele>
        <time>2013-08-10T09:32:49Z</time>
      </trkpt>
      <trkpt lat="43.59445" lon="3.06706">
        <ele>359</ele>
        <time>2013-08-10T09:32:52Z</time>
      </trkpt>
      <trkpt lat="43.59448" lon="3.06708">
        <ele>359.3999939</ele>
        <time>2013-08-10T09:32:53Z</time>
      </trkpt>
      <trkpt lat="43.59451" lon="3.06711">
        <ele>359.7999878</ele>
        <time>2013-08-10T09:32:54Z</time>
      </trkpt>
      <trkpt lat="43.59454" lon="3.06714">
        <ele>360.2000122</ele>
        <time>2013-08-10T09:32:55Z</time>
      </trkpt>
      <trkpt lat="43.59457" lon="3.06715">
        <ele>360.6000061</ele>
        <time>2013-08-10T09:32:56Z</time>
      </trkpt>
      <trkpt lat="43.59467" lon="3.06722">
        <ele>360.6000061</ele>
        <time>2013-08-10T09:33:00Z</time>
      </trkpt>
      <trkpt lat="43.59483" lon="3.06727">
        <ele>361</ele>
        <time>2013-08-10T09:33:07Z</time>
      </trkpt>
      <trkpt lat="43.59486" lon="3.06728">
        <ele>361.3999939</ele>
        <time>2013-08-10T09:33:08Z</time>
      </trkpt>
      <trkpt lat="43.59488" lon="3.06729">
        <ele>361.7999878</ele>
        <time>2013-08-10T09:33:09Z</time>
      </trkpt>
      <trkpt lat="43.5949" lon="3.06729">
        <ele>362.2000122</ele>
        <time>2013-08-10T09:33:10Z</time>
      </trkpt>
      <trkpt lat="43.59492" lon="3.0673">
        <ele>362.6000061</ele>
        <time>2013-08-10T09:33:11Z</time>
      </trkpt>
      <trkpt lat="43.59498" lon="3.06731">
        <ele>362.6000061</ele>
        <time>2013-08-10T09:33:14Z</time>
      </trkpt>
      <trkpt lat="43.5951" lon="3.06737">
        <ele>362.6000061</ele>
        <time>2013-08-10T09:33:19Z</time>
      </trkpt>
      <trkpt lat="43.59519" lon="3.06744">
        <ele>362.6000061</ele>
        <time>2013-08-10T09:33:25Z</time>
      </trkpt>
      <trkpt lat="43.59521" lon="3.06748">
        <ele>362.6000061</ele>
        <time>2013-08-10T09:33:28Z</time>
      </trkpt>
      <trkpt lat="43.59524" lon="3.06751">
        <ele>362.6000061</ele>
        <time>2013-08-10T09:33:30Z</time>
      </trkpt>
      <trkpt lat="43.5953" lon="3.06758">
        <ele>363</ele>
        <time>2013-08-10T09:33:33Z</time>
      </trkpt>
      <trkpt lat="43.59531" lon="3.06759">
        <ele>363.3999939</ele>
        <time>2013-08-10T09:33:34Z</time>
      </trkpt>
      <trkpt lat="43.59532" lon="3.06759">
        <ele>363.7999878</ele>
        <time>2013-08-10T09:33:35Z</time>
      </trkpt>
      <trkpt lat="43.59531" lon="3.06759">
        <ele>364.2000122</ele>
        <time>2013-08-10T09:33:36Z</time>
      </trkpt>
      <trkpt lat="43.59531" lon="3.06759">
        <ele>364.6000061</ele>
        <time>2013-08-10T09:33:37Z</time>
      </trkpt>
      <trkpt lat="43.59536" lon="3.06764">
        <ele>364.2000122</ele>
        <time>2013-08-10T09:35:31Z</time>
      </trkpt>
      <trkpt lat="43.59537" lon="3.06766">
        <ele>363.7999878</ele>
        <time>2013-08-10T09:35:32Z</time>
      </trkpt>
      <trkpt lat="43.59537" lon="3.06772">
        <ele>363</ele>
        <time>2013-08-10T09:35:34Z</time>
      </trkpt>
      <trkpt lat="43.59535" lon="3.06775">
        <ele>362.6000061</ele>
        <time>2013-08-10T09:35:35Z</time>
      </trkpt>
      <trkpt lat="43.5953" lon="3.06779">
        <ele>362.6000061</ele>
        <time>2013-08-10T09:35:37Z</time>
      </trkpt>
      <trkpt lat="43.59519" lon="3.06783">
        <ele>362.6000061</ele>
        <time>2013-08-10T09:35:40Z</time>
      </trkpt>
      <trkpt lat="43.59513" lon="3.06787">
        <ele>362.6000061</ele>
        <time>2013-08-10T09:35:42Z</time>
      </trkpt>
      <trkpt lat="43.59508" lon="3.06792">
        <ele>362.2000122</ele>
        <time>2013-08-10T09:35:44Z</time>
      </trkpt>
      <trkpt lat="43.59509" lon="3.06796">
        <ele>361.7999878</ele>
        <time>2013-08-10T09:35:45Z</time>
      </trkpt>
      <trkpt lat="43.5951" lon="3.068">
        <ele>361.2000122</ele>
        <time>2013-08-10T09:35:46Z</time>
      </trkpt>
      <trkpt lat="43.59511" lon="3.06803">
        <ele>360.7999878</ele>
        <time>2013-08-10T09:35:47Z</time>
      </trkpt>
      <trkpt lat="43.59514" lon="3.06805">
        <ele>360.3999939</ele>
        <time>2013-08-10T09:35:48Z</time>
      </trkpt>
      <trkpt lat="43.59517" lon="3.06807">
        <ele>359.7999878</ele>
        <time>2013-08-10T09:35:49Z</time>
      </trkpt>
      <trkpt lat="43.59522" lon="3.06812">
        <ele>359.2000122</ele>
        <time>2013-08-10T09:35:50Z</time>
      </trkpt>
      <trkpt lat="43.59526" lon="3.06816">
        <ele>358.3999939</ele>
        <time>2013-08-10T09:35:51Z</time>
      </trkpt>
      <trkpt lat="43.59528" lon="3.06823">
        <ele>357.7999878</ele>
        <time>2013-08-10T09:35:52Z</time>
      </trkpt>
      <trkpt lat="43.5953" lon="3.06831">
        <ele>357.2000122</ele>
        <time>2013-08-10T09:35:53Z</time>
      </trkpt>
      <trkpt lat="43.5953" lon="3.06838">
        <ele>356.6000061</ele>
        <time>2013-08-10T09:35:54Z</time>
      </trkpt>
      <trkpt lat="43.59532" lon="3.06844">
        <ele>356</ele>
        <time>2013-08-10T09:35:55Z</time>
      </trkpt>
      <trkpt lat="43.59533" lon="3.0685">
        <ele>355.3999939</ele>
        <time>2013-08-10T09:35:56Z</time>
      </trkpt>
      <trkpt lat="43.59534" lon="3.06858">
        <ele>354.7999878</ele>
        <time>2013-08-10T09:35:57Z</time>
      </trkpt>
      <trkpt lat="43.59535" lon="3.06866">
        <ele>354.2000122</ele>
        <time>2013-08-10T09:35:58Z</time>
      </trkpt>
      <trkpt lat="43.59536" lon="3.06873">
        <ele>353.6000061</ele>
        <time>2013-08-10T09:35:59Z</time>
      </trkpt>
      <trkpt lat="43.59538" lon="3.06882">
        <ele>352.7999878</ele>
        <time>2013-08-10T09:36:00Z</time>
      </trkpt>
      <trkpt lat="43.59538" lon="3.06891">
        <ele>352</ele>
        <time>2013-08-10T09:36:01Z</time>
      </trkpt>
      <trkpt lat="43.59538" lon="3.06901">
        <ele>351.3999939</ele>
        <time>2013-08-10T09:36:02Z</time>
      </trkpt>
      <trkpt lat="43.59538" lon="3.06911">
        <ele>350.6000061</ele>
        <time>2013-08-10T09:36:03Z</time>
      </trkpt>
      <trkpt lat="43.59538" lon="3.06921">
        <ele>350</ele>
        <time>2013-08-10T09:36:04Z</time>
      </trkpt>
      <trkpt lat="43.59537" lon="3.06931">
        <ele>349.3999939</ele>
        <time>2013-08-10T09:36:05Z</time>
      </trkpt>
      <trkpt lat="43.59535" lon="3.0694">
        <ele>348.7999878</ele>
        <time>2013-08-10T09:36:06Z</time>
      </trkpt>
      <trkpt lat="43.59532" lon="3.06948">
        <ele>348.3999939</ele>
        <time>2013-08-10T09:36:07Z</time>
      </trkpt>
      <trkpt lat="43.59528" lon="3.06954">
        <ele>347.7999878</ele>
        <time>2013-08-10T09:36:08Z</time>
      </trkpt>
      <trkpt lat="43.59524" lon="3.0696">
        <ele>347.2000122</ele>
        <time>2013-08-10T09:36:09Z</time>
      </trkpt>
      <trkpt lat="43.5952" lon="3.06967">
        <ele>346.6000061</ele>
        <time>2013-08-10T09:36:10Z</time>
      </trkpt>
      <trkpt lat="43.59515" lon="3.06974">
        <ele>346</ele>
        <time>2013-08-10T09:36:11Z</time>
      </trkpt>
      <trkpt lat="43.59512" lon="3.06982">
        <ele>345.3999939</ele>
        <time>2013-08-10T09:36:12Z</time>
      </trkpt>
      <trkpt lat="43.5951" lon="3.0699">
        <ele>344</ele>
        <time>2013-08-10T09:36:13Z</time>
      </trkpt>
      <trkpt lat="43.59511" lon="3.06998">
        <ele>343.3999939</ele>
        <time>2013-08-10T09:36:14Z</time>
      </trkpt>
      <trkpt lat="43.59511" lon="3.07007">
        <ele>342.7999878</ele>
        <time>2013-08-10T09:36:15Z</time>
      </trkpt>
      <trkpt lat="43.59511" lon="3.07015">
        <ele>342.2000122</ele>
        <time>2013-08-10T09:36:16Z</time>
      </trkpt>
      <trkpt lat="43.59508" lon="3.07025">
        <ele>341.6000061</ele>
        <time>2013-08-10T09:36:17Z</time>
      </trkpt>
      <trkpt lat="43.59505" lon="3.07034">
        <ele>341</ele>
        <time>2013-08-10T09:36:18Z</time>
      </trkpt>
      <trkpt lat="43.59501" lon="3.07043">
        <ele>340.6000061</ele>
        <time>2013-08-10T09:36:19Z</time>
      </trkpt>
      <trkpt lat="43.59497" lon="3.07052">
        <ele>340.2000122</ele>
        <time>2013-08-10T09:36:20Z</time>
      </trkpt>
      <trkpt lat="43.59494" lon="3.07061">
        <ele>339.7999878</ele>
        <time>2013-08-10T09:36:21Z</time>
      </trkpt>
      <trkpt lat="43.59491" lon="3.07069">
        <ele>339.2000122</ele>
        <time>2013-08-10T09:36:22Z</time>
      </trkpt>
      <trkpt lat="43.59488" lon="3.07077">
        <ele>338.6000061</ele>
        <time>2013-08-10T09:36:23Z</time>
      </trkpt>
      <trkpt lat="43.59486" lon="3.07084">
        <ele>338</ele>
        <time>2013-08-10T09:36:24Z</time>
      </trkpt>
      <trkpt lat="43.59484" lon="3.07093">
        <ele>337.2000122</ele>
        <time>2013-08-10T09:36:25Z</time>
      </trkpt>
      <trkpt lat="43.59482" lon="3.07102">
        <ele>336.3999939</ele>
        <time>2013-08-10T09:36:26Z</time>
      </trkpt>
      <trkpt lat="43.59479" lon="3.07111">
        <ele>335.3999939</ele>
        <time>2013-08-10T09:36:27Z</time>
      </trkpt>
      <trkpt lat="43.59477" lon="3.07119">
        <ele>334.6000061</ele>
        <time>2013-08-10T09:36:28Z</time>
      </trkpt>
      <trkpt lat="43.59475" lon="3.07126">
        <ele>333.3999939</ele>
        <time>2013-08-10T09:36:29Z</time>
      </trkpt>
      <trkpt lat="43.59473" lon="3.07134">
        <ele>332.3999939</ele>
        <time>2013-08-10T09:36:30Z</time>
      </trkpt>
      <trkpt lat="43.59472" lon="3.07141">
        <ele>331.3999939</ele>
        <time>2013-08-10T09:36:31Z</time>
      </trkpt>
      <trkpt lat="43.59472" lon="3.07148">
        <ele>330.3999939</ele>
        <time>2013-08-10T09:36:32Z</time>
      </trkpt>
      <trkpt lat="43.5947" lon="3.07155">
        <ele>329.2000122</ele>
        <time>2013-08-10T09:36:33Z</time>
      </trkpt>
      <trkpt lat="43.59468" lon="3.07163">
        <ele>328.2000122</ele>
        <time>2013-08-10T09:36:34Z</time>
      </trkpt>
      <trkpt lat="43.59466" lon="3.07171">
        <ele>327.2000122</ele>
        <time>2013-08-10T09:36:35Z</time>
      </trkpt>
      <trkpt lat="43.59464" lon="3.0718">
        <ele>326.2000122</ele>
        <time>2013-08-10T09:36:36Z</time>
      </trkpt>
      <trkpt lat="43.59462" lon="3.07189">
        <ele>325.2000122</ele>
        <time>2013-08-10T09:36:37Z</time>
      </trkpt>
      <trkpt lat="43.59459" lon="3.07198">
        <ele>323.2000122</ele>
        <time>2013-08-10T09:36:38Z</time>
      </trkpt>
      <trkpt lat="43.59456" lon="3.07206">
        <ele>322.3999939</ele>
        <time>2013-08-10T09:36:39Z</time>
      </trkpt>
      <trkpt lat="43.59452" lon="3.07212">
        <ele>321.3999939</ele>
        <time>2013-08-10T09:36:40Z</time>
      </trkpt>
      <trkpt lat="43.59448" lon="3.07218">
        <ele>320.6000061</ele>
        <time>2013-08-10T09:36:41Z</time>
      </trkpt>
      <trkpt lat="43.59443" lon="3.07223">
        <ele>319.7999878</ele>
        <time>2013-08-10T09:36:42Z</time>
      </trkpt>
      <trkpt lat="43.59439" lon="3.07229">
        <ele>319</ele>
        <time>2013-08-10T09:36:43Z</time>
      </trkpt>
      <trkpt lat="43.59434" lon="3.07233">
        <ele>318.2000122</ele>
        <time>2013-08-10T09:36:44Z</time>
      </trkpt>
      <trkpt lat="43.5943" lon="3.07238">
        <ele>317.6000061</ele>
        <time>2013-08-10T09:36:45Z</time>
      </trkpt>
      <trkpt lat="43.59425" lon="3.07242">
        <ele>317.6000061</ele>
        <time>2013-08-10T09:36:46Z</time>
      </trkpt>
      <trkpt lat="43.59419" lon="3.07247">
        <ele>317</ele>
        <time>2013-08-10T09:36:47Z</time>
      </trkpt>
      <trkpt lat="43.59414" lon="3.07251">
        <ele>316.6000061</ele>
        <time>2013-08-10T09:36:48Z</time>
      </trkpt>
      <trkpt lat="43.59409" lon="3.07256">
        <ele>315.7999878</ele>
        <time>2013-08-10T09:36:49Z</time>
      </trkpt>
      <trkpt lat="43.59404" lon="3.07261">
        <ele>315.2000122</ele>
        <time>2013-08-10T09:36:50Z</time>
      </trkpt>
      <trkpt lat="43.594" lon="3.07267">
        <ele>314.2000122</ele>
        <time>2013-08-10T09:36:51Z</time>
      </trkpt>
      <trkpt lat="43.59397" lon="3.07272">
        <ele>313.3999939</ele>
        <time>2013-08-10T09:36:52Z</time>
      </trkpt>
      <trkpt lat="43.59393" lon="3.07278">
        <ele>312.6000061</ele>
        <time>2013-08-10T09:36:53Z</time>
      </trkpt>
      <trkpt lat="43.59389" lon="3.07284">
        <ele>311.7999878</ele>
        <time>2013-08-10T09:36:54Z</time>
      </trkpt>
      <trkpt lat="43.59385" lon="3.07291">
        <ele>311.2000122</ele>
        <time>2013-08-10T09:36:55Z</time>
      </trkpt>
      <trkpt lat="43.59381" lon="3.07298">
        <ele>310.3999939</ele>
        <time>2013-08-10T09:36:56Z</time>
      </trkpt>
      <trkpt lat="43.59377" lon="3.07307">
        <ele>309.7999878</ele>
        <time>2013-08-10T09:36:57Z</time>
      </trkpt>
      <trkpt lat="43.59374" lon="3.07316">
        <ele>309</ele>
        <time>2013-08-10T09:36:58Z</time>
      </trkpt>
      <trkpt lat="43.5937" lon="3.07326">
        <ele>308.2000122</ele>
        <time>2013-08-10T09:36:59Z</time>
      </trkpt>
      <trkpt lat="43.59366" lon="3.07334">
        <ele>307.2000122</ele>
        <time>2013-08-10T09:37:00Z</time>
      </trkpt>
      <trkpt lat="43.59363" lon="3.07343">
        <ele>306.3999939</ele>
        <time>2013-08-10T09:37:01Z</time>
      </trkpt>
      <trkpt lat="43.59358" lon="3.07352">
        <ele>305.3999939</ele>
        <time>2013-08-10T09:37:02Z</time>
      </trkpt>
      <trkpt lat="43.59355" lon="3.0736">
        <ele>303.7999878</ele>
        <time>2013-08-10T09:37:03Z</time>
      </trkpt>
      <trkpt lat="43.59352" lon="3.07366">
        <ele>303.2000122</ele>
        <time>2013-08-10T09:37:04Z</time>
      </trkpt>
      <trkpt lat="43.59348" lon="3.07373">
        <ele>302.3999939</ele>
        <time>2013-08-10T09:37:05Z</time>
      </trkpt>
      <trkpt lat="43.59345" lon="3.07378">
        <ele>301.7999878</ele>
        <time>2013-08-10T09:37:06Z</time>
      </trkpt>
      <trkpt lat="43.59341" lon="3.07384">
        <ele>301</ele>
        <time>2013-08-10T09:37:07Z</time>
      </trkpt>
      <trkpt lat="43.59336" lon="3.07389">
        <ele>300.3999939</ele>
        <time>2013-08-10T09:37:08Z</time>
      </trkpt>
      <trkpt lat="43.59331" lon="3.07394">
        <ele>299.7999878</ele>
        <time>2013-08-10T09:37:09Z</time>
      </trkpt>
      <trkpt lat="43.59326" lon="3.07398">
        <ele>299</ele>
        <time>2013-08-10T09:37:10Z</time>
      </trkpt>
      <trkpt lat="43.59321" lon="3.07403">
        <ele>298.6000061</ele>
        <time>2013-08-10T09:37:11Z</time>
      </trkpt>
      <trkpt lat="43.59316" lon="3.0741">
        <ele>298.2000122</ele>
        <time>2013-08-10T09:37:12Z</time>
      </trkpt>
      <trkpt lat="43.59311" lon="3.07416">
        <ele>297.7999878</ele>
        <time>2013-08-10T09:37:13Z</time>
      </trkpt>
      <trkpt lat="43.59306" lon="3.07422">
        <ele>297.3999939</ele>
        <time>2013-08-10T09:37:14Z</time>
      </trkpt>
      <trkpt lat="43.59301" lon="3.07427">
        <ele>296.7999878</ele>
        <time>2013-08-10T09:37:15Z</time>
      </trkpt>
      <trkpt lat="43.59297" lon="3.07433">
        <ele>296.2000122</ele>
        <time>2013-08-10T09:37:16Z</time>
      </trkpt>
      <trkpt lat="43.59292" lon="3.07439">
        <ele>295.3999939</ele>
        <time>2013-08-10T09:37:17Z</time>
      </trkpt>
      <trkpt lat="43.59288" lon="3.07444">
        <ele>294.7999878</ele>
        <time>2013-08-10T09:37:18Z</time>
      </trkpt>
      <trkpt lat="43.59285" lon="3.07451">
        <ele>294.2000122</ele>
        <time>2013-08-10T09:37:19Z</time>
      </trkpt>
      <trkpt lat="43.59281" lon="3.07464">
        <ele>293.7999878</ele>
        <time>2013-08-10T09:37:21Z</time>
      </trkpt>
      <trkpt lat="43.59281" lon="3.07472">
        <ele>293.3999939</ele>
        <time>2013-08-10T09:37:22Z</time>
      </trkpt>
      <trkpt lat="43.59282" lon="3.0748">
        <ele>293</ele>
        <time>2013-08-10T09:37:23Z</time>
      </trkpt>
      <trkpt lat="43.59285" lon="3.07488">
        <ele>292.6000061</ele>
        <time>2013-08-10T09:37:24Z</time>
      </trkpt>
      <trkpt lat="43.59287" lon="3.07496">
        <ele>292.2000122</ele>
        <time>2013-08-10T09:37:25Z</time>
      </trkpt>
      <trkpt lat="43.59302" lon="3.0752">
        <ele>292.2000122</ele>
        <time>2013-08-10T09:37:29Z</time>
      </trkpt>
      <trkpt lat="43.5932" lon="3.07544">
        <ele>292.2000122</ele>
        <time>2013-08-10T09:37:34Z</time>
      </trkpt>
      <trkpt lat="43.59324" lon="3.07547">
        <ele>292.2000122</ele>
        <time>2013-08-10T09:37:35Z</time>
      </trkpt>
      <trkpt lat="43.59327" lon="3.0755">
        <ele>292.2000122</ele>
        <time>2013-08-10T09:37:36Z</time>
      </trkpt>
      <trkpt lat="43.59346" lon="3.07559">
        <ele>292.2000122</ele>
        <time>2013-08-10T09:37:40Z</time>
      </trkpt>
      <trkpt lat="43.59363" lon="3.07568">
        <ele>292.2000122</ele>
        <time>2013-08-10T09:37:45Z</time>
      </trkpt>
      <trkpt lat="43.5937" lon="3.07579">
        <ele>292.2000122</ele>
        <time>2013-08-10T09:37:51Z</time>
      </trkpt>
      <trkpt lat="43.59369" lon="3.07598">
        <ele>292.2000122</ele>
        <time>2013-08-10T09:37:55Z</time>
      </trkpt>
      <trkpt lat="43.59367" lon="3.07605">
        <ele>291.6000061</ele>
        <time>2013-08-10T09:37:56Z</time>
      </trkpt>
      <trkpt lat="43.59365" lon="3.07613">
        <ele>291</ele>
        <time>2013-08-10T09:37:57Z</time>
      </trkpt>
      <trkpt lat="43.59363" lon="3.07619">
        <ele>290.2000122</ele>
        <time>2013-08-10T09:37:58Z</time>
      </trkpt>
      <trkpt lat="43.59363" lon="3.07624">
        <ele>289.3999939</ele>
        <time>2013-08-10T09:37:59Z</time>
      </trkpt>
      <trkpt lat="43.59362" lon="3.07627">
        <ele>288.6000061</ele>
        <time>2013-08-10T09:38:00Z</time>
      </trkpt>
      <trkpt lat="43.59362" lon="3.0763">
        <ele>287.6000061</ele>
        <time>2013-08-10T09:38:01Z</time>
      </trkpt>
      <trkpt lat="43.59363" lon="3.07635">
        <ele>286.7999878</ele>
        <time>2013-08-10T09:38:02Z</time>
      </trkpt>
      <trkpt lat="43.59363" lon="3.07639">
        <ele>286.3999939</ele>
        <time>2013-08-10T09:38:03Z</time>
      </trkpt>
      <trkpt lat="43.59363" lon="3.07643">
        <ele>286</ele>
        <time>2013-08-10T09:38:04Z</time>
      </trkpt>
      <trkpt lat="43.59362" lon="3.07647">
        <ele>285.3999939</ele>
        <time>2013-08-10T09:38:05Z</time>
      </trkpt>
      <trkpt lat="43.5936" lon="3.0765">
        <ele>284.7999878</ele>
        <time>2013-08-10T09:38:06Z</time>
      </trkpt>
      <trkpt lat="43.59358" lon="3.07654">
        <ele>284.2000122</ele>
        <time>2013-08-10T09:38:07Z</time>
      </trkpt>
      <trkpt lat="43.59356" lon="3.07656">
        <ele>283.6000061</ele>
        <time>2013-08-10T09:38:08Z</time>
      </trkpt>
      <trkpt lat="43.59352" lon="3.07659">
        <ele>283</ele>
        <time>2013-08-10T09:38:09Z</time>
      </trkpt>
      <trkpt lat="43.59348" lon="3.07663">
        <ele>282.3999939</ele>
        <time>2013-08-10T09:38:10Z</time>
      </trkpt>
      <trkpt lat="43.59345" lon="3.07665">
        <ele>281.7999878</ele>
        <time>2013-08-10T09:38:11Z</time>
      </trkpt>
      <trkpt lat="43.59343" lon="3.07667">
        <ele>281.3999939</ele>
        <time>2013-08-10T09:38:12Z</time>
      </trkpt>
      <trkpt lat="43.59342" lon="3.0767">
        <ele>280.7999878</ele>
        <time>2013-08-10T09:38:13Z</time>
      </trkpt>
      <trkpt lat="43.59341" lon="3.07672">
        <ele>280.2000122</ele>
        <time>2013-08-10T09:38:14Z</time>
      </trkpt>
      <trkpt lat="43.59342" lon="3.07675">
        <ele>279.3999939</ele>
        <time>2013-08-10T09:38:15Z</time>
      </trkpt>
      <trkpt lat="43.59343" lon="3.07678">
        <ele>278.7999878</ele>
        <time>2013-08-10T09:38:16Z</time>
      </trkpt>
      <trkpt lat="43.59344" lon="3.07678">
        <ele>277.2000122</ele>
        <time>2013-08-10T09:38:17Z</time>
      </trkpt>
      <trkpt lat="43.59345" lon="3.07678">
        <ele>276.6000061</ele>
        <time>2013-08-10T09:38:18Z</time>
      </trkpt>
      <trkpt lat="43.59347" lon="3.07679">
        <ele>275.7999878</ele>
        <time>2013-08-10T09:38:19Z</time>
      </trkpt>
      <trkpt lat="43.5935" lon="3.07682">
        <ele>275</ele>
        <time>2013-08-10T09:38:20Z</time>
      </trkpt>
      <trkpt lat="43.59353" lon="3.07685">
        <ele>274.6000061</ele>
        <time>2013-08-10T09:38:21Z</time>
      </trkpt>
      <trkpt lat="43.59357" lon="3.07688">
        <ele>274.2000122</ele>
        <time>2013-08-10T09:38:22Z</time>
      </trkpt>
      <trkpt lat="43.59362" lon="3.0769">
        <ele>273.7999878</ele>
        <time>2013-08-10T09:38:23Z</time>
      </trkpt>
      <trkpt lat="43.59366" lon="3.07691">
        <ele>273.3999939</ele>
        <time>2013-08-10T09:38:24Z</time>
      </trkpt>
      <trkpt lat="43.5937" lon="3.07693">
        <ele>273</ele>
        <time>2013-08-10T09:38:25Z</time>
      </trkpt>
      <trkpt lat="43.59373" lon="3.07695">
        <ele>273</ele>
        <time>2013-08-10T09:38:26Z</time>
      </trkpt>
      <trkpt lat="43.59377" lon="3.07698">
        <ele>272.3999939</ele>
        <time>2013-08-10T09:38:27Z</time>
      </trkpt>
      <trkpt lat="43.59379" lon="3.07699">
        <ele>272</ele>
        <time>2013-08-10T09:38:28Z</time>
      </trkpt>
      <trkpt lat="43.59382" lon="3.07703">
        <ele>271.3999939</ele>
        <time>2013-08-10T09:38:29Z</time>
      </trkpt>
      <trkpt lat="43.59385" lon="3.07706">
        <ele>271</ele>
        <time>2013-08-10T09:38:30Z</time>
      </trkpt>
      <trkpt lat="43.59389" lon="3.07709">
        <ele>270.3999939</ele>
        <time>2013-08-10T09:38:31Z</time>
      </trkpt>
      <trkpt lat="43.59398" lon="3.0772">
        <ele>270</ele>
        <time>2013-08-10T09:38:33Z</time>
      </trkpt>
      <trkpt lat="43.59404" lon="3.07726">
        <ele>269.3999939</ele>
        <time>2013-08-10T09:38:34Z</time>
      </trkpt>
      <trkpt lat="43.59409" lon="3.07729">
        <ele>268.7999878</ele>
        <time>2013-08-10T09:38:35Z</time>
      </trkpt>
      <trkpt lat="43.59414" lon="3.07733">
        <ele>268.2000122</ele>
        <time>2013-08-10T09:38:36Z</time>
      </trkpt>
      <trkpt lat="43.59417" lon="3.07737">
        <ele>267.3999939</ele>
        <time>2013-08-10T09:38:37Z</time>
      </trkpt>
      <trkpt lat="43.59419" lon="3.07741">
        <ele>266.6000061</ele>
        <time>2013-08-10T09:38:38Z</time>
      </trkpt>
      <trkpt lat="43.59421" lon="3.07745">
        <ele>266</ele>
        <time>2013-08-10T09:38:39Z</time>
      </trkpt>
      <trkpt lat="43.59424" lon="3.07751">
        <ele>265.2000122</ele>
        <time>2013-08-10T09:38:40Z</time>
      </trkpt>
      <trkpt lat="43.59427" lon="3.07756">
        <ele>263.3999939</ele>
        <time>2013-08-10T09:38:41Z</time>
      </trkpt>
      <trkpt lat="43.59429" lon="3.0776">
        <ele>262.6000061</ele>
        <time>2013-08-10T09:38:42Z</time>
      </trkpt>
      <trkpt lat="43.59431" lon="3.07763">
        <ele>261.6000061</ele>
        <time>2013-08-10T09:38:43Z</time>
      </trkpt>
      <trkpt lat="43.59431" lon="3.07766">
        <ele>260.6000061</ele>
        <time>2013-08-10T09:38:44Z</time>
      </trkpt>
      <trkpt lat="43.59433" lon="3.0777">
        <ele>259.6000061</ele>
        <time>2013-08-10T09:38:45Z</time>
      </trkpt>
      <trkpt lat="43.59435" lon="3.07773">
        <ele>258.7999878</ele>
        <time>2013-08-10T09:38:46Z</time>
      </trkpt>
      <trkpt lat="43.59436" lon="3.07777">
        <ele>258</ele>
        <time>2013-08-10T09:38:47Z</time>
      </trkpt>
      <trkpt lat="43.59436" lon="3.07781">
        <ele>257</ele>
        <time>2013-08-10T09:38:48Z</time>
      </trkpt>
      <trkpt lat="43.59435" lon="3.07785">
        <ele>256.2000122</ele>
        <time>2013-08-10T09:38:49Z</time>
      </trkpt>
      <trkpt lat="43.5943" lon="3.07794">
        <ele>255.8000031</ele>
        <time>2013-08-10T09:38:52Z</time>
      </trkpt>
      <trkpt lat="43.59429" lon="3.07797">
        <ele>255.3999939</ele>
        <time>2013-08-10T09:38:53Z</time>
      </trkpt>
      <trkpt lat="43.59429" lon="3.07799">
        <ele>255</ele>
        <time>2013-08-10T09:38:54Z</time>
      </trkpt>
      <trkpt lat="43.59428" lon="3.07801">
        <ele>254.3999939</ele>
        <time>2013-08-10T09:38:55Z</time>
      </trkpt>
      <trkpt lat="43.59426" lon="3.07803">
        <ele>254</ele>
        <time>2013-08-10T09:38:56Z</time>
      </trkpt>
      <trkpt lat="43.59424" lon="3.07806">
        <ele>253.6000061</ele>
        <time>2013-08-10T09:38:57Z</time>
      </trkpt>
      <trkpt lat="43.59422" lon="3.07809">
        <ele>253</ele>
        <time>2013-08-10T09:38:58Z</time>
      </trkpt>
      <trkpt lat="43.59421" lon="3.07813">
        <ele>252.1999969</ele>
        <time>2013-08-10T09:38:59Z</time>
      </trkpt>
      <trkpt lat="43.59419" lon="3.07817">
        <ele>251.3999939</ele>
        <time>2013-08-10T09:39:00Z</time>
      </trkpt>
      <trkpt lat="43.5942" lon="3.07821">
        <ele>250.6000061</ele>
        <time>2013-08-10T09:39:01Z</time>
      </trkpt>
      <trkpt lat="43.5942" lon="3.07826">
        <ele>249.8000031</ele>
        <time>2013-08-10T09:39:02Z</time>
      </trkpt>
      <trkpt lat="43.59421" lon="3.07833">
        <ele>249</ele>
        <time>2013-08-10T09:39:03Z</time>
      </trkpt>
      <trkpt lat="43.59421" lon="3.07838">
        <ele>248</ele>
        <time>2013-08-10T09:39:04Z</time>
      </trkpt>
      <trkpt lat="43.59422" lon="3.07842">
        <ele>247.1999969</ele>
        <time>2013-08-10T09:39:05Z</time>
      </trkpt>
      <trkpt lat="43.59422" lon="3.07847">
        <ele>245.3999939</ele>
        <time>2013-08-10T09:39:06Z</time>
      </trkpt>
      <trkpt lat="43.59422" lon="3.07851">
        <ele>244.6000061</ele>
        <time>2013-08-10T09:39:07Z</time>
      </trkpt>
      <trkpt lat="43.59423" lon="3.07855">
        <ele>243.6000061</ele>
        <time>2013-08-10T09:39:08Z</time>
      </trkpt>
      <trkpt lat="43.59424" lon="3.07859">
        <ele>242.8000031</ele>
        <time>2013-08-10T09:39:09Z</time>
      </trkpt>
      <trkpt lat="43.59423" lon="3.07862">
        <ele>242.3999939</ele>
        <time>2013-08-10T09:39:10Z</time>
      </trkpt>
      <trkpt lat="43.59423" lon="3.07864">
        <ele>241.8000031</ele>
        <time>2013-08-10T09:39:11Z</time>
      </trkpt>
      <trkpt lat="43.59424" lon="3.07866">
        <ele>241.1999969</ele>
        <time>2013-08-10T09:39:12Z</time>
      </trkpt>
      <trkpt lat="43.59425" lon="3.07867">
        <ele>240.6000061</ele>
        <time>2013-08-10T09:39:13Z</time>
      </trkpt>
      <trkpt lat="43.59426" lon="3.07868">
        <ele>240</ele>
        <time>2013-08-10T09:39:14Z</time>
      </trkpt>
      <trkpt lat="43.59427" lon="3.0787">
        <ele>239.6000061</ele>
        <time>2013-08-10T09:39:15Z</time>
      </trkpt>
      <trkpt lat="43.59427" lon="3.07872">
        <ele>239</ele>
        <time>2013-08-10T09:39:16Z</time>
      </trkpt>
      <trkpt lat="43.59427" lon="3.07875">
        <ele>238.6000061</ele>
        <time>2013-08-10T09:39:17Z</time>
      </trkpt>
      <trkpt lat="43.59426" lon="3.07879">
        <ele>237.6000061</ele>
        <time>2013-08-10T09:39:18Z</time>
      </trkpt>
      <trkpt lat="43.59427" lon="3.07883">
        <ele>236.8000031</ele>
        <time>2013-08-10T09:39:19Z</time>
      </trkpt>
      <trkpt lat="43.59429" lon="3.07886">
        <ele>235.8000031</ele>
        <time>2013-08-10T09:39:20Z</time>
      </trkpt>
      <trkpt lat="43.59431" lon="3.07888">
        <ele>235</ele>
        <time>2013-08-10T09:39:21Z</time>
      </trkpt>
      <trkpt lat="43.59432" lon="3.07887">
        <ele>234</ele>
        <time>2013-08-10T09:39:22Z</time>
      </trkpt>
      <trkpt lat="43.59434" lon="3.0789">
        <ele>230</ele>
        <time>2013-08-10T09:39:46Z</time>
      </trkpt>
      <trkpt lat="43.59437" lon="3.0789">
        <ele>230</ele>
        <time>2013-08-10T09:39:47Z</time>
      </trkpt>
      <trkpt lat="43.59441" lon="3.07892">
        <ele>230</ele>
        <time>2013-08-10T09:39:48Z</time>
      </trkpt>
      <trkpt lat="43.59452" lon="3.07896">
        <ele>230</ele>
        <time>2013-08-10T09:39:50Z</time>
      </trkpt>
      <trkpt lat="43.59456" lon="3.07901">
        <ele>229.3999939</ele>
        <time>2013-08-10T09:39:51Z</time>
      </trkpt>
      <trkpt lat="43.59459" lon="3.07906">
        <ele>228.8000031</ele>
        <time>2013-08-10T09:39:52Z</time>
      </trkpt>
      <trkpt lat="43.59461" lon="3.0791">
        <ele>228</ele>
        <time>2013-08-10T09:39:53Z</time>
      </trkpt>
      <trkpt lat="43.59464" lon="3.07913">
        <ele>227</ele>
        <time>2013-08-10T09:39:54Z</time>
      </trkpt>
      <trkpt lat="43.59466" lon="3.07918">
        <ele>225.3999939</ele>
        <time>2013-08-10T09:39:55Z</time>
      </trkpt>
      <trkpt lat="43.59468" lon="3.07922">
        <ele>224.6000061</ele>
        <time>2013-08-10T09:39:56Z</time>
      </trkpt>
      <trkpt lat="43.5947" lon="3.07926">
        <ele>223.8000031</ele>
        <time>2013-08-10T09:39:57Z</time>
      </trkpt>
      <trkpt lat="43.59472" lon="3.07931">
        <ele>223</ele>
        <time>2013-08-10T09:39:58Z</time>
      </trkpt>
      <trkpt lat="43.59473" lon="3.07938">
        <ele>222.6000061</ele>
        <time>2013-08-10T09:39:59Z</time>
      </trkpt>
      <trkpt lat="43.59474" lon="3.07944">
        <ele>222</ele>
        <time>2013-08-10T09:40:00Z</time>
      </trkpt>
      <trkpt lat="43.59476" lon="3.07956">
        <ele>221.3999939</ele>
        <time>2013-08-10T09:40:01Z</time>
      </trkpt>
      <trkpt lat="43.59477" lon="3.07968">
        <ele>220.6000061</ele>
        <time>2013-08-10T09:40:02Z</time>
      </trkpt>
      <trkpt lat="43.59477" lon="3.07977">
        <ele>219.8000031</ele>
        <time>2013-08-10T09:40:03Z</time>
      </trkpt>
      <trkpt lat="43.59478" lon="3.07984">
        <ele>218.8000031</ele>
        <time>2013-08-10T09:40:04Z</time>
      </trkpt>
      <trkpt lat="43.59479" lon="3.07989">
        <ele>217.8000031</ele>
        <time>2013-08-10T09:40:05Z</time>
      </trkpt>
      <trkpt lat="43.5948" lon="3.07993">
        <ele>216.8000031</ele>
        <time>2013-08-10T09:40:06Z</time>
      </trkpt>
      <trkpt lat="43.5948" lon="3.07996">
        <ele>216</ele>
        <time>2013-08-10T09:40:07Z</time>
      </trkpt>
      <trkpt lat="43.5948" lon="3.08">
        <ele>215.1999969</ele>
        <time>2013-08-10T09:40:08Z</time>
      </trkpt>
      <trkpt lat="43.5948" lon="3.08003">
        <ele>214.3999939</ele>
        <time>2013-08-10T09:40:09Z</time>
      </trkpt>
      <trkpt lat="43.59479" lon="3.08006">
        <ele>213.3999939</ele>
        <time>2013-08-10T09:40:10Z</time>
      </trkpt>
      <trkpt lat="43.59477" lon="3.0801">
        <ele>212.6000061</ele>
        <time>2013-08-10T09:40:11Z</time>
      </trkpt>
      <trkpt lat="43.59472" lon="3.08022">
        <ele>212.1999969</ele>
        <time>2013-08-10T09:40:13Z</time>
      </trkpt>
      <trkpt lat="43.59469" lon="3.08029">
        <ele>211.8000031</ele>
        <time>2013-08-10T09:40:14Z</time>
      </trkpt>
      <trkpt lat="43.59465" lon="3.08034">
        <ele>211.1999969</ele>
        <time>2013-08-10T09:40:15Z</time>
      </trkpt>
      <trkpt lat="43.5946" lon="3.0804">
        <ele>210.8000031</ele>
        <time>2013-08-10T09:40:16Z</time>
      </trkpt>
      <trkpt lat="43.59455" lon="3.08044">
        <ele>210.3999939</ele>
        <time>2013-08-10T09:40:17Z</time>
      </trkpt>
      <trkpt lat="43.59451" lon="3.08049">
        <ele>209.8000031</ele>
        <time>2013-08-10T09:40:18Z</time>
      </trkpt>
      <trkpt lat="43.59449" lon="3.08055">
        <ele>209</ele>
        <time>2013-08-10T09:40:19Z</time>
      </trkpt>
      <trkpt lat="43.59447" lon="3.08061">
        <ele>208.6000061</ele>
        <time>2013-08-10T09:40:20Z</time>
      </trkpt>
      <trkpt lat="43.59447" lon="3.08069">
        <ele>208</ele>
        <time>2013-08-10T09:40:21Z</time>
      </trkpt>
      <trkpt lat="43.59448" lon="3.08076">
        <ele>207.3999939</ele>
        <time>2013-08-10T09:40:22Z</time>
      </trkpt>
      <trkpt lat="43.59448" lon="3.08082">
        <ele>206.6000061</ele>
        <time>2013-08-10T09:40:23Z</time>
      </trkpt>
      <trkpt lat="43.59449" lon="3.08087">
        <ele>206</ele>
        <time>2013-08-10T09:40:24Z</time>
      </trkpt>
      <trkpt lat="43.5945" lon="3.08092">
        <ele>205.3999939</ele>
        <time>2013-08-10T09:40:25Z</time>
      </trkpt>
      <trkpt lat="43.59451" lon="3.08098">
        <ele>205</ele>
        <time>2013-08-10T09:40:26Z</time>
      </trkpt>
      <trkpt lat="43.59451" lon="3.08105">
        <ele>204.3999939</ele>
        <time>2013-08-10T09:40:27Z</time>
      </trkpt>
      <trkpt lat="43.59452" lon="3.08113">
        <ele>203.8000031</ele>
        <time>2013-08-10T09:40:28Z</time>
      </trkpt>
      <trkpt lat="43.59453" lon="3.08122">
        <ele>203.1999969</ele>
        <time>2013-08-10T09:40:29Z</time>
      </trkpt>
      <trkpt lat="43.59456" lon="3.0815">
        <ele>202.6000061</ele>
        <time>2013-08-10T09:40:32Z</time>
      </trkpt>
      <trkpt lat="43.59456" lon="3.08162">
        <ele>202.1999969</ele>
        <time>2013-08-10T09:40:33Z</time>
      </trkpt>
      <trkpt lat="43.59457" lon="3.08173">
        <ele>201.6000061</ele>
        <time>2013-08-10T09:40:34Z</time>
      </trkpt>
      <trkpt lat="43.59458" lon="3.08183">
        <ele>201.1999969</ele>
        <time>2013-08-10T09:40:35Z</time>
      </trkpt>
      <trkpt lat="43.5946" lon="3.08194">
        <ele>200.6000061</ele>
        <time>2013-08-10T09:40:36Z</time>
      </trkpt>
      <trkpt lat="43.59461" lon="3.08203">
        <ele>199.8000031</ele>
        <time>2013-08-10T09:40:37Z</time>
      </trkpt>
      <trkpt lat="43.59462" lon="3.08209">
        <ele>199</ele>
        <time>2013-08-10T09:40:38Z</time>
      </trkpt>
      <trkpt lat="43.59463" lon="3.08214">
        <ele>198.1999969</ele>
        <time>2013-08-10T09:40:39Z</time>
      </trkpt>
      <trkpt lat="43.59463" lon="3.08218">
        <ele>197.3999939</ele>
        <time>2013-08-10T09:40:40Z</time>
      </trkpt>
      <trkpt lat="43.59464" lon="3.0822">
        <ele>196.6000061</ele>
        <time>2013-08-10T09:40:41Z</time>
      </trkpt>
      <trkpt lat="43.59464" lon="3.08222">
        <ele>195.8000031</ele>
        <time>2013-08-10T09:40:42Z</time>
      </trkpt>
      <trkpt lat="43.59463" lon="3.08223">
        <ele>195.8000031</ele>
        <time>2013-08-10T09:40:43Z</time>
      </trkpt>
      <trkpt lat="43.59462" lon="3.08224">
        <ele>195</ele>
        <time>2013-08-10T09:40:44Z</time>
      </trkpt>
      <trkpt lat="43.5946" lon="3.08224">
        <ele>194.3999939</ele>
        <time>2013-08-10T09:40:45Z</time>
      </trkpt>
      <trkpt lat="43.59457" lon="3.08224">
        <ele>194</ele>
        <time>2013-08-10T09:40:46Z</time>
      </trkpt>
      <trkpt lat="43.59455" lon="3.08225">
        <ele>193.6000061</ele>
        <time>2013-08-10T09:40:47Z</time>
      </trkpt>
      <trkpt lat="43.59452" lon="3.08225">
        <ele>193.6000061</ele>
        <time>2013-08-10T09:40:48Z</time>
      </trkpt>
      <trkpt lat="43.59438" lon="3.08228">
        <ele>193.6000061</ele>
        <time>2013-08-10T09:40:54Z</time>
      </trkpt>
      <trkpt lat="43.59431" lon="3.0823">
        <ele>193.6000061</ele>
        <time>2013-08-10T09:40:58Z</time>
      </trkpt>
      <trkpt lat="43.59428" lon="3.08231">
        <ele>193.6000061</ele>
        <time>2013-08-10T09:41:00Z</time>
      </trkpt>
      <trkpt lat="43.59427" lon="3.0824">
        <ele>193.6000061</ele>
        <time>2013-08-10T09:41:03Z</time>
      </trkpt>
      <trkpt lat="43.59423" lon="3.08259">
        <ele>193.6000061</ele>
        <time>2013-08-10T09:41:06Z</time>
      </trkpt>
      <trkpt lat="43.59419" lon="3.08278">
        <ele>193</ele>
        <time>2013-08-10T09:41:08Z</time>
      </trkpt>
      <trkpt lat="43.59418" lon="3.08287">
        <ele>192.1999969</ele>
        <time>2013-08-10T09:41:09Z</time>
      </trkpt>
      <trkpt lat="43.59417" lon="3.08295">
        <ele>191.6000061</ele>
        <time>2013-08-10T09:41:10Z</time>
      </trkpt>
      <trkpt lat="43.59416" lon="3.08302">
        <ele>191.1999969</ele>
        <time>2013-08-10T09:41:11Z</time>
      </trkpt>
      <trkpt lat="43.59414" lon="3.08317">
        <ele>190.8000031</ele>
        <time>2013-08-10T09:41:13Z</time>
      </trkpt>
      <trkpt lat="43.59414" lon="3.0832">
        <ele>190.1999969</ele>
        <time>2013-08-10T09:41:14Z</time>
      </trkpt>
      <trkpt lat="43.59413" lon="3.08323">
        <ele>189.8000031</ele>
        <time>2013-08-10T09:41:15Z</time>
      </trkpt>
      <trkpt lat="43.59413" lon="3.08325">
        <ele>189.3999939</ele>
        <time>2013-08-10T09:41:16Z</time>
      </trkpt>
      <trkpt lat="43.59413" lon="3.08326">
        <ele>189</ele>
        <time>2013-08-10T09:41:17Z</time>
      </trkpt>
      <trkpt lat="43.59413" lon="3.08327">
        <ele>189</ele>
        <time>2013-08-10T09:41:18Z</time>
      </trkpt>
      <trkpt lat="43.59413" lon="3.08329">
        <ele>189</ele>
        <time>2013-08-10T09:41:19Z</time>
      </trkpt>
      <trkpt lat="43.59412" lon="3.08331">
        <ele>189</ele>
        <time>2013-08-10T09:41:21Z</time>
      </trkpt>
      <trkpt lat="43.59412" lon="3.0833">
        <ele>189</ele>
        <time>2013-08-10T09:41:24Z</time>
      </trkpt>
      <trkpt lat="43.5941" lon="3.08339">
        <ele>189</ele>
        <time>2013-08-10T09:41:41Z</time>
      </trkpt>
      <trkpt lat="43.59409" lon="3.08342">
        <ele>189</ele>
        <time>2013-08-10T09:41:42Z</time>
      </trkpt>
      <trkpt lat="43.59406" lon="3.08352">
        <ele>189</ele>
        <time>2013-08-10T09:41:46Z</time>
      </trkpt>
      <trkpt lat="43.59406" lon="3.08355">
        <ele>189</ele>
        <time>2013-08-10T09:41:47Z</time>
      </trkpt>
      <trkpt lat="43.59399" lon="3.08366">
        <ele>188.6000061</ele>
        <time>2013-08-10T09:41:51Z</time>
      </trkpt>
      <trkpt lat="43.59396" lon="3.08365">
        <ele>188.1999969</ele>
        <time>2013-08-10T09:41:52Z</time>
      </trkpt>
      <trkpt lat="43.59394" lon="3.08363">
        <ele>187.6000061</ele>
        <time>2013-08-10T09:41:53Z</time>
      </trkpt>
      <trkpt lat="43.59391" lon="3.08362">
        <ele>187.1999969</ele>
        <time>2013-08-10T09:41:54Z</time>
      </trkpt>
      <trkpt lat="43.5939" lon="3.08362">
        <ele>186.8000031</ele>
        <time>2013-08-10T09:41:55Z</time>
      </trkpt>
      <trkpt lat="43.59388" lon="3.08364">
        <ele>186.8000031</ele>
        <time>2013-08-10T09:41:56Z</time>
      </trkpt>
      <trkpt lat="43.59387" lon="3.08367">
        <ele>186.8000031</ele>
        <time>2013-08-10T09:41:58Z</time>
      </trkpt>
      <trkpt lat="43.59384" lon="3.08375">
        <ele>186.8000031</ele>
        <time>2013-08-10T09:42:02Z</time>
      </trkpt>
      <trkpt lat="43.59382" lon="3.08375">
        <ele>186.8000031</ele>
        <time>2013-08-10T09:42:03Z</time>
      </trkpt>
      <trkpt lat="43.59381" lon="3.08375">
        <ele>186.8000031</ele>
        <time>2013-08-10T09:42:05Z</time>
      </trkpt>
      <trkpt lat="43.59381" lon="3.08375">
        <ele>186.8000031</ele>
        <time>2013-08-10T09:42:07Z</time>
      </trkpt>
    </trkseg>
  </trk>
</gpx>